# Wetter Temperatur Luftdruck Luftfeuchtigkeit Sichtweite Windgeschwindigkeit Windrichtung Zeit
1 Rain 15 1019 96 0 2.43 338 05:22 11.07.2020
2 Rain 15 1019 96 0 2.43 338 04:55 11.07.2020
3 Rain 15 1019 96 0 1.71 326 04:32 11.07.2020
4 Rain 15 1019 96 0 0.77 295 03:24 11.07.2020
5 Rain 16 1019 96 0 2.41 282 02:40 11.07.2020
6 Rain 16 1018 95 0 2.12 266 01:49 11.07.2020
7 Rain 17 1018 95 0 1.31 232 01:18 11.07.2020
8 Rain 17 1019 95 0 1.31 232 00:41 11.07.2020
9 Rain 18 1019 95 0 1.37 216 00:22 11.07.2020
10 Rain 18 1018 95 0 1.37 216 23:58 10.07.2020
11 Rain 18 1018 95 0 1.37 216 23:40 10.07.2020
12 Rain 18 1018 95 0 0.14 154 23:20 10.07.2020
13 Rain 18 1018 95 0 0.14 154 22:46 10.07.2020
14 Rain 18 1018 94 0 0.41 194 22:22 10.07.2020
15 Rain 18 1018 94 0 0.41 194 21:59 10.07.2020
16 Rain 19 1017 93 0 0.53 285 21:38 10.07.2020
17 Rain 19 1017 93 0 1.83 286 21:19 10.07.2020
18 Rain 19 1018 92 0 1.83 286 20:43 10.07.2020
19 Rain 19 1017 90 0 3.33 304 20:24 10.07.2020
20 Rain 20 1016 85 0 3.33 304 19:59 10.07.2020
21 Rain 21 1016 79 0 0.89 222 19:41 10.07.2020
22 Rain 23 958 65 0 4.2 312 19:21 10.07.2020
23 Clouds 25 1014 53 10000 6.2 220 18:55 10.07.2020
24 Rain 27 1014 47 10000 5.7 220 18:37 10.07.2020
25 Rain 27 1014 47 10000 5.7 220 18:18 10.07.2020
26 Rain 28 1013 44 10000 6.7 260 17:42 10.07.2020
27 Rain 29 1013 45 10000 6.7 250 17:23 10.07.2020
28 Rain 29 1013 39 10000 8.7 240 16:57 10.07.2020
29 Rain 30 1014 42 10000 8.7 240 16:39 10.07.2020
30 Rain 30 1014 42 10000 8.7 240 16:18 10.07.2020
31 Rain 30 1014 45 10000 5.7 240 15:44 10.07.2020
32 Clouds 29 1013 45 0 0.45 219 15:21 10.07.2020
33 Clouds 30 1014 39 10000 5.7 260 14:54 10.07.2020
34 Clear 30 1014 42 10000 5.1 260 14:36 10.07.2020
35 Clear 29 1014 42 10000 5.1 260 14:18 10.07.2020
36 Clear 29 1014 42 10000 6.2 250 13:55 10.07.2020
37 Clear 29 1014 42 10000 6.2 250 13:36 10.07.2020
38 Clear 30 1014 39 10000 6.2 260 13:18 10.07.2020
39 Clear 29 1014 37 10000 5.7 280 12:42 10.07.2020
40 Clear 29 1014 37 10000 5.7 270 12:24 10.07.2020
41 Clear 29 1009 38 0 2.68 184 11:58 10.07.2020
42 Clear 29 1014 44 10000 3.6 250 11:38 10.07.2020
43 Clear 29 1014 42 10000 4.1 220 11:18 10.07.2020
44 Clear 29 956 28 0 4.41 280 10:54 10.07.2020
45 Clear 28 956 28 0 4.41 280 10:36 10.07.2020
46 Clear 28 1014 42 0 0.45 192 10:18 10.07.2020
47 Clear 25 1014 56 0 3.64 260 09:37 10.07.2020
48 Clear 22 1014 68 0 3.11 236 09:19 10.07.2020
49 Clear 22 1014 71 0 0.45 181 08:56 10.07.2020
50 Clear 21 1014 76 0 3.11 236 08:38 10.07.2020
51 Clouds 20 1014 79 0 2.78 209 08:20 10.07.2020
52 Clouds 18 1015 84 0 2.78 203 07:42 10.07.2020
53 Clouds 18 1015 84 0 2.78 203 07:22 10.07.2020
54 Clouds 17 1015 84 0 2.78 203 06:49 10.07.2020
55 Clouds 16 1015 83 0 2.58 202 05:58 10.07.2020
56 Clear 16 1015 82 0 2.52 200 04:43 10.07.2020
57 Clear 17 1015 78 0 2.67 201 03:38 10.07.2020
58 Clear 17 1016 75 0 2.64 206 02:52 10.07.2020
59 Clear 17 1016 72 0 2.12 204 01:50 10.07.2020
60 Clear 18 1016 68 0 1.91 205 00:49 10.07.2020
61 Clear 18 1016 65 0 1.88 203 00:21 10.07.2020
62 Clear 19 1016 64 0 1.88 203 23:55 09.07.2020
63 Clear 19 1016 62 0 1.65 198 23:36 09.07.2020
64 Clear 19 1016 62 0 1.65 198 23:18 09.07.2020
65 Clear 20 1012 64 0 0.45 190 22:55 09.07.2020
66 Clear 21 1016 61 0 1.65 198 22:37 09.07.2020
67 Clear 22 1016 61 0 1.2 204 22:18 09.07.2020
68 Clear 24 958 36 0 1.29 187 21:39 09.07.2020
69 Clear 24 1016 51 0 0.72 230 21:19 09.07.2020
70 Clear 24 1016 51 0 0.72 230 21:19 09.07.2020
71 Clear 25 958 40 0 0.87 190 20:59 09.07.2020
72 Clouds 26 1015 45 0 0.99 258 20:39 09.07.2020
73 Clouds 26 1016 45 0 0.99 258 20:21 09.07.2020
74 Clouds 27 1016 41 0 0.99 258 19:43 09.07.2020
75 Clouds 28 1016 40 0 0.45 175 19:22 09.07.2020
76 Clouds 28 1016 40 0 0.45 175 19:22 09.07.2020
77 Clouds 26 1016 40 0 1.95 272 18:57 09.07.2020
78 Clouds 28 1016 40 0 0.45 205 18:39 09.07.2020
79 Clouds 28 1016 34 10000 6.2 250 18:19 09.07.2020
80 Clouds 28 1016 42 0 2.44 276 17:43 09.07.2020
81 Clouds 28 1016 40 0 0.45 199 17:23 09.07.2020
82 Clouds 28 1016 45 0 1.96 280 16:58 09.07.2020
83 Clouds 27 1017 45 0 0.45 180 16:38 09.07.2020
84 Clouds 27 1017 44 0 1.1 278 16:19 09.07.2020
85 Clouds 27 1017 48 0 1.1 278 15:58 09.07.2020
86 Clouds 26 1018 38 10000 4.1 240 15:38 09.07.2020
87 Clouds 26 1018 38 10000 4.1 240 15:19 09.07.2020
88 Clouds 26 1018 38 10000 4.6 240 14:58 09.07.2020
89 Clouds 27 1018 47 0 0.45 188 14:39 09.07.2020
90 Clouds 27 1018 48 0 0.67 298 14:20 09.07.2020
91 Clouds 26 1018 46 0 0.45 180 13:56 09.07.2020
92 Clouds 27 1018 48 0 0.45 196 13:56 09.07.2020
93 Clouds 26 961 39 0 2.79 274 13:38 09.07.2020
94 Clouds 26 961 42 0 2.43 266 13:19 09.07.2020
95 Clouds 24 961 49 0 1.94 255 12:42 09.07.2020
96 Clouds 24 1019 49 0 1.94 255 12:23 09.07.2020
97 Clouds 24 1019 46 0 0.45 327 11:58 09.07.2020
98 Clouds 24 1019 49 0 0.45 346 11:40 09.07.2020
99 Clouds 24 961 45 0 1.4 255 11:21 09.07.2020
100 Clouds 24 1019 52 0 1.4 255 10:57 09.07.2020
101 Clouds 24 962 44 0 1.49 259 10:38 09.07.2020
102 Clouds 23 962 44 0 1.49 259 10:20 09.07.2020
103 Clouds 21 1020 58 0 0.45 205 09:43 09.07.2020
104 Clear 19 1019 60 10000 4.1 220 09:23 09.07.2020
105 Clear 19 1019 69 0 2 247 08:54 09.07.2020
106 Clouds 18 1019 72 0 2.09 237 08:36 09.07.2020
107 Clouds 17 1058 83 0 0.45 285 08:18 09.07.2020
108 Clouds 16 962 67 0 2.09 237 07:42 09.07.2020
109 Clouds 16 962 67 0 2.09 227 07:21 09.07.2020
110 Clouds 15 962 73 0 2.09 227 06:40 09.07.2020
111 Clouds 14 962 73 0 2.26 215 06:19 09.07.2020
112 Clouds 15 1018 81 0 1.97 219 04:29 09.07.2020
113 Clouds 16 1019 79 0 1.74 208 03:24 09.07.2020
114 Clouds 16 1019 76 0 1.66 219 02:18 09.07.2020
115 Clouds 17 1019 74 0 1.42 230 01:23 09.07.2020
116 Clouds 17 962 62 0 1.42 230 00:46 09.07.2020
117 Clouds 18 962 61 0 1.01 245 00:23 09.07.2020
118 Clouds 18 1019 69 0 1.01 245 23:46 08.07.2020
119 Clouds 19 1019 68 0 1.3 298 23:27 08.07.2020
120 Clouds 19 1019 67 0 1.3 298 22:57 08.07.2020
121 Clouds 19 962 55 0 1.3 298 22:38 08.07.2020
122 Clouds 20 1019 64 0 2.6 308 22:20 08.07.2020
123 Clouds 20 961 53 0 2.6 308 21:58 08.07.2020
124 Clouds 20 1019 60 10000 3.6 340 21:38 08.07.2020
125 Clouds 21 961 50 0 2.39 306 21:20 08.07.2020
126 Clouds 22 960 43 0 2.39 306 20:54 08.07.2020
127 Clouds 23 1018 54 0 2.87 301 20:36 08.07.2020
128 Clouds 23 1018 53 0 2.87 301 20:18 08.07.2020
129 Clouds 23 1018 50 0 2.87 301 19:42 08.07.2020
130 Clouds 24 1017 49 0 0.45 232 19:22 08.07.2020
131 Clouds 24 960 40 0 3.18 287 18:57 08.07.2020
132 Clouds 24 1017 40 10000 4.6 260 18:39 08.07.2020
133 Clouds 24 1017 40 10000 4.6 260 18:19 08.07.2020
134 Clouds 24 1017 40 10000 4.6 260 18:19 08.07.2020
135 Clouds 25 1018 38 10000 6.2 270 17:55 08.07.2020
136 Clouds 25 1018 38 10000 6.2 270 17:37 08.07.2020
137 Clouds 25 1017 41 10000 5.7 260 17:19 08.07.2020
138 Clouds 25 1017 38 10000 5.7 270 16:40 08.07.2020
139 Clouds 25 1017 40 10000 5.7 280 16:22 08.07.2020
140 Clouds 25 1017 40 10000 5.7 260 15:59 08.07.2020
141 Clouds 25 1017 40 10000 5.7 260 15:41 08.07.2020
142 Clouds 25 1017 42 0 0.45 276 15:20 08.07.2020
143 Clouds 25 1017 38 10000 5.7 250 14:58 08.07.2020
144 Clear 25 1017 38 10000 5.7 250 14:40 08.07.2020
145 Clear 24 1018 38 10000 5.1 250 14:19 08.07.2020
146 Clear 25 1017 42 0 0.89 230 13:44 08.07.2020
147 Clear 24 1018 39 0 0.45 315 13:23 08.07.2020
148 Clear 23 1018 46 0 0.45 242 12:46 08.07.2020
149 Clouds 22 1015 45 0 1.79 340 12:22 08.07.2020
150 Clouds 22 960 40 0 3.65 280 11:59 08.07.2020
151 Clouds 22 961 41 0 3.65 280 11:38 08.07.2020
152 Clouds 21 961 43 0 3.42 283 11:20 08.07.2020
153 Clouds 21 1018 50 0 0.45 271 10:54 08.07.2020
154 Clouds 21 1018 53 0 0.45 321 10:36 08.07.2020
155 Clouds 21 1018 53 0 0.45 321 10:36 08.07.2020
156 Clouds 20 1018 52 0 0.45 181 10:18 08.07.2020
157 Clouds 19 1019 55 10000 3.6 240 09:41 08.07.2020
158 Clouds 17 1019 63 10000 2.6 200 09:21 08.07.2020
159 Clouds 16 1019 77 0 2.95 257 08:43 08.07.2020
160 Clear 15 1018 81 0 2.57 236 08:24 08.07.2020
161 Clear 14 961 58 0 2.57 236 07:47 08.07.2020
162 Clear 13 1019 90 0 2.03 228 07:24 08.07.2020
163 Clear 12 1018 89 0 2.03 228 06:55 08.07.2020
164 Clear 10 1018 88 0 2.03 228 06:36 08.07.2020
165 Clear 10 1018 86 0 1.68 230 05:55 08.07.2020
166 Clear 10 1018 86 0 1.68 230 05:33 08.07.2020
167 Clear 10 1018 85 0 1.68 225 04:37 08.07.2020
168 Clear 10 1019 83 0 1.95 210 02:49 08.07.2020
169 Clear 11 1019 81 0 1.98 196 01:54 08.07.2020
170 Clear 12 1019 81 0 1.98 196 01:32 08.07.2020
171 Clear 13 1019 79 0 1.1 181 00:37 08.07.2020
172 Clear 13 1019 78 0 1.1 181 00:18 08.07.2020
173 Clear 14 962 61 0 1.1 181 23:41 07.07.2020
174 Clear 14 1019 73 0 1.15 157 23:20 07.07.2020
175 Clear 15 962 56 0 1.15 157 22:54 07.07.2020
176 Clear 15 962 56 0 1.15 157 22:36 07.07.2020
177 Clear 16 962 55 0 1.01 118 22:18 07.07.2020
178 Clear 17 961 47 0 0.44 98 21:41 07.07.2020
179 Clear 18 1019 56 0 0.88 60 21:22 07.07.2020
180 Clear 18 1019 53 0 0.88 60 20:59 07.07.2020
181 Clear 19 1019 53 0 0.88 60 20:41 07.07.2020
182 Clear 19 961 41 0 1.49 44 20:23 07.07.2020
183 Clear 20 1019 50 0 1.49 44 19:55 07.07.2020
184 Clear 20 1019 51 0 2.35 29 19:36 07.07.2020
185 Clear 20 1019 49 0 2.35 29 19:18 07.07.2020
186 Clear 20 1019 50 0 2.35 29 18:55 07.07.2020
187 Clear 21 1019 50 0 2.35 29 18:36 07.07.2020
188 Clear 21 1019 51 0 2.86 21 18:18 07.07.2020
189 Clear 21 1019 48 0 2.86 21 17:43 07.07.2020
190 Clear 21 1019 47 0 3.08 21 17:23 07.07.2020
191 Clear 21 1019 48 0 3.08 21 16:58 07.07.2020
192 Clear 21 1019 48 0 3.08 21 16:58 07.07.2020
193 Clear 21 1020 48 0 3.08 21 16:40 07.07.2020
194 Clear 21 1020 50 0 3.09 21 16:21 07.07.2020
195 Clear 21 1020 46 0 3.09 21 15:55 07.07.2020
196 Clear 21 1020 43 0 2.74 22 15:36 07.07.2020
197 Clear 21 1020 47 0 2.74 22 15:18 07.07.2020
198 Clear 21 1020 43 0 2.74 22 14:42 07.07.2020
199 Clear 20 1020 50 0 2.22 23 14:23 07.07.2020
200 Clear 20 1021 44 0 2.43 28 13:43 07.07.2020
201 Clear 20 1021 47 0 0.45 290 13:20 07.07.2020
202 Clear 20 1021 47 0 2.12 28 12:56 07.07.2020
203 Clear 19 1021 48 0 1.94 20 12:36 07.07.2020
204 Clear 19 1021 48 0 2.12 28 12:36 07.07.2020
205 Clear 19 1021 46 0 1.94 20 12:18 07.07.2020
206 Clear 18 964 44 0 1.94 20 11:43 07.07.2020
207 Clear 18 1021 53 0 1.2 26 11:22 07.07.2020
208 Clear 17 964 44 0 1.2 26 10:58 07.07.2020
209 Clear 17 1022 53 0 1.2 26 10:39 07.07.2020
210 Clear 17 1022 53 0 0.53 59 10:20 07.07.2020
211 Clear 15 965 47 0 0.53 59 09:42 07.07.2020
212 Clear 15 1022 67 0 0.24 330 09:21 07.07.2020
213 Clear 14 1022 73 0 0.24 330 08:57 07.07.2020
214 Clear 14 1022 75 0 0.24 330 08:39 07.07.2020
215 Clouds 13 1022 80 0 0.7 269 08:19 07.07.2020
216 Clouds 12 1023 86 0 0.7 269 07:38 07.07.2020
217 Clouds 11 1023 87 0 1.03 251 07:19 07.07.2020
218 Clouds 10 1023 87 0 1.03 251 06:45 07.07.2020
219 Clouds 10 1023 86 0 1.28 258 06:26 07.07.2020
220 Clouds 10 1022 85 0 1.28 258 05:43 07.07.2020
221 Clouds 9 1022 82 0 1.65 273 04:53 07.07.2020
222 Clouds 10 1022 78 0 1.88 274 03:49 07.07.2020
223 Clouds 10 1022 76 0 2.11 268 03:30 07.07.2020
224 Clouds 10 1022 76 0 2.11 268 03:30 07.07.2020
225 Clouds 11 1022 70 0 2.88 260 01:55 07.07.2020
226 Clouds 12 1022 67 0 2.96 263 01:18 07.07.2020
227 Clouds 13 1022 63 0 2.96 263 00:41 07.07.2020
228 Clouds 13 1022 62 0 2.98 271 00:21 07.07.2020
229 Clouds 14 1022 60 0 2.98 271 23:44 06.07.2020
230 Clouds 14 1018 57 0 0.89 236 23:25 06.07.2020
231 Clouds 14 1065 62 0 3.33 287 22:59 06.07.2020
232 Clouds 14 1065 60 0 0.89 111 22:39 06.07.2020
233 Clouds 15 1021 55 0 3.19 293 22:19 06.07.2020
234 Clouds 15 1021 55 0 3.19 293 22:19 06.07.2020
235 Clouds 15 1021 54 0 0.45 342 21:57 06.07.2020
236 Clouds 16 1020 54 0 3.65 308 21:37 06.07.2020
237 Clouds 16 1020 53 0 0.45 350 21:19 06.07.2020
238 Clouds 16 1020 53 0 0.45 338 20:55 06.07.2020
239 Clouds 17 1019 55 0 0.45 190 20:36 06.07.2020
240 Clouds 18 961 37 0 4.02 313 20:18 06.07.2020
241 Clouds 18 1019 52 0 0.89 227 19:54 06.07.2020
242 Clouds 19 960 36 0 4.25 298 19:36 06.07.2020
243 Clouds 20 960 36 0 4.25 298 19:18 06.07.2020
244 Clouds 20 1017 63 10000 3.6 270 18:41 06.07.2020
245 Clouds 18 1017 63 10000 3.6 270 18:23 06.07.2020
246 Clouds 20 1017 59 10000 5.1 240 17:58 06.07.2020
247 Clouds 20 1017 59 10000 5.1 240 17:40 06.07.2020
248 Clouds 19 1017 63 10000 5.7 240 17:20 06.07.2020
249 Rain 17 1017 63 10000 4.6 240 16:43 06.07.2020
250 Clouds 19 1017 63 10000 3.6 250 16:25 06.07.2020
251 Clouds 18 1062 52 0 2.68 34 15:59 06.07.2020
252 Clouds 16 1017 59 10000 4.1 260 15:41 06.07.2020
253 Clouds 16 1017 64 0 0.45 227 15:23 06.07.2020
254 Clouds 16 1017 61 0 2.77 239 14:55 06.07.2020
255 Clouds 16 1059 56 0 4.47 75 14:37 06.07.2020
256 Rain 16 1059 49 0 4.02 116 14:19 06.07.2020
257 Clouds 17 1017 59 10000 6.2 300 13:46 06.07.2020
258 Rain 17 1059 43 0 2.68 62 13:27 06.07.2020
259 Rain 18 1060 40 0 3.13 0 12:57 06.07.2020
260 Rain 18 1059 45 0 2.68 27 12:39 06.07.2020
261 Rain 18 1059 42 0 2.68 37 12:18 06.07.2020
262 Rain 18 1059 43 0 4.02 61 11:57 06.07.2020
263 Rain 18 959 59 0 3.76 294 11:37 06.07.2020
264 Rain 19 1016 79 0 0.45 314 11:19 06.07.2020
265 Rain 20 1016 74 0 0.45 117 10:42 06.07.2020
266 Rain 21 1015 69 0 0.89 148 10:22 06.07.2020
267 Rain 20 958 56 0 6.63 309 09:58 06.07.2020
268 Clouds 22 1015 60 10000 6.7 260 09:39 06.07.2020
269 Clouds 22 1015 60 10000 6.7 260 09:21 06.07.2020
270 Rain 22 1015 60 10000 5.7 250 08:55 06.07.2020
271 Clouds 21 1014 73 0 0.45 322 08:36 06.07.2020
272 Clouds 21 1014 74 0 0.45 186 08:18 06.07.2020
273 Clouds 20 1014 78 0 0.45 201 07:43 06.07.2020
274 Rain 20 1014 81 0 0.45 195 07:23 06.07.2020
275 Clear 18 1015 82 0 3.16 248 06:39 06.07.2020
276 Clear 18 1015 82 0 3.16 248 06:21 06.07.2020
277 Clear 17 1015 81 0 3.16 248 05:38 06.07.2020
278 Clear 17 1015 83 0 3.29 246 04:54 06.07.2020
279 Clear 18 1016 80 0 3.44 240 03:42 06.07.2020
280 Clear 19 1016 79 0 3.52 251 02:23 06.07.2020
281 Clouds 19 1016 78 0 3.13 256 01:39 06.07.2020
282 Clouds 20 1016 80 0 3.13 256 00:39 06.07.2020
283 Clouds 21 1016 79 0 2.79 249 00:20 06.07.2020
284 Clouds 20 1016 76 0 2.79 249 23:44 05.07.2020
285 Clouds 21 1016 74 0 2.65 260 23:25 05.07.2020
286 Clouds 21 1016 72 0 2.65 260 22:59 05.07.2020
287 Clouds 22 959 51 0 2.65 260 22:40 05.07.2020
288 Clouds 22 1016 69 0 2.85 271 22:20 05.07.2020
289 Clouds 23 959 50 0 2.85 271 21:58 05.07.2020
290 Clouds 23 1016 66 0 2.65 276 21:40 05.07.2020
291 Clouds 23 1016 65 0 2.76 287 21:18 05.07.2020
292 Clouds 23 1056 53 0 2.24 13 20:58 05.07.2020
293 Clouds 24 1056 53 0 2.24 292 20:39 05.07.2020
294 Rain 25 1016 60 0 2.9 290 20:20 05.07.2020
295 Rain 26 1016 61 0 2.9 290 20:20 05.07.2020
296 Rain 25 1017 53 10000 5.1 260 19:55 05.07.2020
297 Clouds 26 1017 50 10000 5.1 250 19:36 05.07.2020
298 Rain 27 1016 57 0 3.49 286 19:18 05.07.2020
299 Clouds 26 1017 50 10000 5.7 240 18:41 05.07.2020
300 Clear 28 1017 55 0 0.45 9 18:21 05.07.2020
301 Clear 28 1017 57 0 4.12 282 17:56 05.07.2020
302 Clouds 27 1017 50 10000 5.7 270 17:38 05.07.2020
303 Clear 28 1017 56 0 4.23 282 17:19 05.07.2020
304 Clear 27 1017 55 0 0.45 348 16:44 05.07.2020
305 Clear 27 1017 56 0 0.45 267 16:25 05.07.2020
306 Clear 27 1018 53 0 1.34 223 15:58 05.07.2020
307 Clear 27 1018 54 0 0.89 182 15:37 05.07.2020
308 Clear 27 1018 56 0 0.89 247 15:19 05.07.2020
309 Clear 27 1018 52 0 0.89 280 14:42 05.07.2020
310 Rain 27 1019 50 0 0.89 286 14:23 05.07.2020
311 Rain 26 1019 52 0 0.45 336 13:54 05.07.2020
312 Rain 26 1019 51 0 0.45 311 13:36 05.07.2020
313 Clouds 26 961 40 0 4.22 269 13:18 05.07.2020
314 Clouds 24 1020 50 10000 6.2 250 12:38 05.07.2020
315 Clouds 23 1020 50 10000 6.2 250 12:20 05.07.2020
316 Clouds 23 962 43 0 3.86 265 11:55 05.07.2020
317 Clouds 23 1020 57 0 0.45 202 11:36 05.07.2020
318 Clouds 24 1018 57 0 4.28 264 11:18 05.07.2020
319 Clouds 22 632 95 0 4.28 264 10:42 05.07.2020
320 Clouds 22 1020 60 0 0.89 195 10:20 05.07.2020
321 Clouds 22 1020 63 0 0.45 273 09:59 05.07.2020
322 Clouds 22 1020 63 0 0.45 263 09:41 05.07.2020
323 Clear 20 1020 60 10000 5.1 220 09:20 05.07.2020
324 Clear 20 1020 72 0 0.45 198 08:53 05.07.2020
325 Clear 19 1020 75 0 0.45 205 08:34 05.07.2020
326 Clouds 17 1020 82 0 3.69 242 07:51 05.07.2020
327 Clouds 17 1020 84 0 3.12 233 07:30 05.07.2020
328 Clouds 16 1020 85 0 3.12 233 06:54 05.07.2020
329 Clear 14 1020 84 0 2.72 231 06:20 05.07.2020
330 Clear 15 1020 82 0 2.99 234 03:54 05.07.2020
331 Clear 16 1021 79 0 3 240 02:57 05.07.2020
332 Clouds 16 1021 79 0 3.17 245 02:33 05.07.2020
333 Clouds 16 1020 77 0 3.11 244 01:43 05.07.2020
334 Clouds 17 1020 77 0 3.15 238 01:20 05.07.2020
335 Clouds 17 1020 76 0 3.15 238 00:45 05.07.2020
336 Clouds 18 1020 75 0 3 229 00:26 05.07.2020
337 Clouds 18 1020 74 0 3 229 23:55 04.07.2020
338 Clouds 18 1020 73 0 2.64 224 23:32 04.07.2020
339 Clouds 19 1020 71 0 2.64 224 22:59 04.07.2020
340 Clouds 19 1020 70 0 2.64 224 22:40 04.07.2020
341 Clouds 20 1020 68 0 1.89 242 22:22 04.07.2020
342 Clouds 20 1020 67 0 1.89 242 21:58 04.07.2020
343 Clouds 20 1059 55 0 1.79 11 21:40 04.07.2020
344 Clouds 21 1020 63 0 2.04 265 21:21 04.07.2020
345 Clouds 22 1018 56 0 1.79 291 20:42 04.07.2020
346 Clouds 23 1019 60 0 2.13 272 20:21 04.07.2020
347 Clouds 23 1019 59 0 2.13 272 20:21 04.07.2020
348 Clouds 23 1019 58 0 2.13 272 19:57 04.07.2020
349 Clouds 23 1019 57 0 2.13 272 19:39 04.07.2020
350 Clouds 24 1019 56 0 2.93 281 19:20 04.07.2020
351 Clouds 24 1019 58 0 2.93 281 18:44 04.07.2020
352 Clouds 24 1019 55 0 3.04 284 18:23 04.07.2020
353 Clouds 24 1019 54 0 3.04 284 17:55 04.07.2020
354 Clouds 24 1019 55 0 3.04 284 17:37 04.07.2020
355 Clouds 24 1019 54 0 2.55 289 17:18 04.07.2020
356 Clouds 24 1020 53 10000 3.1 250 16:55 04.07.2020
357 Clouds 24 1020 55 0 2.41 297 16:36 04.07.2020
358 Clouds 24 1020 55 0 2.41 297 16:18 04.07.2020
359 Clouds 24 1020 54 0 2.41 297 15:41 04.07.2020
360 Clouds 24 1020 55 0 1.85 303 15:23 04.07.2020
361 Clouds 24 1020 53 0 1.85 303 14:57 04.07.2020
362 Clouds 24 1020 54 0 0.45 239 14:37 04.07.2020
363 Clouds 24 1021 55 0 1.76 326 14:18 04.07.2020
364 Clouds 23 1021 56 0 1.76 326 13:42 04.07.2020
365 Clouds 23 963 48 0 1.48 329 13:20 04.07.2020
366 Clouds 22 963 43 0 1.48 329 12:59 04.07.2020
367 Clouds 22 964 47 0 1.48 329 12:40 04.07.2020
368 Clouds 22 964 51 0 1.04 334 12:19 04.07.2020
369 Clouds 22 1021 57 0 1.04 334 11:45 04.07.2020
370 Clouds 21 964 51 0 0.88 327 11:24 04.07.2020
371 Clouds 21 1021 57 0 0.88 327 10:57 04.07.2020
372 Clouds 21 1021 63 0 0.88 327 10:38 04.07.2020
373 Clouds 20 964 55 0 0.79 282 10:20 04.07.2020
374 Clouds 19 1022 73 0 0.79 282 09:55 04.07.2020
375 Clouds 19 1022 80 0 0.77 283 09:36 04.07.2020
376 Clouds 18 964 62 0 1.1 243 09:18 04.07.2020
377 Clouds 17 964 66 0 1.1 243 08:45 04.07.2020
378 Clear 15 1022 95 0 0.45 202 08:26 04.07.2020
379 Clear 15 1021 95 0 1.37 248 07:44 04.07.2020
380 Clear 14 1021 95 0 1.53 238 07:26 04.07.2020
381 Clear 13 1021 94 0 1.53 238 06:51 04.07.2020
382 Clear 13 964 80 0 1.68 225 06:20 04.07.2020
383 Clear 12 964 82 0 1.61 221 05:34 04.07.2020
384 Clear 13 1021 92 0 1.54 221 04:31 04.07.2020
385 Clear 14 1021 90 0 1.35 208 02:49 04.07.2020
386 Clear 14 964 78 0 0.55 232 02:19 04.07.2020
387 Clear 14 964 76 0 0.37 265 01:26 04.07.2020
388 Clear 15 964 76 0 0.37 265 00:40 04.07.2020
389 Clear 15 1021 85 0 0.51 289 00:22 04.07.2020
390 Clear 15 1021 82 0 0.51 289 23:40 03.07.2020
391 Clear 16 1021 80 0 0.32 293 23:19 03.07.2020
392 Clear 16 1021 79 0 0.32 293 22:55 03.07.2020
393 Clouds 17 963 68 0 0.38 7 22:37 03.07.2020
394 Clouds 17 1021 77 0 0.38 7 22:19 03.07.2020
395 Clouds 18 1020 74 0 0.9 351 21:41 03.07.2020
396 Clouds 19 1020 73 0 0.79 337 21:20 03.07.2020
397 Clouds 19 962 55 0 0.79 337 20:55 03.07.2020
398 Clouds 19 962 55 0 0.79 337 20:55 03.07.2020
399 Clouds 20 1020 67 0 1.16 339 20:37 03.07.2020
400 Clouds 20 962 53 0 1.16 339 20:19 03.07.2020
401 Clouds 20 962 52 0 1.16 339 19:41 03.07.2020
402 Rain 21 1019 66 0 1.79 342 19:20 03.07.2020
403 Rain 20 1019 67 0 0.45 202 18:57 03.07.2020
404 Rain 21 962 47 0 2.43 332 18:39 03.07.2020
405 Rain 21 962 49 0 2.43 332 18:20 03.07.2020
406 Rain 21 1020 64 0 2.43 332 17:43 03.07.2020
407 Rain 21 1020 64 0 2.4 327 17:22 03.07.2020
408 Rain 21 1020 65 0 0.45 265 16:46 03.07.2020
409 Rain 21 1020 65 0 2.23 319 16:28 03.07.2020
410 Rain 21 1020 64 0 2.23 319 15:57 03.07.2020
411 Rain 22 962 48 0 2.23 319 15:38 03.07.2020
412 Clouds 21 1020 55 10000 3.1 220 15:20 03.07.2020
413 Rain 21 1020 65 0 2.26 315 14:41 03.07.2020
414 Rain 21 1020 67 0 2.76 304 14:22 03.07.2020
415 Rain 20 1020 70 0 0.45 282 13:59 03.07.2020
416 Rain 20 963 55 0 2.76 304 13:40 03.07.2020
417 Rain 19 1020 69 0 2.65 302 13:22 03.07.2020
418 Rain 19 1020 72 0 2.65 302 12:40 03.07.2020
419 Rain 18 963 58 0 2.32 298 12:22 03.07.2020
420 Rain 18 1020 79 0 2.32 298 11:44 03.07.2020
421 Rain 18 963 62 0 2.24 291 11:25 03.07.2020
422 Rain 17 1020 91 0 2.24 291 10:59 03.07.2020
423 Clouds 17 963 68 0 1.84 287 10:41 03.07.2020
424 Clouds 17 1020 97 0 1.84 287 10:21 03.07.2020
425 Clouds 16 963 66 0 1.84 287 10:21 03.07.2020
426 Clouds 17 1020 97 0 1.84 287 09:59 03.07.2020
427 Clouds 16 1020 97 0 1.82 295 09:39 03.07.2020
428 Clouds 16 1020 97 0 1.9 282 09:20 03.07.2020
429 Clouds 15 962 76 0 1.9 282 08:56 03.07.2020
430 Clouds 15 962 78 0 1.9 282 08:37 03.07.2020
431 Clouds 15 962 81 0 1.77 255 08:18 03.07.2020
432 Clouds 15 1019 97 0 1.77 255 07:43 03.07.2020
433 Rain 15 1019 97 0 1.94 247 07:21 03.07.2020
434 Rain 15 1018 97 0 1.94 247 06:30 03.07.2020
435 Rain 15 1018 97 0 2.26 259 05:43 03.07.2020
436 Rain 15 1017 96 0 2.3 268 03:59 03.07.2020
437 Clouds 15 1017 96 0 2.55 271 02:56 03.07.2020
438 Rain 16 1017 96 0 2.49 278 02:31 03.07.2020
439 Clouds 16 1017 96 0 2.72 265 01:41 03.07.2020
440 Rain 16 1017 96 0 2.94 282 01:20 03.07.2020
441 Rain 16 1017 95 0 2.94 282 00:41 03.07.2020
442 Rain 16 1017 95 0 2.94 282 00:41 03.07.2020
443 Rain 17 1016 95 0 4.05 298 23:59 02.07.2020
444 Rain 17 1016 95 0 3.67 305 23:39 02.07.2020
445 Rain 17 959 87 0 3.67 305 23:19 02.07.2020
446 Rain 17 1016 95 0 3.67 305 22:56 02.07.2020
447 Rain 17 1016 95 0 2.42 297 22:38 02.07.2020
448 Rain 17 1016 95 0 2.42 297 22:20 02.07.2020
449 Rain 17 1016 94 0 2.42 297 21:54 02.07.2020
450 Rain 17 1015 94 0 2.8 281 21:36 02.07.2020
451 Rain 17 1015 94 0 1.84 292 21:18 02.07.2020
452 Rain 18 1015 93 0 2.8 281 20:42 02.07.2020
453 Rain 19 1015 92 0 2.22 279 20:20 02.07.2020
454 Rain 19 1014 91 0 2.22 279 19:56 02.07.2020
455 Rain 19 957 76 0 2.22 279 19:38 02.07.2020
456 Rain 20 1014 86 0 0.45 209 19:20 02.07.2020
457 Rain 22 1014 77 0 0.45 171 18:57 02.07.2020
458 Rain 22 1014 75 0 2.34 295 18:38 02.07.2020
459 Rain 22 1014 74 0 2.77 306 18:20 02.07.2020
460 Rain 23 956 58 0 2.77 306 17:39 02.07.2020
461 Rain 23 956 58 0 3.49 305 17:20 02.07.2020
462 Rain 23 956 60 0 3.49 305 16:56 02.07.2020
463 Rain 23 1014 73 0 0.45 132 16:38 02.07.2020
464 Rain 24 1014 72 0 0.45 179 16:19 02.07.2020
465 Rain 24 1013 71 0 0.45 123 15:55 02.07.2020
466 Rain 24 1013 70 0 3.74 298 15:36 02.07.2020
467 Rain 24 1013 70 0 0.45 202 15:36 02.07.2020
468 Rain 24 1014 69 0 0.45 247 15:18 02.07.2020
469 Rain 23 1014 70 0 0.45 311 14:43 02.07.2020
470 Rain 24 1014 69 0 0.45 165 14:20 02.07.2020
471 Clouds 24 1013 68 0 3.61 287 13:56 02.07.2020
472 Clouds 24 1014 70 0 0.45 237 13:36 02.07.2020
473 Rain 24 1014 68 0 0.45 331 13:18 02.07.2020
474 Rain 24 1014 65 0 0.45 310 12:41 02.07.2020
475 Rain 23 957 56 0 3.12 269 12:22 02.07.2020
476 Rain 23 957 57 0 3.12 269 11:46 02.07.2020
477 Rain 22 1014 74 0 2.95 268 11:27 02.07.2020
478 Rain 21 1014 78 0 2.95 268 10:59 02.07.2020
479 Rain 21 1014 83 0 2.95 268 10:41 02.07.2020
480 Clouds 20 1014 90 0 2.75 259 10:23 02.07.2020
481 Clouds 19 957 71 0 2.75 259 09:44 02.07.2020
482 Clouds 19 1014 91 0 2.86 261 09:22 02.07.2020
483 Clouds 18 1014 91 0 2.86 261 08:59 02.07.2020
484 Clouds 18 1014 91 0 2.86 261 08:40 02.07.2020
485 Rain 18 1014 91 0 2.77 259 08:20 02.07.2020
486 Rain 17 1014 91 0 2.77 259 07:42 02.07.2020
487 Rain 18 1014 90 0 2.79 258 07:22 02.07.2020
488 Rain 17 1014 90 0 2.79 258 06:47 02.07.2020
489 Rain 17 957 77 0 3.7 263 06:27 02.07.2020
490 Rain 18 957 70 0 3.7 263 05:49 02.07.2020
491 Rain 18 1014 89 0 3.13 259 04:58 02.07.2020
492 Clear 17 1013 89 0 3.24 249 03:34 02.07.2020
493 Rain 17 956 72 0 3.03 227 01:51 02.07.2020
494 Rain 18 956 76 0 3.61 216 00:45 02.07.2020
495 Rain 18 1012 84 0 4.61 207 00:21 02.07.2020
496 Rain 18 1012 85 0 0.45 231 23:45 01.07.2020
497 Rain 18 1012 85 0 3.57 212 23:26 01.07.2020
498 Rain 18 1012 87 0 0.45 178 22:55 01.07.2020
499 Rain 18 1012 86 0 3.57 212 22:37 01.07.2020
500 Clouds 18 1013 86 0 0.45 198 22:19 01.07.2020
501 Clouds 18 1012 87 0 0.45 192 21:58 01.07.2020
502 Clouds 19 1012 86 0 0.96 187 21:39 01.07.2020
503 Rain 18 1012 84 0 1.59 169 21:20 01.07.2020
504 Rain 19 1012 80 0 1.59 169 20:54 01.07.2020
505 Rain 20 1011 76 0 1.59 169 20:36 01.07.2020
506 Rain 20 1011 70 0 0.58 223 20:18 01.07.2020
507 Rain 22 1012 75 0 0.45 315 19:42 01.07.2020
508 Rain 22 1011 76 0 0.45 165 19:23 01.07.2020
509 Rain 24 1011 78 0 0.89 185 18:58 01.07.2020
510 Rain 28 953 46 0 2.45 279 18:40 01.07.2020
511 Rain 28 1011 48 10000 1.5 170 18:21 01.07.2020
512 Rain 26 1011 64 0 0.45 191 17:55 01.07.2020
513 Clouds 27 1011 56 0 2.36 289 17:37 01.07.2020
514 Clouds 28 1011 55 0 2.36 289 17:18 01.07.2020
515 Clouds 28 1011 54 0 2.36 289 16:42 01.07.2020
516 Clear 29 1011 53 0 2.61 288 16:24 01.07.2020
517 Clear 29 1011 51 0 0.45 329 15:43 01.07.2020
518 Clear 29 1011 51 0 0.45 314 15:25 01.07.2020
519 Clear 29 1011 52 0 0.45 309 14:59 01.07.2020
520 Clear 28 1011 54 0 0.45 287 14:41 01.07.2020
521 Clouds 28 1011 52 0 0.45 351 14:20 01.07.2020
522 Clouds 28 954 45 0 2.42 295 13:55 01.07.2020
523 Clouds 28 954 44 0 2.42 295 13:37 01.07.2020
524 Clouds 28 1012 52 0 0.45 218 13:37 01.07.2020
525 Clouds 27 955 44 0 2.03 290 13:18 01.07.2020
526 Clouds 27 1012 55 0 2.03 290 12:54 01.07.2020
527 Clouds 27 1013 52 0 1.67 279 12:36 01.07.2020
528 Clouds 27 1013 52 0 1.67 279 12:18 01.07.2020
529 Clouds 26 1013 58 0 0.45 208 11:40 01.07.2020
530 Clouds 25 1013 61 0 0.94 261 11:21 01.07.2020
531 Clouds 25 1013 58 0 0.94 261 10:57 01.07.2020
532 Clouds 25 1013 62 0 0.94 261 10:39 01.07.2020
533 Clear 24 1013 61 0 0.99 218 10:20 01.07.2020
534 Clear 20 1014 68 10000 1 0 09:39 01.07.2020
535 Clear 20 1014 68 10000 1 0 09:20 01.07.2020
536 Clear 19 1013 89 0 1.12 205 08:59 01.07.2020
537 Clear 19 1013 90 0 1.12 205 08:40 01.07.2020
538 Clear 18 1013 92 0 1.26 212 08:20 01.07.2020
539 Clear 17 1013 92 0 1.26 212 07:44 01.07.2020
540 Clear 16 1013 92 0 1.42 218 07:25 01.07.2020
541 Clear 16 1013 92 0 1.42 218 06:59 01.07.2020
542 Clear 16 1013 92 0 1.42 218 06:59 01.07.2020
543 Clear 15 1013 92 0 1.42 218 06:41 01.07.2020
544 Clear 14 1013 91 0 1.47 226 06:21 01.07.2020
545 Clear 14 1013 89 0 1.73 231 04:30 01.07.2020
546 Clear 14 1013 86 0 1.73 231 03:45 01.07.2020
547 Clear 14 1013 86 0 1.84 230 03:26 01.07.2020
548 Clear 16 1014 85 0 1.26 220 02:35 01.07.2020
549 Clear 16 1014 83 0 1.19 231 01:45 01.07.2020
550 Clear 17 1014 81 0 1.11 234 00:41 01.07.2020
551 Clear 17 1014 80 0 1.21 228 00:23 01.07.2020
552 Clear 18 1014 76 0 1.21 228 23:41 30.06.2020
553 Clear 18 1014 75 0 1.04 228 23:22 30.06.2020
554 Clear 18 1014 75 0 1.04 228 23:22 30.06.2020
555 Clear 18 1014 75 0 1.04 228 22:56 30.06.2020
556 Clear 19 1014 74 0 0.8 253 22:38 30.06.2020
557 Clear 19 1013 73 0 0.8 253 22:18 30.06.2020
558 Clear 19 1013 87 10000 1.5 200 21:40 30.06.2020
559 Clear 21 1013 60 0 0.77 280 21:19 30.06.2020
560 Clear 22 1013 53 10000 2.1 280 20:44 30.06.2020
561 Clear 23 1013 55 0 1.69 282 20:22 30.06.2020
562 Clear 24 1013 54 0 1.69 282 20:00 30.06.2020
563 Clear 24 1013 53 0 1.69 282 19:41 30.06.2020
564 Clear 24 1013 52 0 2.5 285 19:19 30.06.2020
565 Clear 24 1013 52 0 2.5 285 19:19 30.06.2020
566 Clear 24 1013 47 10000 4.6 280 18:43 30.06.2020
567 Clear 25 1013 51 0 0.45 263 18:21 30.06.2020
568 Clear 25 1013 48 0 0.45 325 17:59 30.06.2020
569 Clear 24 1013 46 10000 6.2 240 17:37 30.06.2020
570 Clear 25 1013 46 10000 6.2 240 17:19 30.06.2020
571 Clear 24 1014 49 10000 6.7 230 16:43 30.06.2020
572 Clear 25 1013 55 0 0.45 265 16:24 30.06.2020
573 Clear 25 1013 55 0 0.45 294 15:59 30.06.2020
574 Clear 25 1014 54 0 0.45 193 15:40 30.06.2020
575 Clear 25 1014 54 0 0.45 315 15:40 30.06.2020
576 Clear 25 1014 55 0 0.45 333 15:21 30.06.2020
577 Clear 24 1014 52 0 0.45 316 14:56 30.06.2020
578 Clear 24 1014 58 0 0.45 319 14:38 30.06.2020
579 Clear 24 1014 54 0 0.89 314 14:18 30.06.2020
580 Clear 24 1014 56 0 0.45 287 13:40 30.06.2020
581 Clear 24 1014 55 0 5 276 13:20 30.06.2020
582 Clear 23 1015 54 0 0.45 282 12:58 30.06.2020
583 Clear 22 1013 61 0 4.98 273 12:40 30.06.2020
584 Clear 22 1013 60 0 4.98 273 12:21 30.06.2020
585 Clear 22 1015 59 0 4.98 273 11:58 30.06.2020
586 Clear 22 1015 58 0 0.45 279 11:39 30.06.2020
587 Clear 21 1015 62 0 4.45 267 11:19 30.06.2020
588 Clear 21 1015 65 0 0.45 252 10:58 30.06.2020
589 Rain 26 1016 59 0 0.45 126 16:40 28.06.2020
590 Rain 26 1016 59 0 0.45 142 16:22 28.06.2020
591 Rain 26 1017 57 10000 5.1 280 15:56 28.06.2020
592 Rain 26 1016 58 0 0.45 280 15:38 28.06.2020
593 Rain 27 1017 57 0 0.45 295 15:18 28.06.2020
594 Rain 26 1017 58 0 0.45 88 14:46 28.06.2020
595 Clouds 26 1017 58 0 0.45 268 14:27 28.06.2020
596 Clouds 27 1017 57 0 0.45 317 13:58 28.06.2020
597 Clouds 27 1017 61 0 0.45 290 13:38 28.06.2020
598 Clouds 27 1017 57 0 0.45 260 13:19 28.06.2020
599 Clouds 27 1017 55 0 0.45 331 12:56 28.06.2020
600 Clouds 27 1017 59 0 4.26 291 12:37 28.06.2020
601 Clouds 26 1017 55 0 0.45 221 12:19 28.06.2020
602 Clouds 27 1017 47 0 0.45 214 11:56 28.06.2020
603 Clouds 26 1016 54 0 3.76 284 11:37 28.06.2020
604 Rain 27 1017 47 0 3.55 279 11:19 28.06.2020
605 Rain 25 1017 54 0 3.55 279 10:55 28.06.2020
606 Rain 25 1017 54 0 3.55 279 10:36 28.06.2020
607 Rain 25 1017 55 0 2.01 247 10:18 28.06.2020
608 Rain 23 1017 72 0 2.01 247 09:39 28.06.2020
609 Clouds 21 1017 78 0 1.68 194 09:20 28.06.2020
610 Clouds 20 1017 81 0 1.68 194 08:47 28.06.2020
611 Clouds 18 1017 85 0 1.52 193 08:25 28.06.2020
612 Clouds 18 1017 90 0 1.52 193 07:49 28.06.2020
613 Clouds 18 1017 90 0 1.59 212 07:29 28.06.2020
614 Clouds 17 1017 90 0 1.59 212 06:43 28.06.2020
615 Clouds 15 1017 90 0 1.89 215 06:24 28.06.2020
616 Clouds 15 1017 89 0 1.94 215 05:26 28.06.2020
617 Clear 16 1017 87 0 2.24 219 03:33 28.06.2020
618 Clear 16 1017 86 0 2.38 210 02:40 28.06.2020
619 Rain 16 1017 86 0 2.36 218 01:56 28.06.2020
620 Clouds 18 1017 85 0 2.35 210 01:27 28.06.2020
621 Clouds 17 1017 81 0 2.35 210 00:48 28.06.2020
622 Clouds 18 1017 80 0 2.24 202 00:27 28.06.2020
623 Clouds 19 1017 79 0 2.24 202 23:43 27.06.2020
624 Clouds 19 1017 78 0 2.06 188 23:24 27.06.2020
625 Clouds 19 1017 77 0 2.06 188 22:59 27.06.2020
626 Clouds 20 1017 76 0 2.06 188 22:40 27.06.2020
627 Rain 20 1017 75 0 1.25 186 22:22 27.06.2020
628 Rain 21 1017 74 0 1.25 186 21:56 27.06.2020
629 Rain 22 1055 49 0 0.89 28 21:38 27.06.2020
630 Rain 22 1017 69 0 0.89 194 21:19 27.06.2020
631 Clouds 22 1016 56 10000 3.1 270 20:44 27.06.2020
632 Rain 25 1015 56 0 3.77 244 20:19 27.06.2020
633 Rain 25 1015 56 0 3.77 244 20:19 27.06.2020
634 Rain 25 1015 50 10000 3.6 280 19:56 27.06.2020
635 Rain 27 1015 50 0 0.45 331 19:37 27.06.2020
636 Rain 27 1015 47 10000 3.6 280 19:18 27.06.2020
637 Rain 28 1015 44 10000 2.6 270 18:47 27.06.2020
638 Clouds 28 1014 45 0 3.24 306 18:28 27.06.2020
639 Clouds 28 1014 47 0 3.24 306 17:59 27.06.2020
640 Clouds 28 1014 47 0 3.24 306 17:59 27.06.2020
641 Clouds 28 1014 44 10000 3.6 290 17:39 27.06.2020
642 Clouds 28 1014 46 0 2.94 303 17:19 27.06.2020
643 Clouds 28 1015 49 0 2.94 303 16:56 27.06.2020
644 Clouds 28 1015 50 0 2.73 302 16:38 27.06.2020
645 Clouds 28 1015 51 0 2.73 302 16:18 27.06.2020
646 Clouds 28 1015 53 0 2.73 302 15:42 27.06.2020
647 Clouds 28 1015 50 0 2.54 306 15:22 27.06.2020
648 Clouds 28 1016 49 0 2.54 306 14:43 27.06.2020
649 Clear 27 1016 51 0 0.45 234 14:25 27.06.2020
650 Clear 27 1016 57 0 3.73 281 13:59 27.06.2020
651 Clear 26 1016 62 0 3.73 281 13:38 27.06.2020
652 Clear 25 1016 64 0 3.06 271 13:20 27.06.2020
653 Clear 25 1017 65 0 3.06 271 12:58 27.06.2020
654 Clear 25 1017 62 0 0.45 210 12:40 27.06.2020
655 Clear 25 1017 63 0 0.45 210 12:21 27.06.2020
656 Clear 26 1016 60 0 0.45 311 11:55 27.06.2020
657 Clouds 26 1016 58 0 0.45 216 11:37 27.06.2020
658 Clouds 25 1015 59 0 3.83 262 11:18 27.06.2020
659 Clear 25 1016 58 0 3.57 251 10:39 27.06.2020
660 Clear 25 1016 63 0 3.57 251 10:19 27.06.2020
661 Clear 24 1016 65 0 3.57 251 09:57 27.06.2020
662 Clear 23 1016 56 10000 2.1 220 09:37 27.06.2020
663 Clear 21 1016 56 10000 1.5 220 09:19 27.06.2020
664 Clear 20 1016 88 0 2.77 237 08:41 27.06.2020
665 Clouds 19 1016 91 0 2.47 229 08:22 27.06.2020
666 Clouds 18 1016 93 0 2.47 229 07:47 27.06.2020
667 Clouds 18 1016 93 0 2.32 215 07:25 27.06.2020
668 Clouds 17 1015 92 0 2.32 215 06:51 27.06.2020
669 Clouds 17 1015 92 0 2.45 206 06:33 27.06.2020
670 Clouds 17 1015 91 0 2.32 206 04:44 27.06.2020
671 Clouds 17 1015 91 0 2.03 216 04:18 27.06.2020
672 Clouds 17 1015 91 0 2.03 216 03:43 27.06.2020
673 Clouds 18 1015 91 0 1.87 241 02:42 27.06.2020
674 Clouds 18 1015 91 0 2.47 236 02:23 27.06.2020
675 Clouds 18 1016 89 0 0.45 189 01:28 27.06.2020
676 Clouds 18 1016 86 0 0.45 162 00:47 27.06.2020
677 Clouds 19 1017 83 0 0.45 245 23:48 26.06.2020
678 Rain 19 1017 81 0 3.71 243 23:29 26.06.2020
679 Rain 19 1017 81 0 0.45 211 22:59 26.06.2020
680 Rain 20 1016 76 0 2.84 243 22:41 26.06.2020
681 Rain 20 1016 64 10000 4.6 280 22:23 26.06.2020
682 Rain 22 1015 64 10000 3.6 260 21:58 26.06.2020
683 Rain 22 1015 64 10000 3.6 260 21:58 26.06.2020
684 Rain 23 1015 67 0 1.93 252 21:39 26.06.2020
685 Rain 24 1014 65 0 0.45 268 21:21 26.06.2020
686 Rain 23 1014 64 10000 2.6 240 20:58 26.06.2020
687 Rain 23 1014 64 10000 2.6 240 20:38 26.06.2020
688 Rain 24 1014 64 0 1.6 284 20:18 26.06.2020
689 Rain 25 1014 61 0 1.6 284 19:40 26.06.2020
690 Rain 26 1013 60 0 2.96 292 19:20 26.06.2020
691 Rain 26 1014 54 10000 4.6 230 18:43 26.06.2020
692 Rain 26 1014 59 0 3.86 284 18:25 26.06.2020
693 Clouds 26 1014 57 10000 5.1 210 17:55 26.06.2020
694 Clouds 26 1014 57 10000 5.1 210 17:37 26.06.2020
695 Clouds 26 1015 57 10000 4.6 240 17:19 26.06.2020
696 Clouds 25 1015 53 10000 7.2 240 16:42 26.06.2020
697 Clouds 26 1015 53 10000 7.2 220 16:23 26.06.2020
698 Clouds 26 1015 57 10000 6.2 240 15:41 26.06.2020
699 Clouds 25 1016 57 10000 7.2 230 15:22 26.06.2020
700 Clouds 25 1016 57 10000 7.2 230 14:59 26.06.2020
701 Clouds 26 1015 57 10000 5.7 240 14:40 26.06.2020
702 Clouds 26 1015 62 0 0.45 197 14:22 26.06.2020
703 Clouds 26 1016 60 10000 3.6 240 13:57 26.06.2020
704 Clouds 27 1015 56 0 0.45 203 13:38 26.06.2020
705 Clouds 27 1016 57 0 0.45 157 13:18 26.06.2020
706 Clouds 25 1016 57 0 0.28 230 12:41 26.06.2020
707 Clouds 25 1016 56 0 0.28 230 12:23 26.06.2020
708 Clouds 24 1017 53 0 0.28 230 11:59 26.06.2020
709 Clouds 23 1016 58 0 0.45 323 11:39 26.06.2020
710 Clouds 23 1016 52 0 0.45 167 11:21 26.06.2020
711 Clouds 23 1016 58 0 1.06 119 10:58 26.06.2020
712 Clouds 22 1016 60 0 1.06 119 10:38 26.06.2020
713 Clouds 22 1016 64 0 1.35 102 10:19 26.06.2020
714 Clouds 20 1016 81 0 1.35 102 09:44 26.06.2020
715 Clouds 17 1016 91 0 1.23 116 09:25 26.06.2020
716 Clouds 17 1016 95 0 1.23 116 08:57 26.06.2020
717 Clear 15 1016 95 0 1.28 95 08:29 26.06.2020
718 Clear 14 1016 95 0 1.07 118 07:53 26.06.2020
719 Clear 13 1017 95 0 1.01 134 07:25 26.06.2020
720 Clear 13 1017 94 0 1.01 134 06:59 26.06.2020
721 Clear 11 1017 94 0 1.13 131 06:41 26.06.2020
722 Clear 11 1017 93 0 1.13 131 06:23 26.06.2020
723 Clear 10 1017 92 0 1.13 131 05:48 26.06.2020
724 Clear 11 1017 91 0 1.26 136 04:39 26.06.2020
725 Clear 12 1017 89 0 1.32 120 02:22 26.06.2020
726 Clear 13 1018 87 0 1.41 124 01:22 26.06.2020
727 Clear 13 1018 93 10000 1.41 124 00:42 26.06.2020
728 Clear 14 1018 85 0 1.56 115 00:20 26.06.2020
729 Clear 15 1019 82 10000 1 110 23:45 25.06.2020
730 Clear 15 1019 77 10000 2.6 100 23:20 25.06.2020
731 Clear 15 1019 82 10000 2.1 100 22:57 25.06.2020
732 Clear 17 1019 78 0 1.33 108 22:38 25.06.2020
733 Clear 17 1019 77 0 1.33 108 22:19 25.06.2020
734 Clear 17 1018 72 10000 3.1 90 21:56 25.06.2020
735 Clear 17 1018 72 10000 3.1 90 21:38 25.06.2020
736 Clear 19 1018 68 0 1.68 77 21:20 25.06.2020
737 Clear 19 1018 67 0 1.68 77 20:55 25.06.2020
738 Clear 20 1018 66 0 1.68 77 20:37 25.06.2020
739 Clouds 20 1018 66 0 1.74 72 20:19 25.06.2020
740 Rain 21 1018 63 0 2.01 79 19:41 25.06.2020
741 Rain 22 1018 63 0 2.01 79 19:20 25.06.2020
742 Rain 22 1018 64 0 2.01 79 18:59 25.06.2020
743 Clouds 21 1018 56 10000 2.6 80 18:39 25.06.2020
744 Rain 22 1018 63 0 2.29 74 18:20 25.06.2020
745 Rain 22 1018 60 0 2.29 74 17:44 25.06.2020
746 Rain 22 1018 60 0 2.29 74 17:44 25.06.2020
747 Rain 22 1019 49 10000 0.5 0 17:20 25.06.2020
748 Rain 22 1019 49 10000 0.5 0 16:58 25.06.2020
749 Clouds 21 1019 52 10000 2.6 50 16:37 25.06.2020
750 Clouds 21 1019 56 10000 2.6 0 16:19 25.06.2020
751 Clouds 22 1019 56 10000 3.1 40 15:43 25.06.2020
752 Clouds 21 1019 56 10000 1.5 0 15:25 25.06.2020
753 Rain 22 1019 64 0 0.45 159 14:55 25.06.2020
754 Rain 22 1020 69 0 2.76 41 14:37 25.06.2020
755 Clear 22 1020 69 0 2.42 37 14:18 25.06.2020
756 Clear 21 1020 74 0 2.42 37 13:42 25.06.2020
757 Clear 19 1020 63 10000 4.1 60 13:20 25.06.2020
758 Clear 19 1020 79 0 2.43 48 12:59 25.06.2020
759 Clear 19 1020 77 0 2.43 48 12:40 25.06.2020
760 Clear 19 1020 75 0 2.45 53 12:20 25.06.2020
761 Clear 18 1020 73 0 2.45 53 11:43 25.06.2020
762 Clear 17 1020 73 0 2.44 61 11:22 25.06.2020
763 Clouds 17 1020 72 10000 1.5 80 10:45 25.06.2020
764 Clouds 17 1020 75 0 2.01 74 10:26 25.06.2020
765 Clouds 17 1020 76 0 2.01 74 09:59 25.06.2020
766 Clouds 18 1020 76 0 2.01 74 09:40 25.06.2020
767 Clear 16 1020 72 10000 2.6 50 09:20 25.06.2020
768 Clear 16 1020 79 0 2.19 74 08:45 25.06.2020
769 Clear 15 1020 83 0 2.31 77 08:19 25.06.2020
770 Clear 15 1020 85 0 2.31 77 07:45 25.06.2020
771 Clouds 15 1020 86 0 1.96 68 07:26 25.06.2020
772 Clouds 14 1020 86 0 1.96 68 06:48 25.06.2020
773 Clouds 12 1020 93 10000 1.5 20 06:27 25.06.2020
774 Clouds 12 1020 87 10000 1.5 20 05:51 25.06.2020
775 Clear 14 1020 82 10000 2.6 20 03:58 25.06.2020
776 Clear 14 1020 82 10000 2.6 20 03:34 25.06.2020
777 Clouds 14 1021 72 10000 1.5 30 02:42 25.06.2020
778 Clouds 14 1021 72 10000 2.6 70 01:59 25.06.2020
779 Clouds 15 1022 67 10000 3.1 60 01:26 25.06.2020
780 Clouds 15 1021 63 10000 1.5 60 00:44 25.06.2020
781 Clouds 15 1022 63 10000 2.6 60 00:21 25.06.2020
782 Clouds 15 1022 59 10000 3.6 60 23:44 24.06.2020
783 Clouds 16 1022 59 10000 3.1 50 23:26 24.06.2020
784 Clouds 16 1022 55 10000 3.1 40 22:59 24.06.2020
785 Clouds 16 1022 55 10000 3.1 40 22:41 24.06.2020
786 Clouds 16 1022 55 10000 2.1 50 22:20 24.06.2020
787 Clouds 17 1021 55 10000 2.6 50 21:56 24.06.2020
788 Clouds 19 1021 55 10000 2.6 50 21:37 24.06.2020
789 Clouds 20 1021 48 10000 2.6 40 21:19 24.06.2020
790 Clouds 21 1021 49 10000 3.6 50 20:58 24.06.2020
791 Clouds 21 1021 49 10000 3.6 50 20:39 24.06.2020
792 Clouds 22 1021 48 0 2.62 48 20:20 24.06.2020
793 Clouds 22 1021 48 0 2.62 48 19:57 24.06.2020
794 Clouds 23 1021 43 10000 4.6 30 19:38 24.06.2020
795 Clouds 23 1021 48 0 0.45 343 19:19 24.06.2020
796 Clouds 23 1021 46 0 3.11 49 18:58 24.06.2020
797 Clouds 23 1021 47 0 3.11 49 18:39 24.06.2020
798 Clouds 23 1021 43 10000 3.6 10 18:20 24.06.2020
799 Clouds 23 1021 43 10000 3.6 10 17:55 24.06.2020
800 Clouds 23 1021 43 10000 4.6 20 17:36 24.06.2020
801 Clouds 23 1021 43 10000 4.6 20 17:18 24.06.2020
802 Clouds 24 1021 43 10000 5.7 20 16:55 24.06.2020
803 Clouds 24 1021 48 0 4.48 49 16:37 24.06.2020
804 Clouds 24 1021 48 0 0.45 5 16:19 24.06.2020
805 Clouds 24 1021 48 0 0.45 13 15:54 24.06.2020
806 Clear 24 1021 47 0 3.87 54 15:36 24.06.2020
807 Clear 24 1021 51 0 0.45 143 15:18 24.06.2020
808 Clear 24 1022 51 0 3.87 54 14:40 24.06.2020
809 Clear 24 1022 50 0 4.11 61 14:22 24.06.2020
810 Clouds 23 1022 49 10000 4.1 10 13:42 24.06.2020
811 Clouds 23 1022 46 10000 3.6 50 13:21 24.06.2020
812 Clouds 23 1022 52 10000 3.6 20 12:46 24.06.2020
813 Clouds 22 1023 53 10000 2.6 30 12:22 24.06.2020
814 Clouds 23 1023 56 10000 3.1 0 11:59 24.06.2020
815 Clouds 22 1023 56 10000 3.1 0 11:41 24.06.2020
816 Clear 22 1022 58 0 3.49 62 11:23 24.06.2020
817 Clear 22 1022 65 0 3.49 62 10:55 24.06.2020
818 Clear 21 1023 64 0 2.94 69 10:36 24.06.2020
819 Clear 21 1023 64 0 2.94 69 10:18 24.06.2020
820 Clear 20 1023 67 0 2.94 69 09:42 24.06.2020
821 Clear 17 1023 72 10000 2.1 10 09:21 24.06.2020
822 Clear 16 1022 94 0 3.07 79 08:41 24.06.2020
823 Clear 15 1023 94 0 2.63 83 08:20 24.06.2020
824 Clear 14 1022 94 0 2.63 83 07:50 24.06.2020
825 Clear 13 1022 94 0 2.05 96 07:31 24.06.2020
826 Clear 11 1022 92 0 2.05 96 06:50 24.06.2020
827 Clear 11 1022 91 0 1.91 93 06:25 24.06.2020
828 Clear 11 1022 90 0 1.91 93 05:54 24.06.2020
829 Clear 12 1023 89 0 1.83 81 04:46 24.06.2020
830 Clear 12 1023 89 0 1.57 77 04:27 24.06.2020
831 Clear 12 1023 88 0 1.57 77 03:34 24.06.2020
832 Clear 12 1024 87 10000 2.6 30 02:45 24.06.2020
833 Clear 13 1023 87 0 1.86 75 01:41 24.06.2020
834 Clear 13 1024 100 10000 1 150 00:47 24.06.2020
835 Clear 14 1024 93 10000 1 160 00:27 24.06.2020
836 Clear 14 1024 93 10000 1 140 23:46 23.06.2020
837 Clear 17 1024 80 0 1.6 112 23:20 23.06.2020
838 Clear 17 1024 78 0 1.6 112 22:54 23.06.2020
839 Clear 18 1024 75 0 1.71 92 22:36 23.06.2020
840 Clear 19 1024 73 0 1.71 92 22:18 23.06.2020
841 Clear 20 1024 59 10000 2.1 30 21:41 23.06.2020
842 Clear 21 1024 59 0 2.21 89 21:20 23.06.2020
843 Clear 20 1024 52 10000 4.1 10 20:56 23.06.2020
844 Clear 20 1024 52 10000 4.1 10 20:56 23.06.2020
845 Clear 20 1024 52 10000 4.1 10 20:37 23.06.2020
846 Clear 23 1023 43 10000 3.6 20 20:19 23.06.2020
847 Clear 23 1023 43 10000 3.6 20 19:49 23.06.2020
848 Clear 23 1023 46 10000 4.1 330 19:28 23.06.2020
849 Clear 24 1023 53 0 2.31 56 18:42 23.06.2020
850 Clear 24 1023 53 0 2.31 56 18:42 23.06.2020
851 Clear 24 1023 52 0 2.97 39 18:19 23.06.2020
852 Clear 24 1023 52 0 2.97 39 18:19 23.06.2020
853 Clear 24 1023 46 10000 4.1 350 17:59 23.06.2020
854 Clear 24 1023 46 10000 4.1 350 17:39 23.06.2020
855 Clear 24 1023 46 10000 3.1 30 17:21 23.06.2020
856 Clear 24 1024 46 10000 3.1 330 16:56 23.06.2020
857 Clear 24 1024 47 10000 3.6 360 16:38 23.06.2020
858 Clear 24 1024 47 10000 3.6 360 16:38 23.06.2020
859 Clear 24 1024 47 10000 3.6 360 16:20 23.06.2020
860 Clouds 24 1024 53 10000 3.1 30 15:55 23.06.2020
861 Clouds 24 1024 53 10000 3.1 30 15:37 23.06.2020
862 Clouds 24 1024 53 10000 3.1 30 15:18 23.06.2020
863 Clouds 24 1024 56 10000 4.1 40 14:42 23.06.2020
864 Clouds 24 1024 49 10000 2.6 350 14:19 23.06.2020
865 Clouds 24 1024 53 10000 2.6 10 13:56 23.06.2020
866 Clouds 25 1024 58 0 0.45 259 13:38 23.06.2020
867 Clouds 24 1024 59 0 3.91 47 13:20 23.06.2020
868 Clouds 24 1024 58 0 0.45 302 12:42 23.06.2020
869 Clouds 23 1025 60 10000 3.6 40 12:22 23.06.2020
870 Clouds 23 1025 64 10000 3.1 10 11:58 23.06.2020
871 Clouds 23 1024 66 0 2.76 51 11:40 23.06.2020
872 Clouds 22 1024 64 0 2.76 51 11:19 23.06.2020
873 Clouds 22 1025 67 0 2.76 51 10:56 23.06.2020
874 Clouds 22 1025 67 0 2.76 51 10:38 23.06.2020
875 Clouds 22 1025 71 0 1.88 55 10:20 23.06.2020
876 Clouds 18 1025 77 10000 1.5 30 09:42 23.06.2020
877 Clouds 18 1025 92 0 1.32 42 09:20 23.06.2020
878 Clouds 18 1025 95 0 1.32 42 08:58 23.06.2020
879 Clouds 17 1025 95 0 1.32 42 08:39 23.06.2020
880 Clear 16 1025 95 0 0.84 22 08:20 23.06.2020
881 Clear 15 1024 94 0 0.84 22 07:41 23.06.2020
882 Clear 15 1024 93 0 0.45 4 07:22 23.06.2020
883 Clear 14 1024 93 0 0.45 4 06:50 23.06.2020
884 Clear 14 1024 93 0 0.16 12 06:31 23.06.2020
885 Clear 13 1024 92 0 0.16 12 05:45 23.06.2020
886 Clear 14 1024 90 0 0.2 345 04:39 23.06.2020
887 Clear 15 1024 90 0 0.69 270 03:18 23.06.2020
888 Clear 15 1024 100 10000 1 220 02:42 23.06.2020
889 Clear 16 1024 89 0 0.61 274 02:24 23.06.2020
890 Clear 16 1024 89 0 1.03 269 01:43 23.06.2020
891 Clear 15 1025 93 10000 1 0 01:20 23.06.2020
892 Rain 16 1024 86 0 0.89 268 00:24 23.06.2020
893 Rain 17 1024 85 0 0.89 268 23:59 22.06.2020
894 Rain 17 1024 84 0 1.06 293 23:39 22.06.2020
895 Rain 17 1024 93 10000 2.1 220 23:19 22.06.2020
896 Rain 17 1024 93 10000 1 180 22:58 22.06.2020
897 Rain 18 1024 93 10000 1 180 22:40 22.06.2020
898 Rain 18 1024 93 10000 1 180 22:40 22.06.2020
899 Rain 17 1024 87 10000 1.5 170 22:20 22.06.2020
900 Rain 18 1069 54 0 1.68 308 21:58 22.06.2020
901 Clouds 20 1024 78 0 1.94 300 21:40 22.06.2020
902 Clouds 19 1024 77 0 1.94 300 21:21 22.06.2020
903 Clouds 20 1024 75 0 1.94 300 20:55 22.06.2020
904 Clouds 21 1024 74 0 1.94 300 20:36 22.06.2020
905 Rain 21 1024 73 0 2.31 306 20:18 22.06.2020
906 Rain 22 1024 74 0 2.31 306 19:43 22.06.2020
907 Rain 22 1024 72 0 2.71 301 19:19 22.06.2020
908 Clouds 21 1024 82 10000 2.6 240 18:56 22.06.2020
909 Rain 22 1024 71 0 2.39 288 18:36 22.06.2020
910 Rain 22 1024 69 0 2.39 288 18:18 22.06.2020
911 Clouds 21 1024 68 10000 4.1 240 17:55 22.06.2020
912 Clouds 23 1024 64 10000 4.1 240 17:37 22.06.2020
913 Rain 23 1025 68 10000 3.6 200 17:18 22.06.2020
914 Rain 23 1024 74 0 1.55 269 16:42 22.06.2020
915 Rain 22 1024 76 0 0.45 327 16:18 22.06.2020
916 Rain 24 1071 35 0 2.24 149 15:57 22.06.2020
917 Rain 22 1024 78 0 0.84 325 15:39 22.06.2020
918 Rain 22 1025 78 0 0.45 212 15:21 22.06.2020
919 Rain 21 1025 84 0 1.61 260 14:39 22.06.2020
920 Rain 20 1025 83 0 2.53 263 14:20 22.06.2020
921 Rain 20 1025 77 0 2.53 263 13:57 22.06.2020
922 Clouds 21 1025 64 10000 4.6 240 13:38 22.06.2020
923 Clouds 21 1025 64 10000 4.6 240 13:20 22.06.2020
924 Clouds 21 1025 68 10000 2.6 290 12:44 22.06.2020
925 Clouds 21 1025 68 10000 2.6 290 12:44 22.06.2020
926 Clouds 21 1025 68 10000 2.6 290 12:23 22.06.2020
927 Clouds 21 1025 64 10000 2.6 270 11:59 22.06.2020
928 Clouds 19 1025 77 10000 3.1 260 11:37 22.06.2020
929 Clouds 20 1025 72 10000 3.6 260 11:19 22.06.2020
930 Rain 20 1024 75 0 3.81 283 10:55 22.06.2020
931 Rain 20 1024 77 0 3.81 283 10:37 22.06.2020
932 Rain 19 1024 83 0 4.19 287 10:18 22.06.2020
933 Rain 18 1024 86 0 4.19 287 09:56 22.06.2020
934 Rain 17 1024 86 0 4.11 285 09:37 22.06.2020
935 Clouds 17 1024 87 0 3.41 273 09:18 22.06.2020
936 Clouds 17 1024 91 0 3.41 273 08:54 22.06.2020
937 Clouds 16 1024 93 0 3.01 258 08:36 22.06.2020
938 Clouds 16 1024 93 0 3.01 258 08:18 22.06.2020
939 Clouds 15 1024 94 0 3.01 258 07:44 22.06.2020
940 Clear 14 1024 94 0 2.78 249 07:23 22.06.2020
941 Clear 14 1024 94 0 2.78 249 06:38 22.06.2020
942 Clear 14 1023 87 10000 2.96 249 06:19 22.06.2020
943 Clear 14 1023 94 0 3.09 249 05:41 22.06.2020
944 Clear 13 1023 90 0 2.83 237 03:22 22.06.2020
945 Clouds 14 1023 88 0 2.74 236 01:39 22.06.2020
946 Clouds 15 1023 86 0 2.65 242 00:54 22.06.2020
947 Clouds 15 1023 85 0 2.52 247 00:29 22.06.2020
948 Clouds 16 1023 84 0 2.52 247 23:56 21.06.2020
949 Clouds 16 1023 84 0 2.51 257 23:37 21.06.2020
950 Clouds 16 1023 83 0 2.51 257 23:19 21.06.2020
951 Clouds 16 1023 82 0 2.51 257 22:55 21.06.2020
952 Clouds 16 1022 87 10000 3.1 210 22:36 21.06.2020
953 Rain 16 1022 87 10000 3.1 220 22:18 21.06.2020
954 Rain 16 1022 87 10000 3.1 220 21:55 21.06.2020
955 Rain 18 1021 77 10000 3.1 220 21:37 21.06.2020
956 Rain 19 1021 74 0 2.38 277 21:19 21.06.2020
957 Rain 19 1021 63 10000 3.1 230 20:56 21.06.2020
958 Rain 20 1021 70 0 2.34 281 20:36 21.06.2020
959 Rain 20 1021 68 0 2.34 281 20:18 21.06.2020
960 Rain 21 1021 52 10000 3.6 340 20:18 21.06.2020
961 Rain 21 1021 56 10000 1.5 310 19:41 21.06.2020
962 Rain 21 1021 56 10000 1.5 310 19:21 21.06.2020
963 Clouds 21 1021 56 10000 2.6 340 18:57 21.06.2020
964 Rain 21 1021 66 0 2.9 281 18:39 21.06.2020
965 Clouds 21 1021 60 10000 3.1 330 18:21 21.06.2020
966 Rain 21 1021 64 0 2.9 281 17:57 21.06.2020
967 Rain 20 1021 66 0 3.01 281 17:38 21.06.2020
968 Rain 20 1021 68 0 3.01 281 17:19 21.06.2020
969 Rain 20 1021 56 10000 3.6 280 16:41 21.06.2020
970 Rain 21 1020 63 0 1.79 241 16:22 21.06.2020
971 Rain 21 1020 63 0 2.68 251 15:57 21.06.2020
972 Rain 20 1022 56 10000 5.1 290 15:37 21.06.2020
973 Rain 20 1021 72 0 2.52 287 15:18 21.06.2020
974 Rain 20 1021 71 0 2.34 308 14:39 21.06.2020
975 Rain 20 1021 70 0 2.34 308 14:20 21.06.2020
976 Rain 20 1021 69 0 2.34 308 13:56 21.06.2020
977 Rain 20 1021 68 0 2.34 308 13:38 21.06.2020
978 Rain 20 1021 66 0 0.45 122 13:19 21.06.2020
979 Rain 19 1022 75 0 2.7 325 12:44 21.06.2020
980 Rain 19 1022 75 0 2.7 325 12:44 21.06.2020
981 Rain 19 1022 72 0 3.31 319 12:26 21.06.2020
982 Rain 19 1022 74 0 3.31 319 11:59 21.06.2020
983 Rain 19 1022 73 0 3.31 319 11:41 21.06.2020
984 Rain 19 1022 73 0 3.35 309 11:23 21.06.2020
985 Rain 19 1021 76 0 3.35 309 10:57 21.06.2020
986 Rain 19 1022 76 0 2.82 295 10:38 21.06.2020
987 Rain 19 1022 74 0 2.82 295 10:20 21.06.2020
988 Clear 16 1022 82 10000 3.6 250 09:43 21.06.2020
989 Clear 15 1022 82 10000 3.6 250 09:22 21.06.2020
990 Clear 15 1021 96 0 0.45 234 08:57 21.06.2020
991 Clear 14 1021 97 0 2.63 279 08:39 21.06.2020
992 Clouds 14 1021 97 0 2.5 265 08:19 21.06.2020
993 Clouds 13 1021 97 0 2.5 265 07:42 21.06.2020
994 Clouds 13 1021 97 0 2.5 250 07:23 21.06.2020
995 Clouds 13 1021 97 0 2.5 250 06:51 21.06.2020
996 Clouds 12 1064 72 0 2.65 242 06:28 21.06.2020
997 Clouds 12 1064 73 0 2.65 242 05:57 21.06.2020
998 Clouds 13 1021 96 0 2.89 241 04:42 21.06.2020
999 Clouds 12 1021 96 0 2.59 239 03:19 21.06.2020
1000 Clouds 13 1021 96 0 2.59 239 02:36 21.06.2020
1001 Clouds 13 1021 96 0 2.11 244 01:47 21.06.2020
1002 Clouds 13 1021 96 0 1.74 252 01:20 21.06.2020
1003 Clouds 14 1022 96 0 1.74 252 00:46 21.06.2020
1004 Clouds 14 1022 96 0 1.6 264 00:26 21.06.2020
1005 Clouds 14 1022 96 0 1.6 264 23:57 20.06.2020
1006 Rain 14 1022 96 0 1.37 291 23:37 20.06.2020
1007 Rain 14 1022 96 0 1.37 291 23:18 20.06.2020
1008 Rain 14 1021 96 0 1.37 291 22:54 20.06.2020
1009 Rain 14 1021 96 0 1.84 319 22:36 20.06.2020
1010 Rain 14 1022 96 0 1.84 319 22:18 20.06.2020
1011 Rain 14 1021 96 0 1.84 319 21:54 20.06.2020
1012 Rain 14 1021 96 0 1.92 298 21:36 20.06.2020
1013 Rain 14 1021 96 0 2.14 317 21:18 20.06.2020
1014 Rain 15 1021 96 0 2.05 309 20:54 20.06.2020
1015 Rain 15 1021 96 0 2.06 315 20:36 20.06.2020
1016 Rain 15 1021 96 0 2.06 315 20:18 20.06.2020
1017 Rain 15 1021 97 0 2.06 315 19:41 20.06.2020
1018 Rain 16 1021 96 0 2.28 319 19:21 20.06.2020
1019 Rain 15 1021 93 10000 4.1 230 18:43 20.06.2020
1020 Rain 16 1021 93 10000 4.1 230 18:21 20.06.2020
1021 Rain 16 1021 96 0 3.22 322 17:58 20.06.2020
1022 Rain 16 1021 97 0 3.22 322 17:40 20.06.2020
1023 Rain 16 1021 97 0 3.22 322 17:40 20.06.2020
1024 Rain 15 1022 93 10000 3.1 220 17:20 20.06.2020
1025 Rain 15 1022 93 10000 5.1 230 16:56 20.06.2020
1026 Clouds 15 1022 87 10000 3.1 210 16:38 20.06.2020
1027 Clouds 15 1022 87 10000 3.1 210 16:18 20.06.2020
1028 Rain 16 1022 93 8000 2.6 340 15:42 20.06.2020
1029 Rain 16 1022 82 10000 3.1 20 15:18 20.06.2020
1030 Rain 17 1022 82 10000 3.1 20 14:55 20.06.2020
1031 Rain 18 1020 86 0 2.68 218 14:36 20.06.2020
1032 Rain 17 1021 72 10000 4.6 280 14:18 20.06.2020
1033 Rain 17 1021 85 0 2.38 270 13:41 20.06.2020
1034 Rain 18 1022 81 0 2.77 263 13:19 20.06.2020
1035 Rain 18 1021 73 0 2.77 263 12:43 20.06.2020
1036 Rain 17 1022 77 10000 4.6 270 12:22 20.06.2020
1037 Rain 17 1022 72 10000 3.6 270 11:58 20.06.2020
1038 Clouds 17 1021 77 10000 4.6 250 11:38 20.06.2020
1039 Clouds 17 1021 77 10000 3.6 250 11:20 20.06.2020
1040 Clouds 17 1021 77 10000 3.6 250 10:57 20.06.2020
1041 Clouds 16 1021 77 10000 4.6 250 10:38 20.06.2020
1042 Rain 16 1021 72 8000 5.1 240 10:18 20.06.2020
1043 Clouds 15 1021 77 10000 4.6 240 09:40 20.06.2020
1044 Clouds 15 1021 88 0 0.45 200 09:22 20.06.2020
1045 Clouds 15 1021 90 0 3.44 261 08:57 20.06.2020
1046 Clouds 14 1021 91 0 3.44 261 08:38 20.06.2020
1047 Clouds 14 1021 91 0 3.44 259 08:20 20.06.2020
1048 Clouds 13 1021 92 0 3.44 259 07:50 20.06.2020
1049 Clouds 13 1021 92 0 3.35 254 07:25 20.06.2020
1050 Clouds 13 1021 91 0 3.35 254 06:43 20.06.2020
1051 Clouds 12 1021 90 0 3.35 247 06:20 20.06.2020
1052 Clouds 12 1021 90 0 3.35 247 05:47 20.06.2020
1053 Clouds 13 1020 91 0 3.29 246 03:25 20.06.2020
1054 Clouds 13 1020 91 0 2.87 236 01:54 20.06.2020
1055 Clouds 13 1020 91 0 2.87 236 01:36 20.06.2020
1056 Clouds 14 1020 92 0 3.05 238 00:45 20.06.2020
1057 Clouds 14 1020 93 0 2.97 246 00:20 20.06.2020
1058 Clouds 14 1020 93 0 2.97 246 23:41 19.06.2020
1059 Clouds 14 1020 93 0 2.66 249 23:20 19.06.2020
1060 Clouds 14 1020 93 0 2.66 249 22:56 19.06.2020
1061 Clouds 14 1020 92 0 2.66 249 22:37 19.06.2020
1062 Clouds 14 1020 93 0 2.57 242 22:19 19.06.2020
1063 Clouds 14 1020 92 0 2.57 242 21:55 19.06.2020
1064 Clouds 14 1020 92 0 2.41 242 21:37 19.06.2020
1065 Clouds 14 1019 92 0 2.41 242 21:18 19.06.2020
1066 Clouds 14 1019 92 0 2.41 242 20:56 19.06.2020
1067 Clouds 14 1019 92 0 2.81 239 20:38 19.06.2020
1068 Clouds 14 1019 91 0 2.81 239 20:20 19.06.2020
1069 Clouds 14 1019 92 0 2.81 239 19:54 19.06.2020
1070 Clouds 14 1019 92 0 3.04 236 19:36 19.06.2020
1071 Clouds 14 1019 93 0 0.45 231 19:18 19.06.2020
1072 Clouds 14 1019 95 0 3.04 236 18:40 19.06.2020
1073 Clouds 14 1019 95 0 0.45 207 18:21 19.06.2020
1074 Clouds 14 1019 95 0 3.28 244 17:54 19.06.2020
1075 Clouds 14 1019 96 0 3.28 244 17:36 19.06.2020
1076 Clouds 14 1019 96 0 4.1 259 17:18 19.06.2020
1077 Clouds 14 1019 96 0 4.1 259 16:41 19.06.2020
1078 Clouds 14 1018 97 0 5.04 265 16:22 19.06.2020
1079 Rain 14 1018 97 0 5.04 265 15:58 19.06.2020
1080 Rain 14 1019 97 0 5.04 265 15:40 19.06.2020
1081 Rain 14 1018 97 0 0.45 277 15:19 19.06.2020
1082 Rain 14 1019 97 0 5.75 263 14:55 19.06.2020
1083 Rain 14 1019 97 0 5.64 245 14:37 19.06.2020
1084 Rain 14 1019 97 0 5.64 245 14:18 19.06.2020
1085 Rain 14 1019 96 0 5.64 245 13:41 19.06.2020
1086 Rain 14 1019 96 0 5.71 243 13:23 19.06.2020
1087 Rain 13 1019 96 0 5.71 243 12:46 19.06.2020
1088 Rain 13 1019 96 0 5.77 243 12:22 19.06.2020
1089 Rain 13 1018 96 0 0.45 200 11:57 19.06.2020
1090 Rain 13 1018 96 0 5.77 243 11:38 19.06.2020
1091 Rain 13 1018 96 0 5.43 245 11:18 19.06.2020
1092 Rain 13 1018 96 0 5.43 245 11:18 19.06.2020
1093 Rain 13 1018 96 0 5.43 245 10:45 19.06.2020
1094 Rain 13 1018 96 0 0.45 246 10:26 19.06.2020
1095 Rain 13 1018 96 0 4.96 251 09:58 19.06.2020
1096 Rain 13 1018 96 0 4.76 260 09:40 19.06.2020
1097 Rain 13 1018 96 0 3.88 263 09:20 19.06.2020
1098 Rain 13 1017 96 0 3.88 263 08:44 19.06.2020
1099 Clouds 13 1017 96 0 3.47 265 08:26 19.06.2020
1100 Clouds 13 1017 96 0 3.47 265 07:56 19.06.2020
1101 Clouds 13 1017 96 0 3.47 265 07:38 19.06.2020
1102 Rain 13 1017 96 0 3.23 259 07:19 19.06.2020
1103 Rain 13 1017 96 0 2.9 255 06:25 19.06.2020
1104 Rain 13 1017 95 0 2.9 255 05:44 19.06.2020
1105 Clouds 13 1016 95 0 2.52 253 04:25 19.06.2020
1106 Rain 13 1016 93 0 1.99 256 02:51 19.06.2020
1107 Clouds 14 1016 92 0 1.63 249 00:56 19.06.2020
1108 Clouds 14 1015 91 0 1.63 249 00:37 19.06.2020
1109 Clouds 15 1015 90 0 1.43 248 00:19 19.06.2020
1110 Clouds 15 1015 88 0 1.43 248 23:41 18.06.2020
1111 Clouds 15 1015 88 0 1.03 266 23:23 18.06.2020
1112 Clouds 15 1015 87 0 1.03 266 22:59 18.06.2020
1113 Clouds 15 1014 84 0 1.03 266 22:39 18.06.2020
1114 Clouds 16 1014 82 0 1.09 312 22:18 18.06.2020
1115 Clouds 18 1014 74 0 1.67 340 21:39 18.06.2020
1116 Clouds 18 1014 71 0 1.67 340 21:20 18.06.2020
1117 Clouds 19 1013 66 0 1.67 340 20:58 18.06.2020
1118 Clear 20 1013 63 0 2.34 343 20:40 18.06.2020
1119 Clear 20 1013 62 0 2.34 343 20:19 18.06.2020
1120 Clear 21 1013 60 0 2.34 343 19:56 18.06.2020
1121 Clear 21 1013 62 0 2.34 343 19:37 18.06.2020
1122 Clear 22 1013 58 0 2.54 336 19:18 18.06.2020
1123 Clear 22 1013 55 0 2.54 336 18:38 18.06.2020
1124 Clouds 22 1013 53 0 2.78 325 18:19 18.06.2020
1125 Clouds 22 1012 54 0 2.78 325 17:45 18.06.2020
1126 Clouds 22 1013 56 0 3.08 320 17:26 18.06.2020
1127 Clouds 22 1013 56 0 3.08 320 17:26 18.06.2020
1128 Clouds 22 1013 57 0 3.08 320 16:57 18.06.2020
1129 Clouds 21 1013 57 0 3.08 320 16:39 18.06.2020
1130 Clouds 22 1013 56 0 3.09 314 16:20 18.06.2020
1131 Clouds 22 1013 54 0 3.09 314 15:57 18.06.2020
1132 Clouds 22 1014 52 0 3.23 307 15:39 18.06.2020
1133 Clouds 22 1014 53 0 0.45 273 15:20 18.06.2020
1134 Clouds 22 1014 55 0 3.23 307 14:56 18.06.2020
1135 Clouds 22 1014 56 0 3.29 311 14:37 18.06.2020
1136 Clouds 21 1014 55 0 3.29 311 14:19 18.06.2020
1137 Clouds 21 1015 59 0 3.29 311 13:47 18.06.2020
1138 Clouds 21 1015 59 0 0.45 300 13:28 18.06.2020
1139 Clouds 21 1015 57 0 3.35 308 12:57 18.06.2020
1140 Clouds 20 1055 55 0 0.45 345 12:39 18.06.2020
1141 Clouds 20 1015 60 0 3.24 300 12:20 18.06.2020
1142 Clouds 19 1015 60 0 3.24 300 11:57 18.06.2020
1143 Clouds 19 1015 64 0 3.04 290 11:38 18.06.2020
1144 Clouds 19 1015 66 0 0.45 211 11:19 18.06.2020
1145 Clouds 18 1015 66 0 3.04 290 10:40 18.06.2020
1146 Clouds 17 1015 75 0 0.45 284 10:19 18.06.2020
1147 Clouds 17 1015 77 0 0.45 260 09:46 18.06.2020
1148 Clouds 15 1015 77 10000 4.6 250 09:27 18.06.2020
1149 Clouds 14 1015 92 0 2.93 260 08:58 18.06.2020
1150 Clouds 14 1015 94 0 2.85 252 08:38 18.06.2020
1151 Clouds 13 1015 95 0 2.85 252 08:20 18.06.2020
1152 Clouds 13 1015 97 0 2.85 252 07:45 18.06.2020
1153 Clouds 12 1015 97 0 2.38 246 07:26 18.06.2020
1154 Clouds 12 1015 97 0 2.38 246 06:42 18.06.2020
1155 Clouds 11 1014 96 0 2.55 251 05:40 18.06.2020
1156 Clouds 12 1014 96 0 3.35 256 04:21 18.06.2020
1157 Clouds 13 1014 96 0 3.4 252 02:37 18.06.2020
1158 Rain 13 1014 96 0 4.55 261 01:28 18.06.2020
1159 Rain 13 1014 96 0 4.55 261 00:54 18.06.2020
1160 Rain 13 1014 96 0 4.55 261 00:32 18.06.2020
1161 Rain 13 1014 96 0 5.15 264 23:58 17.06.2020
1162 Rain 13 1014 96 0 5.52 262 23:39 17.06.2020
1163 Rain 13 1013 96 0 5.52 262 23:20 17.06.2020
1164 Rain 13 1013 96 0 0.45 180 22:57 17.06.2020
1165 Rain 13 1013 97 0 5.52 262 22:38 17.06.2020
1166 Rain 13 1013 97 0 0.45 182 22:20 17.06.2020
1167 Rain 13 1013 97 0 0.45 182 22:20 17.06.2020
1168 Rain 13 1013 97 0 0.45 232 21:55 17.06.2020
1169 Rain 14 1012 97 0 0.45 200 21:36 17.06.2020
1170 Rain 14 1012 96 0 6.43 252 21:18 17.06.2020
1171 Rain 14 1012 96 0 6.43 252 21:18 17.06.2020
1172 Rain 13 1012 100 0 0.45 180 20:38 17.06.2020
1173 Rain 14 1012 96 0 6.62 251 20:19 17.06.2020
1174 Rain 14 1012 96 0 6.62 251 20:19 17.06.2020
1175 Rain 14 1012 95 0 0.45 200 19:55 17.06.2020
1176 Rain 14 1012 95 0 6.62 251 19:36 17.06.2020
1177 Rain 14 1011 93 0 0.45 220 19:18 17.06.2020
1178 Rain 14 1011 91 0 0.89 308 18:41 17.06.2020
1179 Rain 13 1011 93 8000 7.7 250 18:23 17.06.2020
1180 Rain 20 1010 80 0 1.34 179 17:44 17.06.2020
1181 Rain 19 1010 80 0 1.34 179 17:44 17.06.2020
1182 Rain 20 1010 77 10000 10.3 240 17:22 17.06.2020
1183 Rain 23 1009 66 0 3.85 260 16:57 17.06.2020
1184 Rain 23 1009 66 0 3.85 260 16:57 17.06.2020
1185 Rain 23 1009 67 0 3.85 260 16:39 17.06.2020
1186 Thunderstorm 22 1009 64 10000 3.6 60 16:21 17.06.2020
1187 Rain 23 1009 63 0 0.45 188 15:56 17.06.2020
1188 Rain 23 1009 66 0 2.03 47 15:38 17.06.2020
1189 Rain 23 1009 66 0 0.89 334 15:19 17.06.2020
1190 Rain 23 1009 63 0 0.45 94 14:57 17.06.2020
1191 Rain 23 1009 68 0 3.72 62 14:39 17.06.2020
1192 Rain 23 1010 69 0 2.73 54 14:19 17.06.2020
1193 Rain 22 1010 74 0 2.73 54 13:56 17.06.2020
1194 Clouds 21 1010 80 0 2.39 48 13:36 17.06.2020
1195 Clouds 21 1010 78 0 2.39 48 13:18 17.06.2020
1196 Clouds 20 1011 79 0 2.39 48 12:42 17.06.2020
1197 Rain 19 1011 84 0 1.29 40 12:22 17.06.2020
1198 Rain 18 1011 88 0 1.29 40 11:57 17.06.2020
1199 Rain 18 1011 90 0 1.29 40 11:37 17.06.2020
1200 Rain 17 1011 91 0 0.43 33 11:18 17.06.2020
1201 Rain 17 1012 92 0 0.43 33 10:38 17.06.2020
1202 Clouds 16 1011 94 0 0.15 22 10:19 17.06.2020
1203 Clouds 16 1012 95 0 0.15 22 09:58 17.06.2020
1204 Clouds 15 1012 96 0 0.94 40 09:40 17.06.2020
1205 Clouds 15 1012 96 0 0.4 348 09:20 17.06.2020
1206 Clouds 14 1012 97 0 0.4 348 08:45 17.06.2020
1207 Clouds 14 1012 98 0 0.27 267 08:20 17.06.2020
1208 Clouds 14 1012 98 0 0.27 267 07:56 17.06.2020
1209 Clouds 14 1012 98 0 0.43 234 07:37 17.06.2020
1210 Clouds 14 1012 98 0 0.43 234 07:19 17.06.2020
1211 Clouds 13 1012 98 0 0.43 234 06:55 17.06.2020
1212 Clouds 13 1012 98 0 0.43 234 06:36 17.06.2020
1213 Clouds 13 1012 100 7000 1.5 160 06:18 17.06.2020
1214 Clouds 13 1012 98 0 0.89 249 04:53 17.06.2020
1215 Clouds 13 1014 98 0 1.1 247 02:49 17.06.2020
1216 Clouds 14 1014 97 0 1.04 256 01:29 17.06.2020
1217 Clouds 14 1015 97 0 1.04 256 00:38 17.06.2020
1218 Clouds 14 1015 97 0 0.77 253 00:20 17.06.2020
1219 Clouds 14 1015 97 0 0.77 253 23:56 16.06.2020
1220 Clouds 15 1015 96 0 0.84 257 23:37 16.06.2020
1221 Clouds 15 1015 96 0 0.84 257 23:19 16.06.2020
1222 Clouds 15 1015 96 0 0.84 257 22:54 16.06.2020
1223 Clouds 15 1015 96 0 1.04 269 22:36 16.06.2020
1224 Clouds 16 1015 95 0 1.04 269 22:18 16.06.2020
1225 Clouds 16 1015 94 0 1.04 269 21:45 16.06.2020
1226 Clouds 17 1014 92 0 0.5 260 21:23 16.06.2020
1227 Clouds 17 1014 90 0 0.5 260 20:57 16.06.2020
1228 Clouds 18 1014 89 0 0.5 260 20:39 16.06.2020
1229 Clouds 18 1014 88 0 0.34 338 20:19 16.06.2020
1230 Clouds 18 1014 87 0 0.34 338 19:57 16.06.2020
1231 Clouds 18 1015 86 0 0.34 338 19:38 16.06.2020
1232 Clouds 19 1015 85 0 0.69 322 19:20 16.06.2020
1233 Clouds 19 1015 82 0 0.69 322 18:54 16.06.2020
1234 Clouds 19 1015 80 0 1.26 280 18:36 16.06.2020
1235 Clouds 19 1015 81 0 1.26 280 18:18 16.06.2020
1236 Clouds 19 1015 78 0 1.26 280 17:54 16.06.2020
1237 Clouds 19 1015 78 0 1.84 264 17:36 16.06.2020
1238 Clouds 19 1015 83 0 1.84 264 17:18 16.06.2020
1239 Clouds 19 1016 87 0 1.84 264 16:42 16.06.2020
1240 Clouds 18 1016 89 0 2.29 259 16:20 16.06.2020
1241 Clouds 18 1016 90 0 2.29 259 15:58 16.06.2020
1242 Rain 17 1016 93 8000 1.5 260 15:39 16.06.2020
1243 Rain 17 1016 93 8000 1.5 260 15:21 16.06.2020
1244 Rain 18 1015 92 0 2.42 263 14:57 16.06.2020
1245 Rain 17 1015 92 0 2.84 252 14:38 16.06.2020
1246 Rain 17 1015 92 0 2.84 252 14:20 16.06.2020
1247 Clouds 16 1015 93 0 2.84 252 13:46 16.06.2020
1248 Clouds 15 1015 94 0 2.79 251 13:26 16.06.2020
1249 Clouds 15 1015 94 0 2.79 251 12:57 16.06.2020
1250 Clouds 16 1015 93 0 2.7 253 12:38 16.06.2020
1251 Clouds 16 1015 93 0 2.7 253 12:19 16.06.2020
1252 Clouds 15 1015 94 0 2.7 253 11:54 16.06.2020
1253 Clouds 15 1015 93 0 2.7 253 11:36 16.06.2020
1254 Clouds 14 1017 99 0 2.46 251 11:18 16.06.2020
1255 Clouds 14 1015 94 0 2.46 251 10:42 16.06.2020
1256 Rain 14 1015 94 0 2.4 251 10:21 16.06.2020
1257 Rain 14 1015 94 0 2.4 251 09:57 16.06.2020
1258 Rain 14 1015 94 0 2.4 251 09:39 16.06.2020
1259 Clouds 14 1015 94 0 1.44 257 09:21 16.06.2020
1260 Rain 14 1015 94 0 1.44 257 08:43 16.06.2020
1261 Rain 13 1015 94 0 1.46 266 08:25 16.06.2020
1262 Rain 13 1017 99 0 1.46 266 07:47 16.06.2020
1263 Rain 13 1017 99 0 1.89 269 07:26 16.06.2020
1264 Rain 13 1017 98 0 1.89 269 06:48 16.06.2020
1265 Rain 13 1017 98 0 2.35 265 06:26 16.06.2020
1266 Rain 13 1017 98 0 2.35 265 06:26 16.06.2020
1267 Rain 13 1017 98 0 2.54 260 05:38 16.06.2020
1268 Rain 13 1017 98 0 2.41 257 04:31 16.06.2020
1269 Rain 13 1018 98 0 2.81 257 02:58 16.06.2020
1270 Rain 13 1018 98 0 2.86 252 01:59 16.06.2020
1271 Rain 13 1018 98 0 2.84 249 01:27 16.06.2020
1272 Rain 13 1016 94 0 2.84 249 00:43 16.06.2020
1273 Rain 13 1016 94 0 2.91 246 00:19 16.06.2020
1274 Rain 13 1016 94 0 2.91 246 23:42 15.06.2020
1275 Rain 13 1017 94 0 3.14 246 23:22 15.06.2020
1276 Rain 13 1017 94 0 3.14 246 22:55 15.06.2020
1277 Rain 13 1017 94 0 3.14 246 22:37 15.06.2020
1278 Rain 13 1016 93 0 3.12 245 22:18 15.06.2020
1279 Rain 13 1016 93 0 3.12 245 21:56 15.06.2020
1280 Rain 13 1016 93 0 3.44 247 21:37 15.06.2020
1281 Rain 13 1016 93 0 3.82 245 21:19 15.06.2020
1282 Rain 13 1016 93 0 3.82 245 21:19 15.06.2020
1283 Rain 13 1016 93 0 3.82 245 20:56 15.06.2020
1284 Rain 13 1016 93 0 3.82 245 20:37 15.06.2020
1285 Rain 13 1016 93 0 4.24 246 20:19 15.06.2020
1286 Rain 13 1016 93 0 4.24 246 19:55 15.06.2020
1287 Rain 13 1016 93 0 4.56 246 19:37 15.06.2020
1288 Rain 13 1016 93 0 4.56 246 19:19 15.06.2020
1289 Rain 13 1016 93 0 4.56 246 18:55 15.06.2020
1290 Rain 14 1016 93 0 4.56 246 18:36 15.06.2020
1291 Rain 14 1016 93 0 4.45 245 18:18 15.06.2020
1292 Rain 14 1016 93 0 4.45 245 17:42 15.06.2020
1293 Rain 14 1016 93 0 4.61 246 17:21 15.06.2020
1294 Rain 14 1016 93 0 4.61 246 17:21 15.06.2020
1295 Rain 15 1016 93 0 4.61 246 16:59 15.06.2020
1296 Rain 14 1016 93 0 4.73 252 16:40 15.06.2020
1297 Rain 14 1015 93 0 4.73 252 16:19 15.06.2020
1298 Rain 14 1015 93 0 4.73 252 15:56 15.06.2020
1299 Rain 14 1015 93 0 4.73 252 15:56 15.06.2020
1300 Rain 15 1015 93 0 4.73 252 15:36 15.06.2020
1301 Rain 15 1015 93 0 5.14 257 15:18 15.06.2020
1302 Rain 15 1015 93 0 5.14 257 14:42 15.06.2020
1303 Rain 15 1015 93 0 5.3 257 14:21 15.06.2020
1304 Rain 15 1016 93 0 5.3 257 13:59 15.06.2020
1305 Rain 15 1016 93 0 5.3 257 13:41 15.06.2020
1306 Rain 15 1015 94 0 5.34 258 13:22 15.06.2020
1307 Rain 14 1015 93 0 5.34 258 12:57 15.06.2020
1308 Rain 14 1015 93 0 5.34 258 12:39 15.06.2020
1309 Rain 14 1015 94 0 5.09 259 12:21 15.06.2020
1310 Rain 14 1015 94 0 5.09 259 11:44 15.06.2020
1311 Rain 14 1015 94 0 5.02 262 11:25 15.06.2020
1312 Rain 14 1015 94 0 5.02 262 10:55 15.06.2020
1313 Rain 14 1015 94 0 5.02 262 10:36 15.06.2020
1314 Rain 14 1015 94 0 5.21 264 10:18 15.06.2020
1315 Rain 13 1015 94 0 5.26 261 09:41 15.06.2020
1316 Rain 13 1015 94 0 5.19 260 09:21 15.06.2020
1317 Rain 13 1017 98 0 0.45 184 08:42 15.06.2020
1318 Rain 13 1017 98 0 0.45 215 08:23 15.06.2020
1319 Rain 13 1017 98 0 0.45 188 07:48 15.06.2020
1320 Rain 13 1017 98 0 5.68 257 07:29 15.06.2020
1321 Rain 13 1016 98 0 0.45 199 06:50 15.06.2020
1322 Rain 13 1016 98 0 5.82 258 06:26 15.06.2020
1323 Rain 13 1016 98 0 0.45 322 05:47 15.06.2020
1324 Rain 12 1016 98 0 0.45 158 05:27 15.06.2020
1325 Rain 13 1016 98 0 5.34 256 04:21 15.06.2020
1326 Rain 13 1016 98 0 0.45 234 03:47 15.06.2020
1327 Rain 12 1017 98 0 0.45 198 02:55 15.06.2020
1328 Rain 13 1017 98 0 5.6 252 01:59 15.06.2020
1329 Rain 13 1017 98 0 5.6 252 01:39 15.06.2020
1330 Rain 13 1015 93 0 5.61 251 01:21 15.06.2020
1331 Rain 13 1015 93 0 5.61 251 00:40 15.06.2020
1332 Rain 13 1015 93 0 5.65 250 00:20 15.06.2020
1333 Rain 13 1015 93 0 5.65 250 23:55 14.06.2020
1334 Rain 13 1015 93 0 5.65 250 23:36 14.06.2020
1335 Rain 13 1015 92 0 5.68 248 23:18 14.06.2020
1336 Rain 13 1015 92 0 5.68 248 22:55 14.06.2020
1337 Rain 13 1015 92 0 5.29 248 22:37 14.06.2020
1338 Rain 13 1015 92 0 5.29 248 22:18 14.06.2020
1339 Rain 13 1015 92 0 5.29 248 21:55 14.06.2020
1340 Rain 13 1015 92 0 5.32 248 21:36 14.06.2020
1341 Rain 13 1014 92 0 5.41 251 21:18 14.06.2020
1342 Rain 13 1016 97 0 5.32 248 20:55 14.06.2020
1343 Rain 13 1016 97 0 5.32 248 20:55 14.06.2020
1344 Rain 13 1016 97 0 0.45 254 20:36 14.06.2020
1345 Rain 13 1016 97 0 5.24 250 20:18 14.06.2020
1346 Rain 14 1016 97 0 0.45 242 19:55 14.06.2020
1347 Rain 14 1016 97 0 0.45 311 19:36 14.06.2020
1348 Rain 14 1016 97 0 0.45 320 19:18 14.06.2020
1349 Rain 14 1015 97 0 5.42 252 18:55 14.06.2020
1350 Rain 14 1015 97 0 5.42 252 18:37 14.06.2020
1351 Rain 14 1015 97 0 0.45 191 18:18 14.06.2020
1352 Rain 14 1015 96 0 0.45 263 17:40 14.06.2020
1353 Rain 14 1015 96 0 5.85 256 17:20 14.06.2020
1354 Rain 14 1015 96 0 0.45 209 16:59 14.06.2020
1355 Rain 14 1015 96 0 0.45 195 16:40 14.06.2020
1356 Rain 14 1015 95 0 0.45 192 16:19 14.06.2020
1357 Rain 14 1015 95 0 0.45 300 15:57 14.06.2020
1358 Rain 14 1015 95 0 0.45 212 15:37 14.06.2020
1359 Rain 14 1015 95 0 0.45 197 15:18 14.06.2020
1360 Rain 14 1015 95 0 0.45 196 14:41 14.06.2020
1361 Rain 14 1015 95 0 0.45 199 14:23 14.06.2020
1362 Rain 14 1015 95 0 7.19 258 13:59 14.06.2020
1363 Rain 14 1015 95 0 0.45 205 13:41 14.06.2020
1364 Rain 14 1015 95 0 0.45 181 13:22 14.06.2020
1365 Rain 14 1015 94 0 0.45 209 12:59 14.06.2020
1366 Rain 14 1015 94 0 0.45 255 12:40 14.06.2020
1367 Rain 14 1015 93 0 0.45 192 12:21 14.06.2020
1368 Rain 14 1015 91 0 0.45 214 11:58 14.06.2020
1369 Rain 14 1015 91 0 0.45 224 11:40 14.06.2020
1370 Rain 14 1015 92 0 0.45 182 11:21 14.06.2020
1371 Rain 14 1014 93 10000 6.7 230 10:57 14.06.2020
1372 Rain 14 1014 93 10000 5.7 240 10:38 14.06.2020
1373 Rain 14 1014 93 10000 5.7 240 10:18 14.06.2020
1374 Rain 14 1014 93 10000 6.7 240 09:42 14.06.2020
1375 Rain 14 1014 93 10000 6.7 240 09:23 14.06.2020
1376 Rain 13 1014 93 10000 6.7 240 08:42 14.06.2020
1377 Rain 13 1014 93 10000 6.7 240 08:22 14.06.2020
1378 Rain 13 1014 93 10000 6.7 230 07:53 14.06.2020
1379 Rain 13 1013 93 10000 5.7 240 07:35 14.06.2020
1380 Rain 14 1017 83 0 1.34 266 06:58 14.06.2020
1381 Rain 14 1013 97 0 0.45 213 05:56 14.06.2020
1382 Rain 14 1013 97 0 6.48 262 05:34 14.06.2020
1383 Rain 14 1012 100 10000 6.7 240 04:39 14.06.2020
1384 Rain 14 1012 96 0 0.45 219 03:55 14.06.2020
1385 Rain 15 1012 96 0 0.89 342 02:43 14.06.2020
1386 Rain 15 1011 96 0 1.34 310 02:23 14.06.2020
1387 Rain 15 1012 95 0 1.34 291 01:30 14.06.2020
1388 Rain 17 1013 89 0 0.89 166 00:49 14.06.2020
1389 Rain 18 1011 81 0 2.24 302 00:29 14.06.2020
1390 Rain 19 1010 68 10000 2.1 310 23:49 13.06.2020
1391 Rain 20 1010 68 10000 2.1 310 23:31 13.06.2020
1392 Rain 20 1009 68 10000 3.1 320 22:59 13.06.2020
1393 Rain 21 1009 76 0 2.38 273 22:38 13.06.2020
1394 Rain 21 1009 77 10000 1.5 310 22:19 13.06.2020
1395 Rain 21 1009 72 10000 0.5 280 21:58 13.06.2020
1396 Rain 21 1009 60 10000 1 0 21:40 13.06.2020
1397 Rain 22 1009 69 0 1.2 301 21:21 13.06.2020
1398 Rain 23 1009 53 10000 2.1 330 20:54 13.06.2020
1399 Rain 24 1008 63 0 1.2 301 20:36 13.06.2020
1400 Rain 25 1008 60 0 0.78 298 20:18 13.06.2020
1401 Rain 25 1008 50 10000 3.1 310 19:40 13.06.2020
1402 Rain 25 1008 47 10000 2.6 350 19:20 13.06.2020
1403 Rain 25 1008 47 10000 2.6 350 18:59 13.06.2020
1404 Rain 25 1009 50 10000 2.6 340 18:40 13.06.2020
1405 Clouds 25 1009 50 10000 2.6 30 18:20 13.06.2020
1406 Clouds 25 1009 50 10000 2.6 30 17:57 13.06.2020
1407 Clouds 25 1009 53 10000 3.1 10 17:39 13.06.2020
1408 Clouds 26 1009 58 0 2.32 356 17:20 13.06.2020
1409 Clouds 26 1009 57 0 2.32 356 16:55 13.06.2020
1410 Clouds 26 1009 58 0 0.45 355 16:37 13.06.2020
1411 Clouds 26 1009 57 0 2.74 335 16:18 13.06.2020
1412 Clouds 26 1010 57 0 2.74 335 15:44 13.06.2020
1413 Clouds 24 1010 56 10000 4.6 350 15:26 13.06.2020
1414 Clouds 25 1011 53 10000 2.6 270 14:55 13.06.2020
1415 Clouds 24 1011 56 10000 1.5 340 14:36 13.06.2020
1416 Clouds 24 1011 56 10000 3.1 260 14:18 13.06.2020
1417 Clouds 23 1011 64 10000 3.1 270 13:41 13.06.2020
1418 Clouds 24 1011 64 10000 3.1 270 13:23 13.06.2020
1419 Clouds 24 1010 62 0 1.34 304 12:44 13.06.2020
1420 Clouds 22 1011 60 10000 3.6 260 12:26 13.06.2020
1421 Clouds 21 1011 60 10000 4.6 240 11:59 13.06.2020
1422 Clouds 21 1012 64 10000 5.1 240 11:39 13.06.2020
1423 Clouds 21 1012 64 10000 5.1 240 11:19 13.06.2020
1424 Clouds 21 1055 53 0 1.34 296 10:57 13.06.2020
1425 Clouds 21 1055 53 0 0.89 216 10:38 13.06.2020
1426 Clouds 21 1012 65 0 0.89 203 10:19 13.06.2020
1427 Clouds 20 1012 67 0 0.89 316 09:45 13.06.2020
1428 Clouds 18 1012 68 10000 5.7 240 09:27 13.06.2020
1429 Clouds 18 1011 74 0 0.45 202 08:55 13.06.2020
1430 Clouds 18 1011 75 0 0.45 205 08:37 13.06.2020
1431 Clear 17 1011 77 0 0.45 285 08:19 13.06.2020
1432 Clear 17 1011 79 0 0.45 257 07:42 13.06.2020
1433 Clear 16 1011 81 0 0.45 184 07:22 13.06.2020
1434 Clear 14 1011 95 0 4.48 253 06:38 13.06.2020
1435 Clear 14 1010 96 0 3.81 255 06:19 13.06.2020
1436 Clear 13 1010 95 0 2.93 245 05:27 13.06.2020
1437 Clear 14 1009 94 0 2.23 242 04:34 13.06.2020
1438 Clear 14 1008 93 0 1.24 241 02:55 13.06.2020
1439 Clear 14 1008 93 0 0.05 128 02:37 13.06.2020
1440 Clear 15 1008 91 0 0.05 128 01:48 13.06.2020
1441 Clear 15 1008 90 0 0.92 73 01:22 13.06.2020
1442 Clear 16 1008 89 0 0.92 73 00:48 13.06.2020
1443 Clear 16 1007 89 0 1.71 77 00:27 13.06.2020
1444 Clear 17 1007 86 0 1.71 77 23:58 12.06.2020
1445 Clear 17 1007 84 0 2.32 82 23:38 12.06.2020
1446 Clear 18 1007 82 0 2.32 82 23:18 12.06.2020
1447 Clear 18 1007 77 0 2.32 82 22:42 12.06.2020
1448 Clear 19 1007 72 0 2.64 88 22:19 12.06.2020
1449 Clear 20 1007 65 0 2.64 88 21:56 12.06.2020
1450 Clear 22 1007 61 0 2.59 83 21:37 12.06.2020
1451 Clear 22 1007 58 0 2.64 83 21:19 12.06.2020
1452 Clear 22 1007 49 10000 2.6 60 20:56 12.06.2020
1453 Clear 24 1007 55 0 3.15 83 20:37 12.06.2020
1454 Clear 24 1006 55 0 3.15 83 20:19 12.06.2020
1455 Clear 25 1006 44 10000 4.6 60 19:39 12.06.2020
1456 Clear 25 1006 52 0 0.45 106 19:21 12.06.2020
1457 Clear 26 1006 50 0 0.45 108 18:58 12.06.2020
1458 Clear 26 1006 50 0 4.71 77 18:36 12.06.2020
1459 Clear 26 1006 47 0 0.45 340 18:18 12.06.2020
1460 Clear 27 1006 46 0 0.45 315 17:40 12.06.2020
1461 Clear 26 1006 44 0 0.45 210 17:22 12.06.2020
1462 Clear 26 1006 43 0 0.45 343 16:45 12.06.2020
1463 Clear 26 1006 47 0 0.45 262 16:21 12.06.2020
1464 Clear 26 1006 47 0 0.45 248 15:50 12.06.2020
1465 Clear 26 1007 49 0 0.45 126 15:28 12.06.2020
1466 Clear 26 1007 46 0 0.45 209 14:59 12.06.2020
1467 Clear 26 1007 46 0 0.45 259 14:41 12.06.2020
1468 Clear 25 1007 49 0 0.45 119 14:21 12.06.2020
1469 Clear 25 1007 49 0 0.45 336 13:56 12.06.2020
1470 Clear 25 1007 50 0 0.45 25 13:37 12.06.2020
1471 Clear 24 1007 50 0 0.45 221 13:18 12.06.2020
1472 Clear 23 1008 49 10000 5.1 90 12:39 12.06.2020
1473 Clear 22 1008 49 10000 5.1 90 12:19 12.06.2020
1474 Clear 21 1008 56 10000 5.1 70 11:44 12.06.2020
1475 Clear 21 1051 59 0 1.79 234 11:23 12.06.2020
1476 Clear 21 1008 60 0 0.45 348 10:57 12.06.2020
1477 Clear 20 1009 65 0 0.45 338 10:39 12.06.2020
1478 Clear 20 1009 66 0 4.05 92 10:21 12.06.2020
1479 Clear 18 1052 66 0 1.34 290 09:44 12.06.2020
1480 Clear 17 1009 72 10000 2.6 70 09:20 12.06.2020
1481 Clear 16 1009 87 0 2.96 100 08:42 12.06.2020
1482 Clear 15 1009 95 0 2.44 94 08:23 12.06.2020
1483 Clear 13 1009 97 0 2.44 94 07:43 12.06.2020
1484 Clear 12 1009 97 0 1.26 103 07:24 12.06.2020
1485 Clear 10 1009 96 0 1.26 103 06:44 12.06.2020
1486 Clear 10 1009 96 0 1.05 157 06:24 12.06.2020
1487 Clear 9 1009 96 0 1.05 157 05:50 12.06.2020
1488 Clear 10 1009 96 0 1.3 141 05:25 12.06.2020
1489 Clear 10 1010 96 0 1.3 119 03:58 12.06.2020
1490 Clear 11 1010 96 0 1.17 116 02:43 12.06.2020
1491 Clear 11 1010 96 0 1.24 112 01:52 12.06.2020
1492 Clear 12 1010 96 0 1.2 101 01:23 12.06.2020
1493 Clear 12 1010 96 0 1.2 101 00:42 12.06.2020
1494 Clear 13 1010 96 0 1.06 109 00:24 12.06.2020
1495 Clear 12 1010 96 0 1.06 109 23:59 11.06.2020
1496 Clear 12 1010 95 0 1.06 109 23:40 11.06.2020
1497 Clear 12 1010 95 0 1.06 109 23:40 11.06.2020
1498 Clear 13 1010 95 0 1 118 23:21 11.06.2020
1499 Clear 13 1010 95 0 1 118 22:57 11.06.2020
1500 Clear 14 1010 94 0 1 118 22:38 11.06.2020
1501 Clear 14 1010 94 0 1.19 111 22:19 11.06.2020
1502 Clear 14 1010 94 0 1.19 111 22:19 11.06.2020
1503 Clear 14 1010 93 0 1.19 111 21:55 11.06.2020
1504 Clear 15 1010 90 0 1.34 100 21:37 11.06.2020
1505 Clear 16 1010 89 0 1.12 90 21:19 11.06.2020
1506 Clear 17 1009 82 0 1.12 90 20:43 11.06.2020
1507 Clouds 18 1009 81 0 1.61 93 20:21 11.06.2020
1508 Clouds 18 1009 81 0 1.61 93 19:45 11.06.2020
1509 Clouds 19 1009 81 0 2.27 88 19:23 11.06.2020
1510 Clouds 18 1009 83 0 2.27 88 18:59 11.06.2020
1511 Clouds 18 1009 82 0 2.27 88 18:41 11.06.2020
1512 Clouds 18 1009 81 0 2.41 72 18:20 11.06.2020
1513 Rain 19 1009 85 0 2.41 72 17:56 11.06.2020
1514 Rain 18 1009 89 0 2.41 72 17:37 11.06.2020
1515 Rain 19 1009 88 0 2 46 17:19 11.06.2020
1516 Rain 19 1009 80 0 2 46 16:56 11.06.2020
1517 Clouds 19 1009 68 0 1.78 23 16:37 11.06.2020
1518 Clouds 20 1009 68 0 1.78 23 16:19 11.06.2020
1519 Clouds 19 1009 72 0 1.78 23 15:42 11.06.2020
1520 Clouds 19 1009 68 10000 1.5 0 15:23 11.06.2020
1521 Clouds 19 1009 67 10000 1.5 350 14:56 11.06.2020
1522 Rain 19 1009 70 0 1.77 316 14:38 11.06.2020
1523 Clouds 19 1009 66 0 1.95 297 14:19 11.06.2020
1524 Clouds 19 1009 75 0 1.95 297 13:54 11.06.2020
1525 Clouds 19 1010 77 0 2.37 280 13:36 11.06.2020
1526 Clouds 18 1010 77 0 2.37 280 13:18 11.06.2020
1527 Clouds 18 1010 76 0 2.37 280 12:39 11.06.2020
1528 Clouds 16 1010 87 10000 2.6 250 12:21 11.06.2020
1529 Clouds 16 1010 87 10000 1 0 11:59 11.06.2020
1530 Clouds 15 1010 87 10000 1 0 11:41 11.06.2020
1531 Clouds 15 1010 87 10000 1 0 11:23 11.06.2020
1532 Clouds 14 1010 87 10000 1.5 340 10:59 11.06.2020
1533 Clouds 13 1010 87 10000 1.5 340 10:41 11.06.2020
1534 Rain 13 1010 93 9000 1.5 300 10:19 11.06.2020
1535 Rain 12 1010 97 0 2.46 227 09:44 11.06.2020
1536 Clouds 12 1010 97 0 2.03 202 09:26 11.06.2020
1537 Clouds 13 1010 97 0 2.03 202 08:55 11.06.2020
1538 Clouds 12 1010 97 0 1.64 205 08:36 11.06.2020
1539 Rain 12 1010 97 0 1.64 205 08:18 11.06.2020
1540 Rain 12 1010 97 0 1.64 205 07:41 11.06.2020
1541 Clouds 12 1010 97 0 1.37 221 07:23 11.06.2020
1542 Clouds 12 1010 97 0 1.37 221 06:33 11.06.2020
1543 Rain 12 1009 97 0 1.42 246 05:57 11.06.2020
1544 Rain 12 1009 97 0 1.25 226 04:48 11.06.2020
1545 Rain 12 1009 97 0 1.14 314 03:25 11.06.2020
1546 Rain 12 1010 97 0 1.14 314 02:49 11.06.2020
1547 Rain 12 1010 97 0 1.07 4 01:57 11.06.2020
1548 Rain 12 1010 97 0 1.5 8 01:35 11.06.2020
1549 Rain 12 1010 96 0 1.5 8 00:59 11.06.2020
1550 Rain 12 1010 96 0 1.5 8 00:39 11.06.2020
1551 Rain 12 1010 96 0 1.82 16 00:20 11.06.2020
1552 Rain 13 1010 96 0 1.82 16 23:43 10.06.2020
1553 Rain 13 1010 96 0 2.15 27 23:23 10.06.2020
1554 Rain 13 1011 96 0 2.15 27 22:55 10.06.2020
1555 Rain 13 1010 95 0 2.15 27 22:37 10.06.2020
1556 Rain 13 1011 95 0 2.4 26 22:18 10.06.2020
1557 Rain 13 1011 95 0 2.4 26 22:18 10.06.2020
1558 Rain 13 1010 95 0 2.4 26 21:55 10.06.2020
1559 Rain 13 1010 95 0 2.61 13 21:37 10.06.2020
1560 Rain 13 1010 95 0 2.61 13 21:18 10.06.2020
1561 Rain 14 1010 95 0 2.61 13 20:55 10.06.2020
1562 Rain 14 1010 94 0 2.61 13 20:37 10.06.2020
1563 Rain 14 1010 94 0 2.24 12 20:19 10.06.2020
1564 Rain 14 1010 94 0 2.24 12 19:39 10.06.2020
1565 Rain 14 1010 94 0 1.91 20 19:19 10.06.2020
1566 Rain 14 1010 94 0 1.91 20 18:57 10.06.2020
1567 Rain 14 1010 94 0 1.92 24 18:39 10.06.2020
1568 Rain 14 1010 94 0 1.92 24 18:19 10.06.2020
1569 Rain 14 1011 94 0 1.92 24 17:55 10.06.2020
1570 Rain 15 1011 94 0 1.92 24 17:36 10.06.2020
1571 Rain 15 1011 94 0 2.43 9 17:18 10.06.2020
1572 Rain 14 1011 94 0 2.43 9 16:56 10.06.2020
1573 Rain 15 1011 94 0 2.43 9 16:38 10.06.2020
1574 Rain 14 1011 93 0 2.7 1 16:18 10.06.2020
1575 Rain 14 1011 93 0 2.7 1 15:40 10.06.2020
1576 Rain 14 1011 93 0 2.7 1 15:40 10.06.2020
1577 Rain 14 1011 92 0 2.82 359 15:21 10.06.2020
1578 Rain 14 1011 93 0 2.82 359 14:56 10.06.2020
1579 Rain 15 1011 93 0 2.82 359 14:38 10.06.2020
1580 Rain 15 1011 93 0 2.05 356 14:19 10.06.2020
1581 Rain 15 1011 93 0 2.05 356 13:40 10.06.2020
1582 Rain 15 1011 93 0 1.92 339 13:21 10.06.2020
1583 Rain 15 1011 93 0 1.92 339 12:44 10.06.2020
1584 Rain 14 1011 93 0 1.9 320 12:20 10.06.2020
1585 Rain 14 1012 94 0 1.9 320 11:58 10.06.2020
1586 Rain 14 1012 94 0 1.9 320 11:40 10.06.2020
1587 Rain 14 1012 94 0 1.7 310 11:19 10.06.2020
1588 Rain 14 1012 95 0 1.7 310 10:57 10.06.2020
1589 Rain 14 1012 95 0 1.7 310 10:39 10.06.2020
1590 Clouds 14 1012 95 0 1.48 300 10:20 10.06.2020
1591 Clouds 14 1012 95 0 1.48 300 09:42 10.06.2020
1592 Clouds 13 1012 95 0 1.32 259 09:23 10.06.2020
1593 Clouds 13 1012 96 0 1.32 259 08:57 10.06.2020
1594 Clouds 13 1012 96 0 1.18 259 08:38 10.06.2020
1595 Clouds 13 1012 95 0 1.18 259 08:20 10.06.2020
1596 Clouds 13 1012 96 0 1.18 259 07:39 10.06.2020
1597 Clouds 13 1012 95 0 1.14 264 07:20 10.06.2020
1598 Clouds 12 1012 95 0 1.14 264 06:44 10.06.2020
1599 Clouds 12 1012 95 0 1.22 266 06:23 10.06.2020
1600 Clouds 12 1012 95 0 1.22 266 05:56 10.06.2020
1601 Clouds 12 1012 95 0 1.2 274 05:26 10.06.2020
1602 Clouds 12 1012 95 0 0.97 282 04:35 10.06.2020
1603 Rain 12 1012 94 0 1.19 295 02:57 10.06.2020
1604 Clouds 13 1060 81 0 0.45 71 02:22 10.06.2020
1605 Clouds 13 1061 80 0 1.74 262 01:37 10.06.2020
1606 Clouds 13 1061 78 0 0.89 85 00:40 10.06.2020
1607 Clouds 13 1061 76 0 1.61 277 00:22 10.06.2020
1608 Clouds 13 1013 100 10000 2.1 10 23:57 09.06.2020
1609 Clouds 13 1013 100 10000 2.1 10 23:39 09.06.2020
1610 Clouds 12 1013 93 10000 2.6 10 23:20 09.06.2020
1611 Clouds 12 1013 93 10000 1.5 320 22:56 09.06.2020
1612 Clouds 13 1013 89 0 1.22 312 22:38 09.06.2020
1613 -273 0 0 0 0 0 22:19 09.06.2020
1614 Clouds 14 1060 69 0 0.45 68 21:56 09.06.2020
1615 Clouds 13 1013 89 0 1.22 312 21:38 09.06.2020
1616 Clouds 13 1013 88 0 1.23 338 21:20 09.06.2020
1617 Clouds 14 1013 88 0 1.23 338 20:56 09.06.2020
1618 Clouds 14 1013 88 0 1.23 338 20:38 09.06.2020
1619 Clouds 14 1013 88 0 1.3 5 20:18 09.06.2020
1620 Clouds 14 1013 87 10000 3.1 30 19:57 09.06.2020
1621 Clouds 13 1013 93 10000 3.1 20 19:38 09.06.2020
1622 Clouds 13 1013 93 10000 3.1 20 19:20 09.06.2020
1623 Clouds 14 1013 87 10000 4.1 30 18:46 09.06.2020
1624 Clouds 14 1013 87 10000 4.1 10 18:28 09.06.2020
1625 Clouds 14 1013 87 10000 3.6 10 17:59 09.06.2020
1626 Clouds 14 1013 87 10000 3.6 10 17:41 09.06.2020
1627 Clouds 14 1013 82 10000 4.1 20 17:22 09.06.2020
1628 Clouds 14 1013 87 10000 4.6 20 17:00 09.06.2020
1629 Clouds 14 1013 87 10000 3.6 20 16:40 09.06.2020
1630 Clouds 14 1013 87 10000 3.6 20 16:21 09.06.2020
1631 Clouds 14 1013 93 10000 2.6 20 15:55 09.06.2020
1632 Clouds 14 1013 93 10000 2.6 20 15:36 09.06.2020
1633 Clouds 14 1013 93 10000 2.6 30 15:18 09.06.2020
1634 Rain 14 1013 94 0 2.62 48 14:40 09.06.2020
1635 Rain 14 1013 97 0 3.03 48 14:20 09.06.2020
1636 Clouds 13 1013 93 8000 3.6 40 13:57 09.06.2020
1637 Clouds 13 1013 97 0 2.99 42 13:38 09.06.2020
1638 Clouds 13 1013 97 0 2.99 42 13:20 09.06.2020
1639 Clouds 13 1013 97 0 2.99 42 12:42 09.06.2020
1640 Clouds 13 1013 97 0 2.99 42 12:42 09.06.2020
1641 Drizzle 12 1013 93 4700 3.6 40 12:21 09.06.2020
1642 Mist 12 1013 100 3500 3.6 40 11:59 09.06.2020
1643 Rain 12 1013 97 0 2.52 37 11:40 09.06.2020
1644 Rain 12 1013 97 0 2.52 37 11:20 09.06.2020
1645 Rain 12 1013 97 0 2.52 37 10:58 09.06.2020
1646 Rain 12 1013 97 0 2.52 37 10:40 09.06.2020
1647 Rain 12 1013 97 0 2.1 47 10:21 09.06.2020
1648 Rain 12 1012 97 0 2.1 47 09:44 09.06.2020
1649 Rain 12 1012 96 0 2.77 45 09:24 09.06.2020
1650 Rain 11 1012 96 0 2.77 45 08:56 09.06.2020
1651 Rain 11 1012 96 0 2.77 45 08:38 09.06.2020
1652 Rain 11 1012 96 0 2.84 43 08:19 09.06.2020
1653 Rain 11 1012 96 0 2.84 43 07:38 09.06.2020
1654 Rain 11 1012 96 0 2.89 23 07:19 09.06.2020
1655 Rain 11 1012 96 0 2.89 23 06:54 09.06.2020
1656 Rain 11 1012 96 0 2.58 17 06:34 09.06.2020
1657 Rain 11 1012 95 0 2.11 15 05:35 09.06.2020
1658 Rain 11 1012 94 0 1.75 13 03:34 09.06.2020
1659 Rain 11 1013 89 0 0.94 54 01:43 09.06.2020
1660 Rain 12 1013 88 0 1.2 76 01:19 09.06.2020
1661 Rain 12 1013 87 0 1.2 76 00:55 09.06.2020
1662 Rain 12 1013 86 0 1.6 91 00:36 09.06.2020
1663 Rain 12 1013 85 0 1.6 91 00:18 09.06.2020
1664 Rain 12 1013 82 0 1.6 91 23:40 08.06.2020
1665 Clouds 13 1013 82 0 1.75 96 23:19 08.06.2020
1666 Clouds 13 1013 82 0 1.75 96 22:55 08.06.2020
1667 Clouds 13 1013 81 0 1.98 84 22:37 08.06.2020
1668 Clouds 13 1013 81 0 1.98 84 22:19 08.06.2020
1669 Clouds 13 1013 80 0 1.98 84 21:55 08.06.2020
1670 Clouds 13 1013 80 0 2.46 65 21:36 08.06.2020
1671 Clouds 13 1013 79 0 2.46 65 21:18 08.06.2020
1672 Clouds 14 1013 78 0 2.46 65 20:54 08.06.2020
1673 Clouds 14 1013 78 0 2.46 65 20:36 08.06.2020
1674 Clouds 14 1013 76 0 2.38 53 20:18 08.06.2020
1675 Clouds 15 1013 72 0 2.38 53 19:41 08.06.2020
1676 Clouds 15 1013 72 0 2.48 56 19:20 08.06.2020
1677 Clouds 15 1013 70 0 2.48 56 18:42 08.06.2020
1678 Clouds 16 1013 69 0 3.13 57 18:20 08.06.2020
1679 Clouds 16 1013 69 0 3.13 57 18:20 08.06.2020
1680 Clouds 15 1013 69 0 3.13 57 17:57 08.06.2020
1681 Clouds 16 1013 68 0 3.19 61 17:39 08.06.2020
1682 Clouds 16 1013 68 0 3.19 61 17:21 08.06.2020
1683 Clouds 16 1013 66 0 3.19 61 16:58 08.06.2020
1684 Clouds 16 1013 67 0 3.19 61 16:39 08.06.2020
1685 Clouds 17 1013 66 0 0.45 306 16:21 08.06.2020
1686 Clouds 17 1013 67 0 3.52 61 15:42 08.06.2020
1687 Clouds 16 1013 67 0 3.74 62 15:21 08.06.2020
1688 Clouds 16 1013 66 0 3.74 62 14:58 08.06.2020
1689 Clouds 16 1013 68 0 0.45 325 14:38 08.06.2020
1690 Clouds 15 1013 65 0 0.45 246 14:19 08.06.2020
1691 Clouds 16 1013 66 0 0.45 225 13:43 08.06.2020
1692 Clouds 16 1013 65 0 0.45 301 13:23 08.06.2020
1693 Clouds 16 1014 70 0 0.45 109 12:43 08.06.2020
1694 Clouds 14 1013 71 10000 4.6 80 12:20 08.06.2020
1695 Clouds 14 1013 71 10000 4.6 70 11:59 08.06.2020
1696 Clouds 13 1014 76 10000 4.1 70 11:40 08.06.2020
1697 Clouds 13 1014 76 10000 4.1 70 11:22 08.06.2020
1698 Clouds 14 1014 76 0 3.21 71 11:22 08.06.2020
1699 Clouds 14 1014 83 0 0.45 198 10:58 08.06.2020
1700 Clouds 13 1014 94 0 2.74 72 10:38 08.06.2020
1701 Clouds 12 1014 95 0 2.74 72 10:20 08.06.2020
1702 Clouds 12 1014 97 0 2.74 72 09:57 08.06.2020
1703 Clouds 12 1014 97 0 2.74 72 09:57 08.06.2020
1704 Clouds 12 1014 97 0 2.69 69 09:39 08.06.2020
1705 Clouds 11 1014 97 0 1.61 77 09:21 08.06.2020
1706 Clouds 11 1014 97 0 1.61 77 08:46 08.06.2020
1707 Clouds 10 1014 97 0 0.94 98 08:22 08.06.2020
1708 Clouds 10 1013 97 0 0.94 98 07:46 08.06.2020
1709 Clouds 10 1013 97 0 0.82 101 07:23 08.06.2020
1710 Clouds 9 1013 97 0 0.82 101 06:50 08.06.2020
1711 Clouds 9 1013 97 0 0.96 99 06:30 08.06.2020
1712 Clouds 9 1013 97 0 0.96 99 05:51 08.06.2020
1713 Clouds 9 1013 97 0 0.21 176 04:29 08.06.2020
1714 Clouds 9 1013 96 0 0.71 172 02:32 08.06.2020
1715 Clouds 9 1013 96 0 0.82 159 01:55 08.06.2020
1716 Clouds 9 1013 96 0 0.87 147 01:30 08.06.2020
1717 Clouds 9 1013 96 0 0.87 147 00:33 08.06.2020
1718 Clouds 9 1013 96 0 0.76 131 23:59 07.06.2020
1719 Clouds 9 1013 96 0 0.4 147 23:37 07.06.2020
1720 Clouds 9 1013 96 0 0.4 147 23:18 07.06.2020
1721 Clouds 9 1013 96 0 0.4 147 22:40 07.06.2020
1722 Clouds 9 1013 96 0 0.18 173 22:20 07.06.2020
1723 -273 0 0 0 0 0 22:00 07.06.2020
1724 Clouds 9 1013 96 0 1.02 228 21:41 07.06.2020
1725 Clouds 9 1013 96 0 1.04 357 21:23 07.06.2020
1726 Rain 9 1013 96 0 1.04 357 20:57 07.06.2020
1727 Rain 10 1013 96 0 1.26 304 20:38 07.06.2020
1728 Rain 10 1013 96 0 1.26 304 20:20 07.06.2020
1729 Rain 10 1013 96 0 1.26 304 19:56 07.06.2020
1730 Rain 9 1013 96 0 1.26 304 19:38 07.06.2020
1731 Rain 9 1013 96 0 1.82 262 19:19 07.06.2020
1732 Rain 9 1012 96 0 1.82 262 18:56 07.06.2020
1733 Rain 9 1012 96 0 1.82 262 18:37 07.06.2020
1734 Rain 9 1012 95 0 2.38 259 18:19 07.06.2020
1735 Rain 9 1012 96 0 2.38 259 17:55 07.06.2020
1736 Rain 9 1012 95 0 2.38 259 17:37 07.06.2020
1737 Rain 9 1012 96 0 2.78 255 17:19 07.06.2020
1738 Rain 10 1012 95 0 0.45 199 16:42 07.06.2020
1739 Rain 10 1011 93 10000 4.6 290 16:21 07.06.2020
1740 Rain 11 1011 87 7000 4.6 280 15:40 07.06.2020
1741 Rain 11 1011 87 7000 4.6 280 15:21 07.06.2020
1742 Rain 11 1010 100 8000 4.1 280 14:41 07.06.2020
1743 Rain 11 1010 100 8000 4.1 280 14:41 07.06.2020
1744 Rain 11 1010 100 8000 4.1 280 14:41 07.06.2020
1745 Rain 11 1010 100 8000 4.1 280 14:41 07.06.2020
1746 Rain 11 1010 93 10000 4.1 270 14:22 07.06.2020
1747 Rain 12 1010 93 2700 4.1 270 13:48 07.06.2020
1748 Rain 12 1009 93 3200 3.6 300 13:22 07.06.2020
1749 Rain 12 1009 93 2700 1.5 290 12:57 07.06.2020
1750 Rain 12 1009 96 0 2.4 304 12:39 07.06.2020
1751 Rain 12 1009 96 0 2.4 304 12:39 07.06.2020
1752 Rain 12 1009 96 0 2.01 327 12:20 07.06.2020
1753 Rain 12 1009 97 0 2.01 327 11:55 07.06.2020
1754 Rain 12 1008 97 0 2.01 327 11:36 07.06.2020
1755 Rain 12 1008 97 0 3.7 354 11:18 07.06.2020
1756 Rain 12 1008 96 0 3.7 354 10:45 07.06.2020
1757 Rain 13 1008 97 0 4.95 348 10:20 07.06.2020
1758 Rain 13 1008 97 0 4.95 348 10:20 07.06.2020
1759 Rain 13 1008 96 0 4.95 348 09:59 07.06.2020
1760 Rain 13 1007 97 0 4.95 348 09:39 07.06.2020
1761 Clouds 13 1007 97 0 0.45 172 09:20 07.06.2020
1762 Clouds 13 1007 97 0 2.95 341 08:58 07.06.2020
1763 Clouds 13 1007 93 10000 3.6 300 08:39 07.06.2020
1764 Clouds 13 1007 97 0 0.73 76 08:21 07.06.2020
1765 Clouds 13 1006 97 0 0.73 76 07:38 07.06.2020
1766 Clouds 13 1006 97 0 1.79 116 06:54 07.06.2020
1767 Clouds 13 1006 96 0 1.96 107 05:53 07.06.2020
1768 Clouds 13 1006 96 0 1.85 158 04:22 07.06.2020
1769 Clouds 13 1006 96 0 1.85 158 03:46 07.06.2020
1770 Rain 13 1007 95 0 1.8 198 02:18 07.06.2020
1771 Rain 13 1007 95 0 2.54 166 01:26 07.06.2020
1772 Rain 13 1008 95 0 2.54 166 00:48 07.06.2020
1773 Rain 13 1008 95 0 2.69 165 00:21 07.06.2020
1774 Rain 13 1008 94 0 2.69 165 23:59 06.06.2020
1775 Rain 13 1008 94 0 3.22 152 23:38 06.06.2020
1776 Rain 13 1008 94 0 3.22 152 23:20 06.06.2020
1777 Rain 13 1008 94 0 3.22 152 22:57 06.06.2020
1778 Rain 13 1008 94 0 3.22 152 22:39 06.06.2020
1779 Rain 14 1008 93 0 3.31 155 22:20 06.06.2020
1780 Rain 14 1008 93 0 3.31 155 21:56 06.06.2020
1781 Rain 14 1008 93 0 2.76 172 21:38 06.06.2020
1782 Rain 14 1007 92 0 2.82 159 21:19 06.06.2020
1783 Rain 14 1007 91 0 2.82 159 20:40 06.06.2020
1784 Rain 14 1007 90 0 2.16 139 20:20 06.06.2020
1785 Rain 14 1007 90 0 2.16 139 19:58 06.06.2020
1786 Rain 15 1007 88 0 2.16 139 19:40 06.06.2020
1787 Rain 15 1007 86 0 0.97 151 19:21 06.06.2020
1788 Rain 15 1007 87 10000 4.1 360 18:56 06.06.2020
1789 Rain 16 1006 82 10000 3.1 10 18:38 06.06.2020
1790 Rain 16 1006 82 10000 3.1 10 18:20 06.06.2020
1791 Clouds 17 1006 77 10000 4.6 350 17:43 06.06.2020
1792 Clouds 17 1006 77 10000 5.1 350 17:21 06.06.2020
1793 Clouds 17 1006 77 10000 5.1 350 17:21 06.06.2020
1794 Clouds 17 1006 67 10000 4.6 330 16:57 06.06.2020
1795 Clouds 18 1006 67 10000 4.6 330 16:39 06.06.2020
1796 Clouds 18 1006 68 10000 2.6 220 16:20 06.06.2020
1797 Clouds 19 1006 59 10000 3.6 250 15:54 06.06.2020
1798 Rain 19 1004 67 0 2.79 272 15:36 06.06.2020
1799 Rain 19 1004 62 0 2.79 272 15:18 06.06.2020
1800 Rain 18 1004 66 0 2.79 272 14:39 06.06.2020
1801 Rain 18 1004 65 0 2.91 271 14:20 06.06.2020
1802 Rain 18 1005 65 0 1.34 263 13:54 06.06.2020
1803 Rain 19 1006 62 0 0.45 267 13:36 06.06.2020
1804 Rain 19 1006 62 0 0.45 244 13:18 06.06.2020
1805 Rain 19 1006 60 0 1.34 227 12:41 06.06.2020
1806 Rain 19 1006 62 0 0.89 196 12:21 06.06.2020
1807 Rain 19 1006 65 0 0.45 199 11:58 06.06.2020
1808 Rain 18 1006 70 0 0.45 200 11:38 06.06.2020
1809 Clouds 18 1006 71 0 6.38 265 11:19 06.06.2020
1810 Clouds 17 1006 72 0 6.38 265 10:57 06.06.2020
1811 Clouds 17 1006 73 0 6.38 265 10:39 06.06.2020
1812 Clouds 16 1005 72 0 0.45 191 10:20 06.06.2020
1813 Clouds 16 1005 72 0 0.45 217 09:45 06.06.2020
1814 Clouds 16 1006 72 0 0.45 227 09:27 06.06.2020
1815 Clouds 15 1005 71 0 0.45 202 08:56 06.06.2020
1816 Clouds 15 1005 73 0 0.45 201 08:38 06.06.2020
1817 Clouds 15 1005 74 0 0.45 190 08:18 06.06.2020
1818 Clouds 14 1005 75 0 0.45 178 07:45 06.06.2020
1819 Clouds 14 1005 75 0 1.58 177 07:20 06.06.2020
1820 Clouds 14 1005 76 0 0.45 187 06:46 06.06.2020
1821 Clouds 14 1004 71 10000 5.1 220 06:27 06.06.2020
1822 Clouds 14 1004 71 10000 6.2 240 05:50 06.06.2020
1823 Clouds 14 1002 73 0 2.79 216 05:25 06.06.2020
1824 Clouds 13 1002 75 0 2.79 216 04:38 06.06.2020
1825 Clouds 14 1005 73 0 0.45 230 02:36 06.06.2020
1826 Clouds 14 1005 70 0 0.45 209 01:42 06.06.2020
1827 Clouds 14 1005 69 0 0.45 206 01:18 06.06.2020
1828 Clouds 15 1004 68 0 0.89 207 00:43 06.06.2020
1829 Clouds 14 1004 70 0 0.45 248 00:25 06.06.2020
1830 Clouds 13 1004 71 0 0.45 197 23:40 05.06.2020
1831 Clouds 13 1004 71 0 7.03 247 23:21 05.06.2020
1832 Clouds 14 1004 70 0 0.45 208 22:59 05.06.2020
1833 Clouds 14 1004 70 0 0.45 203 22:41 05.06.2020
1834 Clouds 14 1004 69 0 0.89 192 22:23 05.06.2020
1835 -273 0 0 0 0 0 21:58 05.06.2020
1836 Clouds 14 1003 68 0 0.45 207 21:40 05.06.2020
1837 Clouds 15 1003 67 0 0.89 232 21:20 05.06.2020
1838 Clouds 15 1003 67 0 0.89 300 20:57 05.06.2020
1839 Clouds 15 1003 67 0 0.45 254 20:38 05.06.2020
1840 Clouds 16 1003 66 0 0.45 219 20:19 05.06.2020
1841 Clouds 16 1002 66 0 0.45 207 19:40 05.06.2020
1842 Clouds 16 1002 66 0 0.45 207 19:40 05.06.2020
1843 Clouds 16 1002 67 0 0.45 311 19:22 05.06.2020
1844 Clouds 16 1002 67 0 0.89 192 18:56 05.06.2020
1845 Clouds 16 1002 68 0 0.45 298 18:38 05.06.2020
1846 Clouds 16 1002 71 0 0.45 192 18:19 05.06.2020
1847 Clouds 16 1002 70 0 0.45 205 17:56 05.06.2020
1848 Clouds 16 1002 69 0 0.45 223 17:37 05.06.2020
1849 Clouds 15 1002 68 0 0.45 276 17:18 05.06.2020
1850 Clouds 16 1002 65 0 0.89 279 16:38 05.06.2020
1851 Rain 16 1001 66 0 1.34 195 16:20 05.06.2020
1852 Rain 16 1001 68 0 1.34 212 15:43 05.06.2020
1853 Rain 16 1001 68 0 1.34 212 15:43 05.06.2020
1854 Rain 15 1000 86 0 2.24 279 15:22 05.06.2020
1855 Rain 15 1000 83 0 0.45 283 14:58 05.06.2020
1856 Rain 16 1000 71 0 1.79 283 14:40 05.06.2020
1857 Rain 16 1001 75 0 0.45 332 14:22 05.06.2020
1858 Rain 16 1001 79 0 0.45 296 13:58 05.06.2020
1859 Rain 16 1001 79 0 0.45 328 13:58 05.06.2020
1860 Rain 14 1001 88 0 2.4 241 13:38 05.06.2020
1861 Rain 13 1001 90 0 2.4 241 13:19 05.06.2020
1862 Rain 14 1001 85 0 2.4 241 12:42 05.06.2020
1863 Rain 14 1001 85 0 1.59 270 12:20 05.06.2020
1864 Rain 14 1001 89 0 1.59 270 11:56 05.06.2020
1865 Rain 13 1001 91 0 0.45 218 11:37 05.06.2020
1866 Rain 13 1001 92 0 2.7 266 11:19 05.06.2020
1867 Rain 13 1001 89 0 2.7 266 10:42 05.06.2020
1868 Rain 13 1001 89 0 1.51 268 10:21 05.06.2020
1869 Clouds 12 1001 91 0 1.51 268 09:58 05.06.2020
1870 Clouds 12 1001 92 0 0.45 325 09:40 05.06.2020
1871 Rain 12 1001 93 0 0.45 323 09:21 05.06.2020
1872 Rain 12 1001 94 0 2.91 275 08:59 05.06.2020
1873 Rain 11 1001 94 0 2.91 275 08:41 05.06.2020
1874 Rain 11 1001 94 0 3.14 294 08:19 05.06.2020
1875 Rain 11 1000 93 0 0.45 180 07:55 05.06.2020
1876 Rain 11 1000 93 0 3.14 294 07:36 05.06.2020
1877 Rain 11 1000 92 0 3.59 293 06:54 05.06.2020
1878 Clouds 11 999 91 0 0.45 202 05:24 05.06.2020
1879 Clouds 11 998 91 0 0.45 205 04:44 05.06.2020
1880 Clouds 11 998 91 0 3.82 246 03:53 05.06.2020
1881 Clouds 11 998 91 0 4.1 244 02:44 05.06.2020
1882 Rain 11 998 91 0 3.81 238 02:18 05.06.2020
1883 Rain 11 998 91 0 3.99 245 01:52 05.06.2020
1884 Rain 12 999 92 0 0.45 198 00:59 05.06.2020
1885 Clouds 12 999 92 0 4.07 244 00:39 05.06.2020
1886 Rain 12 998 92 0 0.45 189 00:19 05.06.2020
1887 Rain 12 998 92 0 0.45 199 23:46 04.06.2020
1888 Rain 12 998 92 0 0.45 225 23:26 04.06.2020
1889 Rain 12 999 92 0 0.45 316 22:55 04.06.2020
1890 Rain 13 998 92 0 6.07 250 22:36 04.06.2020
1891 Rain 13 998 92 0 0.45 223 22:18 04.06.2020
1892 Rain 13 998 92 0 0.45 207 21:41 04.06.2020
1893 Rain 13 998 92 0 5.04 251 21:23 04.06.2020
1894 Rain 14 998 91 0 5.04 251 20:59 04.06.2020
1895 Rain 14 998 91 0 0.45 277 20:40 04.06.2020
1896 Clouds 14 998 91 0 0.45 198 20:21 04.06.2020
1897 Clouds 14 998 90 0 3.99 254 19:59 04.06.2020
1898 Rain 15 998 90 0 4.27 253 19:38 04.06.2020
1899 Rain 15 997 90 0 0.45 236 19:20 04.06.2020
1900 Rain 16 997 89 0 4.27 253 18:56 04.06.2020
1901 Rain 15 997 88 0 0.45 198 18:37 04.06.2020
1902 Rain 15 997 87 0 4.98 254 18:19 04.06.2020
1903 Rain 16 997 84 0 4.98 254 17:42 04.06.2020
1904 Rain 17 997 81 0 4.29 261 17:21 04.06.2020
1905 Rain 17 997 77 0 4.29 261 16:56 04.06.2020
1906 Rain 17 997 73 0 4.29 261 16:38 04.06.2020
1907 Clouds 17 996 67 0 0.89 248 16:18 04.06.2020
1908 Clouds 18 996 63 0 0.45 250 15:42 04.06.2020
1909 Rain 18 995 71 0 2.82 282 15:24 04.06.2020
1910 Rain 18 997 65 0 0.89 252 14:40 04.06.2020
1911 Rain 19 998 64 0 3.44 297 14:21 04.06.2020
1912 Rain 19 998 63 0 3.44 297 13:56 04.06.2020
1913 Rain 19 998 65 0 0.45 259 13:38 04.06.2020
1914 Rain 19 999 65 0 0.45 346 13:20 04.06.2020
1915 Rain 19 999 66 0 3.71 292 12:56 04.06.2020
1916 Rain 19 999 67 0 3.71 292 12:38 04.06.2020
1917 Rain 19 999 66 0 0.45 293 12:20 04.06.2020
1918 Rain 18 999 68 0 0.45 195 11:54 04.06.2020
1919 Rain 18 999 70 0 3.24 285 11:36 04.06.2020
1920 Rain 18 999 71 0 3 269 11:18 04.06.2020
1921 Rain 17 999 74 0 3 269 10:39 04.06.2020
1922 Rain 17 999 76 0 2.83 252 10:21 04.06.2020
1923 Rain 17 999 76 0 2.83 252 09:56 04.06.2020
1924 Rain 17 999 76 0 2.83 252 09:38 04.06.2020
1925 Clouds 17 999 74 0 2.09 245 09:19 04.06.2020
1926 Clouds 17 999 73 0 2.09 245 08:41 04.06.2020
1927 Clouds 17 997 71 0 2.71 247 08:22 04.06.2020
1928 Clouds 16 999 77 0 2.71 247 07:33 04.06.2020
1929 Clouds 14 1000 79 0 2.44 235 06:58 04.06.2020
1930 Clouds 14 1000 79 0 2.44 235 06:58 04.06.2020
1931 Clouds 14 1000 79 0 2.44 235 06:40 04.06.2020
1932 Clouds 14 1000 79 0 2.44 235 06:39 04.06.2020
1933 Clouds 14 1040 82 0 2.92 236 06:20 04.06.2020
1934 Clouds 14 999 76 0 2.47 226 05:33 04.06.2020
1935 Rain 14 1000 75 0 2.05 234 03:51 04.06.2020
1936 Rain 14 999 69 0 1.8 249 02:38 04.06.2020
1937 Rain 15 1043 68 0 1.79 45 01:42 04.06.2020
1938 Rain 16 1043 64 0 2.68 61 01:19 04.06.2020
1939 Clouds 17 1044 49 0 3.13 52 00:28 04.06.2020
1940 Clouds 17 1043 54 0 2.17 199 23:41 03.06.2020
1941 Rain 17 1044 53 0 2.01 191 23:20 03.06.2020
1942 -273 0 0 0 0 0 22:58 03.06.2020
1943 Rain 15 1003 82 10000 1 180 22:39 03.06.2020
1944 Rain 15 1003 82 10000 1 150 22:18 03.06.2020
1945 Rain 18 1003 72 10000 0.5 0 21:56 03.06.2020
1946 Rain 20 1003 56 0 1.62 198 21:38 03.06.2020
1947 Clouds 20 1003 54 0 1.11 154 21:20 03.06.2020
1948 Clouds 20 1003 54 0 1.11 154 21:20 03.06.2020
1949 Clouds 20 1003 59 10000 2.6 220 20:54 03.06.2020
1950 Clouds 22 1003 46 0 1.11 154 20:36 03.06.2020
1951 Clouds 22 1003 45 0 0.94 152 20:18 03.06.2020
1952 Clouds 23 1003 45 0 0.94 152 19:54 03.06.2020
1953 Clouds 23 1003 47 0 0.48 105 19:36 03.06.2020
1954 Clouds 23 1003 46 0 0.48 105 19:18 03.06.2020
1955 Clouds 23 1003 49 0 0.48 105 18:41 03.06.2020
1956 Clouds 24 1003 47 0 0.72 345 18:21 03.06.2020
1957 Clouds 25 1004 40 10000 2.1 340 17:55 03.06.2020
1958 Clouds 25 1005 38 10000 1 0 17:37 03.06.2020
1959 Clouds 25 1005 38 10000 1 0 17:18 03.06.2020
1960 Clouds 25 1004 39 0 1.61 352 16:41 03.06.2020
1961 Clouds 25 1004 37 0 1.83 341 16:20 03.06.2020
1962 Clouds 25 1006 41 10000 3.6 320 15:58 03.06.2020
1963 Clouds 25 1006 41 10000 3.6 320 15:40 03.06.2020
1964 Clouds 25 1005 34 0 1.62 329 15:20 03.06.2020
1965 Clouds 25 1005 34 0 0.45 198 15:20 03.06.2020
1966 Clouds 25 1006 36 0 1.62 329 14:46 03.06.2020
1967 Clouds 25 1006 36 0 1.45 328 14:25 03.06.2020
1968 Clouds 25 1006 34 0 1.45 328 13:56 03.06.2020
1969 Clouds 26 1007 37 0 0.45 196 13:38 03.06.2020
1970 Clouds 25 1007 35 0 0.45 190 13:18 03.06.2020
1971 Clouds 25 1007 35 0 1.19 323 12:42 03.06.2020
1972 Clouds 24 1008 38 10000 2.6 180 12:21 03.06.2020
1973 Clouds 24 1008 35 0 0.78 290 11:46 03.06.2020
1974 Clouds 24 1008 38 0 0.75 253 11:27 03.06.2020
1975 Clouds 23 1009 43 0 0.75 253 10:57 03.06.2020
1976 Clouds 23 1009 46 0 1.13 225 10:39 03.06.2020
1977 Clouds 22 1009 47 0 1.13 225 10:20 03.06.2020
1978 Clouds 21 1009 51 0 1.13 225 09:44 03.06.2020
1979 Clouds 18 1010 59 10000 2.6 230 09:20 03.06.2020
1980 Clouds 16 1010 63 10000 2.6 200 08:56 03.06.2020
1981 Clouds 16 1009 67 0 1.51 211 08:36 03.06.2020
1982 Clouds 15 1009 71 0 1.68 213 08:18 03.06.2020
1983 Clouds 13 1010 79 0 1.68 213 07:42 03.06.2020
1984 Clouds 13 1010 81 0 1.84 210 07:20 03.06.2020
1985 Clouds 12 1010 83 0 1.84 210 06:50 03.06.2020
1986 Clouds 11 1010 82 0 1.84 210 06:30 03.06.2020
1987 Rain 12 1010 81 0 1.83 200 05:46 03.06.2020
1988 Rain 11 1011 78 0 1.58 192 04:46 03.06.2020
1989 Rain 12 1011 78 0 1.55 195 03:50 03.06.2020
1990 Rain 11 1012 71 10000 1.5 180 02:47 03.06.2020
1991 Clouds 12 1012 74 0 1.44 203 01:52 03.06.2020
1992 Clouds 13 1013 70 0 1.47 200 00:43 03.06.2020
1993 Clouds 13 1013 69 0 1.29 190 00:25 03.06.2020
1994 Clouds 14 1013 67 0 1.29 190 23:51 02.06.2020
1995 Clouds 14 1013 66 0 1.33 169 23:28 02.06.2020
1996 Clouds 14 1014 71 10000 1.5 150 23:28 02.06.2020
1997 Clouds 15 1014 76 10000 2.6 160 22:57 02.06.2020
1998 Clouds 16 1014 62 0 1.48 154 22:38 02.06.2020
1999 Clouds 16 1014 60 0 1.48 154 22:19 02.06.2020
2000 Clouds 17 1014 58 10000 1.5 160 21:56 02.06.2020
2001 Clouds 18 1014 55 0 1.91 108 21:37 02.06.2020
2002 Clouds 18 1014 54 0 1.91 108 21:19 02.06.2020
2003 Clouds 19 1014 37 10000 2.1 30 20:57 02.06.2020
2004 Clouds 20 1014 37 10000 2.1 30 20:39 02.06.2020
2005 Clear 21 1014 43 0 1.82 89 20:20 02.06.2020
2006 Clear 22 1014 37 10000 2.1 10 19:43 02.06.2020
2007 Clear 22 1014 40 0 1.95 73 19:25 02.06.2020
2008 Clear 23 1014 41 0 1.95 73 18:57 02.06.2020
2009 Clear 23 1014 39 0 1.95 73 18:39 02.06.2020
2010 Clear 23 1014 37 0 2.75 58 18:20 02.06.2020
2011 Clear 23 1015 41 0 2.75 58 17:55 02.06.2020
2012 Clear 23 1015 40 0 2.75 58 17:37 02.06.2020
2013 Clear 23 1015 41 0 0.45 159 17:18 02.06.2020
2014 Clear 23 1015 40 0 0.45 344 16:41 02.06.2020
2015 Clear 23 1016 37 0 3.3 47 16:21 02.06.2020
2016 Clear 22 1016 35 10000 4.1 360 15:59 02.06.2020
2017 Clear 23 1016 35 10000 4.1 360 15:40 02.06.2020
2018 Clear 22 1017 43 10000 3.1 350 15:20 02.06.2020
2019 Clear 22 1017 40 10000 4.1 20 14:46 02.06.2020
2020 Clear 22 1017 42 10000 4.6 30 14:27 02.06.2020
2021 Clear 23 1017 41 0 3.66 45 13:55 02.06.2020
2022 Clear 23 1018 41 0 0.45 142 13:36 02.06.2020
2023 Clear 22 1018 44 0 0.45 17 13:18 02.06.2020
2024 Clear 22 1018 43 0 0.45 340 12:55 02.06.2020
2025 Clouds 21 1018 49 10000 3.6 80 12:37 02.06.2020
2026 Clouds 21 1018 49 10000 3.6 80 12:18 02.06.2020
2027 Clear 21 1018 44 0 3.16 49 11:41 02.06.2020
2028 Clear 20 1018 46 0 2.97 59 11:22 02.06.2020
2029 Clear 20 1018 50 0 2.97 59 10:55 02.06.2020
2030 Clear 20 1019 53 0 2.97 59 10:37 02.06.2020
2031 Clear 20 1019 54 0 2.64 68 10:19 02.06.2020
2032 Clear 19 1019 61 0 2.64 68 09:42 02.06.2020
2033 Clear 16 1019 63 10000 1 0 09:21 02.06.2020
2034 Clear 13 1019 86 0 2.55 78 08:54 02.06.2020
2035 Clear 13 1019 89 0 1.98 83 08:28 02.06.2020
2036 Clear 12 1019 91 0 1.98 83 07:58 02.06.2020
2037 Clear 10 1019 90 0 1.56 85 07:33 02.06.2020
2038 Clear 10 1018 90 0 1.56 85 06:59 02.06.2020
2039 Clear 8 1019 90 0 1.56 85 06:38 02.06.2020
2040 Clear 7 1018 88 0 1.35 89 05:38 02.06.2020
2041 Clear 8 1018 87 0 1.42 97 04:41 02.06.2020
2042 Clear 9 1019 84 0 1.5 87 02:37 02.06.2020
2043 Clear 9 1019 93 10000 0.5 70 01:55 02.06.2020
2044 Clear 11 1019 81 0 2.22 82 00:51 02.06.2020
2045 Clear 12 1020 78 0 1.86 67 00:22 02.06.2020
2046 Clear 11 1019 81 10000 0.5 180 23:39 01.06.2020
2047 Clear 12 1020 74 0 1.95 64 23:20 01.06.2020
2048 Clear 13 1019 71 10000 2.1 150 22:58 01.06.2020
2049 Clear 13 1019 71 10000 2.1 150 22:39 01.06.2020
2050 Clear 13 1019 71 10000 2.1 150 22:39 01.06.2020
2051 Clear 16 1019 67 0 2.21 69 22:19 01.06.2020
2052 Clear 16 1019 68 0 2.21 69 22:19 01.06.2020
2053 Clear 16 1019 54 10000 2.1 140 21:55 01.06.2020
2054 Clear 14 1019 54 10000 2.1 140 21:36 01.06.2020
2055 Clear 18 1019 54 0 2.5 55 21:18 01.06.2020
2056 Clear 19 1019 45 10000 3.1 80 20:54 01.06.2020
2057 Clear 20 1019 51 0 2.87 55 20:36 01.06.2020
2058 Clear 20 1019 50 0 2.87 55 20:18 01.06.2020
2059 Clear 20 1019 50 0 2.87 55 20:18 01.06.2020
2060 Clear 21 1019 47 0 2.87 55 19:42 01.06.2020
2061 Clear 21 1019 46 0 3.39 58 19:20 01.06.2020
2062 Clear 21 1019 47 0 3.39 58 18:58 01.06.2020
2063 Clear 21 1019 46 0 3.39 58 18:39 01.06.2020
2064 Clear 21 1019 46 0 4.16 63 18:19 01.06.2020
2065 Clear 22 1019 46 0 4.16 63 17:55 01.06.2020
2066 Clear 22 1019 46 0 4.37 64 17:36 01.06.2020
2067 Clear 22 1019 44 0 0.45 279 17:18 01.06.2020
2068 Clear 21 1020 42 10000 6.2 50 16:39 01.06.2020
2069 Clear 21 1020 42 10000 6.2 50 16:20 01.06.2020
2070 Clear 21 1020 49 10000 3.1 60 15:56 01.06.2020
2071 Clear 21 1020 49 10000 4.6 80 15:37 01.06.2020
2072 Clear 21 1020 49 10000 4.6 80 15:18 01.06.2020
2073 Clear 21 1020 45 10000 6.7 50 14:56 01.06.2020
2074 Clear 21 1020 42 10000 5.1 80 14:38 01.06.2020
2075 Clear 21 1020 42 10000 5.1 80 14:20 01.06.2020
2076 Clouds 21 1020 48 10000 5.1 80 13:43 01.06.2020
2077 Clouds 20 1020 48 10000 5.1 80 13:22 01.06.2020
2078 Clouds 20 1020 52 10000 4.6 60 12:59 01.06.2020
2079 Clouds 19 1021 52 10000 5.7 80 12:40 01.06.2020
2080 Clouds 20 1021 52 10000 5.7 80 12:40 01.06.2020
2081 Clouds 19 1021 52 10000 5.7 80 12:40 01.06.2020
2082 Clouds 19 1021 52 10000 5.7 80 12:40 01.06.2020
2083 Clear 18 1021 59 10000 4.6 50 12:22 01.06.2020
2084 Clear 18 1021 59 10000 4.6 50 11:58 01.06.2020
2085 Clear 18 1021 63 10000 5.1 50 11:37 01.06.2020
2086 Clear 19 1021 59 0 0.45 203 11:19 01.06.2020
2087 Clear 19 1021 59 0 0.45 203 11:19 01.06.2020
2088 Clear 18 1021 61 0 0.89 196 10:56 01.06.2020
2089 Clear 18 1021 62 0 0.45 213 10:36 01.06.2020
2090 Clear 17 1021 66 0 0.45 111 10:18 01.06.2020
2091 Clear 16 1021 67 10000 5.1 70 09:46 01.06.2020
2092 Clear 14 1021 67 10000 5.1 70 09:26 01.06.2020
2093 Clear 13 1021 81 0 0.45 215 08:57 01.06.2020
2094 Clear 12 1021 85 0 0.45 235 08:37 01.06.2020
2095 Clear 12 1021 87 0 0.45 192 08:18 01.06.2020
2096 Clear 11 1021 90 0 2.41 79 07:41 01.06.2020
2097 Clear 11 1021 90 0 1.93 80 07:22 01.06.2020
2098 Clear 9 1021 87 0 1.93 80 06:49 01.06.2020
2099 Clouds 9 1021 85 0 1.75 85 05:57 01.06.2020
2100 Clouds 9 1021 83 0 1.77 91 05:18 01.06.2020
2101 Clouds 9 1021 87 10000 2.6 100 03:57 01.06.2020
2102 Clouds 9 1021 81 10000 2.6 80 03:39 01.06.2020
2103 Clouds 10 1021 76 10000 2.6 70 02:56 01.06.2020
2104 Clouds 11 1022 78 0 2.73 86 01:40 01.06.2020
2105 Clouds 11 1022 71 10000 2.6 100 01:18 01.06.2020
2106 Clouds 12 1022 71 10000 3.1 90 00:56 01.06.2020
2107 Clouds 12 1022 66 10000 3.1 80 00:37 01.06.2020
2108 Clouds 12 1022 66 10000 3.1 80 00:19 01.06.2020
2109 Clouds 12 1022 66 10000 3.1 90 23:41 31.05.2020
2110 Clouds 12 1022 73 0 2.66 91 23:22 31.05.2020
2111 Clouds 12 1022 72 0 2.66 91 22:59 31.05.2020
2112 Clouds 12 1022 66 10000 4.6 60 22:40 31.05.2020
2113 Clouds 13 1022 70 0 2.69 98 22:22 31.05.2020
2114 Clouds 13 1021 58 10000 5.7 50 21:57 31.05.2020
2115 Clouds 14 1022 68 0 3.53 90 21:39 31.05.2020
2116 Clouds 14 1021 67 0 3.64 92 21:20 31.05.2020
2117 Clouds 14 1021 61 0 3.64 92 20:45 31.05.2020
2118 Clouds 15 1021 54 0 4.32 80 20:25 31.05.2020
2119 Clouds 16 1020 54 0 4.32 80 19:56 31.05.2020
2120 Clouds 16 1020 52 0 3.77 67 19:38 31.05.2020
2121 Clouds 16 1020 51 0 3.77 67 19:20 31.05.2020
2122 Clouds 16 1020 49 0 3.77 67 18:56 31.05.2020
2123 Clouds 17 1020 48 0 2.84 60 18:37 31.05.2020
2124 Clouds 17 1020 50 0 2.84 60 18:18 31.05.2020
2125 Clouds 16 1020 41 10000 3.1 20 17:42 31.05.2020
2126 Clouds 16 1020 41 10000 3.1 20 17:24 31.05.2020
2127 Clouds 16 1020 41 10000 2.6 20 16:42 31.05.2020
2128 Clouds 16 1020 41 10000 2.6 20 16:22 31.05.2020
2129 Clouds 16 1020 41 10000 4.1 10 15:57 31.05.2020
2130 Clouds 17 1020 41 10000 3.6 30 15:37 31.05.2020
2131 Clouds 17 1020 41 10000 3.6 30 15:19 31.05.2020
2132 Clouds 16 1020 41 10000 3.6 30 14:42 31.05.2020
2133 Clouds 16 1020 44 10000 4.6 20 14:19 31.05.2020
2134 Clouds 16 1020 44 10000 4.6 20 14:19 31.05.2020
2135 Clouds 16 1020 44 10000 4.6 20 13:56 31.05.2020
2136 Clouds 16 1020 44 10000 2.6 90 13:37 31.05.2020
2137 Clouds 16 1020 44 10000 2.6 90 13:19 31.05.2020
2138 Clouds 17 1020 47 0 3.32 47 12:55 31.05.2020
2139 Clouds 15 1019 47 10000 2.6 50 12:36 31.05.2020
2140 Clouds 15 1020 50 10000 3.1 60 12:18 31.05.2020
2141 Clouds 14 1020 54 10000 3.6 20 11:44 31.05.2020
2142 Clouds 15 1020 52 0 0.45 32 11:21 31.05.2020
2143 Clouds 15 1020 54 0 2.71 49 10:55 31.05.2020
2144 Clouds 15 1020 57 0 2.37 54 10:37 31.05.2020
2145 Clouds 15 1020 60 0 2.37 54 10:18 31.05.2020
2146 Clouds 13 1020 68 0 2.4 49 09:42 31.05.2020
2147 Clouds 10 1019 71 10000 1.5 50 09:22 31.05.2020
2148 Clouds 11 1019 71 10000 1.5 80 08:57 31.05.2020
2149 Clouds 10 1019 90 0 0.7 48 08:37 31.05.2020
2150 Clouds 10 1019 91 0 0.7 48 08:19 31.05.2020
2151 Clouds 9 1019 93 0 0.7 48 07:40 31.05.2020
2152 Clouds 8 1019 93 0 0.32 120 07:20 31.05.2020
2153 Clouds 6 1019 91 0 0.32 120 06:50 31.05.2020
2154 Clouds 4 1019 93 10000 0.56 123 06:31 31.05.2020
2155 Clouds 5 1019 90 0 0.56 123 05:43 31.05.2020
2156 Clouds 6 1019 89 0 1 85 04:27 31.05.2020
2157 Clouds 6 1019 89 0 1 85 03:48 31.05.2020
2158 Clouds 6 1020 100 10000 0.5 0 02:59 31.05.2020
2159 Clouds 6 1020 100 10000 1 110 01:49 31.05.2020
2160 Clouds 8 1020 85 0 1.55 34 01:27 31.05.2020
2161 Clouds 9 1020 82 0 1.21 46 00:30 31.05.2020
2162 Clouds 10 1020 77 0 1.21 46 23:56 30.05.2020
2163 Clouds 11 1020 75 0 1.53 77 23:38 30.05.2020
2164 Clouds 11 1020 74 0 1.53 77 23:19 30.05.2020
2165 Clouds 12 1020 67 0 1.53 77 22:41 30.05.2020
2166 Clouds 12 1020 66 0 2.25 79 22:23 30.05.2020
2167 Clouds 12 1020 65 0 2.25 79 21:56 30.05.2020
2168 Clouds 13 1020 62 10000 1.5 120 21:38 30.05.2020
2169 Clouds 13 1020 64 0 2.34 74 21:20 30.05.2020
2170 Clouds 13 1020 63 0 2.34 74 20:56 30.05.2020
2171 Clouds 13 1020 62 0 2.88 74 20:38 30.05.2020
2172 Clouds 14 1020 61 0 2.88 74 20:20 30.05.2020
2173 Clouds 14 1020 60 0 2.88 74 19:43 30.05.2020
2174 Clouds 14 1020 61 0 3.54 68 19:22 30.05.2020
2175 Clouds 14 1020 61 0 3.54 68 18:54 30.05.2020
2176 Clouds 14 1020 60 0 4.04 55 18:36 30.05.2020
2177 Clouds 14 1020 62 0 4.04 55 18:18 30.05.2020
2178 Clouds 14 1020 65 0 4.04 55 17:38 30.05.2020
2179 Clouds 14 1020 63 0 4.33 44 17:19 30.05.2020
2180 Clouds 14 1020 63 0 4.33 44 16:44 30.05.2020
2181 Clouds 14 1020 64 0 3.63 32 16:23 30.05.2020
2182 Clouds 14 1020 63 0 3.63 32 15:58 30.05.2020
2183 Clouds 14 1020 62 0 0.45 63 15:39 30.05.2020
2184 Clouds 14 1020 58 0 0.45 101 15:21 30.05.2020
2185 Clouds 15 1020 55 0 0.45 50 14:42 30.05.2020
2186 Clouds 15 1020 58 0 0.45 231 14:22 30.05.2020
2187 Clouds 15 1020 52 0 0.45 133 13:42 30.05.2020
2188 Clear 16 1020 52 0 0.45 162 13:20 30.05.2020
2189 Clear 16 1020 50 0 0.45 28 12:42 30.05.2020
2190 Clear 16 1020 50 0 3.07 47 12:20 30.05.2020
2191 Clear 15 1020 50 10000 5.1 20 11:57 30.05.2020
2192 Clear 15 1020 58 0 3.07 47 11:39 30.05.2020
2193 Clear 14 1020 63 0 0.45 47 11:20 30.05.2020
2194 Clear 14 1021 58 10000 2.1 0 10:40 30.05.2020
2195 Clear 14 1021 64 0 0.45 340 10:21 30.05.2020
2196 Clear 14 1021 76 10000 3.6 30 09:49 30.05.2020
2197 Clear 11 1021 76 10000 3.6 30 09:31 30.05.2020
2198 Clouds 10 1021 95 0 2.79 78 08:51 30.05.2020
2199 Clouds 9 1021 95 0 2.79 78 08:32 30.05.2020
2200 Clear 8 1021 94 0 2.56 76 07:49 30.05.2020
2201 Clear 6 1021 93 0 2.23 72 07:25 30.05.2020
2202 Clear 5 1021 92 0 2.23 72 06:58 30.05.2020
2203 Clear 4 1021 91 0 2.01 71 06:24 30.05.2020
2204 Clear 4 1021 91 0 2.01 71 05:49 30.05.2020
2205 Clear 5 1021 89 0 2.27 77 03:57 30.05.2020
2206 Clear 7 1022 89 0 2.61 89 02:31 30.05.2020
2207 Clear 7 1022 88 0 3.16 76 01:51 30.05.2020
2208 Clear 7 1022 93 10000 3.24 74 00:42 30.05.2020
2209 Clear 8 1022 93 10000 3.05 80 00:21 30.05.2020
2210 Clear 8 1022 87 10000 2.6 90 23:58 29.05.2020
2211 Clear 8 1023 87 10000 2.1 90 23:38 29.05.2020
2212 Clear 10 1023 81 0 3.07 72 23:19 29.05.2020
2213 Clear 11 1023 78 0 3.07 72 22:42 29.05.2020
2214 Clear 12 1023 78 0 3.28 60 22:21 29.05.2020
2215 Clear 12 1023 77 0 3.28 60 21:59 29.05.2020
2216 Clear 12 1023 76 0 3.28 60 21:39 29.05.2020
2217 Clouds 13 1023 74 0 3.53 58 21:20 29.05.2020
2218 Clouds 13 1023 72 0 3.53 58 20:56 29.05.2020
2219 Clouds 14 1023 71 0 3.63 68 20:37 29.05.2020
2220 Clouds 14 1023 71 0 3.63 68 20:18 29.05.2020
2221 Clouds 14 1023 69 0 3.63 68 19:42 29.05.2020
2222 Clouds 15 1023 68 0 4.05 61 19:24 29.05.2020
2223 Clouds 15 1023 69 0 4.05 61 18:48 29.05.2020
2224 Rain 15 1023 71 0 4.09 52 18:23 29.05.2020
2225 Rain 15 1024 69 0 4.09 52 17:59 29.05.2020
2226 Rain 15 1024 69 0 4.09 52 17:39 29.05.2020
2227 Rain 15 1024 67 0 4.45 50 17:20 29.05.2020
2228 Rain 16 1024 66 0 4.45 50 16:46 29.05.2020
2229 Rain 16 1024 66 0 4.45 50 16:46 29.05.2020
2230 Clouds 16 1024 67 0 4.13 58 16:28 29.05.2020
2231 Clouds 16 1024 67 0 4.13 58 15:59 29.05.2020
2232 Clouds 16 1024 66 0 4.13 58 15:41 29.05.2020
2233 Clouds 16 1025 64 0 4.11 60 15:21 29.05.2020
2234 Clouds 15 1025 54 10000 5.1 70 14:57 29.05.2020
2235 Clouds 16 1025 62 0 0.45 184 14:38 29.05.2020
2236 Clouds 15 1025 54 10000 5.1 30 14:19 29.05.2020
2237 Clouds 15 1026 58 10000 3.1 40 13:43 29.05.2020
2238 Clouds 15 1026 58 10000 3.1 40 13:22 29.05.2020
2239 Rain 15 1026 62 10000 4.1 50 12:57 29.05.2020
2240 Clouds 14 1026 58 10000 3.1 50 12:39 29.05.2020
2241 Clouds 13 1026 62 10000 3.6 30 12:19 29.05.2020
2242 Clouds 13 1026 71 10000 3.1 40 11:42 29.05.2020
2243 Clouds 13 1026 68 0 3.41 73 11:24 29.05.2020
2244 Clouds 13 1026 71 0 3.41 73 10:55 29.05.2020
2245 Clouds 12 1026 77 0 2.82 72 10:36 29.05.2020
2246 Clouds 12 1026 78 0 2.82 72 10:18 29.05.2020
2247 Clear 11 1026 71 10000 2.6 30 09:41 29.05.2020
2248 Clouds 10 1026 76 10000 2.1 10 09:19 29.05.2020
2249 Clear 9 1026 76 10000 2.1 10 08:48 29.05.2020
2250 Clear 9 1027 94 0 2.48 71 08:26 29.05.2020
2251 Clear 8 1027 94 0 2.48 71 07:52 29.05.2020
2252 Clear 7 1027 94 0 1.89 83 07:33 29.05.2020
2253 Clear 8 1027 93 0 1.89 83 06:58 29.05.2020
2254 Clear 7 1027 92 0 1.89 83 06:40 29.05.2020
2255 Clear 7 1027 92 0 1.75 85 06:22 29.05.2020
2256 Clear 7 1027 92 0 1.75 85 05:45 29.05.2020
2257 Clear 8 1027 90 0 1.94 59 02:35 29.05.2020
2258 Clouds 8 1028 90 0 2.29 94 01:28 29.05.2020
2259 Clouds 8 1028 88 0 2.29 94 00:54 29.05.2020
2260 Clouds 8 1028 87 0 2.29 94 00:33 29.05.2020
2261 Clouds 9 1028 86 0 2.69 76 23:59 28.05.2020
2262 Clouds 9 1028 86 0 2.69 76 23:39 28.05.2020
2263 Clear 9 1028 86 0 3 68 23:18 28.05.2020
2264 Clear 10 1028 85 0 3 68 22:42 28.05.2020
2265 Clear 10 1028 85 0 3 76 22:24 28.05.2020
2266 Rain 11 1028 86 0 3 76 21:57 28.05.2020
2267 Rain 11 1028 87 0 2.07 46 21:38 28.05.2020
2268 Rain 12 1027 86 0 2.07 46 21:20 28.05.2020
2269 Rain 13 1027 83 0 2.07 46 20:57 28.05.2020
2270 Rain 13 1027 83 0 2.07 46 20:57 28.05.2020
2271 Clear 14 1026 81 0 0.45 184 20:38 28.05.2020
2272 Clouds 14 1027 81 0 2.97 42 20:18 28.05.2020
2273 Clouds 15 1026 80 0 0.45 215 19:55 28.05.2020
2274 Clouds 15 1026 80 0 0.45 219 19:37 28.05.2020
2275 Clouds 15 1026 80 0 0.45 202 19:18 28.05.2020
2276 Clouds 15 1027 78 0 3.5 11 18:42 28.05.2020
2277 Clouds 15 1026 77 0 4.11 3 18:22 28.05.2020
2278 Clouds 15 1026 85 0 4.11 3 17:43 28.05.2020
2279 Clouds 15 1026 85 0 4.11 3 17:43 28.05.2020
2280 Rain 15 1026 89 0 4.31 5 17:23 28.05.2020
2281 Rain 15 1026 92 0 4.31 5 16:59 28.05.2020
2282 Rain 15 1026 92 0 3.66 5 16:39 28.05.2020
2283 Rain 16 1027 92 0 3.66 5 16:20 28.05.2020
2284 Rain 16 1027 92 0 0.45 197 15:46 28.05.2020
2285 Rain 15 1027 88 0 3.38 10 15:25 28.05.2020
2286 Rain 17 1027 75 0 3.38 10 14:59 28.05.2020
2287 Rain 16 1027 76 0 0.45 145 14:40 28.05.2020
2288 Rain 16 1028 80 0 2.4 333 14:21 28.05.2020
2289 Rain 14 1028 87 0 2.4 333 13:44 28.05.2020
2290 Clouds 14 1028 87 0 1.82 329 13:25 28.05.2020
2291 Rain 13 1028 81 0 1.82 329 12:43 28.05.2020
2292 Rain 13 1028 76 0 2 6 12:19 28.05.2020
2293 Rain 14 1028 62 10000 5.1 360 11:54 28.05.2020
2294 Rain 15 1028 63 10000 2.6 330 11:36 28.05.2020
2295 Rain 14 1028 58 10000 2.1 250 11:18 28.05.2020
2296 Rain 14 1028 71 10000 2.6 220 10:42 28.05.2020
2297 Rain 14 1028 73 0 4.78 3 10:24 28.05.2020
2298 Rain 14 1028 73 0 4.78 3 09:56 28.05.2020
2299 Rain 12 1028 74 0 3.73 332 09:38 28.05.2020
2300 Clouds 13 1028 75 0 2.66 305 09:18 28.05.2020
2301 Clouds 12 1028 76 0 2.66 305 08:43 28.05.2020
2302 Clouds 12 1028 77 0 2.99 290 08:22 28.05.2020
2303 Clouds 11 1028 79 0 2.99 290 07:41 28.05.2020
2304 Clouds 11 1028 79 0 2.46 256 07:23 28.05.2020
2305 Clouds 10 1028 78 0 2.46 256 06:45 28.05.2020
2306 Clouds 10 1028 77 0 2.23 253 06:27 28.05.2020
2307 Clouds 10 1028 75 0 2.23 253 05:39 28.05.2020
2308 Clouds 11 1028 74 0 2.31 246 04:38 28.05.2020
2309 Clouds 11 1028 75 0 2.35 240 04:18 28.05.2020
2310 Clouds 10 1029 77 0 2.27 239 02:59 28.05.2020
2311 Clouds 10 1029 77 0 2.27 239 02:38 28.05.2020
2312 Clouds 10 1029 76 0 1.98 238 01:45 28.05.2020
2313 Clouds 10 1030 71 10000 1 0 00:50 28.05.2020
2314 Clouds 11 1030 74 0 1.45 246 00:21 28.05.2020
2315 Clouds 11 1030 73 0 1.45 246 23:56 27.05.2020
2316 Clouds 11 1030 72 0 1.11 235 23:38 27.05.2020
2317 Clouds 12 1030 71 0 1.11 235 23:19 27.05.2020
2318 Clouds 11 1030 76 10000 1.5 150 22:43 27.05.2020
2319 Clear 12 1030 71 10000 1 130 22:24 27.05.2020
2320 Clear 14 1030 56 0 0.43 247 21:58 27.05.2020
2321 Clouds 14 1030 47 10000 2.1 60 21:40 27.05.2020
2322 Clouds 15 1030 58 0 0.12 27 21:21 27.05.2020
2323 Clouds 17 1030 52 0 0.12 27 20:58 27.05.2020
2324 Clouds 17 1030 42 10000 3.1 20 20:40 27.05.2020
2325 Clouds 17 1030 42 10000 3.1 20 20:40 27.05.2020
2326 Clouds 17 1030 42 10000 3.1 20 20:40 27.05.2020
2327 Clear 18 1030 47 0 0.98 73 20:20 27.05.2020
2328 Clear 19 1030 45 0 0.98 73 19:46 27.05.2020
2329 Clear 19 1030 44 0 1.98 62 19:21 27.05.2020
2330 Clear 19 1030 44 0 1.98 62 18:58 27.05.2020
2331 Clear 19 1030 45 0 2.88 52 18:39 27.05.2020
2332 Clear 19 1030 42 0 2.88 52 18:19 27.05.2020
2333 Clear 19 1030 42 0 2.88 52 17:43 27.05.2020
2334 Clear 20 1030 43 0 3.17 53 17:25 27.05.2020
2335 Clear 20 1031 41 0 3.17 53 16:57 27.05.2020
2336 Clear 20 1031 41 0 3.17 53 16:57 27.05.2020
2337 Clear 20 1031 43 0 3.32 54 16:38 27.05.2020
2338 Clear 20 1031 43 0 3.32 54 16:20 27.05.2020
2339 Clear 19 1031 43 0 0.45 306 15:55 27.05.2020
2340 Clear 20 1031 46 0 0.45 60 15:37 27.05.2020
2341 Clear 19 1031 43 0 0.45 17 15:18 27.05.2020
2342 Clear 19 1032 45 0 0.45 84 14:42 27.05.2020
2343 Clear 19 1032 43 0 3.62 57 14:42 27.05.2020
2344 Clear 19 1032 45 0 0.45 171 14:20 27.05.2020
2345 Clear 19 1032 47 0 0.45 176 13:44 27.05.2020
2346 Clear 19 1032 45 0 0.45 139 13:25 27.05.2020
2347 Clear 19 1033 44 0 3.63 70 12:57 27.05.2020
2348 Clear 18 1033 44 0 3.63 70 12:39 27.05.2020
2349 Clouds 17 1033 41 10000 2.6 40 12:21 27.05.2020
2350 Clear 17 1033 53 0 3.59 73 11:39 27.05.2020
2351 Clear 17 1033 50 0 0.45 350 11:21 27.05.2020
2352 Clear 17 1033 51 0 0.45 229 10:57 27.05.2020
2353 Clear 17 1033 51 0 0.45 229 10:57 27.05.2020
2354 Clear 17 1033 52 0 0.45 102 10:38 27.05.2020
2355 Clear 17 1033 53 0 0.45 202 10:19 27.05.2020
2356 Clear 15 1033 67 0 0.45 188 09:41 27.05.2020
2357 Clear 13 1033 62 10000 2.6 70 09:22 27.05.2020
2358 Clear 11 1033 62 10000 2.1 60 08:56 27.05.2020
2359 Clear 10 1033 93 0 2.58 85 08:36 27.05.2020
2360 Clouds 10 1033 93 0 1.83 95 08:18 27.05.2020
2361 Clouds 8 1033 93 0 1.83 95 07:49 27.05.2020
2362 Clouds 7 1033 93 0 1.31 108 07:30 27.05.2020
2363 Clouds 7 1033 93 0 1.31 108 07:30 27.05.2020
2364 Clouds 6 1033 92 0 1.31 108 06:47 27.05.2020
2365 Clouds 4 1033 100 10000 2.1 150 06:20 27.05.2020
2366 Clouds 5 1033 91 0 1.24 126 05:49 27.05.2020
2367 Clear 5 1033 91 0 1.41 120 05:22 27.05.2020
2368 Clear 7 1034 88 0 1.23 102 02:34 27.05.2020
2369 Clouds 7 1034 87 10000 0.5 0 01:53 27.05.2020
2370 Clouds 7 1034 87 10000 0.5 0 01:30 27.05.2020
2371 Clouds 8 1034 87 10000 1 0 00:46 27.05.2020
2372 Clouds 8 1034 87 10000 1.5 160 00:20 27.05.2020
2373 Clouds 9 1034 81 10000 0.5 0 23:57 26.05.2020
2374 Clouds 9 1034 76 10000 1 130 23:38 26.05.2020
2375 Clouds 10 1034 76 10000 1 130 23:20 26.05.2020
2376 Clouds 10 1034 62 10000 2.6 60 22:41 26.05.2020
2377 Clouds 12 1034 62 10000 2.6 60 22:22 26.05.2020
2378 Clouds 13 1033 62 10000 2.6 40 21:59 26.05.2020
2379 Clouds 14 1033 72 0 1.71 100 21:40 26.05.2020
2380 Rain 14 1033 64 0 2.26 78 21:22 26.05.2020
2381 Rain 15 1033 62 0 2.26 78 20:57 26.05.2020
2382 Rain 15 1033 59 0 2.61 47 20:39 26.05.2020
2383 Rain 15 1033 58 0 2.61 47 20:19 26.05.2020
2384 Rain 16 1033 55 0 2.61 47 19:40 26.05.2020
2385 Clouds 16 1033 53 0 2.75 21 19:20 26.05.2020
2386 Clouds 17 1032 53 0 2.75 21 18:58 26.05.2020
2387 Clouds 17 1032 56 0 2.75 21 18:39 26.05.2020
2388 Clouds 16 1032 54 0 3.09 17 18:20 26.05.2020
2389 Clouds 16 1033 55 0 3.09 17 17:42 26.05.2020
2390 Clouds 17 1033 55 0 3.56 19 17:23 26.05.2020
2391 Clouds 17 1032 54 0 0.45 84 16:49 26.05.2020
2392 Clouds 16 1033 58 0 3.44 18 16:23 26.05.2020
2393 Clouds 17 1033 55 0 3.44 18 15:59 26.05.2020
2394 Clouds 17 1033 57 0 3.44 18 15:41 26.05.2020
2395 Clear 16 1033 60 0 0.45 166 15:20 26.05.2020
2396 Clear 16 1033 59 0 2.94 20 14:55 26.05.2020
2397 Clear 16 1033 56 0 2.94 20 14:37 26.05.2020
2398 Clouds 16 1033 57 0 3.2 37 14:18 26.05.2020
2399 Clouds 16 1033 58 0 3.2 37 13:41 26.05.2020
2400 Clouds 16 1033 55 0 2.97 24 13:22 26.05.2020
2401 Clouds 15 1033 54 10000 4.1 320 12:44 26.05.2020
2402 Clouds 15 1033 58 0 2.65 9 12:23 26.05.2020
2403 Clouds 15 1033 65 0 2.65 9 11:59 26.05.2020
2404 Clouds 15 1033 61 0 2.65 9 11:41 26.05.2020
2405 Clouds 14 1033 63 0 0.45 38 11:20 26.05.2020
2406 Clouds 15 1033 67 0 0.45 338 10:47 26.05.2020
2407 Clouds 15 1033 63 0 1.68 22 10:20 26.05.2020
2408 Clouds 14 1033 66 0 1.68 22 09:59 26.05.2020
2409 Clouds 13 1077 58 0 0.45 107 09:38 26.05.2020
2410 Clouds 12 1033 71 10000 1.5 350 09:19 26.05.2020
2411 Clouds 11 1033 94 0 1.78 25 08:41 26.05.2020
2412 Clouds 10 1033 94 0 1.65 28 08:22 26.05.2020
2413 Clouds 8 1033 92 0 1.65 28 07:44 26.05.2020
2414 Clouds 8 1032 91 0 1.27 24 07:23 26.05.2020
2415 Clouds 7 1032 90 0 1.27 24 06:54 26.05.2020
2416 Clouds 7 1032 90 0 1.27 24 06:35 26.05.2020
2417 Clouds 6 1032 88 0 0.94 26 05:48 26.05.2020
2418 Clouds 7 1032 88 0 0.65 34 05:28 26.05.2020
2419 Clouds 7 1032 87 0 0.65 34 04:50 26.05.2020
2420 Clouds 8 1032 87 0 0.33 115 04:31 26.05.2020
2421 Clouds 8 1032 86 0 0.33 115 03:52 26.05.2020
2422 Clouds 9 1032 83 0 0.73 149 02:44 26.05.2020
2423 Clouds 9 1032 81 10000 0.5 0 01:48 26.05.2020
2424 Clouds 9 1032 81 10000 0.5 0 01:27 26.05.2020
2425 Clear 11 1032 81 10000 2.1 270 00:37 26.05.2020
2426 Clear 11 1032 81 10000 2.1 270 00:19 26.05.2020
2427 Clear 11 1032 81 10000 2.1 250 23:55 25.05.2020
2428 Clear 13 1078 63 0 2.27 353 23:36 25.05.2020
2429 Clear 13 1078 63 0 2.27 353 23:18 25.05.2020
2430 Clear 12 1032 71 10000 3.1 270 22:55 25.05.2020
2431 Clear 14 1078 57 0 0.89 165 22:36 25.05.2020
2432 Clear 14 1078 56 0 0.89 109 22:18 25.05.2020
2433 Clear 15 1031 62 10000 3.1 280 21:55 25.05.2020
2434 Rain 15 1031 66 0 3.46 315 21:36 25.05.2020
2435 Clear 15 1031 64 0 3.28 322 21:18 25.05.2020
2436 Clear 16 1030 62 0 0.89 169 20:42 25.05.2020
2437 Rain 16 1030 64 0 0.45 323 20:22 25.05.2020
2438 Rain 17 1030 65 0 3.96 314 19:59 25.05.2020
2439 Rain 16 1030 64 0 0.45 327 19:40 25.05.2020
2440 Rain 17 1030 64 0 0.45 24 19:18 25.05.2020
2441 Rain 17 1030 63 0 0.45 311 18:57 25.05.2020
2442 Rain 16 1030 64 0 0.45 305 18:38 25.05.2020
2443 Rain 17 1030 63 0 0.45 182 18:20 25.05.2020
2444 Rain 17 1030 65 0 0.89 38 17:44 25.05.2020
2445 Rain 16 1030 67 0 0.45 101 17:23 25.05.2020
2446 Rain 16 1030 77 0 0.45 309 16:58 25.05.2020
2447 Rain 16 1030 77 0 0.89 287 16:40 25.05.2020
2448 Rain 15 1030 79 0 5.59 309 16:20 25.05.2020
2449 Rain 16 1030 67 0 0.89 209 15:45 25.05.2020
2450 Rain 17 1077 50 0 2.68 179 15:20 25.05.2020
2451 Rain 17 1077 51 0 2.68 120 14:59 25.05.2020
2452 Rain 17 1030 67 0 0.89 304 14:40 25.05.2020
2453 Rain 16 1030 71 0 0.45 203 14:22 25.05.2020
2454 Rain 16 1030 68 0 0.89 263 13:55 25.05.2020
2455 Rain 15 1030 79 0 0.45 311 13:37 25.05.2020
2456 Rain 15 1030 75 0 0.89 331 13:18 25.05.2020
2457 Rain 14 1031 90 0 0.45 336 12:39 25.05.2020
2458 Rain 13 1031 87 0 0.45 344 12:21 25.05.2020
2459 Rain 13 1031 85 0 4.57 295 11:57 25.05.2020
2460 Rain 13 1031 82 0 4.48 301 11:37 25.05.2020
2461 Rain 13 1031 82 0 0.45 309 11:18 25.05.2020
2462 Rain 13 1031 82 0 0.45 309 10:41 25.05.2020
2463 Rain 12 1031 84 0 3.39 298 10:21 25.05.2020
2464 Rain 12 1031 86 0 0.45 223 09:56 25.05.2020
2465 Rain 12 1031 86 0 3.39 298 09:38 25.05.2020
2466 Rain 11 1031 87 0 3.36 283 09:19 25.05.2020
2467 Clouds 11 1031 76 10000 3.6 250 08:44 25.05.2020
2468 Rain 11 1031 88 0 3.38 279 08:24 25.05.2020
2469 Rain 11 1031 88 0 3.38 279 07:59 25.05.2020
2470 Rain 11 1031 88 0 3.38 279 07:41 25.05.2020
2471 Rain 11 1031 88 0 3.36 271 07:20 25.05.2020
2472 Rain 11 1031 89 0 3.36 271 06:46 25.05.2020
2473 Rain 11 1031 89 0 0.45 211 06:27 25.05.2020
2474 Rain 11 1030 85 0 3.02 255 03:46 25.05.2020
2475 Rain 11 1076 72 0 0.45 66 03:22 25.05.2020
2476 Rain 12 1031 71 10000 3.1 250 02:44 25.05.2020
2477 Rain 12 1031 71 10000 3.1 240 01:46 25.05.2020
2478 Clouds 12 1076 72 0 3.08 256 01:28 25.05.2020
2479 Clouds 12 1075 72 0 0.89 52 00:36 25.05.2020
2480 Clouds 12 1031 71 10000 3.1 240 00:18 25.05.2020
2481 Clouds 13 1076 73 0 3.04 253 23:43 24.05.2020
2482 Clouds 13 1076 72 0 2.92 259 23:23 24.05.2020
2483 Clouds 13 1076 72 0 2.92 259 22:59 24.05.2020
2484 Clouds 13 1075 70 0 0.89 92 22:41 24.05.2020
2485 Clouds 13 1075 68 0 0.45 99 22:19 24.05.2020
2486 Clouds 14 1075 62 0 0.89 61 21:56 24.05.2020
2487 Clouds 14 1075 62 0 0.89 61 21:56 24.05.2020
2488 Clouds 14 1030 58 0 2.97 280 21:38 24.05.2020
2489 Clouds 14 1030 59 0 2.97 280 21:19 24.05.2020
2490 Clouds 15 1030 63 0 2.88 283 20:44 24.05.2020
2491 Clouds 15 1030 60 0 3.51 295 20:22 24.05.2020
2492 Clouds 16 1029 60 0 0.45 0 19:59 24.05.2020
2493 Clouds 16 1029 61 0 3.51 295 19:41 24.05.2020
2494 Clouds 16 1029 62 0 4.38 298 19:19 24.05.2020
2495 Clouds 16 1029 63 0 4.38 298 19:19 24.05.2020
2496 Clouds 16 1029 63 0 4.38 298 18:57 24.05.2020
2497 Clouds 16 1029 57 0 0.45 288 18:38 24.05.2020
2498 Rain 16 1029 57 0 0.45 281 18:20 24.05.2020
2499 Rain 16 1029 55 0 0.89 242 17:55 24.05.2020
2500 Rain 17 1029 51 0 0.89 207 17:36 24.05.2020
2501 Rain 17 1029 53 0 0.89 355 17:36 24.05.2020
2502 Rain 17 1029 51 0 0.89 263 17:18 24.05.2020
2503 Rain 17 1029 55 0 0.89 294 16:39 24.05.2020
2504 Rain 16 1029 55 0 0.89 204 16:21 24.05.2020
2505 Rain 16 1029 54 0 0.89 263 15:58 24.05.2020
2506 Rain 16 1029 53 0 1.34 180 15:39 24.05.2020
2507 Clouds 16 1029 57 0 0.89 194 15:19 24.05.2020
2508 Clouds 16 1030 55 0 1.34 319 14:55 24.05.2020
2509 Clouds 16 1030 57 0 0.45 203 14:37 24.05.2020
2510 Clouds 16 1030 59 0 0.89 207 14:18 24.05.2020
2511 Clouds 16 1030 50 0 1.34 320 13:55 24.05.2020
2512 Clouds 16 1030 51 0 0.89 297 13:36 24.05.2020
2513 Clouds 17 1030 50 0 0.89 284 13:18 24.05.2020
2514 Clouds 17 1030 49 0 1.34 190 12:54 24.05.2020
2515 Clouds 16 1030 50 0 0.89 333 12:36 24.05.2020
2516 Clouds 15 1031 50 10000 8.2 260 12:18 24.05.2020
2517 Clouds 15 1070 46 0 2.24 83 11:42 24.05.2020
2518 Rain 15 1073 47 0 2.68 76 11:23 24.05.2020
2519 Rain 14 1030 70 0 0.89 322 10:59 24.05.2020
2520 Rain 14 1030 69 0 0.89 201 10:40 24.05.2020
2521 Rain 14 1030 69 0 0.89 201 10:40 24.05.2020
2522 Rain 14 1030 70 0 0.45 269 10:21 24.05.2020
2523 Rain 13 1031 78 0 0.45 313 09:55 24.05.2020
2524 Rain 12 1029 78 0 1.34 313 09:37 24.05.2020
2525 Clouds 11 1031 91 0 0.45 213 09:18 24.05.2020
2526 Rain 10 1031 94 0 0.45 209 08:40 24.05.2020
2527 Clouds 9 1031 94 0 4.26 267 08:22 24.05.2020
2528 Clouds 9 1030 95 0 4.26 267 07:54 24.05.2020
2529 Rain 9 1030 94 0 3.93 259 07:36 24.05.2020
2530 Rain 8 1030 95 0 3.93 259 07:18 24.05.2020
2531 Rain 8 1030 95 0 3.93 259 06:38 24.05.2020
2532 Clouds 8 1030 95 0 3.76 246 05:49 24.05.2020
2533 Clouds 7 1030 94 0 3.87 241 03:49 24.05.2020
2534 Clear 7 1030 94 0 3.93 254 03:26 24.05.2020
2535 Clouds 8 1030 94 0 4.2 270 02:24 24.05.2020
2536 Clouds 9 1030 94 0 3.58 262 00:59 24.05.2020
2537 Clouds 9 1030 94 0 3.58 262 00:36 24.05.2020
2538 Clouds 9 1030 94 0 3.24 272 00:18 24.05.2020
2539 Clouds 9 1030 94 0 3.24 272 23:38 23.05.2020
2540 Clouds 10 1029 94 0 3.37 289 23:19 23.05.2020
2541 Clouds 9 1029 94 0 3.37 289 22:55 23.05.2020
2542 Rain 9 1029 94 0 4.06 301 22:37 23.05.2020
2543 Clouds 9 1029 94 0 3.37 289 22:37 23.05.2020
2544 Rain 9 1029 94 0 4.06 301 22:18 23.05.2020
2545 Rain 9 1028 94 0 4.06 301 21:56 23.05.2020
2546 Rain 9 1028 94 0 4.06 301 21:36 23.05.2020
2547 Rain 9 1028 94 0 4.36 283 21:18 23.05.2020
2548 Rain 9 1028 94 0 4.36 283 20:41 23.05.2020
2549 Rain 9 1028 94 0 4.46 271 20:20 23.05.2020
2550 Rain 9 1028 94 0 4.46 271 19:59 23.05.2020
2551 Rain 10 1028 93 0 4.46 271 19:41 23.05.2020
2552 Rain 10 1028 93 0 3.97 260 19:19 23.05.2020
2553 Rain 10 1028 93 0 0.45 309 18:55 23.05.2020
2554 Rain 10 1028 92 0 3.97 260 18:36 23.05.2020
2555 Rain 10 1027 92 0 3.73 261 18:18 23.05.2020
2556 Rain 11 1027 92 0 3.73 261 17:54 23.05.2020
2557 Rain 10 1026 91 0 4.42 273 17:36 23.05.2020
2558 Rain 11 1026 91 0 4.42 273 17:18 23.05.2020
2559 Rain 11 1025 90 0 0.45 269 16:55 23.05.2020
2560 Rain 11 1024 89 0 0.45 172 16:37 23.05.2020
2561 Rain 11 1024 88 0 0.45 155 16:18 23.05.2020
2562 Rain 13 1022 100 3200 9.3 320 15:41 23.05.2020
2563 Rain 19 1021 79 0 2.68 313 15:23 23.05.2020
2564 Rain 21 1019 62 0 0.89 187 14:55 23.05.2020
2565 Rain 23 1019 71 0 1.79 298 14:36 23.05.2020
2566 Rain 23 1019 70 0 1.79 270 14:18 23.05.2020
2567 Rain 22 1019 66 0 4.84 266 13:39 23.05.2020
2568 Rain 21 1019 69 0 4.84 266 13:19 23.05.2020
2569 Rain 21 1020 70 0 4.84 266 12:54 23.05.2020
2570 Rain 21 1021 70 0 0.45 198 12:36 23.05.2020
2571 Rain 21 1021 72 0 2.73 242 12:18 23.05.2020
2572 Rain 19 1021 85 0 2.73 242 11:42 23.05.2020
2573 Clouds 18 1022 87 0 2.21 222 11:20 23.05.2020
2574 Rain 18 1022 88 0 2.21 222 10:56 23.05.2020
2575 Rain 18 1022 88 0 2.21 222 10:38 23.05.2020
2576 Rain 17 1022 88 0 2.47 213 10:19 23.05.2020
2577 Rain 17 1022 85 0 2.47 213 09:56 23.05.2020
2578 Rain 17 1019 83 0 0.45 268 09:38 23.05.2020
2579 Clouds 17 1021 92 0 2.36 201 09:19 23.05.2020
2580 Clouds 18 1022 72 10000 1.5 220 08:42 23.05.2020
2581 Rain 18 1022 72 10000 1.5 220 08:19 23.05.2020
2582 Rain 17 1022 77 10000 2.6 220 08:19 23.05.2020
2583 Rain 16 1022 77 10000 2.6 210 07:46 23.05.2020
2584 Rain 16 1022 77 10000 2.6 210 07:28 23.05.2020
2585 Rain 16 1022 74 0 3.73 219 06:53 23.05.2020
2586 Rain 16 1022 74 0 3.73 219 06:35 23.05.2020
2587 Rain 17 1022 67 10000 3.6 230 04:49 23.05.2020
2588 Rain 18 1022 60 0 3.69 249 03:30 23.05.2020
2589 Rain 17 1022 59 10000 3.1 230 02:57 23.05.2020
2590 Rain 20 1022 49 10000 2.1 250 01:57 23.05.2020
2591 Clouds 19 1021 49 0 3.05 248 01:21 23.05.2020
2592 Clouds 20 1021 49 0 3.05 248 00:46 23.05.2020
2593 Clouds 20 1022 50 0 2.45 229 00:25 23.05.2020
2594 Clouds 20 1023 49 0 2.45 229 23:57 22.05.2020
2595 Clouds 19 1023 45 10000 2.1 240 23:38 22.05.2020
2596 Clouds 20 1023 45 10000 2.6 230 23:19 22.05.2020
2597 Clouds 20 1021 46 0 2.59 212 22:44 22.05.2020
2598 Clouds 21 1023 40 10000 3.6 230 22:22 22.05.2020
2599 Clouds 21 1023 45 10000 2.6 250 21:57 22.05.2020
2600 Clouds 21 1022 45 10000 3.6 170 21:39 22.05.2020
2601 Clouds 21 1021 60 0 2.06 255 21:20 22.05.2020
2602 Clouds 21 1023 60 10000 2.1 210 20:46 22.05.2020
2603 Clouds 22 1021 48 0 2.48 275 20:21 22.05.2020
2604 Clouds 23 1023 49 10000 1.5 280 19:59 22.05.2020
2605 Clouds 23 1021 46 0 2.48 275 19:40 22.05.2020
2606 Clouds 23 1023 47 0 0.45 209 19:22 22.05.2020
2607 Clouds 24 1022 46 0 3.34 279 18:39 22.05.2020
2608 Clouds 24 1022 47 0 3.63 274 18:21 22.05.2020
2609 Clouds 24 1022 47 0 3.63 274 17:58 22.05.2020
2610 Clouds 25 1023 49 0 3.96 282 17:38 22.05.2020
2611 Clouds 25 1022 47 0 3.96 282 17:18 22.05.2020
2612 Clouds 25 1023 42 0 0.45 213 16:44 22.05.2020
2613 Clouds 25 1023 44 0 0.45 218 16:20 22.05.2020
2614 Clouds 25 1023 46 0 0.45 211 15:59 22.05.2020
2615 Clouds 25 1023 45 0 0.45 200 15:41 22.05.2020
2616 Clouds 25 1023 46 0 0.45 200 15:20 22.05.2020
2617 Clouds 25 1023 48 0 2.71 283 14:44 22.05.2020
2618 Clouds 24 1023 46 0 2.45 287 14:25 22.05.2020
2619 Clouds 24 1023 47 0 0.45 167 13:49 22.05.2020
2620 Clouds 24 1023 51 0 2.19 292 13:21 22.05.2020
2621 Clouds 23 1023 50 0 0.45 252 12:59 22.05.2020
2622 Clouds 23 1022 47 0 2.19 292 12:39 22.05.2020
2623 Clouds 23 1022 47 0 1.94 284 12:20 22.05.2020
2624 Clouds 23 1022 51 0 1.94 284 11:44 22.05.2020
2625 Clouds 23 1023 53 0 1.66 258 11:21 22.05.2020
2626 Clouds 23 1023 53 0 1.66 258 11:21 22.05.2020
2627 Clouds 23 1023 53 0 1.66 258 11:21 22.05.2020
2628 Clouds 22 1023 61 0 1.66 258 10:56 22.05.2020
2629 Clouds 21 1023 60 0 1.72 243 10:38 22.05.2020
2630 Clouds 21 1023 61 0 1.72 243 10:19 22.05.2020
2631 Clouds 21 1023 63 0 1.72 243 10:19 22.05.2020
2632 Clouds 20 1023 66 0 1.72 243 09:46 22.05.2020
2633 Clouds 17 1023 63 10000 3.1 220 09:21 22.05.2020
2634 Clouds 16 1023 84 0 1.72 231 08:57 22.05.2020
2635 Clouds 15 1023 87 0 1.67 210 08:39 22.05.2020
2636 Clouds 15 1023 89 0 1.67 210 08:18 22.05.2020
2637 Clouds 13 1023 91 0 1.67 210 07:48 22.05.2020
2638 Clouds 12 1023 90 0 1.42 219 07:22 22.05.2020
2639 Clouds 11 1022 90 0 1.42 219 06:46 22.05.2020
2640 Clouds 11 1022 89 0 1.46 219 06:28 22.05.2020
2641 Clouds 11 1022 88 0 1.46 219 05:35 22.05.2020
2642 Clear 11 1022 86 0 1.63 219 04:48 22.05.2020
2643 Clear 11 1022 84 0 1.79 227 03:50 22.05.2020
2644 Clear 11 1022 84 0 1.98 225 03:29 22.05.2020
2645 Clouds 12 1022 83 0 1.86 225 02:23 22.05.2020
2646 Clouds 12 1022 82 0 1.86 225 01:42 22.05.2020
2647 Clear 12 1023 81 10000 2.1 170 01:20 22.05.2020
2648 Clear 12 1023 87 10000 2.1 160 00:33 22.05.2020
2649 Clear 14 1023 81 0 1.78 200 23:57 21.05.2020
2650 Clear 14 1023 79 0 1.78 200 23:39 21.05.2020
2651 Clear 14 1023 77 0 1.51 182 23:20 21.05.2020
2652 Clear 14 1023 75 0 1.51 182 22:57 21.05.2020
2653 Clear 15 1023 73 0 1.51 182 22:37 21.05.2020
2654 Clear 15 1023 70 0 1.34 155 22:19 21.05.2020
2655 Clear 17 1022 63 10000 0.5 0 21:47 21.05.2020
2656 Clear 18 1022 63 0 1.1 72 21:27 21.05.2020
2657 Clear 18 1022 62 0 1.1 72 21:27 21.05.2020
2658 Clear 19 1022 48 10000 2.1 350 20:57 21.05.2020
2659 Clouds 20 1022 52 0 1.77 45 20:39 21.05.2020
2660 Clouds 21 1022 52 0 1.77 45 20:20 21.05.2020
2661 Clouds 22 1021 43 10000 3.1 350 19:40 21.05.2020
2662 Clouds 22 1021 49 0 2.31 20 19:19 21.05.2020
2663 Clouds 22 1021 49 0 2.31 20 18:56 21.05.2020
2664 Clouds 22 1021 49 0 2.62 22 18:36 21.05.2020
2665 Clouds 22 1021 49 0 2.62 22 18:18 21.05.2020
2666 Clouds 22 1021 50 0 2.62 22 17:45 21.05.2020
2667 Clouds 22 1021 50 0 2.75 25 17:26 21.05.2020
2668 Clouds 22 1021 53 0 2.75 25 16:48 21.05.2020
2669 Clouds 22 1021 54 0 2.76 25 16:28 21.05.2020
2670 Clouds 22 1022 54 0 2.76 25 15:59 21.05.2020
2671 Clouds 21 1022 53 0 2.76 25 15:40 21.05.2020
2672 Clouds 22 1022 54 0 2.75 26 15:21 21.05.2020
2673 Clouds 22 1022 51 0 2.64 16 14:41 21.05.2020
2674 Clouds 22 1022 54 0 2.64 16 14:22 21.05.2020
2675 Clouds 22 1022 55 0 2.64 16 13:56 21.05.2020
2676 Clouds 21 1022 58 0 2.64 16 13:37 21.05.2020
2677 Clouds 21 1022 56 0 2.54 18 13:18 21.05.2020
2678 Clouds 21 1022 65 0 2.54 18 12:39 21.05.2020
2679 Clouds 20 1022 58 0 2.39 20 12:20 21.05.2020
2680 Clouds 20 1023 63 0 2.39 20 11:57 21.05.2020
2681 Clouds 20 1023 60 0 2.39 20 11:39 21.05.2020
2682 Clouds 20 1022 62 0 2.15 15 11:20 21.05.2020
2683 Clouds 19 1022 66 0 2.15 15 10:43 21.05.2020
2684 Clouds 18 1022 68 0 1.54 10 10:23 21.05.2020
2685 Clouds 18 1022 70 0 1.54 10 09:59 21.05.2020
2686 Clouds 17 1022 72 0 1.54 10 09:40 21.05.2020
2687 Clouds 17 1022 72 0 1.54 10 09:40 21.05.2020
2688 Clouds 15 1025 74 0 0.75 5 09:22 21.05.2020
2689 Clouds 15 1022 87 0 0.44 322 08:56 21.05.2020
2690 Clouds 14 1022 89 0 0.39 274 08:37 21.05.2020
2691 Clouds 13 1022 89 0 0.39 274 08:19 21.05.2020
2692 Clouds 12 1022 91 0 0.39 274 07:41 21.05.2020
2693 Clouds 12 1022 91 0 0.41 221 07:22 21.05.2020
2694 Clouds 11 1021 100 10000 1 190 06:37 21.05.2020
2695 Clouds 11 1021 89 0 0.4 201 05:50 21.05.2020
2696 Clouds 11 1021 92 0 0.39 248 04:18 21.05.2020
2697 Clouds 12 1021 89 0 0.55 250 03:21 21.05.2020
2698 Clouds 12 1022 88 0 0.58 237 02:31 21.05.2020
2699 Clouds 11 1022 87 0 0.55 245 01:51 21.05.2020
2700 Clear 12 1022 86 0 0.72 227 01:24 21.05.2020
2701 Clear 12 1022 85 0 0.72 227 00:54 21.05.2020
2702 Clear 12 1022 84 0 0.57 200 00:27 21.05.2020
2703 Clear 12 1022 82 0 0.57 200 23:59 20.05.2020
2704 Clear 13 1022 82 0 0.57 200 23:40 20.05.2020
2705 Clear 13 1022 80 0 0.25 197 23:19 20.05.2020
2706 Clear 14 1022 76 0 0.25 197 22:55 20.05.2020
2707 Clear 14 1021 75 0 0.25 197 22:36 20.05.2020
2708 Clear 14 1021 76 10000 1 80 22:18 20.05.2020
2709 Clear 17 1019 60 0 0.26 66 21:39 20.05.2020
2710 Clouds 17 1019 60 0 0.97 3 21:20 20.05.2020
2711 Clouds 18 1019 60 0 0.97 3 20:44 20.05.2020
2712 Clouds 18 1019 60 0 0.97 3 20:44 20.05.2020
2713 Clouds 19 1019 59 0 1.07 22 20:24 20.05.2020
2714 Clouds 19 1019 60 0 1.07 22 19:54 20.05.2020
2715 Clouds 19 1019 58 0 1.81 23 19:36 20.05.2020
2716 Clouds 20 1019 57 0 1.81 23 19:18 20.05.2020
2717 Clouds 19 1021 59 10000 4.1 360 18:42 20.05.2020
2718 Clouds 20 1019 57 0 2.88 27 18:21 20.05.2020
2719 Clouds 20 1019 55 0 2.88 27 17:41 20.05.2020
2720 Clouds 20 1019 54 0 3.56 23 17:22 20.05.2020
2721 Clouds 20 1020 52 10000 3.6 340 16:56 20.05.2020
2722 Clouds 21 1019 52 0 3.56 23 16:38 20.05.2020
2723 Clouds 20 1021 52 10000 4.1 330 16:19 20.05.2020
2724 Clouds 20 1021 52 10000 3.6 10 15:43 20.05.2020
2725 Clouds 20 1020 55 0 3.83 15 15:25 20.05.2020
2726 Clouds 20 1021 59 0 0.45 25 14:45 20.05.2020
2727 Clouds 20 1021 61 0 3.77 33 14:24 20.05.2020
2728 Clouds 19 1021 52 10000 3.1 350 13:59 20.05.2020
2729 Clouds 19 1021 58 0 0.45 217 13:39 20.05.2020
2730 Rain 19 1021 62 0 3.6 37 13:18 20.05.2020
2731 Rain 18 1021 69 0 3.6 37 12:42 20.05.2020
2732 Rain 18 1021 68 0 3.14 36 12:21 20.05.2020
2733 Rain 18 1021 67 0 3.14 36 11:39 20.05.2020
2734 Rain 17 1021 66 0 2.19 33 11:20 20.05.2020
2735 Rain 17 1021 67 0 2.19 33 10:55 20.05.2020
2736 Clouds 17 1020 67 0 1.26 45 10:37 20.05.2020
2737 Clouds 17 1020 67 0 1.26 45 10:19 20.05.2020
2738 Clouds 16 1020 71 0 1.26 45 09:41 20.05.2020
2739 Clouds 15 1020 71 10000 1.5 360 09:20 20.05.2020
2740 Clouds 14 1066 66 0 0.89 120 08:42 20.05.2020
2741 Clouds 14 1066 66 0 1.79 97 08:20 20.05.2020
2742 Clouds 14 1066 67 0 1.79 28 07:54 20.05.2020
2743 Clouds 14 1066 66 0 1.34 78 07:36 20.05.2020
2744 Clouds 14 1066 67 0 0.89 78 07:18 20.05.2020
2745 Clouds 13 1065 69 0 0.45 65 06:24 20.05.2020
2746 Clouds 14 1066 67 0 0.89 65 05:18 20.05.2020
2747 Clouds 13 1020 71 10000 2.1 30 04:25 20.05.2020
2748 Clouds 13 1020 71 10000 2.6 20 03:37 20.05.2020
2749 Clouds 15 1020 59 10000 3.6 360 01:58 20.05.2020
2750 Clouds 15 1020 62 10000 1.5 350 01:25 20.05.2020
2751 Clouds 13 1020 51 10000 2.1 340 00:42 20.05.2020
2752 Clouds 16 1020 51 10000 2.1 340 00:23 20.05.2020
2753 Clouds 16 1019 55 10000 2.1 320 23:40 19.05.2020
2754 Clouds 16 1019 55 10000 2.1 320 23:19 19.05.2020
2755 Clouds 16 1019 51 10000 1.5 330 22:56 19.05.2020
2756 Clouds 17 1019 51 10000 1.5 330 22:38 19.05.2020
2757 Clouds 18 1065 54 0 2.38 332 22:18 19.05.2020
2758 Clouds 19 1064 53 0 2.38 332 21:55 19.05.2020
2759 Clouds 17 1019 42 10000 1.5 320 21:37 19.05.2020
2760 Clouds 19 1065 48 0 2.6 345 21:18 19.05.2020
2761 Clouds 20 1065 45 0 2.6 345 20:56 19.05.2020
2762 Clouds 20 1017 43 0 2.6 345 20:38 19.05.2020
2763 Clouds 21 1017 43 0 0.45 355 20:38 19.05.2020
2764 Rain 21 1065 43 0 1.34 87 20:19 19.05.2020
2765 Rain 21 1065 43 0 1.34 87 20:19 19.05.2020
2766 Rain 22 1065 41 0 1.34 106 19:39 19.05.2020
2767 Rain 23 1064 40 0 1.34 113 19:21 19.05.2020
2768 Rain 23 1064 37 0 2.24 106 18:57 19.05.2020
2769 Rain 23 1018 51 0 2.7 13 18:38 19.05.2020
2770 Rain 23 1018 50 0 2.7 13 18:20 19.05.2020
2771 Rain 23 1018 40 10000 3.1 10 17:41 19.05.2020
2772 Rain 23 1018 50 0 3.6 12 17:21 19.05.2020
2773 Rain 24 1018 47 0 3.6 12 16:58 19.05.2020
2774 Rain 24 1018 47 0 3.6 12 16:38 19.05.2020
2775 Clouds 23 1019 43 10000 4.1 20 16:19 19.05.2020
2776 Rain 23 1019 49 0 3.76 13 15:46 19.05.2020
2777 Clouds 23 1019 48 0 0.45 17 15:21 19.05.2020
2778 Clouds 23 1020 49 10000 3.1 30 14:57 19.05.2020
2779 Clouds 23 1020 46 10000 2.6 350 14:39 19.05.2020
2780 Clear 23 1020 44 0 0.45 159 14:20 19.05.2020
2781 Clear 23 1020 45 0 3.63 19 13:57 19.05.2020
2782 Clear 23 1020 46 0 2.98 21 13:39 19.05.2020
2783 Clear 22 1066 27 0 2.24 109 13:20 19.05.2020
2784 Clear 22 1020 49 0 2.98 21 12:56 19.05.2020
2785 Clear 21 1066 26 0 0.89 76 12:37 19.05.2020
2786 Clear 21 1067 24 0 0.89 63 12:19 19.05.2020
2787 Clear 21 1021 49 0 2.32 25 11:54 19.05.2020
2788 Clear 21 1021 51 0 2.32 25 11:36 19.05.2020
2789 Clear 21 1021 53 0 1.82 34 11:18 19.05.2020
2790 Clear 19 1021 51 0 1.82 34 10:42 19.05.2020
2791 Clear 19 1021 53 0 1.32 35 10:23 19.05.2020
2792 Clear 19 1021 60 0 1.32 35 09:55 19.05.2020
2793 Clear 16 1022 63 10000 1.03 358 09:37 19.05.2020
2794 Clear 16 1021 78 0 0.5 356 09:18 19.05.2020
2795 Clear 14 1022 92 0 0.5 356 08:41 19.05.2020
2796 Clear 13 1021 93 0 0.93 307 08:23 19.05.2020
2797 Clear 10 1022 92 0 0.93 307 07:42 19.05.2020
2798 Clear 10 1021 91 0 1.01 281 07:24 19.05.2020
2799 Clear 9 1021 90 0 1.01 281 06:41 19.05.2020
2800 Clear 8 1021 89 0 1.02 253 06:22 19.05.2020
2801 Clear 8 1021 88 0 1.02 253 05:40 19.05.2020
2802 Clear 8 1021 87 0 1.11 250 04:55 19.05.2020
2803 Clear 8 1021 87 0 1.11 250 04:55 19.05.2020
2804 Clear 9 1022 86 0 1.23 243 03:45 19.05.2020
2805 Clear 11 1022 82 0 0.27 275 01:30 19.05.2020
2806 Clear 11 1022 80 0 0.27 275 00:43 19.05.2020
2807 Clear 12 1022 80 0 0.44 351 00:22 19.05.2020
2808 Clear 13 1022 77 0 0.44 351 23:40 18.05.2020
2809 Clear 14 1022 74 0 0.97 347 23:21 18.05.2020
2810 Clear 15 1066 52 0 0.45 56 23:00 18.05.2020
2811 Clear 14 1023 62 10000 0.5 30 22:40 18.05.2020
2812 Clear 15 1066 51 0 0.45 49 22:21 18.05.2020
2813 Clear 15 1066 52 0 0.45 63 22:21 18.05.2020
2814 Clear 16 1022 55 10000 1.5 360 21:54 18.05.2020
2815 Clear 17 1022 56 0 1.27 348 21:36 18.05.2020
2816 Clear 18 1022 45 10000 2.6 330 21:18 18.05.2020
2817 Clear 19 1021 42 10000 2.6 330 20:42 18.05.2020
2818 Clear 20 1021 46 0 1.76 3 20:22 18.05.2020
2819 Clear 20 1021 37 10000 2.6 340 19:58 18.05.2020
2820 Clear 22 1021 44 0 1.88 11 19:40 18.05.2020
2821 Clear 22 1021 43 0 2.38 19 19:19 18.05.2020
2822 Clear 22 1021 42 0 2.38 19 18:46 18.05.2020
2823 Clear 22 1022 42 0 2.83 20 18:24 18.05.2020
2824 Clear 22 1022 43 0 2.83 20 17:55 18.05.2020
2825 Clear 22 1021 43 0 2.83 20 17:36 18.05.2020
2826 Clear 22 1021 43 0 2.93 22 17:18 18.05.2020
2827 Clear 22 1021 43 0 2.93 22 17:18 18.05.2020
2828 Clear 23 1022 40 0 0.45 42 16:43 18.05.2020
2829 Clear 23 1022 40 0 2.78 30 16:21 18.05.2020
2830 Clear 23 1022 40 0 2.78 30 15:58 18.05.2020
2831 Clear 23 1022 41 0 0.45 225 15:39 18.05.2020
2832 Clear 22 1022 38 0 2.67 32 15:21 18.05.2020
2833 Clear 22 1023 40 10000 2.1 0 14:56 18.05.2020
2834 Clear 22 1023 41 0 0.45 180 14:38 18.05.2020
2835 Clear 22 1023 38 0 2.79 34 14:20 18.05.2020
2836 Clear 21 1023 41 0 2.79 34 13:41 18.05.2020
2837 Clear 21 1023 44 0 2.79 35 13:21 18.05.2020
2838 Clear 20 1023 38 0 2.79 35 12:58 18.05.2020
2839 Clear 20 1024 42 0 2.79 35 12:40 18.05.2020
2840 Clear 19 1024 48 10000 2.6 10 12:19 18.05.2020
2841 -273 0 0 0 0 0 11:59 18.05.2020
2842 Clear 20 1024 51 0 2.34 49 11:40 18.05.2020
2843 Clear 19 1024 49 0 1.93 63 11:22 18.05.2020
2844 Clear 18 1024 51 0 1.93 63 10:46 18.05.2020
2845 Clear 18 1024 55 0 1.9 64 10:24 18.05.2020
2846 Clear 17 1024 56 0 1.41 51 09:46 18.05.2020
2847 Clear 13 1024 62 10000 0.5 0 09:27 18.05.2020
2848 Clear 12 1024 90 0 1.31 29 08:59 18.05.2020
2849 Clear 11 1024 93 0 1.31 29 08:39 18.05.2020
2850 Clear 11 1024 94 0 1.19 356 08:21 18.05.2020
2851 Clear 9 1024 93 0 1.19 356 07:43 18.05.2020
2852 Clear 8 1024 92 0 0.48 287 07:23 18.05.2020
2853 Clear 6 1023 90 0 0.48 287 06:47 18.05.2020
2854 Clear 6 1023 90 0 0.82 229 06:23 18.05.2020
2855 Clear 6 1023 90 0 0.82 229 05:43 18.05.2020
2856 Clear 7 1023 89 0 0.52 299 03:53 18.05.2020
2857 Clear 7 1023 87 0 0.36 214 03:22 18.05.2020
2858 Clouds 8 1023 85 0 0.65 27 01:46 18.05.2020
2859 Clouds 9 1023 84 0 1.21 14 00:45 18.05.2020
2860 Clouds 10 1023 82 0 1.43 8 00:19 18.05.2020
2861 Clouds 10 1023 80 0 1.43 8 23:55 17.05.2020
2862 Clouds 12 1023 78 0 1.43 8 23:37 17.05.2020
2863 Clouds 12 1023 76 0 1.38 8 23:18 17.05.2020
2864 Clouds 12 1023 74 0 1.38 8 22:54 17.05.2020
2865 Clouds 12 1023 71 0 1.32 7 22:36 17.05.2020
2866 Clouds 13 1023 69 0 1.32 7 22:18 17.05.2020
2867 Clouds 14 1022 53 0 1.32 7 21:41 17.05.2020
2868 Clouds 15 1022 58 0 1.15 17 21:20 17.05.2020
2869 Clouds 16 1022 41 10000 3.1 10 20:57 17.05.2020
2870 Clear 18 1020 43 0 1.62 24 20:39 17.05.2020
2871 Clear 19 1020 43 0 1.62 24 20:19 17.05.2020
2872 Clear 19 1021 37 10000 3.6 330 19:47 17.05.2020
2873 Clear 19 1021 37 10000 3.6 330 19:28 17.05.2020
2874 Clear 20 1020 43 0 2.15 27 18:59 17.05.2020
2875 Clear 20 1021 46 0 2.15 27 18:39 17.05.2020
2876 Clear 20 1021 44 0 2.88 28 18:21 17.05.2020
2877 Clear 20 1021 45 0 0.45 226 17:42 17.05.2020
2878 Clear 20 1021 47 0 3.3 21 17:24 17.05.2020
2879 Clear 20 1021 43 0 3.3 21 16:59 17.05.2020
2880 Clear 20 1021 42 0 3.3 21 16:39 17.05.2020
2881 Clear 21 1022 40 0 3.34 14 16:20 17.05.2020
2882 Clear 20 1022 40 0 3.34 14 16:20 17.05.2020
2883 Clear 21 1022 37 10000 1 0 15:56 17.05.2020
2884 Clear 20 1022 42 10000 3.1 10 15:37 17.05.2020
2885 Clear 20 1022 39 7000 1 0 15:18 17.05.2020
2886 Clear 20 1022 39 10000 1.5 110 14:42 17.05.2020
2887 Clear 20 1022 39 10000 1.5 110 14:24 17.05.2020
2888 Clouds 19 1022 39 10000 2.6 0 13:57 17.05.2020
2889 Clouds 19 1022 43 0 2.5 18 13:37 17.05.2020
2890 Clouds 19 1022 44 0 2.01 23 13:18 17.05.2020
2891 Clouds 6 1020 91 0 0.67 276 04:26 17.05.2020
2892 Clouds 7 1020 88 0 0.42 337 02:29 17.05.2020
2893 Clouds 7 1020 88 0 0.43 331 01:58 17.05.2020
2894 Clouds 7 1020 87 0 0.43 331 01:38 17.05.2020
2895 Clouds 9 1020 86 0 0.67 24 00:40 17.05.2020
2896 Clouds 9 1020 85 0 0.88 48 00:19 17.05.2020
2897 Clouds 10 1019 82 0 0.88 48 23:40 16.05.2020
2898 Clouds 11 1019 81 0 1.72 69 23:20 16.05.2020
2899 Clouds 11 1019 78 0 1.72 69 22:58 16.05.2020
2900 Clouds 12 1019 77 0 1.72 69 22:40 16.05.2020
2901 Clouds 12 1019 76 0 1.84 65 22:20 16.05.2020
2902 Clouds 12 1019 62 10000 1 80 21:46 16.05.2020
2903 Clouds 14 1020 67 0 1.75 66 21:28 16.05.2020
2904 Clouds 14 1019 54 10000 2.6 60 20:59 16.05.2020
2905 Clouds 15 1019 51 10000 4.1 10 20:41 16.05.2020
2906 Clouds 15 1020 62 0 2.32 76 20:22 16.05.2020
2907 Clouds 16 1020 61 0 2.32 76 19:58 16.05.2020
2908 Clouds 15 1019 51 10000 4.1 20 19:40 16.05.2020
2909 Clouds 16 1020 61 0 2.78 59 19:22 16.05.2020
2910 Clouds 16 1020 48 10000 4.1 40 18:43 16.05.2020
2911 Clouds 16 1020 48 10000 4.1 40 18:25 16.05.2020
2912 Clouds 17 1020 58 0 2.89 59 17:58 16.05.2020
2913 Clouds 18 1020 56 0 2.89 59 17:40 16.05.2020
2914 Clouds 17 1020 58 0 2.53 65 17:20 16.05.2020
2915 Clouds 17 1020 48 10000 2.6 150 16:42 16.05.2020
2916 Clouds 16 1020 48 10000 2.6 150 16:23 16.05.2020
2917 Clouds 16 1020 48 10000 2.6 150 16:23 16.05.2020
2918 Clouds 17 1020 48 10000 1 0 15:58 16.05.2020
2919 Clouds 16 1021 47 10000 2.1 70 15:40 16.05.2020
2920 Clouds 16 1021 48 10000 1 0 15:20 16.05.2020
2921 Clouds 16 1021 48 10000 1 0 14:55 16.05.2020
2922 Clouds 16 1021 50 10000 4.1 20 14:37 16.05.2020
2923 Clouds 16 1021 51 10000 2.6 0 14:19 16.05.2020
2924 Clouds 16 1021 47 10000 2.6 90 13:42 16.05.2020
2925 Clouds 17 1021 52 0 3.18 78 13:23 16.05.2020
2926 Clouds 16 1021 53 0 0.45 149 12:57 16.05.2020
2927 Clouds 16 1022 54 0 3.18 78 12:39 16.05.2020
2928 Clouds 14 1022 58 10000 5.1 80 12:18 16.05.2020
2929 Clouds 14 1022 58 0 0.45 246 11:41 16.05.2020
2930 Clouds 14 1022 60 0 0.45 218 11:22 16.05.2020
2931 Clouds 14 1022 62 0 3.21 82 10:58 16.05.2020
2932 Clouds 13 1022 66 0 0.45 311 10:39 16.05.2020
2933 Clouds 13 1022 76 0 3.03 85 10:20 16.05.2020
2934 Clouds 12 1022 91 0 0.45 305 09:46 16.05.2020
2935 Clouds 9 1022 81 10000 3.1 70 09:28 16.05.2020
2936 Clouds 7 1022 96 0 1.88 90 08:55 16.05.2020
2937 Clouds 6 1022 96 0 1.88 90 08:36 16.05.2020
2938 Clouds 5 1022 95 0 1.54 102 08:18 16.05.2020
2939 Clouds 5 1022 95 0 1.54 102 07:42 16.05.2020
2940 Clear 4 1022 94 0 1.33 110 07:21 16.05.2020
2941 Clear 3 1021 94 0 1.33 110 06:47 16.05.2020
2942 Clear 3 1021 93 0 1.15 108 06:20 16.05.2020
2943 Clear 3 1021 93 0 1.15 108 05:43 16.05.2020
2944 Clear 3 1021 93 0 1.11 110 05:24 16.05.2020
2945 Clear 4 1021 90 0 0.82 166 03:29 16.05.2020
2946 Clear 5 1021 90 0 0.82 166 02:49 16.05.2020
2947 Clear 5 1021 90 0 1.01 173 02:20 16.05.2020
2948 Clear 5 1021 89 0 1.01 173 01:41 16.05.2020
2949 Clear 6 1067 57 0 1.26 176 00:59 16.05.2020
2950 Clear 6 1067 56 0 1.26 176 00:41 16.05.2020
2951 Clear 6 1067 55 0 1.12 181 00:20 16.05.2020
2952 Clear 7 1021 100 10000 1.5 140 23:40 15.05.2020
2953 Clear 8 1067 53 0 1.09 178 23:20 15.05.2020
2954 Clear 8 1067 50 0 1.09 178 22:56 15.05.2020
2955 Clear 9 1067 46 0 0.45 178 22:38 15.05.2020
2956 Clear 9 1067 44 0 0.45 127 22:18 15.05.2020
2957 Clear 9 1020 93 10000 1 180 21:39 15.05.2020
2958 Clouds 9 1021 84 0 1.17 170 21:21 15.05.2020
2959 Clouds 9 1021 83 0 1.17 170 20:58 15.05.2020
2960 Clouds 10 1020 82 0 1.51 161 20:40 15.05.2020
2961 Clouds 10 1020 81 0 1.51 161 20:22 15.05.2020
2962 Clouds 10 1020 81 0 1.51 161 20:22 15.05.2020
2963 Clouds 10 1020 74 0 1.13 166 19:55 15.05.2020
2964 Clouds 11 1019 74 0 1.51 161 19:37 15.05.2020
2965 Clouds 10 1020 76 10000 1.5 180 19:18 15.05.2020
2966 Clouds 10 1020 76 10000 1.5 160 18:42 15.05.2020
2967 Clouds 10 1019 70 10000 1.5 190 18:23 15.05.2020
2968 Clouds 10 1020 82 0 1.8 159 17:39 15.05.2020
2969 Clouds 10 1020 82 0 1.49 143 17:19 15.05.2020
2970 Clouds 10 1019 76 10000 1 0 16:57 15.05.2020
2971 Clouds 10 1019 86 0 1.38 137 16:38 15.05.2020
2972 Clouds 10 1019 87 0 0.45 178 16:19 15.05.2020
2973 Clouds 9 1019 90 0 1.49 118 15:55 15.05.2020
2974 Clouds 8 1018 81 10000 2.1 100 15:37 15.05.2020
2975 Clouds 8 1018 81 10000 2.1 100 15:18 15.05.2020
2976 Clouds 8 1017 81 10000 2.6 70 14:42 15.05.2020
2977 Clouds 8 1018 95 0 2.01 76 14:24 15.05.2020
2978 Clouds 8 1017 95 0 2.01 76 13:58 15.05.2020
2979 Rain 8 1017 95 0 2.01 76 13:39 15.05.2020
2980 Rain 8 1017 95 0 2.24 65 13:20 15.05.2020
2981 Rain 8 1016 95 0 2.24 65 12:40 15.05.2020
2982 Rain 8 1016 96 0 2.73 60 12:19 15.05.2020
2983 Rain 8 1016 95 0 2.73 60 11:57 15.05.2020
2984 Rain 8 1015 96 0 3.1 57 11:38 15.05.2020
2985 Rain 8 1015 100 0 3.1 57 11:20 15.05.2020
2986 Rain 7 1014 96 0 3.1 57 10:58 15.05.2020
2987 Rain 7 1014 96 0 3.1 57 10:39 15.05.2020
2988 Rain 7 1014 96 0 3.42 51 10:21 15.05.2020
2989 Rain 7 1013 96 0 3.42 51 09:58 15.05.2020
2990 Rain 7 1013 96 0 3.42 51 09:37 15.05.2020
2991 Rain 8 1013 95 0 3.75 43 09:18 15.05.2020
2992 Rain 7 1013 95 0 3.4 57 08:55 15.05.2020
2993 Rain 7 1012 95 0 3.4 57 08:37 15.05.2020
2994 Rain 7 1012 95 0 3.95 59 08:18 15.05.2020
2995 Rain 7 1011 95 0 3.95 59 07:42 15.05.2020
2996 Rain 7 1011 95 0 4.11 56 07:24 15.05.2020
2997 Rain 8 1011 94 0 4.11 56 06:38 15.05.2020
2998 Rain 8 1011 93 0 4.44 63 05:49 15.05.2020
2999 Rain 8 1010 90 0 3.98 63 04:27 15.05.2020
3000 Clouds 8 1011 88 0 3.98 63 03:40 15.05.2020
3001 Clouds 8 1011 89 0 4.28 62 02:30 15.05.2020
3002 Clouds 9 1011 90 0 4.03 66 01:19 15.05.2020
3003 Rain 8 1012 90 0 4.03 66 00:46 15.05.2020
3004 Rain 9 1012 89 0 3.98 65 00:28 15.05.2020
3005 Clouds 9 1013 88 0 3.98 65 23:44 14.05.2020
3006 Clouds 9 1013 88 0 3.52 67 23:22 14.05.2020
3007 Rain 9 1013 89 0 3.52 67 22:59 14.05.2020
3008 Rain 10 1013 89 0 3.52 67 22:40 14.05.2020
3009 Rain 10 1013 89 0 3.55 63 22:19 14.05.2020
3010 Clouds 10 1013 88 0 0.45 309 21:56 14.05.2020
3011 Clouds 10 1013 89 0 3.55 63 21:38 14.05.2020
3012 Clouds 10 1013 89 0 3.56 58 21:19 14.05.2020
3013 Clouds 11 1013 88 0 3.56 58 20:55 14.05.2020
3014 Clouds 11 1013 88 0 3.56 58 20:36 14.05.2020
3015 Clouds 10 1013 88 0 3.3 59 20:18 14.05.2020
3016 Clouds 11 1013 87 0 3.3 59 19:41 14.05.2020
3017 Clouds 11 1013 87 0 3.31 59 19:21 14.05.2020
3018 Clouds 11 1013 86 0 3.31 59 18:58 14.05.2020
3019 Clouds 11 1013 86 0 3.31 59 18:38 14.05.2020
3020 Clouds 11 1013 85 0 3.65 57 18:20 14.05.2020
3021 Clouds 11 1013 85 0 3.65 57 17:59 14.05.2020
3022 Clouds 11 1013 85 0 3.65 57 17:38 14.05.2020
3023 Clouds 12 1013 85 0 3.7 60 17:19 14.05.2020
3024 Clouds 11 1013 84 0 3.7 60 16:59 14.05.2020
3025 Clouds 11 1013 84 0 3.7 60 16:39 14.05.2020
3026 Clouds 11 1013 82 0 3.43 64 16:20 14.05.2020
3027 Clouds 12 1013 82 0 3.43 64 15:57 14.05.2020
3028 Clouds 12 1013 81 0 3.43 64 15:39 14.05.2020
3029 Clouds 12 1013 81 0 2.99 71 15:19 14.05.2020
3030 Clouds 11 1013 83 0 2.99 71 14:56 14.05.2020
3031 Clouds 11 1014 86 0 2.67 67 14:37 14.05.2020
3032 Clouds 11 1014 87 0 2.67 67 14:19 14.05.2020
3033 Clouds 11 1014 89 0 2.67 67 13:55 14.05.2020
3034 Clouds 11 1014 92 0 2.4 69 13:37 14.05.2020
3035 Clouds 10 1014 93 0 2.4 69 13:18 14.05.2020
3036 Clouds 10 1014 94 0 2.4 69 12:56 14.05.2020
3037 Clouds 10 1014 95 0 2.4 69 12:37 14.05.2020
3038 Clouds 9 1014 95 0 2 81 12:18 14.05.2020
3039 Clouds 9 1014 96 0 2 81 11:55 14.05.2020
3040 Clouds 9 1014 96 0 2 81 11:37 14.05.2020
3041 Clouds 9 1014 96 0 2.23 81 11:19 14.05.2020
3042 Rain 9 1014 97 0 2.23 81 10:41 14.05.2020
3043 Rain 8 1014 97 0 1.76 59 10:22 14.05.2020
3044 Clouds 8 1014 96 0 1.46 44 09:43 14.05.2020
3045 Rain 7 1014 96 0 1.33 26 09:24 14.05.2020
3046 Rain 7 1013 96 0 1.33 26 08:59 14.05.2020
3047 Rain 7 1013 96 0 1.24 359 08:37 14.05.2020
3048 Rain 7 1013 96 0 1.24 359 08:18 14.05.2020
3049 Rain 6 1013 96 0 1.24 359 07:44 14.05.2020
3050 Rain 6 1013 96 0 1.08 341 07:21 14.05.2020
3051 Rain 6 1013 96 0 1.08 341 06:43 14.05.2020
3052 Rain 6 1012 96 0 1.27 332 06:24 14.05.2020
3053 Rain 6 1012 96 0 1.27 332 05:42 14.05.2020
3054 Rain 7 1011 96 0 1.49 337 04:45 14.05.2020
3055 Rain 6 1011 95 0 2.24 350 03:43 14.05.2020
3056 Rain 7 1011 95 0 3.21 346 03:20 14.05.2020
3057 Rain 7 1014 84 0 3.63 350 02:35 14.05.2020
3058 Rain 7 1009 92 0 0.89 321 01:52 14.05.2020
3059 Clouds 7 1012 84 0 2.21 343 00:54 14.05.2020
3060 Clouds 7 1012 84 0 1.49 18 00:28 14.05.2020
3061 Clouds 7 1011 83 0 1.49 18 23:55 13.05.2020
3062 Clouds 7 1011 83 0 1.49 18 23:37 13.05.2020
3063 Rain 7 1011 83 0 2.25 29 23:18 13.05.2020
3064 Rain 7 1012 82 0 2.25 29 22:41 13.05.2020
3065 Rain 7 1012 82 0 2.01 15 22:22 13.05.2020
3066 Rain 8 1012 82 0 2.01 15 21:59 13.05.2020
3067 Rain 8 1012 82 0 2.01 15 21:40 13.05.2020
3068 Rain 8 1012 82 0 3.24 26 21:19 13.05.2020
3069 Rain 8 1012 81 0 3.24 26 20:56 13.05.2020
3070 Rain 8 1006 89 0 3.24 26 20:38 13.05.2020
3071 Rain 8 1006 89 0 3.39 6 20:19 13.05.2020
3072 Rain 9 1006 89 0 3.39 6 19:42 13.05.2020
3073 Rain 9 1006 89 0 2.92 52 19:24 13.05.2020
3074 Rain 9 1006 89 0 2.92 52 18:45 13.05.2020
3075 Rain 9 1006 90 0 3.41 62 18:22 13.05.2020
3076 Rain 9 1007 90 0 3.41 62 17:59 13.05.2020
3077 Rain 9 1007 90 0 3.41 62 17:38 13.05.2020
3078 Clouds 10 1007 87 0 3.36 60 17:18 13.05.2020
3079 Clouds 10 1007 83 0 3.36 60 16:41 13.05.2020
3080 Rain 10 1012 77 0 3.01 70 16:20 13.05.2020
3081 Rain 10 1012 78 0 3.01 70 15:59 13.05.2020
3082 Rain 10 1012 78 0 0.45 91 15:41 13.05.2020
3083 Rain 10 1012 77 0 0.45 37 15:18 13.05.2020
3084 Rain 10 1013 76 0 2.6 61 14:56 13.05.2020
3085 Rain 10 1013 75 0 2.6 61 14:38 13.05.2020
3086 Rain 9 1010 87 10000 3.1 50 14:19 13.05.2020
3087 Rain 10 1010 87 10000 3.1 70 13:55 13.05.2020
3088 Clouds 10 1010 87 10000 3.1 60 13:37 13.05.2020
3089 Clouds 9 1010 87 10000 3.1 60 13:19 13.05.2020
3090 Clouds 11 1015 71 0 4.25 71 12:42 13.05.2020
3091 Clouds 10 1015 71 0 3.67 62 12:21 13.05.2020
3092 Clouds 10 1015 71 0 0.89 89 11:57 13.05.2020
3093 Clouds 10 1015 71 0 0.89 89 11:57 13.05.2020
3094 Clouds 10 1015 72 0 0.89 112 11:38 13.05.2020
3095 Clouds 10 1015 72 0 0.89 112 11:20 13.05.2020
3096 Clouds 10 1015 71 0 3.61 56 10:59 13.05.2020
3097 Clouds 10 1015 73 0 2.57 65 10:38 13.05.2020
3098 Clouds 10 1015 73 0 2.57 65 10:19 13.05.2020
3099 Clouds 10 1015 75 0 0.89 64 09:56 13.05.2020
3100 Clouds 9 1016 76 0 2.41 62 09:38 13.05.2020
3101 Clouds 8 1016 77 0 1.44 67 09:19 13.05.2020
3102 Clouds 7 1015 78 0 1.44 67 08:40 13.05.2020
3103 Clouds 7 1015 79 0 0.89 112 08:21 13.05.2020
3104 Clouds 6 1015 80 0 1.06 103 07:58 13.05.2020
3105 Clouds 6 1015 80 0 1.06 103 07:34 13.05.2020
3106 Clouds 6 1016 79 0 1.17 142 06:55 13.05.2020
3107 Clouds 6 1015 79 0 1.17 103 06:36 13.05.2020
3108 Clouds 6 1015 78 0 1.17 103 05:50 13.05.2020
3109 Clouds 6 1015 78 0 1.04 64 04:22 13.05.2020
3110 Clouds 6 1011 86 0 1.76 90 02:58 13.05.2020
3111 Clouds 6 1016 76 0 1.81 88 02:20 13.05.2020
3112 Clouds 6 1011 82 0 2.03 99 01:21 13.05.2020
3113 Clouds 6 1016 75 0 2.18 84 00:39 13.05.2020
3114 Clouds 6 1016 75 0 2.18 84 00:18 13.05.2020
3115 Clouds 6 1013 87 0 2.18 84 23:39 12.05.2020
3116 Clouds 6 1017 72 0 2.15 81 23:21 12.05.2020
3117 Clouds 6 1013 73 0 2.15 81 22:57 12.05.2020
3118 Clouds 6 1013 73 0 2.15 81 22:38 12.05.2020
3119 Clouds 7 1017 69 0 2.46 90 22:20 12.05.2020
3120 Clouds 7 1014 71 0 2.46 90 21:55 12.05.2020
3121 Clouds 8 1017 63 0 2.48 84 21:36 12.05.2020
3122 Clouds 8 1017 62 0 2.48 84 21:18 12.05.2020
3123 Clouds 9 1017 62 0 2.48 84 20:56 12.05.2020
3124 Clouds 9 1017 60 0 2.48 84 20:38 12.05.2020
3125 Clouds 10 1017 58 0 1.79 115 20:19 12.05.2020
3126 Clouds 10 1017 58 0 2.53 75 19:55 12.05.2020
3127 Clouds 11 1017 57 0 0.45 129 19:37 12.05.2020
3128 Clouds 11 1018 56 0 0.89 115 19:18 12.05.2020
3129 Clouds 11 1018 54 0 1.34 139 18:41 12.05.2020
3130 Clouds 11 1014 57 0 1.34 66 18:23 12.05.2020
3131 Clouds 11 1018 53 0 1.34 112 17:57 12.05.2020
3132 Clouds 12 1018 51 0 1.79 25 17:38 12.05.2020
3133 Clouds 10 1015 57 10000 2.1 0 17:20 12.05.2020
3134 Clouds 10 1015 49 10000 2.6 0 16:42 12.05.2020
3135 Clouds 10 1015 49 10000 2.6 0 16:22 12.05.2020
3136 Clouds 10 1016 61 10000 2.1 130 15:56 12.05.2020
3137 Clouds 10 1016 61 10000 2.6 120 15:37 12.05.2020
3138 Clouds 10 1016 51 10000 2.6 110 15:18 12.05.2020
3139 Clouds 9 1016 51 10000 2.6 110 14:55 12.05.2020
3140 Clouds 9 1016 61 10000 1.5 0 14:36 12.05.2020
3141 Clouds 9 1016 61 10000 1.5 0 14:18 12.05.2020
3142 Clouds 9 1016 61 10000 2.6 80 13:55 12.05.2020
3143 Clouds 9 1016 54 0 1.34 102 13:37 12.05.2020
3144 Clouds 9 1016 54 0 0.89 119 13:18 12.05.2020
3145 Clouds 9 1016 61 0 0.45 104 12:56 12.05.2020
3146 Clouds 9 1055 38 0 0.45 113 12:38 12.05.2020
3147 Clouds 8 1017 62 0 1.34 56 12:20 12.05.2020
3148 Clouds 7 1017 71 10000 2.1 50 11:57 12.05.2020
3149 Clouds 7 1017 71 10000 2.1 50 11:57 12.05.2020
3150 Clouds 7 1017 64 0 0.45 154 11:37 12.05.2020
3151 Clouds 7 1071 47 0 1.34 39 11:19 12.05.2020
3152 Clouds 6 1017 68 0 0.45 167 10:55 12.05.2020
3153 Clouds 5 1017 86 10000 1.5 50 10:37 12.05.2020
3154 Clouds 4 1017 78 10000 2.6 40 10:18 12.05.2020
3155 Clouds 5 1048 52 0 1.34 298 09:57 12.05.2020
3156 Clouds 4 1017 78 10000 3.1 30 09:38 12.05.2020
3157 Clouds 3 1017 78 10000 3.1 30 09:19 12.05.2020
3158 Clouds 4 1066 59 0 0.45 117 08:41 12.05.2020
3159 Clouds 4 1050 61 0 0.45 56 08:21 12.05.2020
3160 Clouds 3 1064 63 0 0.89 49 07:57 12.05.2020
3161 Clouds 3 1064 64 0 0.45 69 07:39 12.05.2020
3162 Clouds 3 1062 66 0 2.51 32 07:19 12.05.2020
3163 Clouds 3 1015 91 0 2.51 32 06:38 12.05.2020
3164 Clouds 3 1015 91 0 2.51 32 06:38 12.05.2020
3165 Clouds 3 1015 92 0 2.47 23 06:19 12.05.2020
3166 Clouds 3 1014 92 0 2.47 23 05:45 12.05.2020
3167 Clouds 3 1014 94 0 2.66 23 04:41 12.05.2020
3168 Snow 3 1013 94 0 2.98 354 03:22 12.05.2020
3169 Snow 3 1062 52 0 3.15 347 02:27 12.05.2020
3170 Snow 3 1062 49 0 0.89 133 01:48 12.05.2020
3171 Snow 2 1011 94 0 0.45 297 00:59 12.05.2020
3172 Snow 3 1010 93 0 0.89 262 00:25 12.05.2020
3173 Snow 4 1010 92 0 0.89 269 23:58 11.05.2020
3174 Snow 3 1010 93 10000 5.7 330 23:40 11.05.2020
3175 Rain 5 1013 79 0 1.79 281 23:20 11.05.2020
3176 Rain 5 1013 79 0 0.89 305 22:58 11.05.2020
3177 Rain 5 1008 92 0 1.34 278 22:40 11.05.2020
3178 Rain 6 1012 79 0 0.45 285 22:19 11.05.2020
3179 Rain 5 1007 100 10000 5.1 300 21:57 11.05.2020
3180 Clouds 7 1011 78 0 4.4 311 21:38 11.05.2020
3181 Rain 7 1010 78 0 1.79 288 21:19 11.05.2020
3182 Rain 7 1010 77 0 1.34 267 20:57 11.05.2020
3183 Rain 7 1009 76 0 3.13 276 20:38 11.05.2020
3184 Rain 7 1009 76 0 4.79 315 20:19 11.05.2020
3185 Rain 9 1009 76 0 1.34 273 19:55 11.05.2020
3186 Rain 8 1003 93 0 0.89 266 19:36 11.05.2020
3187 Rain 8 999 86 0 0.89 198 19:18 11.05.2020
3188 Clouds 9 1003 100 10000 4.6 310 18:55 11.05.2020
3189 Rain 12 1006 77 0 0.89 310 18:36 11.05.2020
3190 Rain 12 1006 77 0 0.89 284 18:18 11.05.2020
3191 Rain 12 1006 77 0 0.89 284 18:18 11.05.2020
3192 Rain 13 1005 75 0 0.89 300 17:41 11.05.2020
3193 Rain 12 1005 75 0 0.89 300 17:22 11.05.2020
3194 Rain 15 1004 71 0 1.34 291 16:59 11.05.2020
3195 Rain 16 1053 34 0 3.13 158 16:40 11.05.2020
3196 Clouds 18 998 68 10000 3.6 280 16:21 11.05.2020
3197 Rain 19 995 72 0 5.85 271 15:57 11.05.2020
3198 Rain 19 995 72 0 5.85 271 15:39 11.05.2020
3199 Rain 19 996 75 0 1.34 271 15:18 11.05.2020
3200 Rain 19 996 76 0 0.89 312 14:54 11.05.2020
3201 Rain 18 996 78 0 0.45 342 14:36 11.05.2020
3202 Rain 18 996 78 0 0.45 11 14:18 11.05.2020
3203 Rain 17 994 79 0 4.22 251 13:41 11.05.2020
3204 Rain 18 993 74 0 1.79 340 13:19 11.05.2020
3205 Rain 17 1001 75 0 0.45 268 12:58 11.05.2020
3206 Rain 16 1001 78 0 4.39 263 12:40 11.05.2020
3207 Clouds 16 994 83 0 1.34 306 12:21 11.05.2020
3208 Clouds 15 1001 77 0 1.45 305 11:56 11.05.2020
3209 Clouds 15 994 83 0 0.45 290 11:38 11.05.2020
3210 Clouds 15 994 83 0 0.45 290 11:19 11.05.2020
3211 Clouds 14 994 84 0 0.85 46 10:55 11.05.2020
3212 Clouds 14 1001 80 0 0.85 46 10:37 11.05.2020
3213 Clouds 14 1001 83 0 1.56 70 10:18 11.05.2020
3214 Clouds 14 1001 84 0 1.56 70 09:55 11.05.2020
3215 Clouds 13 1001 84 0 2.43 75 09:37 11.05.2020
3216 Clouds 13 994 90 0 0.45 96 09:18 11.05.2020
3217 Clouds 13 994 91 0 2.51 72 08:40 11.05.2020
3218 Clouds 13 994 91 0 0.45 52 08:22 11.05.2020
3219 Clouds 13 995 91 0 0.45 92 07:56 11.05.2020
3220 Clouds 13 1002 85 0 2.61 89 07:38 11.05.2020
3221 Clouds 13 995 91 0 2.61 89 07:19 11.05.2020
3222 Clouds 12 1003 86 0 2.61 89 06:33 11.05.2020
3223 Clouds 12 1003 85 0 2.39 98 05:49 11.05.2020
3224 Clouds 12 997 91 0 1.99 120 05:20 11.05.2020
3225 Clouds 12 999 94 0 1.86 129 03:52 11.05.2020
3226 Clouds 13 1006 84 0 1.57 165 02:36 11.05.2020
3227 Clear 13 1001 91 0 1.59 164 01:55 11.05.2020
3228 Clear 14 1002 91 0 1.74 152 01:18 11.05.2020
3229 Clear 14 1002 90 0 1.74 152 00:40 11.05.2020
3230 Clear 14 1008 81 0 2.06 145 00:18 11.05.2020
3231 Clear 15 1008 80 0 2.34 131 23:39 10.05.2020
3232 Clear 15 1008 79 0 2.34 131 23:20 10.05.2020
3233 Clear 16 1049 65 0 2.24 127 22:54 10.05.2020
3234 Clear 16 1048 65 0 1.79 102 22:36 10.05.2020
3235 Clear 16 1009 76 0 2.29 122 22:18 10.05.2020
3236 Clear 17 1048 66 0 2.29 122 21:42 10.05.2020
3237 Clear 17 1009 73 0 2.2 114 21:18 10.05.2020
3238 Clear 19 1009 70 0 2.2 114 20:43 10.05.2020
3239 Clouds 20 1005 68 0 2.15 102 20:24 10.05.2020
3240 Clouds 21 1005 68 0 2.15 102 19:59 10.05.2020
3241 Clouds 21 1005 68 0 2.15 102 19:39 10.05.2020
3242 Clouds 21 1005 68 0 2.15 102 19:39 10.05.2020
3243 Clouds 21 1005 68 0 1.41 113 19:21 10.05.2020
3244 Clouds 22 1005 68 0 1.41 113 18:56 10.05.2020
3245 Clouds 22 1010 60 0 0.89 177 18:37 10.05.2020
3246 Clouds 22 1010 59 0 0.89 177 18:19 10.05.2020
3247 Clouds 22 1010 53 0 0.89 177 17:58 10.05.2020
3248 Clouds 22 1010 53 0 0.89 177 17:40 10.05.2020
3249 Clouds 22 1010 53 0 0.89 177 17:40 10.05.2020
3250 Clouds 22 1007 60 10000 2.1 0 17:21 10.05.2020
3251 Clouds 22 1003 53 0 0.45 140 16:56 10.05.2020
3252 Clouds 22 1004 56 0 0.89 51 16:38 10.05.2020
3253 Clouds 22 1011 52 0 1.78 220 16:19 10.05.2020
3254 Clouds 22 1004 59 0 0.89 178 15:44 10.05.2020
3255 Clouds 20 1008 64 10000 2.1 180 15:24 10.05.2020
3256 Clouds 18 1009 72 10000 1 0 14:58 10.05.2020
3257 Clouds 18 1009 72 10000 2.1 190 14:38 10.05.2020
3258 Clouds 18 1009 72 10000 2.1 190 14:38 10.05.2020
3259 Clouds 17 1009 77 10000 2.1 170 14:20 10.05.2020
3260 Clouds 17 1009 77 10000 2.1 170 13:59 10.05.2020
3261 Clouds 18 1009 72 10000 1 0 13:38 10.05.2020
3262 Rain 18 1009 72 10000 1 0 13:20 10.05.2020
3263 Rain 16 1010 87 10000 2.1 210 12:57 10.05.2020
3264 Rain 17 1013 81 0 2.97 224 12:39 10.05.2020
3265 Rain 15 1010 87 10000 2.6 200 12:21 10.05.2020
3266 Rain 15 1010 93 10000 3.1 220 11:57 10.05.2020
3267 Rain 15 1010 93 10000 3.1 240 11:39 10.05.2020
3268 Rain 15 1008 93 0 3.92 239 11:19 10.05.2020
3269 Rain 15 1049 66 0 0.89 340 10:46 10.05.2020
3270 Rain 14 1008 94 0 3.8 261 10:28 10.05.2020
3271 Rain 15 1013 82 0 3.8 261 09:58 10.05.2020
3272 Rain 14 1013 82 0 2.62 239 09:40 10.05.2020
3273 Rain 14 1008 93 0 3.93 265 09:21 10.05.2020
3274 Rain 14 1008 93 0 2.62 239 08:51 10.05.2020
3275 Rain 14 1008 93 0 1.85 241 08:24 10.05.2020
3276 Rain 14 1008 93 0 1.85 241 07:45 10.05.2020
3277 Rain 14 1008 93 0 1.73 240 07:21 10.05.2020
3278 Clouds 13 1008 92 0 1.73 240 06:58 10.05.2020
3279 Clouds 13 1008 91 0 1.73 240 06:37 10.05.2020
3280 Rain 13 1008 91 0 1.88 241 06:18 10.05.2020
3281 Rain 13 1008 91 0 1.88 241 05:41 10.05.2020
3282 Clouds 14 1008 91 0 2.25 224 04:39 10.05.2020
3283 Clouds 14 1008 91 0 1.72 216 04:20 10.05.2020
3284 Clouds 14 1009 90 0 1.72 216 03:39 10.05.2020
3285 Rain 13 1009 89 0 1.54 226 02:53 10.05.2020
3286 Clouds 13 1009 87 0 2.3 206 02:24 10.05.2020
3287 Clouds 13 1009 85 0 2.3 206 01:43 10.05.2020
3288 Clouds 14 1009 84 0 1.87 207 01:23 10.05.2020
3289 Clouds 14 1009 83 0 1.87 207 00:57 10.05.2020
3290 Clouds 15 1009 81 0 1.55 205 00:36 10.05.2020
3291 Clouds 15 1009 80 0 1.55 205 00:18 10.05.2020
3292 Clouds 16 1009 77 0 1.55 205 23:39 09.05.2020
3293 Rain 16 1009 76 0 0.98 163 23:21 09.05.2020
3294 Rain 17 1009 75 0 0.98 163 22:55 09.05.2020
3295 Rain 17 1010 75 0 0.33 150 22:37 09.05.2020
3296 Rain 18 1010 75 0 0.33 150 22:19 09.05.2020
3297 Rain 19 1010 72 0 0.33 150 21:55 09.05.2020
3298 Rain 19 1009 68 0 0.33 150 21:36 09.05.2020
3299 Rain 20 1008 56 0 1.36 160 21:18 09.05.2020
3300 Rain 21 1008 53 0 0.45 173 20:54 09.05.2020
3301 Rain 22 1009 60 0 0.96 113 20:36 09.05.2020
3302 Rain 22 1009 59 0 0.96 113 20:18 09.05.2020
3303 Rain 24 1008 50 0 0.96 113 19:39 09.05.2020
3304 Rain 24 1009 55 0 0.97 80 19:20 09.05.2020
3305 Rain 23 1010 52 0 0.97 80 18:55 09.05.2020
3306 Rain 24 1010 51 0 0.97 80 18:37 09.05.2020
3307 Rain 23 1010 50 0 1.34 43 18:18 09.05.2020
3308 Rain 25 1010 50 0 1.34 43 17:42 09.05.2020
3309 Clouds 25 1010 50 0 1.32 8 17:22 09.05.2020
3310 Clouds 25 1010 46 0 1.32 8 16:41 09.05.2020
3311 Clouds 25 1011 47 0 1.62 348 16:20 09.05.2020
3312 Clouds 25 1011 47 0 1.62 348 15:57 09.05.2020
3313 Clouds 25 1011 47 0 1.62 348 15:39 09.05.2020
3314 Clouds 25 1011 49 0 0.45 96 15:21 09.05.2020
3315 Clouds 25 1012 50 0 1.79 325 14:43 09.05.2020
3316 Clouds 25 1012 49 0 2.34 320 14:20 09.05.2020
3317 Clouds 25 1013 40 10000 3.1 240 13:59 09.05.2020
3318 Clouds 25 1013 49 0 2.34 320 13:41 09.05.2020
3319 Clouds 24 1013 53 0 1.99 296 13:21 09.05.2020
3320 Clouds 23 1013 56 0 1.99 296 12:57 09.05.2020
3321 Clouds 23 1014 53 10000 3.1 250 12:39 09.05.2020
3322 Rain 21 1014 60 10000 3.1 240 12:21 09.05.2020
3323 Rain 21 1013 60 0 0.89 255 11:43 09.05.2020
3324 Rain 19 1013 62 0 0.45 261 11:20 09.05.2020
3325 Rain 17 1014 84 0 1.19 222 10:48 09.05.2020
3326 Rain 17 1014 81 0 1.64 240 10:27 09.05.2020
3327 Rain 17 1015 76 0 1.64 240 09:59 09.05.2020
3328 Rain 18 1015 75 0 1.64 240 09:41 09.05.2020
3329 Rain 16 1015 77 10000 3.6 210 09:20 09.05.2020
3330 Rain 16 1014 85 0 1.57 272 08:52 09.05.2020
3331 Rain 15 1014 87 0 1.57 272 08:34 09.05.2020
3332 Rain 13 1014 91 0 1.57 275 07:56 09.05.2020
3333 Rain 12 1014 90 0 1.53 273 07:38 09.05.2020
3334 Rain 12 1014 89 0 1.53 273 07:20 09.05.2020
3335 Rain 11 1014 87 0 2.14 235 06:27 09.05.2020
3336 Rain 11 1014 87 0 2.14 235 05:50 09.05.2020
3337 Clouds 11 1014 86 0 2 225 05:20 09.05.2020
3338 Clouds 12 1014 86 0 1.98 225 03:39 09.05.2020
3339 Rain 12 1014 85 0 1.33 233 02:54 09.05.2020
3340 Rain 12 1015 84 0 0.75 242 02:30 09.05.2020
3341 Rain 13 1015 84 0 0.75 242 01:49 09.05.2020
3342 Rain 13 1015 84 0 0.38 177 01:21 09.05.2020
3343 Rain 13 1015 87 0 0.38 177 00:42 09.05.2020
3344 Rain 13 1015 87 0 0.8 200 00:19 09.05.2020
3345 Rain 14 1015 84 0 0.8 200 23:44 08.05.2020
3346 Rain 14 1015 83 0 1.11 163 23:25 08.05.2020
3347 Rain 15 1015 81 0 1.11 163 22:56 08.05.2020
3348 Rain 15 1016 79 0 1.37 149 22:38 08.05.2020
3349 Rain 16 1016 76 0 1.37 149 22:19 08.05.2020
3350 Rain 16 1016 77 0 1.37 149 22:19 08.05.2020
3351 Rain 16 1016 74 0 1.37 149 21:55 08.05.2020
3352 Rain 17 1016 71 0 1.37 149 21:36 08.05.2020
3353 Clouds 19 1016 63 0 1.06 97 21:18 08.05.2020
3354 Clouds 19 1015 60 0 1.06 97 20:56 08.05.2020
3355 Clouds 22 1015 43 10000 2.1 340 20:37 08.05.2020
3356 Clouds 22 1015 43 10000 2.1 340 20:19 08.05.2020
3357 Clouds 22 1015 43 10000 2.6 330 20:19 08.05.2020
3358 Clouds 22 1015 40 10000 3.1 340 19:42 08.05.2020
3359 Clouds 23 1015 40 10000 3.1 340 19:21 08.05.2020
3360 Clouds 24 1016 40 10000 4.1 290 18:50 08.05.2020
3361 Clouds 24 1015 46 0 2.76 333 18:31 08.05.2020
3362 Clouds 24 1016 43 10000 4.6 300 17:43 08.05.2020
3363 Clouds 24 1016 43 10000 4.6 300 17:20 08.05.2020
3364 Clouds 24 1016 43 10000 4.1 310 16:58 08.05.2020
3365 Clouds 24 1016 43 10000 4.1 250 16:39 08.05.2020
3366 Clouds 24 1016 43 10000 4.1 250 16:21 08.05.2020
3367 Clouds 25 1016 42 0 0.45 319 15:54 08.05.2020
3368 Clouds 24 1017 40 10000 3.6 260 15:36 08.05.2020
3369 Clouds 24 1017 38 10000 3.1 300 15:18 08.05.2020
3370 Clouds 24 1018 37 10000 3.6 290 14:41 08.05.2020
3371 Clouds 24 1018 37 10000 3.6 290 14:20 08.05.2020
3372 Clouds 25 1018 39 0 0.89 297 13:58 08.05.2020
3373 Clouds 25 1018 39 0 0.89 297 13:58 08.05.2020
3374 Clouds 24 1018 39 0 0.45 306 13:39 08.05.2020
3375 Clouds 23 1061 21 0 0.45 266 13:39 08.05.2020
3376 Clouds 24 1018 38 0 0.45 213 13:19 08.05.2020
3377 Clouds 24 1018 38 0 0.45 286 12:45 08.05.2020
3378 Clouds 22 1019 37 10000 2.6 230 12:25 08.05.2020
3379 Clouds 21 1017 40 0 2.16 279 11:55 08.05.2020
3380 Clouds 21 1063 29 0 0.45 118 11:37 08.05.2020
3381 Clouds 21 1063 29 0 0.45 118 11:37 08.05.2020
3382 Clouds 21 1063 31 0 0.45 164 11:18 08.05.2020
3383 Clouds 21 1019 47 0 1.94 269 10:55 08.05.2020
3384 Clouds 20 1019 46 0 1.94 269 10:37 08.05.2020
3385 Clouds 19 1019 50 0 1.85 253 10:18 08.05.2020
3386 Clouds 15 1019 60 0 1.81 255 09:41 08.05.2020
3387 Clouds 12 1020 71 10000 3.1 220 09:19 08.05.2020
3388 Clouds 13 1019 72 0 1.51 245 08:56 08.05.2020
3389 Clouds 13 1020 76 0 1.09 223 08:37 08.05.2020
3390 Clouds 12 1020 78 0 1.09 223 08:18 08.05.2020
3391 Clouds 9 1020 88 0 1.09 223 07:39 08.05.2020
3392 Clouds 8 1020 89 0 1.33 222 07:19 08.05.2020
3393 Clouds 7 1020 88 0 1.33 222 06:48 08.05.2020
3394 Clouds 7 1019 87 0 1.35 198 06:20 08.05.2020
3395 Clouds 7 1019 85 0 1.23 205 05:34 08.05.2020
3396 Clouds 7 1020 84 0 1.34 208 03:55 08.05.2020
3397 Clouds 8 1020 84 0 1.36 183 02:31 08.05.2020
3398 Clouds 9 1021 79 0 1.35 185 01:41 08.05.2020
3399 Clear 8 1021 77 0 1.54 168 01:21 08.05.2020
3400 Clear 9 1021 73 0 1.54 168 00:48 08.05.2020
3401 Clear 9 1021 73 0 1.78 168 00:28 08.05.2020
3402 Clear 10 1021 72 0 1.78 168 23:57 07.05.2020
3403 Clear 9 1022 70 10000 2.1 140 23:39 07.05.2020
3404 Clear 9 1022 70 10000 2.1 140 23:39 07.05.2020
3405 Clear 11 1021 74 0 1.71 150 23:21 07.05.2020
3406 Clear 11 1022 75 0 1.71 150 22:54 07.05.2020
3407 Clear 12 1022 73 0 1.71 150 22:36 07.05.2020
3408 Clear 12 1022 69 0 1.68 140 22:18 07.05.2020
3409 Clear 13 1064 41 0 1.68 140 21:54 07.05.2020
3410 Clear 14 1064 41 0 1.68 140 21:36 07.05.2020
3411 Clear 14 1021 53 0 1.52 103 21:18 07.05.2020
3412 Clear 15 1021 41 10000 2.6 30 20:41 07.05.2020
3413 Clear 17 1021 46 0 1.92 71 20:21 07.05.2020
3414 Clear 17 1021 44 0 1.92 71 20:21 07.05.2020
3415 Clear 18 1021 34 10000 3.1 30 19:54 07.05.2020
3416 Clear 18 1021 31 10000 2.1 20 19:36 07.05.2020
3417 Clear 19 1021 40 0 2.32 51 19:18 07.05.2020
3418 Clear 19 1021 39 0 2.32 51 18:41 07.05.2020
3419 Clear 19 1021 38 0 2.7 48 18:23 07.05.2020
3420 Clear 19 1022 41 0 2.7 48 17:43 07.05.2020
3421 Clear 19 1022 40 0 2.76 42 17:21 07.05.2020
3422 Clear 19 1022 40 0 2.76 42 17:21 07.05.2020
3423 Clear 20 1022 43 0 0.45 34 16:59 07.05.2020
3424 Clear 20 1022 40 0 0.45 255 16:40 07.05.2020
3425 Clear 20 1022 39 0 2.49 28 16:18 07.05.2020
3426 Clear 20 1022 35 0 0.45 5 15:56 07.05.2020
3427 Clear 20 1022 33 0 2.11 32 15:37 07.05.2020
3428 Clear 20 1023 33 0 2.11 32 15:18 07.05.2020
3429 Clear 19 1023 35 0 2.11 32 14:43 07.05.2020
3430 Clear 19 1023 36 0 1.97 49 14:21 07.05.2020
3431 Clear 19 1024 40 0 0.45 168 13:45 07.05.2020
3432 Clear 19 1024 41 0 0.45 161 13:26 07.05.2020
3433 Clear 17 1024 41 0 1.64 44 12:55 07.05.2020
3434 Clear 18 1024 44 0 1.64 44 12:37 07.05.2020
3435 Clear 17 1024 40 0 0.45 206 12:18 07.05.2020
3436 Clear 16 1024 46 0 1.34 45 11:39 07.05.2020
3437 Clear 15 1024 45 0 0.79 43 11:21 07.05.2020
3438 Clear 15 1025 47 0 0.79 43 10:44 07.05.2020
3439 Clear 14 1025 47 0 0.3 21 10:26 07.05.2020
3440 Clear 13 1025 51 0 0.3 21 09:57 07.05.2020
3441 Clear 11 1024 65 0 0.3 21 09:38 07.05.2020
3442 Clear 10 1025 66 10000 1.5 220 09:38 07.05.2020
3443 Clear 10 1058 47 0 0.67 244 09:18 07.05.2020
3444 Clear 9 1025 76 0 0.67 244 08:43 07.05.2020
3445 Clear 8 1025 83 0 1.2 231 08:22 07.05.2020
3446 Clear 6 1025 90 0 1.2 231 07:58 07.05.2020
3447 Clear 5 1025 92 0 1.2 231 07:39 07.05.2020
3448 Clear 4 1025 92 0 1.46 229 07:20 07.05.2020
3449 Clear 3 1024 92 0 1.46 229 06:37 07.05.2020
3450 Clear 3 1024 91 0 1.81 219 05:58 07.05.2020
3451 Clear 4 1025 91 0 1.76 217 04:28 07.05.2020
3452 Clear 4 1024 89 0 1.76 217 03:38 07.05.2020
3453 Clear 4 1024 90 0 1.52 221 03:18 07.05.2020
3454 Clear 4 1024 88 0 1.04 222 02:26 07.05.2020
3455 Clear 5 1024 86 0 1.04 222 01:37 07.05.2020
3456 Clear 3 1024 71 10000 1.5 160 01:19 07.05.2020
3457 Clear 5 1024 86 0 0.98 232 00:42 07.05.2020
3458 Clear 6 1024 86 0 0.86 251 00:21 07.05.2020
3459 Clear 6 1024 85 0 0.86 251 23:44 06.05.2020
3460 Clear 6 1023 84 0 0.87 258 23:22 06.05.2020
3461 Clear 7 1024 83 0 0.87 258 22:56 06.05.2020
3462 Clear 8 1023 83 0 0.87 258 22:37 06.05.2020
3463 Clear 8 1024 82 0 1.23 216 22:19 06.05.2020
3464 Clear 9 1023 79 0 1.23 216 21:55 06.05.2020
3465 Clear 9 1023 77 0 1.23 216 21:37 06.05.2020
3466 Clear 10 1023 71 0 1.09 185 21:18 06.05.2020
3467 Clear 11 1022 62 0 1.09 185 20:42 06.05.2020
3468 Clear 12 1022 54 0 0.83 96 20:22 06.05.2020
3469 Clear 13 1022 50 0 0.83 96 19:57 06.05.2020
3470 Clear 13 1022 52 0 0.83 96 19:38 06.05.2020
3471 Clear 14 1022 47 0 1.89 49 19:19 06.05.2020
3472 Clear 14 1022 47 0 1.89 49 18:58 06.05.2020
3473 Clear 14 1022 47 0 2.81 40 18:38 06.05.2020
3474 Clear 14 1022 44 0 2.81 40 18:20 06.05.2020
3475 Clear 14 1022 43 0 2.81 40 17:56 06.05.2020
3476 Clear 14 1022 42 0 2.87 39 17:38 06.05.2020
3477 Clear 14 1022 40 0 2.87 39 17:20 06.05.2020
3478 Clear 14 1022 39 0 0.45 182 16:58 06.05.2020
3479 Clear 14 1022 39 0 2.87 39 16:40 06.05.2020
3480 Clear 14 1022 37 0 2.74 42 16:20 06.05.2020
3481 Clear 14 1022 39 0 2.74 42 15:57 06.05.2020
3482 Clear 14 1022 41 0 2.74 42 15:39 06.05.2020
3483 Clear 14 1022 38 0 2.8 43 15:20 06.05.2020
3484 Clear 14 1022 42 0 0.45 22 14:42 06.05.2020
3485 Clouds 14 1022 43 0 0.45 187 14:19 06.05.2020
3486 Clouds 13 1022 45 0 0.45 15 13:59 06.05.2020
3487 Clouds 13 1022 41 0 3.04 44 13:40 06.05.2020
3488 Clouds 13 1022 42 0 2.93 47 13:22 06.05.2020
3489 Clouds 13 1022 46 0 2.93 47 12:54 06.05.2020
3490 Clouds 12 1022 44 0 2.75 52 12:36 06.05.2020
3491 Clouds 12 1022 46 0 0.45 17 12:18 06.05.2020
3492 Clouds 12 1022 46 0 2.75 52 11:40 06.05.2020
3493 Clouds 11 1023 47 0 2.58 62 11:21 06.05.2020
3494 Clouds 11 1022 50 0 2.58 62 10:57 06.05.2020
3495 Clouds 10 1022 52 0 2.58 62 10:37 06.05.2020
3496 Clouds 10 1022 55 0 2.57 66 10:18 06.05.2020
3497 Clouds 10 1022 63 0 2.36 56 09:43 06.05.2020
3498 Clouds 7 1022 75 10000 3.1 30 09:22 06.05.2020
3499 Clouds 6 1022 86 0 2.14 54 08:49 06.05.2020
3500 Clouds 5 1022 91 0 1.41 57 08:23 06.05.2020
3501 Clouds 4 1022 92 0 1.41 57 07:59 06.05.2020
3502 Clouds 3 1022 91 0 1.41 57 07:39 06.05.2020
3503 Clouds 3 1022 89 0 1.21 56 07:20 06.05.2020
3504 Clouds 2 1021 88 0 1.21 56 06:53 06.05.2020
3505 Clear 2 1021 87 0 1.43 47 06:22 06.05.2020
3506 Clear 2 1021 85 0 1.43 47 05:55 06.05.2020
3507 Clear 2 1021 93 10000 1.5 30 05:37 06.05.2020
3508 Clear 3 1065 61 0 1.84 40 04:38 06.05.2020
3509 Clear 4 1020 90 0 2.15 40 03:44 06.05.2020
3510 Clear 4 1020 91 0 2.24 39 03:22 06.05.2020
3511 Clear 5 1020 92 0 2.43 44 02:30 06.05.2020
3512 Clear 6 1020 92 0 2.43 44 01:55 06.05.2020
3513 Clear 6 1020 92 0 2.43 44 01:33 06.05.2020
3514 Clear 6 1020 91 0 2.31 44 00:54 06.05.2020
3515 Clouds 6 1019 89 0 1.36 349 00:27 06.05.2020
3516 Clouds 6 1019 89 0 1.36 349 23:57 05.05.2020
3517 Clouds 7 1019 88 0 1.36 349 23:39 05.05.2020
3518 Clouds 7 1019 88 0 1.71 292 23:19 05.05.2020
3519 Clouds 7 1019 88 0 1.71 292 23:19 05.05.2020
3520 Clouds 7 1019 87 0 1.71 292 22:42 05.05.2020
3521 Clouds 8 1019 87 0 2.21 275 22:20 05.05.2020
3522 Clouds 8 1019 87 0 2.21 275 21:59 05.05.2020
3523 Clouds 9 1018 87 0 2.21 275 21:41 05.05.2020
3524 Clouds 9 1018 87 0 1.99 275 21:21 05.05.2020
3525 Clouds 10 1018 87 0 1.99 275 20:59 05.05.2020
3526 Clouds 10 1017 86 0 1.99 275 20:39 05.05.2020
3527 Clouds 11 1017 85 0 2.16 255 20:19 05.05.2020
3528 Clouds 11 1017 85 0 0.45 203 19:58 05.05.2020
3529 Clouds 12 1017 85 0 2.16 255 19:37 05.05.2020
3530 Clouds 12 1017 84 0 1.32 260 19:19 05.05.2020
3531 Rain 12 1017 83 0 1.32 260 18:56 05.05.2020
3532 Rain 12 1017 82 0 1.32 260 18:38 05.05.2020
3533 Rain 12 1017 81 0 1.32 260 18:38 05.05.2020
3534 Rain 12 1017 81 0 1.13 289 18:19 05.05.2020
3535 Clouds 11 1017 81 10000 3.1 220 17:44 05.05.2020
3536 Clouds 11 1017 81 10000 3.1 220 17:44 05.05.2020
3537 Clouds 11 1017 81 10000 3.1 220 17:25 05.05.2020
3538 Clouds 11 1017 81 10000 3.1 210 16:59 05.05.2020
3539 Clouds 11 1017 81 10000 3.1 220 16:37 05.05.2020
3540 Clouds 12 1017 78 0 0.45 200 16:18 05.05.2020
3541 Clouds 12 1017 78 0 0.45 147 15:57 05.05.2020
3542 Clouds 12 1017 78 0 1.12 307 15:38 05.05.2020
3543 Clouds 11 1017 79 0 1.12 307 15:20 05.05.2020
3544 Clouds 10 1017 76 10000 1 0 14:54 05.05.2020
3545 Clouds 11 1017 81 0 1.12 307 14:36 05.05.2020
3546 Rain 11 1017 81 0 0.71 278 14:18 05.05.2020
3547 Rain 11 1017 80 0 0.71 278 13:54 05.05.2020
3548 Rain 11 1017 82 0 0.71 278 13:36 05.05.2020
3549 Rain 11 1017 81 0 0.71 278 13:36 05.05.2020
3550 Rain 10 1017 82 0 0.44 20 13:18 05.05.2020
3551 Rain 10 1017 85 0 0.44 20 12:41 05.05.2020
3552 Clouds 9 1017 87 0 1.3 35 12:22 05.05.2020
3553 Clouds 9 1017 87 0 1.3 35 11:59 05.05.2020
3554 Clouds 9 1017 89 0 1.3 35 11:40 05.05.2020
3555 Rain 9 1017 89 0 1.81 18 11:19 05.05.2020
3556 Rain 8 1017 91 0 1.81 18 10:55 05.05.2020
3557 Clouds 8 1017 92 0 2.41 12 10:37 05.05.2020
3558 Clouds 9 1017 92 0 2.41 12 10:18 05.05.2020
3559 Clouds 8 1017 93 0 2.41 12 09:44 05.05.2020
3560 Clouds 8 1016 93 0 2.29 15 09:26 05.05.2020
3561 Clouds 8 1016 93 0 2.29 15 08:59 05.05.2020
3562 Clouds 8 1016 93 0 2.29 15 08:39 05.05.2020
3563 Clouds 8 1016 93 0 2.24 22 08:18 05.05.2020
3564 Clouds 8 1016 94 0 2.24 22 07:44 05.05.2020
3565 Clouds 8 1016 94 0 1.75 26 07:22 05.05.2020
3566 Clouds 8 1016 95 0 0.45 11 06:58 05.05.2020
3567 Clouds 8 1016 95 0 1.75 26 06:39 05.05.2020
3568 Clouds 8 1015 96 0 1.84 16 05:56 05.05.2020
3569 Clouds 8 1016 96 0 2.07 357 05:25 05.05.2020
3570 Rain 10 1017 97 0 3.16 353 02:46 05.05.2020
3571 Clouds 11 1017 97 0 3.3 354 01:19 05.05.2020
3572 Clouds 11 1017 97 0 3.3 354 00:47 05.05.2020
3573 Clouds 11 1016 97 0 2.91 326 23:56 04.05.2020
3574 Clouds 11 1016 97 0 2.45 316 23:38 04.05.2020
3575 Clouds 11 1016 97 0 2.45 316 23:19 04.05.2020
3576 Clouds 11 1016 96 0 2.45 316 22:55 04.05.2020
3577 Clouds 11 1016 96 0 2.3 315 22:36 04.05.2020
3578 Clouds 11 1016 96 0 2.3 315 22:18 04.05.2020
3579 Clouds 12 1016 95 0 2.3 315 21:52 04.05.2020
3580 Clouds 12 1015 95 0 2.3 315 21:52 04.05.2020
3581 Clouds 12 1015 95 0 2.3 315 21:52 04.05.2020
3582 Clouds 12 1016 95 0 2.3 315 21:51 04.05.2020
3583 Clouds 12 1016 95 0 2.3 315 21:51 04.05.2020
3584 Rain 12 1015 95 0 2.87 299 21:25 04.05.2020
3585 Rain 12 1015 95 0 2.87 299 21:25 04.05.2020
3586 Rain 12 1015 95 0 2.87 299 21:25 04.05.2020
3587 Rain 12 1015 95 0 2.87 299 21:25 04.05.2020
3588 Rain 12 1015 95 0 2.87 299 21:25 04.05.2020
3589 Rain 12 1015 93 0 2.87 299 20:43 04.05.2020
3590 Rain 12 1015 93 0 2.87 299 20:43 04.05.2020
3591 Rain 12 1015 93 0 2.87 299 20:43 04.05.2020
3592 Rain 13 1015 92 0 2.99 302 20:21 04.05.2020
3593 Rain 14 1015 88 0 2.99 302 19:59 04.05.2020
3594 Rain 14 1015 88 0 2.99 302 19:59 04.05.2020
3595 Rain 15 1014 88 0 2.99 302 19:40 04.05.2020
3596 Rain 15 1014 88 0 3.56 287 19:19 04.05.2020
3597 Rain 16 1014 85 0 3.56 287 18:54 04.05.2020
3598 Rain 16 1015 76 0 3.56 287 18:36 04.05.2020
3599 Rain 16 1015 72 0 4.25 281 18:18 04.05.2020
3600 Rain 17 1015 70 0 4.25 281 17:54 04.05.2020
3601 Rain 16 1015 70 0 4.25 281 17:36 04.05.2020
3602 Rain 16 1015 71 0 0.45 221 17:18 04.05.2020
3603 Rain 16 1015 71 0 4.26 276 16:41 04.05.2020
3604 Rain 16 1016 72 0 4.03 269 16:20 04.05.2020
3605 Rain 17 1016 76 0 4.03 269 15:45 04.05.2020
3606 Rain 16 1017 75 0 0.45 316 15:24 04.05.2020
3607 Rain 16 1017 76 0 3.59 263 14:56 04.05.2020
3608 Rain 15 1017 80 0 0.45 194 14:37 04.05.2020
3609 Rain 15 1017 80 0 0.45 194 14:37 04.05.2020
3610 Rain 16 1017 78 0 0.45 202 14:37 04.05.2020
3611 Rain 15 1017 80 0 0.45 194 14:37 04.05.2020
3612 Rain 15 1017 80 0 0.45 194 14:37 04.05.2020
3613 Rain 14 1017 84 0 3.02 263 13:41 04.05.2020
3614 Rain 15 1017 74 0 3.14 255 12:45 04.05.2020
3615 Rain 15 1017 74 0 3.14 255 12:45 04.05.2020
3616 Rain 15 1017 74 0 3.14 255 12:45 04.05.2020
3617 Rain 15 1017 71 0 0.45 196 12:00 04.05.2020
3618 Rain 15 1017 71 0 0.45 292 11:57 04.05.2020
3619 Rain 15 1017 71 0 0.45 292 11:57 04.05.2020
3620 Rain 15 1017 72 0 0.45 279 11:56 04.05.2020
3621 Rain 15 1017 72 0 0.45 279 11:56 04.05.2020
3622 Clouds 12 1018 76 10000 4.1 220 09:32 04.05.2020
3623 Clouds 11 1059 72 0 2.53 202 08:41 04.05.2020
3624 Clouds 11 1016 80 0 2.75 186 08:38 04.05.2020
3625 Clouds 11 1016 80 0 2.75 186 08:38 04.05.2020
3626 Clouds 11 1016 80 0 2.75 186 08:37 04.05.2020
3627 Clouds 11 1016 80 0 2.75 186 08:37 04.05.2020
3628 Clouds 10 1018 85 0 0.45 154 07:43 04.05.2020
3629 Clouds 9 1018 84 0 2.61 179 06:43 04.05.2020
3630 Clouds 9 1018 84 0 0.45 170 06:43 04.05.2020
3631 Clouds 9 1018 84 0 0.45 170 06:43 04.05.2020
3632 Clouds 9 1018 84 0 2.61 179 06:43 04.05.2020
3633 Clouds 8 1016 80 0 2.56 194 04:55 04.05.2020
3634 Clouds 8 1018 83 0 3.52 214 03:18 04.05.2020
3635 Clouds 8 1018 83 0 3.52 214 03:18 04.05.2020
3636 Clouds 8 1018 83 0 3.52 214 03:18 04.05.2020
3637 Clouds 7 1018 83 0 3.08 206 02:30 04.05.2020
3638 Clouds 8 1018 80 0 2.93 204 00:38 04.05.2020
3639 Clouds 8 1018 80 0 1.97 176 23:46 03.05.2020
3640 Clouds 8 1018 78 0 1.91 145 23:24 03.05.2020
3641 Clouds 8 1019 76 0 1.91 145 22:56 03.05.2020
3642 Clouds 9 1019 77 0 1.03 137 22:38 03.05.2020
3643 Clouds 9 1019 76 0 1.03 137 22:20 03.05.2020
3644 Clouds 9 1019 77 0 1.03 137 21:41 03.05.2020
3645 Clouds 10 1018 68 0 0.21 18 21:20 03.05.2020
3646 Clouds 12 1018 62 0 0.46 54 20:47 03.05.2020
3647 Clouds 13 1017 45 0 0.84 337 20:23 03.05.2020
3648 Clouds 14 1017 45 0 0.84 337 19:56 03.05.2020
3649 Clouds 15 1017 45 0 0.84 337 19:37 03.05.2020
3650 Clouds 15 1017 45 0 1.38 323 19:18 03.05.2020
3651 Clouds 15 1018 47 0 1.38 323 18:39 03.05.2020
3652 Clouds 15 1018 45 0 1.9 304 18:20 03.05.2020
3653 Clouds 15 1018 47 0 1.9 304 17:56 03.05.2020
3654 Clouds 15 1018 47 0 1.9 304 17:37 03.05.2020
3655 Clouds 14 1018 35 10000 2.6 0 17:19 03.05.2020
3656 Clouds 14 1018 35 10000 2.6 0 17:19 03.05.2020
3657 Clouds 15 1019 47 0 0.45 146 16:40 03.05.2020
3658 Clouds 15 1018 45 0 1.85 302 16:40 03.05.2020
3659 Clouds 15 1019 46 0 0.45 321 16:19 03.05.2020
3660 Clouds 15 1019 49 0 2.6 293 15:57 03.05.2020
3661 Clouds 14 1019 50 10000 3.6 320 15:38 03.05.2020
3662 Clouds 14 1019 50 10000 3.6 320 15:38 03.05.2020
3663 Clouds 13 1019 50 10000 3.6 320 15:19 03.05.2020
3664 Clouds 13 1019 50 10000 2.6 40 14:56 03.05.2020
3665 Clear 14 1019 46 10000 3.1 240 14:38 03.05.2020
3666 Clouds 13 1019 46 10000 3.1 240 14:19 03.05.2020
3667 Clear 13 1019 54 10000 2.6 310 14:19 03.05.2020
3668 Clouds 13 1019 46 10000 3.1 240 14:19 03.05.2020
3669 Clear 13 1019 58 0 0.45 219 13:38 03.05.2020
3670 Clear 13 1019 58 0 0.45 219 13:38 03.05.2020
3671 Clear 13 1019 55 0 2.98 289 13:38 03.05.2020
3672 Clear 13 1020 60 0 0.45 269 12:57 03.05.2020
3673 Clear 13 1020 54 0 0.45 200 12:57 03.05.2020
3674 Clear 13 1019 55 0 0.45 190 12:57 03.05.2020
3675 Clear 13 1020 54 0 0.45 200 12:57 03.05.2020
3676 Clear 12 1020 59 0 0.45 213 12:37 03.05.2020
3677 Clear 11 1020 67 0 2.91 277 11:58 03.05.2020
3678 Clear 11 1020 71 0 0.45 91 11:40 03.05.2020
3679 Clear 12 1020 61 0 0.45 289 11:21 03.05.2020
3680 Clear 11 1020 69 0 2.61 266 10:55 03.05.2020
3681 Clear 11 1020 68 0 0.45 304 10:32 03.05.2020
3682 Clear 11 1020 68 0 0.45 304 10:32 03.05.2020
3683 Clear 11 1020 68 0 0.45 304 10:32 03.05.2020
3684 Clear 10 1019 79 0 0.45 294 09:45 03.05.2020
3685 Clear 7 1018 84 0 0.89 100 09:26 03.05.2020
3686 Clear 8 1018 84 0 0.89 100 09:26 03.05.2020
3687 Clear 8 1018 84 0 0.89 100 09:26 03.05.2020
3688 Clear 7 1019 93 0 2.81 251 08:36 03.05.2020
3689 Clouds 6 1019 94 0 2.79 241 08:00 03.05.2020
3690 Clouds 5 1018 94 0 2.72 239 07:38 03.05.2020
3691 Clouds 5 1019 94 0 2.79 241 07:38 03.05.2020
3692 Clouds 5 1018 94 0 2.72 239 07:38 03.05.2020
3693 Clouds 4 1017 93 0 2.88 242 06:18 03.05.2020
3694 Clouds 4 1017 93 0 2.88 242 05:44 03.05.2020
3695 Clouds 5 1016 94 0 2.93 253 04:29 03.05.2020
3696 Clouds 5 1016 94 0 2.93 253 03:58 03.05.2020
3697 Clouds 5 1016 93 0 3.05 259 02:47 03.05.2020
3698 Clouds 5 1016 93 0 3.48 250 02:22 03.05.2020
3699 Clouds 5 1016 93 0 3.48 250 01:41 03.05.2020
3700 Clouds 5 1016 93 0 3.51 240 01:23 03.05.2020
3701 Clouds 5 1016 93 0 3.51 240 00:40 03.05.2020
3702 Clouds 6 1016 93 0 3.78 237 00:21 03.05.2020
3703 Clouds 6 1016 93 0 3.78 237 23:56 02.05.2020
3704 Clouds 6 1016 93 0 3.78 237 23:38 02.05.2020
3705 Rain 6 1015 93 0 4.29 231 23:19 02.05.2020
3706 Rain 7 1015 93 0 4.29 231 22:42 02.05.2020
3707 Rain 7 1015 93 0 4.98 229 22:23 02.05.2020
3708 Rain 7 1015 93 0 4.98 229 21:55 02.05.2020
3709 Rain 7 1014 93 0 0.45 195 21:37 02.05.2020
3710 Rain 8 1014 93 0 0.45 189 21:18 02.05.2020
3711 Rain 8 1013 93 0 0.45 178 20:55 02.05.2020
3712 Rain 8 1013 94 0 0.45 234 20:37 02.05.2020
3713 Rain 8 1013 93 0 0.45 203 20:18 02.05.2020
3714 Rain 8 1011 94 0 4.31 251 19:55 02.05.2020
3715 Rain 8 1011 93 0 4.31 251 19:36 02.05.2020
3716 Rain 8 1011 93 0 4.09 278 19:18 02.05.2020
3717 Rain 8 1011 93 0 4.09 278 18:40 02.05.2020
3718 Rain 8 1011 92 0 0.45 312 18:22 02.05.2020
3719 Rain 9 1011 92 0 0.89 252 17:57 02.05.2020
3720 Rain 9 1010 91 0 0.45 194 17:39 02.05.2020
3721 Rain 10 1009 91 0 5.52 300 17:20 02.05.2020
3722 Rain 10 1009 89 0 5.52 300 16:58 02.05.2020
3723 Rain 10 1009 85 0 5.52 300 16:39 02.05.2020
3724 Rain 11 1010 85 0 0.45 327 16:21 02.05.2020
3725 Rain 11 1010 81 0 0.45 286 15:42 02.05.2020
3726 Rain 12 1054 62 0 2.68 0 15:20 02.05.2020
3727 Rain 11 1010 81 0 5.92 259 14:57 02.05.2020
3728 Rain 10 1011 91 0 0.89 191 14:39 02.05.2020
3729 Rain 10 1012 91 0 0.45 196 14:20 02.05.2020
3730 Rain 9 1011 92 0 0.45 211 14:20 02.05.2020
3731 Rain 9 1011 89 0 0.45 204 13:40 02.05.2020
3732 Rain 9 1011 84 0 0.45 188 13:22 02.05.2020
3733 Rain 10 1011 86 0 5.59 248 12:44 02.05.2020
3734 Rain 10 1012 85 0 0.45 196 12:25 02.05.2020
3735 Rain 10 1012 78 0 0.45 228 11:59 02.05.2020
3736 Rain 10 1011 79 0 0.89 205 11:41 02.05.2020
3737 Rain 11 1012 78 0 0.89 210 11:22 02.05.2020
3738 Rain 11 1011 75 0 0.89 210 10:58 02.05.2020
3739 Rain 11 1011 76 0 0.45 287 10:38 02.05.2020
3740 Rain 11 1011 77 0 0.45 220 10:20 02.05.2020
3741 Rain 11 1011 74 0 0.45 275 10:20 02.05.2020
3742 Rain 10 1011 81 0 0.89 173 09:57 02.05.2020
3743 Rain 9 1050 60 0 1.79 85 09:38 02.05.2020
3744 Rain 9 1050 60 0 2.68 72 09:20 02.05.2020
3745 Rain 8 1011 93 0 0.89 147 08:49 02.05.2020
3746 Rain 8 1011 94 0 0.89 203 08:30 02.05.2020
3747 Rain 7 1011 94 0 0.89 250 07:48 02.05.2020
3748 Clouds 7 1011 94 0 0.45 214 07:29 02.05.2020
3749 Clouds 7 1010 94 0 0.45 207 06:52 02.05.2020
3750 Rain 7 1009 94 0 0.45 211 06:18 02.05.2020
3751 Rain 7 1009 95 0 0.45 327 05:27 02.05.2020
3752 Clouds 8 1008 95 0 3.84 243 04:25 02.05.2020
3753 Clear 7 1008 94 0 3.66 242 03:34 02.05.2020
3754 Clouds 7 1007 94 0 4.25 240 02:37 02.05.2020
3755 Clouds 7 1007 93 0 3.29 247 01:51 02.05.2020
3756 Rain 7 1007 93 0 3.46 237 00:58 02.05.2020
3757 Rain 8 1007 93 0 3 232 00:39 02.05.2020
3758 Clouds 8 1007 93 0 3 232 00:18 02.05.2020
3759 Clouds 8 1007 93 0 3 232 23:40 01.05.2020
3760 Clouds 8 1007 93 0 3.36 240 23:20 01.05.2020
3761 Clouds 8 1007 93 0 3.36 240 22:58 01.05.2020
3762 Clouds 8 1007 93 0 3.36 240 22:38 01.05.2020
3763 Clouds 8 1007 93 0 3.44 232 22:19 01.05.2020
3764 Clouds 8 1007 93 0 3.44 232 21:57 01.05.2020
3765 Rain 9 1007 94 0 2.77 243 21:38 01.05.2020
3766 Rain 9 1007 94 0 3.84 252 21:18 01.05.2020
3767 Rain 9 1006 94 0 3.84 252 20:56 01.05.2020
3768 Rain 9 1006 93 0 4.08 269 20:37 01.05.2020
3769 Rain 10 1006 93 0 4.08 269 20:19 01.05.2020
3770 Rain 10 1005 84 0 4.08 269 19:42 01.05.2020
3771 Rain 11 1005 84 0 5.01 276 19:23 01.05.2020
3772 Rain 11 1005 84 0 5.01 276 18:59 01.05.2020
3773 Rain 11 1006 91 0 5.01 276 18:41 01.05.2020
3774 Rain 11 1005 89 0 5.41 287 18:21 01.05.2020
3775 Rain 11 1005 87 0 5.41 287 17:59 01.05.2020
3776 Rain 12 1005 86 0 3.86 273 17:39 01.05.2020
3777 Rain 13 1005 82 0 3.86 273 17:21 01.05.2020
3778 Rain 13 1005 75 0 3.86 273 16:57 01.05.2020
3779 Rain 14 1004 71 0 3.63 249 16:38 01.05.2020
3780 Rain 13 1005 75 0 3.63 249 16:20 01.05.2020
3781 Rain 14 1005 69 0 3.63 249 15:57 01.05.2020
3782 Rain 14 1005 65 0 3.63 249 15:38 01.05.2020
3783 Rain 14 1005 65 0 3.94 258 15:19 01.05.2020
3784 Rain 15 1005 59 0 0.45 197 14:43 01.05.2020
3785 Rain 15 1005 60 0 0.45 298 14:24 01.05.2020
3786 Rain 14 1006 61 0 3.89 263 13:54 01.05.2020
3787 Rain 14 1044 57 0 2.68 11 13:36 01.05.2020
3788 Rain 15 1006 61 0 0.45 296 13:18 01.05.2020
3789 Rain 15 1006 61 0 0.45 295 12:54 01.05.2020
3790 Rain 14 1006 61 0 0.45 247 12:36 01.05.2020
3791 Rain 13 1044 55 0 3.13 329 12:18 01.05.2020
3792 Rain 13 1045 61 0 1.79 25 11:41 01.05.2020
3793 Rain 12 1044 61 0 3.13 20 11:21 01.05.2020
3794 Rain 12 1044 61 0 3.13 20 11:21 01.05.2020
3795 Rain 12 1045 63 0 1.34 326 10:56 01.05.2020
3796 Rain 11 1008 76 0 4.26 258 10:37 01.05.2020
3797 Rain 11 1046 63 0 2.68 14 10:19 01.05.2020
3798 Rain 11 1046 63 0 2.68 14 10:19 01.05.2020
3799 Rain 10 1008 84 0 0.89 190 09:43 01.05.2020
3800 Clouds 10 1008 87 0 0.45 209 09:19 01.05.2020
3801 Clouds 9 1008 90 0 0.45 208 08:55 01.05.2020
3802 Clouds 9 1008 91 0 3.49 252 08:37 01.05.2020
3803 Clouds 9 1008 92 0 3.12 249 08:19 01.05.2020
3804 Clouds 8 1008 94 0 0.45 216 07:42 01.05.2020
3805 Clouds 8 1008 94 0 0.45 205 07:22 01.05.2020
3806 Clouds 7 1008 94 0 3.61 240 06:39 01.05.2020
3807 Clouds 7 1008 94 0 3.61 240 06:39 01.05.2020
3808 Clouds 7 1008 94 0 3.18 237 05:34 01.05.2020
3809 Clouds 7 1008 94 0 3.8 237 04:21 01.05.2020
3810 Clouds 8 1008 94 0 3.75 231 03:24 01.05.2020
3811 Clouds 8 1008 94 0 3.75 231 02:43 01.05.2020
3812 Clouds 8 1009 94 0 3.78 228 02:18 01.05.2020
3813 Clouds 8 1009 94 0 3.63 217 01:28 01.05.2020
3814 Clouds 8 1009 94 0 3.63 217 00:59 01.05.2020
3815 Clouds 9 1009 94 0 3.63 217 00:37 01.05.2020
3816 Rain 8 1009 94 0 3.78 215 00:18 01.05.2020
3817 Rain 9 1009 94 0 3.78 215 23:54 30.04.2020
3818 Rain 9 1009 94 0 3.78 215 23:36 30.04.2020
3819 Rain 9 1008 94 0 4.82 227 23:18 30.04.2020
3820 Rain 9 1008 94 0 4.27 221 22:41 30.04.2020
3821 Rain 9 1009 93 0 4.27 221 22:20 30.04.2020
3822 Rain 9 1009 93 0 0.45 204 21:55 30.04.2020
3823 Rain 9 1009 92 0 0.45 178 21:37 30.04.2020
3824 Rain 9 1009 92 0 4.34 241 21:19 30.04.2020
3825 Rain 9 1009 91 0 4.34 241 20:42 30.04.2020
3826 Rain 9 1008 89 0 4.87 248 20:19 30.04.2020
3827 Rain 10 1008 88 0 4.87 248 19:58 30.04.2020
3828 Rain 10 1008 86 0 4.87 248 19:40 30.04.2020
3829 Rain 10 1008 83 0 0.45 210 19:22 30.04.2020
3830 Rain 11 1008 80 0 0.45 241 18:56 30.04.2020
3831 Rain 13 1007 72 0 0.45 323 18:37 30.04.2020
3832 Rain 14 1007 67 0 0.45 196 18:18 30.04.2020
3833 Rain 13 1007 67 0 0.45 252 17:55 30.04.2020
3834 Clouds 14 1007 64 0 0.45 290 17:37 30.04.2020
3835 Clouds 14 1007 61 0 0.89 296 17:18 30.04.2020
3836 Clouds 15 1007 60 0 0.45 321 16:54 30.04.2020
3837 Clouds 15 1007 58 0 2.32 24 16:36 30.04.2020
3838 Rain 16 1007 51 0 0.45 144 16:18 30.04.2020
3839 Rain 16 1007 52 0 3.38 5 15:43 30.04.2020
3840 Rain 16 1007 53 0 0.45 320 15:21 30.04.2020
3841 Rain 16 1008 53 0 0.45 309 14:42 30.04.2020
3842 Rain 16 1008 53 0 0.45 309 14:42 30.04.2020
3843 Clouds 16 1008 53 0 0.45 279 14:21 30.04.2020
3844 Clouds 16 1008 54 0 0.45 290 13:58 30.04.2020
3845 Clouds 16 1008 54 0 0.89 207 13:40 30.04.2020
3846 Clouds 16 1008 56 0 0.45 316 13:22 30.04.2020
3847 Clouds 17 1008 53 0 0.45 273 12:59 30.04.2020
3848 Clouds 17 1008 51 0 0.45 312 12:40 30.04.2020
3849 Clouds 17 1008 51 0 0.62 4 12:19 30.04.2020
3850 Clouds 16 1008 53 0 0.62 4 11:38 30.04.2020
3851 Clouds 16 1008 59 0 1.47 133 11:19 30.04.2020
3852 Clouds 16 1008 54 0 1.47 133 10:58 30.04.2020
3853 Clouds 15 1009 61 0 2.13 148 10:39 30.04.2020
3854 Clouds 14 1008 60 0 0.45 190 10:20 30.04.2020
3855 Clouds 14 1008 66 0 0.45 178 09:56 30.04.2020
3856 Clouds 13 1009 70 0 0.45 169 09:37 30.04.2020
3857 Clouds 11 1045 66 0 2.68 336 09:18 30.04.2020
3858 Clouds 10 1009 85 0 0.45 229 08:44 30.04.2020
3859 Clouds 9 1009 87 0 0.89 167 08:24 30.04.2020
3860 Clouds 7 1009 91 0 0.45 166 07:44 30.04.2020
3861 Clouds 7 1009 91 0 0.45 166 07:44 30.04.2020
3862 Clouds 7 1009 93 0 2.01 185 07:25 30.04.2020
3863 Clouds 6 1009 93 0 2.01 185 06:53 30.04.2020
3864 Clouds 6 1009 94 0 2.24 188 06:19 30.04.2020
3865 Clouds 6 1009 94 0 2.24 188 05:45 30.04.2020
3866 Clouds 6 1010 94 0 2.34 193 04:43 30.04.2020
3867 Clouds 6 1010 94 0 2.34 192 04:19 30.04.2020
3868 Clear 6 1010 93 0 2.47 205 02:48 30.04.2020
3869 Clouds 6 1011 93 0 2.64 211 02:26 30.04.2020
3870 Clouds 7 1011 93 0 2.71 219 01:37 30.04.2020
3871 Clouds 7 1011 93 0 2.71 219 00:42 30.04.2020
3872 Clouds 8 1011 93 0 2.74 223 00:20 30.04.2020
3873 Clouds 8 1011 93 0 2.74 223 23:58 29.04.2020
3874 Clouds 8 1011 93 0 2.74 223 23:39 29.04.2020
3875 Clouds 8 1011 92 0 2.79 218 23:21 29.04.2020
3876 Clouds 9 1011 92 0 2.79 218 22:56 29.04.2020
3877 Clouds 9 1011 91 0 2.79 218 22:38 29.04.2020
3878 Clouds 10 1011 90 0 2.66 209 22:18 29.04.2020
3879 Clouds 11 1010 79 0 2.48 213 21:38 29.04.2020
3880 Clouds 11 1010 79 0 2.39 216 21:20 29.04.2020
3881 Clouds 11 1010 79 0 2.39 216 20:58 29.04.2020
3882 Clouds 11 1010 79 0 2.39 216 20:58 29.04.2020
3883 Clouds 11 1010 79 0 2.39 216 20:39 29.04.2020
3884 Clouds 12 1010 77 0 2.54 223 20:19 29.04.2020
3885 Clouds 13 1009 73 0 2.54 223 19:54 29.04.2020
3886 Clouds 13 1009 72 0 2.54 223 19:36 29.04.2020
3887 Clouds 13 1009 72 0 2.74 226 19:18 29.04.2020
3888 Clouds 13 1010 71 0 2.74 226 18:41 29.04.2020
3889 Clouds 14 1010 71 0 3.37 237 18:20 29.04.2020
3890 Clouds 13 1009 70 0 3.37 237 17:55 29.04.2020
3891 Clouds 13 1010 71 0 3.37 237 17:55 29.04.2020
3892 Clouds 13 1009 70 0 4.21 246 17:37 29.04.2020
3893 Clouds 13 1009 71 0 4.21 246 17:18 29.04.2020
3894 Clouds 13 1009 74 0 4.21 246 16:37 29.04.2020
3895 Clouds 12 1011 84 0 0.89 217 16:19 29.04.2020
3896 Clouds 12 1009 77 0 5.03 245 16:19 29.04.2020
3897 Clouds 12 1011 84 0 1.34 226 15:57 29.04.2020
3898 Clouds 12 1010 81 10000 6.2 240 15:38 29.04.2020
3899 Clouds 12 1009 82 0 5.55 245 15:20 29.04.2020
3900 Clouds 11 1010 87 10000 6.2 230 14:45 29.04.2020
3901 Clouds 11 1010 87 10000 6.2 230 14:26 29.04.2020
3902 Clouds 11 1011 93 0 0.89 219 13:58 29.04.2020
3903 Clouds 11 1011 94 0 0.45 203 13:40 29.04.2020
3904 Rain 10 1010 94 0 0.89 200 13:20 29.04.2020
3905 Rain 10 1010 95 0 0.89 268 12:56 29.04.2020
3906 Rain 10 1010 96 0 0.45 260 12:38 29.04.2020
3907 Rain 10 1010 96 0 0.45 260 12:38 29.04.2020
3908 Rain 10 1010 96 0 0.45 218 12:18 29.04.2020
3909 Rain 9 1010 96 0 5.08 256 11:39 29.04.2020
3910 Rain 9 1010 97 0 5.08 256 11:39 29.04.2020
3911 Rain 9 1010 96 0 4.86 251 11:20 29.04.2020
3912 Rain 9 1010 96 0 4.86 251 10:57 29.04.2020
3913 Rain 9 1010 96 0 4.74 257 10:37 29.04.2020
3914 Rain 9 1010 96 0 4.74 257 10:37 29.04.2020
3915 Rain 9 1010 96 0 0.45 196 10:19 29.04.2020
3916 Rain 9 1010 97 0 0.45 203 09:42 29.04.2020
3917 Rain 9 1010 97 0 0.89 281 09:23 29.04.2020
3918 Rain 8 1009 97 0 0.45 176 08:56 29.04.2020
3919 Rain 8 1009 97 0 0.89 205 08:37 29.04.2020
3920 Rain 8 1009 97 0 0.89 213 08:19 29.04.2020
3921 Rain 8 1009 97 0 4.8 261 07:41 29.04.2020
3922 Rain 9 1009 97 0 0.45 198 07:23 29.04.2020
3923 Rain 9 1008 97 0 0.45 202 06:50 29.04.2020
3924 Rain 9 1008 97 0 0.45 232 06:30 29.04.2020
3925 Rain 9 1008 97 0 0.89 193 05:21 29.04.2020
3926 Rain 9 1008 97 0 0.45 198 05:21 29.04.2020
3927 Rain 9 1008 97 0 0.45 198 05:21 29.04.2020
3928 Rain 10 1008 97 0 0.45 222 04:38 29.04.2020
3929 Rain 10 1008 97 0 0.45 191 04:18 29.04.2020
3930 Rain 10 1007 97 0 4.1 283 02:39 29.04.2020
3931 Rain 11 1007 97 0 4.34 256 01:44 29.04.2020
3932 Rain 11 1007 97 0 3.92 253 01:22 29.04.2020
3933 Rain 11 1007 97 0 3.92 253 00:41 29.04.2020
3934 Rain 11 1007 96 0 4.22 256 00:19 29.04.2020
3935 Rain 11 1007 96 0 4.22 256 23:49 28.04.2020
3936 Rain 12 1007 97 0 3.63 246 23:24 28.04.2020
3937 Rain 12 1007 97 0 3.63 246 22:55 28.04.2020
3938 Rain 12 1007 96 0 3.63 246 22:37 28.04.2020
3939 Rain 12 1007 96 0 2.8 245 22:18 28.04.2020
3940 Rain 12 1007 96 0 2.8 245 21:54 28.04.2020
3941 Rain 12 1007 96 0 3.04 253 21:36 28.04.2020
3942 Rain 12 1007 96 0 3.42 260 21:18 28.04.2020
3943 Rain 12 1007 96 0 3.42 260 20:55 28.04.2020
3944 Rain 12 1007 96 0 3.42 260 20:36 28.04.2020
3945 Rain 12 1007 96 0 3.66 264 20:18 28.04.2020
3946 Rain 13 1007 95 0 3.66 264 19:42 28.04.2020
3947 Rain 13 1007 95 0 3.05 274 19:22 28.04.2020
3948 Rain 13 1007 95 0 3.05 274 18:59 28.04.2020
3949 Rain 14 1007 94 0 0.45 196 18:40 28.04.2020
3950 Rain 14 1007 93 0 3.33 296 18:19 28.04.2020
3951 Rain 14 1007 93 0 3.33 296 17:57 28.04.2020
3952 Rain 14 1007 92 0 3.33 296 17:36 28.04.2020
3953 Rain 15 1007 85 0 0.45 130 17:18 28.04.2020
3954 Rain 17 1006 73 0 0.89 276 16:43 28.04.2020
3955 Rain 18 1006 63 10000 6.2 290 16:23 28.04.2020
3956 Rain 18 1006 63 10000 6.2 290 15:58 28.04.2020
3957 Clouds 18 1006 59 10000 5.7 300 15:39 28.04.2020
3958 Clouds 19 1006 48 10000 4.1 360 15:21 28.04.2020
3959 Clouds 19 1006 48 10000 4.1 360 14:59 28.04.2020
3960 Rain 20 1005 53 0 1.79 5 14:41 28.04.2020
3961 Rain 20 1005 52 0 2.54 318 14:21 28.04.2020
3962 Rain 20 1006 52 0 2.54 318 13:58 28.04.2020
3963 Rain 20 1006 54 0 1.34 20 13:38 28.04.2020
3964 Clouds 20 1007 48 10000 3.6 260 13:19 28.04.2020
3965 Clouds 20 1005 53 0 2.4 318 12:46 28.04.2020
3966 Clouds 19 1006 52 0 2.24 246 12:26 28.04.2020
3967 Clouds 19 1006 51 0 1.34 313 11:59 28.04.2020
3968 Clouds 19 1006 58 0 1.79 281 11:39 28.04.2020
3969 Clouds 19 1006 60 0 1.79 257 11:20 28.04.2020
3970 Clouds 17 1007 59 10000 5.1 230 10:39 28.04.2020
3971 Clouds 17 1007 59 10000 5.1 230 10:39 28.04.2020
3972 Clouds 17 1007 59 10000 5.1 230 10:19 28.04.2020
3973 Clouds 16 1047 60 0 0.45 338 09:59 28.04.2020
3974 Clouds 17 1007 58 0 0.45 213 09:40 28.04.2020
3975 Clouds 14 1007 67 10000 3.6 210 09:22 28.04.2020
3976 Clouds 13 1047 62 0 1.97 253 08:46 28.04.2020
3977 Clouds 13 1047 62 0 0.45 299 08:46 28.04.2020
3978 Clouds 13 1008 71 0 1.87 238 08:27 28.04.2020
3979 Clouds 12 1008 76 0 1.87 238 07:58 28.04.2020
3980 Clouds 11 1008 81 0 1.87 238 07:39 28.04.2020
3981 Clouds 9 1008 85 0 1.6 212 07:18 28.04.2020
3982 Clouds 8 1007 86 0 1.51 226 06:28 28.04.2020
3983 Clouds 8 1007 85 0 1.51 226 05:47 28.04.2020
3984 Clouds 9 1007 84 0 1.65 220 05:29 28.04.2020
3985 Clouds 8 1008 83 0 1.66 204 04:33 28.04.2020
3986 Clouds 9 1008 79 0 0.45 192 02:37 28.04.2020
3987 Clear 9 1008 78 0 1.83 182 01:27 28.04.2020
3988 Clear 10 1008 78 0 1.83 182 00:59 28.04.2020
3989 Clear 11 1008 77 0 1.82 172 00:29 28.04.2020
3990 Clear 11 1008 78 0 1.82 172 23:56 27.04.2020
3991 Clear 11 1008 77 0 1.82 172 23:38 27.04.2020
3992 Clear 12 1009 76 0 1.72 162 23:19 27.04.2020
3993 Clouds 13 1009 72 0 1.44 158 22:42 27.04.2020
3994 Clouds 14 1009 71 0 1.16 155 22:23 27.04.2020
3995 Clouds 14 1009 68 0 1.16 155 21:57 27.04.2020
3996 Clouds 14 1009 65 0 1.16 155 21:39 27.04.2020
3997 Clouds 15 1009 65 0 0.37 135 21:19 27.04.2020
3998 Clouds 16 1009 61 0 0.37 135 20:56 27.04.2020
3999 Clouds 17 1049 40 0 0.37 135 20:38 27.04.2020
4000 Clouds 17 1008 57 0 0.74 323 20:19 27.04.2020
4001 Clouds 18 1008 50 0 0.74 323 19:55 27.04.2020
4002 Clouds 19 1008 48 0 1.77 300 19:37 27.04.2020
4003 Clouds 19 1008 49 0 1.77 300 19:19 27.04.2020
4004 Clouds 20 1009 46 0 1.77 300 18:55 27.04.2020
4005 Clouds 20 1009 46 0 1.77 300 18:37 27.04.2020
4006 Clouds 20 1009 46 0 2.72 286 18:18 27.04.2020
4007 Clouds 19 1009 48 10000 2.6 270 17:41 27.04.2020
4008 Clouds 19 1009 47 0 3.41 280 17:19 27.04.2020
4009 Clouds 19 1009 51 0 3.41 280 16:54 27.04.2020
4010 Clouds 19 1010 54 0 3.41 280 16:36 27.04.2020
4011 Clear 18 1010 55 0 3.58 281 16:18 27.04.2020
4012 Clear 18 1010 52 0 3.58 281 15:55 27.04.2020
4013 Clouds 18 1010 48 10000 5.1 310 15:36 27.04.2020
4014 Rain 19 1010 46 0 3.16 285 15:18 27.04.2020
4015 Rain 19 1010 54 0 3.16 285 14:40 27.04.2020
4016 Rain 19 1010 52 0 2.92 290 14:19 27.04.2020
4017 Rain 18 1010 57 0 0.45 182 13:57 27.04.2020
4018 Rain 18 1010 51 0 0.45 302 13:38 27.04.2020
4019 Rain 18 1011 58 0 0.45 180 13:18 27.04.2020
4020 Rain 17 1011 57 0 0.45 221 12:43 27.04.2020
4021 Rain 17 1011 61 0 0.89 194 12:22 27.04.2020
4022 Rain 16 1009 65 0 2.6 222 11:57 27.04.2020
4023 Rain 16 1011 67 0 0.45 140 11:38 27.04.2020
4024 Clouds 16 1012 62 10000 4.6 220 11:19 27.04.2020
4025 Clouds 15 1011 67 10000 5.7 220 10:42 27.04.2020
4026 Clouds 14 1011 67 10000 5.7 220 10:24 27.04.2020
4027 Rain 14 1011 71 10000 4.6 210 09:58 27.04.2020
4028 Rain 12 1011 76 10000 2.6 200 09:40 27.04.2020
4029 Rain 12 1011 76 10000 2.6 200 09:18 27.04.2020
4030 Rain 12 1011 76 10000 2.6 200 08:53 27.04.2020
4031 Rain 10 1011 87 10000 2.6 200 08:33 27.04.2020
4032 Rain 10 1011 87 10000 2.6 150 07:46 27.04.2020
4033 Rain 10 1011 87 10000 2.6 150 07:27 27.04.2020
4034 Rain 9 1011 87 10000 2.6 160 06:59 27.04.2020
4035 Rain 9 1011 93 10000 2.6 140 06:37 27.04.2020
4036 Rain 9 1011 87 10000 1.5 120 06:18 27.04.2020
4037 Rain 9 1011 87 10000 1.5 120 05:48 27.04.2020
4038 Rain 9 1010 81 10000 1 0 04:40 27.04.2020
4039 Rain 8 1010 70 10000 1.5 180 03:49 27.04.2020
4040 Clouds 8 1010 61 10000 2.6 230 02:40 27.04.2020
4041 Clouds 8 1010 75 10000 0.5 0 01:22 27.04.2020
4042 Clouds 8 1010 65 10000 0.5 0 00:46 27.04.2020
4043 Clear 9 1010 65 10000 0.5 0 00:19 27.04.2020
4044 Clear 9 1010 65 10000 2.1 150 23:55 26.04.2020
4045 Clear 9 1010 61 10000 1 110 23:37 26.04.2020
4046 Clear 9 1010 61 10000 1 110 23:18 26.04.2020
4047 Clear 10 1010 57 10000 1.5 130 22:55 26.04.2020
4048 Clear 11 1010 46 10000 1 70 22:37 26.04.2020
4049 Clear 11 1009 50 10000 2.1 50 22:18 26.04.2020
4050 Clear 11 1009 50 10000 2.1 50 21:56 26.04.2020
4051 Clear 13 1009 59 10000 2.1 60 21:37 26.04.2020
4052 Clouds 13 1009 53 10000 2.1 60 21:37 26.04.2020
4053 Clouds 14 1009 53 10000 2.6 30 21:18 26.04.2020
4054 Clouds 16 1009 53 10000 3.6 30 20:39 26.04.2020
4055 Clouds 17 1009 53 10000 3.6 30 20:20 26.04.2020
4056 Clouds 17 1009 33 10000 2.1 20 19:59 26.04.2020
4057 Clouds 17 1008 53 10000 3.1 40 19:38 26.04.2020
4058 Clouds 18 1008 53 10000 3.6 340 19:20 26.04.2020
4059 Clouds 18 1008 53 10000 3.6 340 18:54 26.04.2020
4060 Clouds 18 1008 53 10000 3.1 360 18:36 26.04.2020
4061 Clouds 19 1008 37 10000 3.1 360 18:18 26.04.2020
4062 Clouds 19 1009 29 10000 1.5 0 17:40 26.04.2020
4063 Clouds 19 1009 29 10000 2.1 0 17:22 26.04.2020
4064 Clouds 19 1009 29 10000 2.1 0 16:55 26.04.2020
4065 Clouds 19 1009 37 10000 3.6 30 16:36 26.04.2020
4066 Clouds 19 1009 31 10000 2.6 0 16:18 26.04.2020
4067 Clouds 19 1009 31 10000 2.6 0 15:54 26.04.2020
4068 Clouds 19 1009 37 10000 4.1 330 15:36 26.04.2020
4069 Clear 19 1010 36 10000 2.6 320 15:18 26.04.2020
4070 Clear 19 1010 33 10000 2.1 0 14:40 26.04.2020
4071 Clouds 19 1010 33 10000 2.1 0 14:19 26.04.2020
4072 Clouds 18 1010 36 10000 3.1 50 13:58 26.04.2020
4073 Clouds 18 1010 36 10000 2.1 0 13:38 26.04.2020
4074 Clouds 18 1010 36 10000 2.1 0 13:20 26.04.2020
4075 Clouds 18 1010 36 10000 4.6 360 12:55 26.04.2020
4076 Clouds 17 1010 38 10000 4.1 20 12:36 26.04.2020
4077 Clouds 16 1011 41 10000 3.1 30 12:18 26.04.2020
4078 Clouds 16 1010 41 10000 3.1 50 11:43 26.04.2020
4079 Clouds 15 1010 41 10000 3.1 50 11:23 26.04.2020
4080 Clouds 15 1010 43 10000 3.1 20 10:59 26.04.2020
4081 Clouds 15 1010 43 10000 3.1 20 10:59 26.04.2020
4082 Clouds 15 1010 43 10000 3.1 20 10:59 26.04.2020
4083 Clouds 15 1010 43 10000 3.1 20 10:59 26.04.2020
4084 Clouds 14 1010 54 10000 2.6 10 10:41 26.04.2020
4085 Clouds 13 1010 54 10000 2.6 10 10:23 26.04.2020
4086 Clouds 12 1010 53 10000 1.5 360 09:57 26.04.2020
4087 Clouds 10 1010 57 10000 1 0 09:37 26.04.2020
4088 Clouds 10 1010 61 10000 1 0 09:19 26.04.2020
4089 Clouds 8 1010 70 10000 0.5 0 08:41 26.04.2020
4090 Clouds 7 1010 70 10000 0.5 0 08:22 26.04.2020
4091 Clouds 4 1010 80 10000 1 130 07:48 26.04.2020
4092 Clouds 3 1010 61 10000 1 0 07:24 26.04.2020
4093 Clouds 3 1010 61 10000 1 0 06:50 26.04.2020
4094 Clouds 4 1010 70 10000 1 40 06:25 26.04.2020
4095 Clouds 4 1010 70 10000 1 40 05:51 26.04.2020
4096 Clouds 4 1010 70 10000 1.5 20 05:32 26.04.2020
4097 Clouds 5 1010 70 10000 2.1 30 04:39 26.04.2020
4098 Clouds 6 1010 65 10000 2.6 20 03:43 26.04.2020
4099 Clouds 7 1010 59 10000 1.5 10 02:38 26.04.2020
4100 Clouds 7 1010 59 10000 1 0 02:19 26.04.2020
4101 Clouds 8 1010 59 10000 0.5 330 01:37 26.04.2020
4102 Clouds 8 1010 59 10000 1 0 01:18 26.04.2020
4103 Clouds 9 1009 59 10000 0.75 38 00:37 26.04.2020
4104 Clouds 10 1009 46 10000 0.68 33 00:18 26.04.2020
4105 Clouds 10 1009 46 10000 2.1 30 23:38 25.04.2020
4106 Clouds 11 1009 46 10000 2.1 30 23:19 25.04.2020
4107 Clouds 11 1009 56 10000 2.1 10 22:43 25.04.2020
4108 Clouds 12 1009 37 10000 2.1 30 22:21 25.04.2020
4109 Clouds 12 1009 37 10000 2.1 30 21:59 25.04.2020
4110 Clear 12 1009 37 10000 2.6 30 21:39 25.04.2020
4111 Clouds 13 1009 35 10000 2.6 30 21:20 25.04.2020
4112 Clouds 14 1009 35 10000 2.6 30 20:56 25.04.2020
4113 Clouds 15 1008 52 10000 4.6 20 20:37 25.04.2020
4114 Clouds 16 1008 52 10000 4.6 20 20:19 25.04.2020
4115 Clouds 17 1008 33 10000 4.1 340 19:41 25.04.2020
4116 Clouds 18 1008 33 10000 4.1 340 19:23 25.04.2020
4117 Clouds 18 1008 52 10000 6.2 320 18:58 25.04.2020
4118 Clouds 18 1008 37 10000 6.2 320 18:39 25.04.2020
4119 Clouds 18 1008 37 10000 6.7 330 18:20 25.04.2020
4120 Clouds 19 1008 37 10000 6.7 330 17:58 25.04.2020
4121 Clouds 18 1009 37 10000 5.1 270 17:38 25.04.2020
4122 Clouds 19 1009 29 10000 6.2 260 17:19 25.04.2020
4123 Clouds 19 1009 29 10000 6.2 260 16:55 25.04.2020
4124 Clouds 19 1009 34 10000 3.6 280 16:37 25.04.2020
4125 Clouds 18 1009 36 10000 5.1 280 16:18 25.04.2020
4126 Clouds 18 1010 34 10000 5.1 240 15:41 25.04.2020
4127 Clouds 19 1010 36 10000 3.6 0 15:20 25.04.2020
4128 Clouds 19 1010 36 10000 3.6 0 14:58 25.04.2020
4129 Clouds 18 1010 36 10000 3.6 300 14:39 25.04.2020
4130 Clouds 18 1010 36 10000 3.6 300 14:20 25.04.2020
4131 Clouds 17 1011 39 10000 5.1 310 13:43 25.04.2020
4132 Clouds 18 1011 39 10000 5.1 310 13:22 25.04.2020
4133 Clouds 17 1011 41 10000 3.6 300 12:58 25.04.2020
4134 Clouds 17 1011 44 10000 3.1 250 12:40 25.04.2020
4135 Clouds 17 1011 44 10000 3.1 250 12:21 25.04.2020
4136 Clouds 16 1011 47 10000 4.1 290 11:59 25.04.2020
4137 Clouds 16 1011 47 10000 3.6 310 11:40 25.04.2020
4138 Clouds 15 1011 47 10000 3.6 310 11:22 25.04.2020
4139 Clouds 15 1011 47 10000 3.6 310 11:22 25.04.2020
4140 Clouds 15 1011 47 10000 4.6 300 10:45 25.04.2020
4141 Clouds 14 1011 50 10000 3.6 280 10:25 25.04.2020
4142 Clouds 14 1011 50 10000 3.6 280 09:57 25.04.2020
4143 Clouds 13 1011 54 10000 3.1 270 09:39 25.04.2020
4144 Clouds 13 1011 58 10000 3.1 280 09:21 25.04.2020
4145 Clouds 12 1010 62 10000 3.6 250 08:41 25.04.2020
4146 Clouds 12 1010 62 10000 3.6 250 08:22 25.04.2020
4147 Clouds 11 1010 66 10000 3.1 250 07:59 25.04.2020
4148 Clouds 10 1010 66 10000 3.1 250 07:41 25.04.2020
4149 Clouds 10 1010 61 10000 3.1 250 06:57 25.04.2020
4150 Clouds 9 1010 66 10000 3.1 230 06:36 25.04.2020
4151 Clouds 10 1010 66 10000 3.1 240 05:42 25.04.2020
4152 Clouds 10 1010 70 10000 4.1 230 05:24 25.04.2020
4153 Clouds 11 1010 70 10000 3.6 230 03:56 25.04.2020
4154 Clouds 11 1010 66 10000 4.6 230 02:36 25.04.2020
4155 Clouds 11 1011 62 10000 5.1 220 01:56 25.04.2020
4156 Clouds 11 1011 62 10000 5.1 220 01:38 25.04.2020
4157 Clouds 11 1011 62 10000 5.1 220 01:19 25.04.2020
4158 Clouds 12 1011 57 10000 4.6 220 00:39 25.04.2020
4159 Clouds 12 1011 57 10000 4.1 220 00:18 25.04.2020
4160 Clouds 12 1011 57 10000 3.6 220 23:41 24.04.2020
4161 Clouds 12 1011 57 10000 3.6 220 23:20 24.04.2020
4162 Clouds 14 1011 47 10000 4.1 250 22:41 24.04.2020
4163 Clouds 14 1011 47 10000 4.1 250 22:21 24.04.2020
4164 Clouds 14 1011 58 10000 3.6 220 21:59 24.04.2020
4165 Clouds 14 1011 58 10000 3.6 220 21:59 24.04.2020
4166 Clouds 15 1011 41 10000 2.1 240 21:41 24.04.2020
4167 Clouds 16 1011 41 10000 2.1 240 21:23 24.04.2020
4168 Clouds 16 1011 41 10000 2.1 240 21:23 24.04.2020
4169 Clouds 17 1010 41 10000 2.6 250 20:59 24.04.2020
4170 Clouds 19 1010 36 10000 3.1 260 20:41 24.04.2020
4171 Clouds 19 1010 37 10000 4.6 250 20:19 24.04.2020
4172 Clouds 19 1010 37 10000 4.6 250 19:57 24.04.2020
4173 Clouds 20 1010 34 10000 5.1 250 19:38 24.04.2020
4174 Clouds 20 1011 34 10000 5.1 250 19:20 24.04.2020
4175 Clouds 20 1011 34 10000 6.7 270 18:41 24.04.2020
4176 Clouds 20 1011 34 10000 6.7 270 18:23 24.04.2020
4177 Clouds 21 1011 30 10000 5.7 260 17:54 24.04.2020
4178 Clouds 21 1011 30 10000 5.1 270 17:36 24.04.2020
4179 Clouds 21 1011 32 10000 6.7 260 17:18 24.04.2020
4180 Clouds 21 1011 32 10000 6.7 260 16:55 24.04.2020
4181 Clouds 21 1012 32 10000 6.2 270 16:37 24.04.2020
4182 Clouds 21 1012 32 10000 7.2 280 16:19 24.04.2020
4183 Clouds 20 1012 32 10000 7.7 270 15:40 24.04.2020
4184 Clouds 21 1012 32 10000 7.7 270 15:20 24.04.2020
4185 Clouds 21 1013 32 10000 9.3 280 14:41 24.04.2020
4186 Clouds 21 1013 32 10000 9.3 280 14:22 24.04.2020
4187 Clouds 21 1013 30 10000 9.3 260 13:59 24.04.2020
4188 Clouds 21 1013 28 10000 8.2 270 13:40 24.04.2020
4189 Clouds 21 1013 28 10000 8.2 270 13:20 24.04.2020
4190 Clouds 21 1014 32 10000 7.7 260 12:57 24.04.2020
4191 Clouds 19 1014 34 10000 7.2 260 12:39 24.04.2020
4192 Clouds 19 1014 34 10000 7.2 260 12:19 24.04.2020
4193 Clouds 18 1014 39 10000 5.7 250 11:40 24.04.2020
4194 Clouds 19 1014 39 10000 5.7 250 11:21 24.04.2020
4195 Clouds 18 1014 45 10000 5.1 260 10:57 24.04.2020
4196 Clouds 18 1014 44 10000 4.6 250 10:38 24.04.2020
4197 Clouds 17 1014 44 10000 4.6 250 10:20 24.04.2020
4198 Clouds 16 1014 47 10000 4.6 220 09:55 24.04.2020
4199 Clear 13 1014 58 10000 3.1 210 09:36 24.04.2020
4200 Clear 10 1015 66 10000 1 0 09:18 24.04.2020
4201 Clear 9 1015 76 10000 1 0 08:42 24.04.2020
4202 Clear 9 1015 76 10000 1 0 08:19 24.04.2020
4203 Clear 7 1015 81 10000 0.5 0 07:56 24.04.2020
4204 Clear 7 1015 81 10000 0.5 0 07:56 24.04.2020
4205 Clear 5 1015 66 10000 2.1 200 07:38 24.04.2020
4206 Clear 5 1015 66 10000 2.1 200 07:19 24.04.2020
4207 Clear 4 1015 93 10000 2.6 210 06:42 24.04.2020
4208 Clear 4 1015 75 10000 2.6 200 05:51 24.04.2020
4209 Clear 4 1015 75 10000 2.6 200 05:20 24.04.2020
4210 Clear 5 1016 75 10000 1.5 190 03:34 24.04.2020
4211 Clear 6 1016 75 10000 2.1 210 02:50 24.04.2020
4212 Clear 6 1016 75 10000 2.1 210 02:30 24.04.2020
4213 Clear 6 1016 75 10000 1 0 01:46 24.04.2020
4214 Clear 7 1016 75 10000 1.33 207 00:54 24.04.2020
4215 Clear 7 1017 80 10000 1 150 00:19 24.04.2020
4216 Clear 7 1017 66 10000 1.5 150 23:47 23.04.2020
4217 Clear 8 1017 66 10000 1.5 150 23:27 23.04.2020
4218 Clear 9 1017 66 10000 0.5 170 22:58 23.04.2020
4219 Clear 9 1017 66 10000 0.5 170 22:58 23.04.2020
4220 Clear 10 1017 57 10000 0.5 160 22:39 23.04.2020
4221 Clear 10 1017 57 10000 0.5 160 22:39 23.04.2020
4222 Clear 10 1017 57 10000 0.5 160 22:20 23.04.2020
4223 Clear 10 1017 57 10000 1.28 132 21:57 23.04.2020
4224 Clear 12 1017 50 10000 1 90 21:39 23.04.2020
4225 Clear 13 1017 38 10000 2.1 30 21:20 23.04.2020
4226 Clear 14 1017 38 10000 2.1 30 20:57 23.04.2020
4227 Clear 16 1017 41 10000 3.1 20 20:39 23.04.2020
4228 Clear 17 1016 36 10000 4.1 30 20:20 23.04.2020
4229 Clear 17 1016 36 10000 4.1 30 19:56 23.04.2020
4230 Clear 19 1017 31 10000 5.1 20 19:38 23.04.2020
4231 Clear 19 1017 31 10000 5.1 20 19:20 23.04.2020
4232 Clear 19 1017 32 10000 4.1 10 18:43 23.04.2020
4233 Clear 19 1017 29 10000 4.6 10 18:25 23.04.2020
4234 Clear 19 1017 29 10000 4.6 10 17:59 23.04.2020
4235 Clear 19 1017 29 10000 4.6 10 17:59 23.04.2020
4236 Clear 20 1017 32 10000 4.6 20 17:40 23.04.2020
4237 Clear 20 1017 32 10000 4.6 20 17:22 23.04.2020
4238 Clear 20 1017 32 10000 5.1 10 16:57 23.04.2020
4239 Clear 20 1017 34 10000 5.1 360 16:38 23.04.2020
4240 Clear 20 1017 34 10000 5.1 360 16:19 23.04.2020
4241 Clear 19 1018 36 10000 3.6 20 15:42 23.04.2020
4242 Clear 19 1018 36 10000 3.6 20 15:23 23.04.2020
4243 Clear 19 1018 39 10000 3.1 10 14:57 23.04.2020
4244 Clear 19 1018 39 10000 3.6 10 14:38 23.04.2020
4245 Clear 18 1018 39 10000 3.6 10 14:19 23.04.2020
4246 Clear 18 1019 39 10000 2.6 20 13:55 23.04.2020
4247 Clear 18 1019 41 10000 3.6 50 13:36 23.04.2020
4248 Clear 18 1019 41 10000 3.1 350 13:18 23.04.2020
4249 Clear 17 1019 41 10000 3.1 0 12:44 23.04.2020
4250 Clear 15 1019 41 10000 3.1 0 12:25 23.04.2020
4251 Clear 16 1019 44 10000 2.6 360 11:58 23.04.2020
4252 Clear 15 1020 47 10000 4.1 80 11:40 23.04.2020
4253 Clear 15 1019 49 10000 1 0 11:21 23.04.2020
4254 Clear 14 1019 43 10000 2.1 70 10:42 23.04.2020
4255 Clear 13 1019 43 10000 2.1 70 10:22 23.04.2020
4256 Clear 12 1019 46 10000 2.6 70 09:55 23.04.2020
4257 Clear 10 1019 49 10000 3.1 80 09:37 23.04.2020
4258 Clear 9 1019 63 10000 3.1 60 09:18 23.04.2020
4259 Clear 8 1019 56 10000 2.6 50 08:45 23.04.2020
4260 Clear 7 1019 56 10000 2.6 50 08:27 23.04.2020
4261 Clear 4 1019 74 10000 0.5 0 07:43 23.04.2020
4262 Clear 3 1019 74 10000 0.5 0 07:23 23.04.2020
4263 Clear 3 1018 74 10000 0.91 102 06:49 23.04.2020
4264 Clear 3 1018 74 10000 1.49 60 06:27 23.04.2020
4265 Clear 4 1018 74 10000 1.49 60 05:31 23.04.2020
4266 Clear 4 1018 65 10000 1.49 60 04:53 23.04.2020
4267 Clear 6 1018 52 10000 3.1 50 02:25 23.04.2020
4268 Clear 6 1017 49 10000 3.6 60 01:51 23.04.2020
4269 Clear 7 1017 46 10000 4.6 50 01:33 23.04.2020
4270 Clear 9 1017 46 10000 4.1 50 00:47 23.04.2020
4271 Clear 9 1017 43 10000 4.6 50 00:23 23.04.2020
4272 Clear 10 1017 58 10000 4.1 50 23:50 22.04.2020
4273 Clear 10 1017 58 10000 4.6 50 23:25 22.04.2020
4274 Clear 11 1017 58 10000 4.6 60 22:58 22.04.2020
4275 Clear 11 1017 37 10000 4.1 60 22:39 22.04.2020
4276 Clear 13 1017 37 10000 3.1 50 22:19 22.04.2020
4277 Clear 14 1016 35 10000 3.6 60 21:56 22.04.2020
4278 Clear 14 1016 35 10000 3.6 60 21:38 22.04.2020
4279 Clear 14 1016 35 10000 3.6 60 21:20 22.04.2020
4280 Clear 15 1016 33 10000 4.1 60 20:55 22.04.2020
4281 Clear 16 1015 31 10000 5.1 60 20:36 22.04.2020
4282 Clear 16 1015 31 10000 5.1 60 20:18 22.04.2020
4283 Clear 17 1015 29 10000 6.2 60 19:55 22.04.2020
4284 Clear 18 1015 27 10000 7.2 50 19:36 22.04.2020
4285 Clear 18 1015 55 10000 7.2 50 19:18 22.04.2020
4286 Clear 19 1015 55 10000 7.2 50 18:55 22.04.2020
4287 Clear 19 1015 25 10000 7.2 50 18:37 22.04.2020
4288 Clear 19 1015 24 10000 7.7 40 18:18 22.04.2020
4289 Clear 20 1015 25 10000 7.7 50 17:42 22.04.2020
4290 Clear 20 1015 25 10000 7.7 50 17:23 22.04.2020
4291 Clear 20 1015 25 10000 7.7 50 16:56 22.04.2020
4292 Clear 20 1015 25 10000 8.7 50 16:36 22.04.2020
4293 Clear 20 1015 25 10000 6.7 70 16:18 22.04.2020
4294 Clear 20 1015 25 10000 7.7 60 15:38 22.04.2020
4295 Clear 20 1015 25 10000 7.7 60 15:20 22.04.2020
4296 Clear 19 1015 39 10000 6.2 50 14:56 22.04.2020
4297 Clear 19 1016 27 10000 7.2 50 14:37 22.04.2020
4298 Clear 19 1016 29 10000 5.1 80 14:18 22.04.2020
4299 Clear 18 1016 29 10000 5.1 80 14:18 22.04.2020
4300 Clear 18 1016 39 10000 5.7 40 13:44 22.04.2020
4301 Clear 18 1016 39 10000 5.7 40 13:20 22.04.2020
4302 Clear 17 1016 30 10000 5.7 60 12:44 22.04.2020
4303 Clear 17 1016 30 10000 5.7 60 12:44 22.04.2020
4304 Clear 14 1016 33 10000 6.7 50 12:26 22.04.2020
4305 Clear 14 1016 33 10000 6.7 50 11:59 22.04.2020
4306 Clear 14 1016 35 10000 4.1 60 11:39 22.04.2020
4307 Clear 14 1016 43 10000 5.1 40 11:20 22.04.2020
4308 Clear 14 1016 43 10000 5.1 40 10:57 22.04.2020
4309 Clear 13 1017 43 10000 6.7 80 10:38 22.04.2020
4310 Clear 13 1017 43 10000 6.2 80 10:18 22.04.2020
4311 Clear 11 1016 49 10000 4.6 80 09:39 22.04.2020
4312 Clear 9 1016 52 10000 5.1 80 09:19 22.04.2020
4313 Clear 9 1016 52 10000 5.1 80 08:55 22.04.2020
4314 Clear 7 1016 56 10000 4.1 70 08:37 22.04.2020
4315 Clear 6 1015 60 10000 3.1 60 08:18 22.04.2020
4316 Clear 6 1015 60 10000 3.1 60 07:51 22.04.2020
4317 Clear 4 1015 59 10000 3.1 60 07:23 22.04.2020
4318 Clear 4 1015 59 10000 3.1 60 06:52 22.04.2020
4319 Clear 5 1015 56 10000 3.1 80 05:47 22.04.2020
4320 Clear 5 1015 56 10000 3.1 80 05:27 22.04.2020
4321 Clear 5 1015 56 10000 3.1 80 05:27 22.04.2020
4322 Clear 6 1015 52 10000 3.1 70 04:18 22.04.2020
4323 Clear 8 1015 45 10000 5.1 70 02:40 22.04.2020
4324 Clear 8 1015 45 10000 3.6 80 01:44 22.04.2020
4325 Clear 8 1015 45 10000 3.6 80 01:24 22.04.2020
4326 Clear 9 1015 39 10000 6.2 70 00:47 22.04.2020
4327 Clear 10 1015 39 10000 6.2 70 00:22 22.04.2020
4328 Clear 10 1015 37 10000 7.7 70 23:59 21.04.2020
4329 Clear 10 1015 37 10000 7.7 60 23:40 21.04.2020
4330 Clear 11 1014 34 10000 9.3 70 23:18 21.04.2020
4331 Clear 11 1014 37 10000 9.3 70 22:40 21.04.2020
4332 Clear 12 1014 35 10000 6.7 70 22:21 21.04.2020
4333 Clear 12 1014 35 10000 6.7 70 21:59 21.04.2020
4334 Clear 13 1014 35 10000 6.7 60 21:40 21.04.2020
4335 Clouds 13 1014 35 10000 6.7 60 21:22 21.04.2020
4336 Clear 14 1013 30 10000 8.7 80 20:55 21.04.2020
4337 Clouds 14 1013 30 10000 8.7 80 20:37 21.04.2020
4338 Clear 15 1013 30 10000 7.7 70 20:19 21.04.2020
4339 Clear 16 1013 31 10000 8.2 70 19:41 21.04.2020
4340 Clouds 16 1012 29 10000 9.3 70 19:20 21.04.2020
4341 Clouds 16 1012 29 10000 9.3 70 18:57 21.04.2020
4342 Clear 17 1012 29 10000 9.3 70 18:38 21.04.2020
4343 Clouds 17 1012 42 10000 9.3 60 18:19 21.04.2020
4344 Clear 17 1012 43 10000 9.3 60 17:55 21.04.2020
4345 Clear 18 1012 43 10000 8.7 60 17:37 21.04.2020
4346 Clear 18 1012 43 10000 8.7 60 17:37 21.04.2020
4347 Clear 18 1012 33 10000 8.7 60 17:18 21.04.2020
4348 Clear 18 1013 27 10000 9.3 70 16:39 21.04.2020
4349 Clouds 18 1012 33 10000 9.3 50 16:19 21.04.2020
4350 Clouds 18 1012 33 10000 9.3 50 16:19 21.04.2020
4351 Clear 18 1013 27 10000 12.3 90 16:19 21.04.2020
4352 Clear 18 1012 33 10000 9.3 50 15:57 21.04.2020
4353 Clouds 18 1012 33 10000 8.7 60 15:39 21.04.2020
4354 Clouds 18 1012 33 10000 8.2 60 15:21 21.04.2020
4355 Clouds 18 1012 33 10000 8.2 60 14:58 21.04.2020
4356 Clouds 17 1012 36 10000 8.2 80 14:39 21.04.2020
4357 Clouds 17 1012 36 10000 8.2 80 14:21 21.04.2020
4358 Clouds 16 1012 41 10000 8.7 70 13:42 21.04.2020
4359 Clouds 17 1012 41 10000 9.3 60 13:23 21.04.2020
4360 Clouds 16 1012 41 10000 9.3 60 12:58 21.04.2020
4361 Clouds 15 1012 43 10000 8.2 50 12:37 21.04.2020
4362 Clouds 15 1012 44 10000 7.7 60 12:19 21.04.2020
4363 Clouds 14 1012 44 10000 7.7 60 11:56 21.04.2020
4364 Clouds 14 1012 43 10000 7.7 60 11:37 21.04.2020
4365 Clouds 13 1012 50 10000 7.7 70 11:18 21.04.2020
4366 Clouds 13 1012 50 10000 7.7 70 10:56 21.04.2020
4367 Clouds 12 1012 50 10000 5.7 70 10:38 21.04.2020
4368 Clouds 12 1012 50 10000 5.7 70 10:20 21.04.2020
4369 Clouds 9 1012 64 10000 6.2 70 09:38 21.04.2020
4370 Clouds 9 1012 52 10000 6.7 70 09:20 21.04.2020
4371 Clouds 9 1012 52 10000 6.7 70 08:58 21.04.2020
4372 Clouds 8 1012 52 10000 4.6 60 08:40 21.04.2020
4373 Clouds 8 1011 56 10000 5.1 60 08:19 21.04.2020
4374 Clouds 7 1011 56 10000 4.1 60 07:49 21.04.2020
4375 Clouds 7 1011 56 10000 4.1 60 07:26 21.04.2020
4376 Clouds 7 1011 56 10000 5.1 60 06:50 21.04.2020
4377 Clouds 7 1011 56 10000 5.1 60 06:24 21.04.2020
4378 Clouds 7 1012 56 10000 5.1 60 05:49 21.04.2020
4379 Clouds 7 1012 56 10000 4.1 60 04:54 21.04.2020
4380 Clouds 8 1012 52 10000 5.1 70 03:45 21.04.2020
4381 Clouds 9 1013 63 10000 6.2 70 01:53 21.04.2020
4382 Clouds 9 1013 63 10000 6.2 70 01:29 21.04.2020
4383 Clouds 10 1013 63 10000 5.7 70 00:38 21.04.2020
4384 Clouds 10 1013 50 10000 7.2 70 23:55 20.04.2020
4385 Clouds 10 1013 50 10000 7.7 70 23:37 20.04.2020
4386 Clouds 10 1013 50 10000 7.7 70 23:19 20.04.2020
4387 Clouds 11 1013 50 10000 7.7 70 22:54 20.04.2020
4388 Clouds 11 1013 50 10000 7.2 70 22:36 20.04.2020
4389 Clouds 12 1013 50 10000 7.2 70 22:18 20.04.2020
4390 Clouds 12 1013 50 10000 7.7 60 21:54 20.04.2020
4391 Clouds 13 1013 50 10000 8.2 70 21:36 20.04.2020
4392 Clouds 13 1013 50 10000 7.7 70 21:18 20.04.2020
4393 Clouds 14 1012 47 10000 8.2 70 20:40 20.04.2020
4394 Clouds 14 1012 47 10000 8.2 70 20:19 20.04.2020
4395 Clouds 14 1012 47 10000 8.2 70 19:59 20.04.2020
4396 Clouds 15 1012 47 10000 7.7 70 19:40 20.04.2020
4397 Clouds 15 1012 44 10000 8.7 80 19:20 20.04.2020
4398 Clouds 16 1012 44 10000 8.7 80 18:55 20.04.2020
4399 Clouds 16 1012 44 10000 6.7 70 18:37 20.04.2020
4400 Clouds 16 1012 44 10000 8.7 60 18:19 20.04.2020
4401 Clouds 17 1012 41 10000 8.2 60 17:43 20.04.2020
4402 Clouds 17 1012 41 10000 8.2 60 17:23 20.04.2020
4403 Clouds 17 1012 41 10000 7.7 80 16:59 20.04.2020
4404 Clouds 17 1012 41 10000 7.7 80 16:59 20.04.2020
4405 Clouds 17 1012 41 10000 8.7 70 16:41 20.04.2020
4406 Clouds 17 1014 39 10000 8.2 70 16:20 20.04.2020
4407 Clouds 17 1012 44 10000 8.7 50 15:56 20.04.2020
4408 Clouds 17 1013 44 10000 9.3 80 15:38 20.04.2020
4409 Clouds 17 1013 44 10000 9.3 60 15:19 20.04.2020
4410 Clouds 17 1013 48 0 1.34 273 14:42 20.04.2020
4411 Clouds 16 1013 47 0 1.34 355 14:19 20.04.2020
4412 Clouds 16 1014 47 0 1.34 21 13:58 20.04.2020
4413 Clouds 16 1014 47 0 1.34 21 13:58 20.04.2020
4414 Clouds 15 1014 49 0 1.34 134 13:39 20.04.2020
4415 Clouds 15 1014 50 0 1.34 285 13:20 20.04.2020
4416 Clouds 15 1014 50 0 1.34 15 12:44 20.04.2020
4417 Clouds 10 1013 51 0 6.67 79 12:24 20.04.2020
4418 Clouds 10 1013 51 0 6.67 79 11:58 20.04.2020
4419 Clouds 13 1014 47 0 4.47 91 11:38 20.04.2020
4420 Clouds 12 1015 59 0 0.45 227 11:19 20.04.2020
4421 Clouds 11 1014 59 0 0.89 98 10:55 20.04.2020
4422 Clouds 10 1014 58 0 0.89 188 10:36 20.04.2020
4423 Clouds 9 1014 61 0 0.45 194 10:18 20.04.2020
4424 Clouds 9 1014 60 0 0.89 312 09:44 20.04.2020
4425 Clouds 8 1015 59 0 0.89 20 09:25 20.04.2020
4426 Clouds 8 1015 58 0 0.45 15 08:59 20.04.2020
4427 Clouds 8 1015 59 0 0.45 33 08:40 20.04.2020
4428 Clouds 8 1014 62 0 0.89 194 08:19 20.04.2020
4429 Clouds 7 1015 60 0 0.45 19 07:52 20.04.2020
4430 Clouds 7 1015 59 0 6.15 77 07:28 20.04.2020
4431 Clouds 8 1015 58 0 0.45 5 06:54 20.04.2020
4432 Clouds 8 1014 57 0 0.45 344 06:35 20.04.2020
4433 Clouds 8 1013 51 0 0.45 330 05:33 20.04.2020
4434 Clouds 9 1014 57 0 0.45 82 03:36 20.04.2020
4435 Clouds 7 1015 67 0 6.09 81 02:42 20.04.2020
4436 Clouds 10 1015 68 0 0.45 37 01:32 20.04.2020
4437 Clouds 10 1015 68 0 0.45 37 01:32 20.04.2020
4438 Clouds 10 1014 66 0 0.89 320 00:58 20.04.2020
4439 Clouds 11 1015 74 0 0.45 78 00:34 20.04.2020
4440 Clouds 11 1015 78 0 0.45 344 23:56 19.04.2020
4441 Clouds 12 1015 78 0 0.45 32 23:37 19.04.2020
4442 Clouds 12 1015 78 0 0.45 304 23:19 19.04.2020
4443 Clouds 12 1015 75 0 3.58 106 22:40 19.04.2020
4444 Clouds 13 1015 73 0 4.02 99 22:22 19.04.2020
4445 Clouds 13 1015 71 0 3.13 127 21:58 19.04.2020
4446 Rain 14 1015 74 0 0.45 19 21:39 19.04.2020
4447 Rain 14 1015 74 0 0.89 50 21:20 19.04.2020
4448 Rain 14 1014 67 0 2.68 70 20:55 19.04.2020
4449 Rain 14 1014 66 0 2.24 33 20:36 19.04.2020
4450 Rain 16 1014 71 0 1.34 38 20:18 19.04.2020
4451 Rain 17 1012 61 0 4.66 78 19:41 19.04.2020
4452 Rain 18 1012 61 0 4.66 78 19:22 19.04.2020
4453 Rain 18 1012 61 0 4.66 78 18:58 19.04.2020
4454 Rain 18 1013 58 0 4.47 59 18:40 19.04.2020
4455 Rain 18 1013 58 0 4.47 59 18:40 19.04.2020
4456 Rain 18 1013 58 0 0.89 82 18:20 19.04.2020
4457 Rain 19 1013 57 0 0.89 62 17:59 19.04.2020
4458 Rain 19 1013 57 0 0.45 38 17:40 19.04.2020
4459 Rain 19 1013 57 0 0.45 18 17:22 19.04.2020
4460 Rain 19 1013 57 0 0.45 77 16:58 19.04.2020
4461 Rain 19 1013 58 0 0.45 159 16:39 19.04.2020
4462 Rain 19 1013 58 0 0.89 42 16:21 19.04.2020
4463 Rain 19 1014 58 0 0.45 84 15:54 19.04.2020
4464 Rain 20 1014 53 0 0.45 9 15:36 19.04.2020
4465 Rain 20 1014 53 0 0.45 22 15:18 19.04.2020
4466 Rain 20 1011 45 0 0.45 323 14:38 19.04.2020
4467 Rain 20 1014 50 0 0.45 134 14:20 19.04.2020
4468 Rain 20 1014 57 0 2.24 57 13:54 19.04.2020
4469 Rain 19 1011 47 0 1.79 319 13:36 19.04.2020
4470 Rain 20 1015 52 0 0.45 190 13:18 19.04.2020
4471 Rain 19 1015 55 0 0.45 265 12:42 19.04.2020
4472 Rain 18 1012 55 0 0.45 319 12:23 19.04.2020
4473 Rain 18 1015 62 0 1.79 290 11:39 19.04.2020
4474 Rain 18 1014 63 0 1.34 150 11:20 19.04.2020
4475 Rain 17 1012 63 0 2.52 317 10:59 19.04.2020
4476 Rain 17 1012 64 0 2.52 317 10:41 19.04.2020
4477 Rain 17 1012 64 0 2.52 317 10:41 19.04.2020
4478 Rain 17 1016 66 0 2.52 317 10:20 19.04.2020
4479 Rain 16 1016 68 0 2.52 317 09:55 19.04.2020
4480 Rain 16 1016 73 0 0.45 225 09:36 19.04.2020
4481 Clouds 15 1014 76 0 1.34 0 09:18 19.04.2020
4482 Clouds 13 1015 94 0 2.63 254 08:39 19.04.2020
4483 Clouds 13 1015 94 0 2.63 254 08:20 19.04.2020
4484 Clouds 11 1015 93 0 2.63 254 07:45 19.04.2020
4485 Clouds 11 1015 93 0 2.82 260 07:25 19.04.2020
4486 Clouds 11 1015 93 0 2.82 260 06:56 19.04.2020
4487 Rain 11 1015 92 0 2.71 245 06:22 19.04.2020
4488 Rain 12 1015 91 0 2.71 245 04:57 19.04.2020
4489 Rain 13 1015 92 0 2.71 245 03:40 19.04.2020
4490 Rain 12 1015 91 0 2.9 254 02:23 19.04.2020
4491 Rain 12 1015 91 0 2.9 254 01:58 19.04.2020
4492 Rain 12 1015 90 0 2.9 254 01:22 19.04.2020
4493 Rain 13 1015 90 0 2.9 254 00:41 19.04.2020
4494 Rain 13 1015 89 0 2.88 233 00:19 19.04.2020
4495 Rain 14 1016 87 0 2.88 233 23:43 18.04.2020
4496 Rain 14 1016 86 0 2.88 233 23:19 18.04.2020
4497 Rain 14 1014 85 0 2.88 233 22:55 18.04.2020
4498 Rain 14 1016 80 0 2.88 233 22:37 18.04.2020
4499 Rain 14 1016 79 0 2.88 233 22:18 18.04.2020
4500 Rain 14 1015 73 0 0.45 282 21:42 18.04.2020
4501 Rain 15 1016 75 0 1.67 239 21:22 18.04.2020
4502 Rain 15 1016 73 0 1.67 239 20:59 18.04.2020
4503 Rain 16 1015 71 0 1.67 239 20:40 18.04.2020
4504 Rain 17 1015 68 0 1.67 239 20:21 18.04.2020
4505 Rain 18 1015 65 0 1.67 239 19:43 18.04.2020
4506 Rain 18 1015 64 0 1.67 239 19:25 18.04.2020
4507 Rain 18 1015 63 0 1.67 239 19:25 18.04.2020
4508 Rain 19 1014 63 0 1.67 239 18:58 18.04.2020
4509 Rain 18 1015 63 0 0.45 39 18:36 18.04.2020
4510 Rain 19 1015 64 0 0.89 51 18:18 18.04.2020
4511 Rain 22 1014 44 0 3.13 283 17:41 18.04.2020
4512 Rain 23 1013 43 0 1.79 318 17:21 18.04.2020
4513 Rain 23 1013 40 0 1.34 295 16:56 18.04.2020
4514 Rain 23 1013 40 0 0.89 282 16:36 18.04.2020
4515 Rain 23 1013 40 0 0.89 282 16:36 18.04.2020
4516 Rain 24 1014 39 0 0.45 202 16:18 18.04.2020
4517 Rain 20 1015 46 0 2.23 295 15:38 18.04.2020
4518 Rain 20 1015 46 0 2.23 295 15:20 18.04.2020
4519 Rain 23 1014 43 0 1.34 360 14:45 18.04.2020
4520 Rain 23 1015 43 0 0.45 217 14:26 18.04.2020
4521 Rain 23 1015 44 0 0.45 325 13:56 18.04.2020
4522 Rain 23 1015 44 0 0.45 171 13:38 18.04.2020
4523 Rain 23 1015 42 0 0.45 213 13:18 18.04.2020
4524 Rain 22 1012 41 0 0.45 299 12:41 18.04.2020
4525 Clouds 16 1016 63 0 1.96 273 12:22 18.04.2020
4526 Clouds 16 1016 63 0 1.96 273 11:43 18.04.2020
4527 Clouds 16 1016 63 0 1.96 273 11:25 18.04.2020
4528 Clouds 16 1016 63 0 1.96 273 10:58 18.04.2020
4529 Clouds 16 1016 63 0 1.96 273 10:39 18.04.2020
4530 Clouds 18 1057 45 0 0.89 281 10:19 18.04.2020
4531 Clouds 17 1013 51 0 0.45 294 09:55 18.04.2020
4532 Clouds 17 1013 52 0 0.89 300 09:37 18.04.2020
4533 Rain 14 1058 53 0 1.79 329 09:18 18.04.2020
4534 Rain 13 1016 77 0 1.5 237 08:39 18.04.2020
4535 Rain 12 1016 79 0 1.5 237 08:20 18.04.2020
4536 Rain 10 1016 84 0 1.5 237 07:38 18.04.2020
4537 Rain 9 1016 85 0 1.5 237 07:19 18.04.2020
4538 Clouds 9 1015 83 0 1.68 214 06:30 18.04.2020
4539 Clouds 9 1015 83 0 1.68 214 05:43 18.04.2020
4540 Clouds 8 1015 83 0 1.68 214 04:47 18.04.2020
4541 Clouds 8 1015 83 0 1.68 214 04:47 18.04.2020
4542 Clouds 8 1015 83 0 1.68 214 04:28 18.04.2020
4543 Rain 10 1015 79 0 1.21 213 02:58 18.04.2020
4544 Rain 10 1015 78 0 1.21 213 02:40 18.04.2020
4545 Rain 11 1015 75 0 1.55 196 02:19 18.04.2020
4546 Rain 11 1015 71 0 1.55 196 01:36 18.04.2020
4547 Rain 12 1015 69 0 1.55 196 00:54 18.04.2020
4548 Rain 13 1015 69 0 0.87 264 00:24 18.04.2020
4549 Rain 14 1015 69 0 0.87 264 23:57 17.04.2020
4550 Rain 14 1015 69 0 0.87 264 23:57 17.04.2020
4551 Rain 13 1015 69 0 0.87 264 23:39 17.04.2020
4552 Rain 13 1015 72 0 0.87 264 23:19 17.04.2020
4553 Rain 14 1015 71 0 0.87 264 22:58 17.04.2020
4554 Rain 14 1015 71 0 0.87 264 22:58 17.04.2020
4555 Rain 14 1015 68 0 0.87 264 22:40 17.04.2020
4556 Rain 15 1015 65 0 0.87 264 22:19 17.04.2020
4557 Rain 15 1015 63 0 0.87 264 21:57 17.04.2020
4558 Clouds 17 1015 59 0 0.62 335 21:38 17.04.2020
4559 Clouds 18 1013 45 0 0.62 335 21:18 17.04.2020
4560 Clouds 20 1013 45 0 0.62 335 20:55 17.04.2020
4561 Clouds 20 1013 45 0 0.62 335 20:36 17.04.2020
4562 Clouds 20 1013 45 0 0.62 335 20:36 17.04.2020
4563 Clouds 20 1013 45 0 0.62 335 20:36 17.04.2020
4564 Clouds 20 1013 45 0 0.62 335 20:18 17.04.2020
4565 Clouds 22 1013 42 0 0.89 44 19:42 17.04.2020
4566 Clouds 22 1014 39 0 0.62 335 19:23 17.04.2020
4567 Clouds 22 1013 41 0 0.89 34 18:47 17.04.2020
4568 Clouds 23 1014 37 0 1.6 340 18:25 17.04.2020
4569 Clouds 23 1014 35 0 1.6 340 17:58 17.04.2020
4570 Clouds 24 1014 33 0 1.6 340 17:37 17.04.2020
4571 Clouds 24 1014 34 0 1.6 340 17:19 17.04.2020
4572 Clouds 23 1013 38 0 1.34 46 16:44 17.04.2020
4573 Clouds 24 1014 34 0 1.6 340 16:23 17.04.2020
4574 Clouds 24 1015 34 0 1.6 340 15:58 17.04.2020
4575 Clouds 24 1015 34 0 1.6 340 15:38 17.04.2020
4576 Clouds 24 1015 33 0 1.39 349 15:19 17.04.2020
4577 Clouds 23 1014 35 0 1.34 265 14:41 17.04.2020
4578 Clouds 23 1014 36 0 1.34 259 14:41 17.04.2020
4579 Clouds 24 1015 34 0 0.45 199 14:22 17.04.2020
4580 Clouds 24 1015 33 0 0.45 199 13:58 17.04.2020
4581 Clouds 22 1016 35 10000 2.1 300 13:37 17.04.2020
4582 Clouds 22 1017 34 10000 2.6 240 13:19 17.04.2020
4583 Clouds 22 1017 37 10000 2.1 240 12:48 17.04.2020
4584 Clouds 20 1017 37 10000 2.1 240 12:26 17.04.2020
4585 Clouds 20 1017 39 10000 3.1 240 11:58 17.04.2020
4586 Clouds 19 1017 45 10000 3.1 240 11:38 17.04.2020
4587 Clouds 19 1017 45 10000 3.1 240 11:19 17.04.2020
4588 Clouds 17 1017 45 10000 2.6 220 10:40 17.04.2020
4589 Clouds 17 1017 45 10000 2.6 220 10:20 17.04.2020
4590 Clouds 16 1017 58 10000 2.1 230 09:55 17.04.2020
4591 Clouds 16 1017 58 10000 2.1 230 09:55 17.04.2020
4592 Clouds 12 1017 66 10000 3.1 220 09:36 17.04.2020
4593 Clouds 11 1017 76 10000 1 0 09:18 17.04.2020
4594 Clouds 10 1017 76 10000 1 0 08:45 17.04.2020
4595 Clouds 9 1017 71 10000 1 0 08:26 17.04.2020
4596 Clouds 8 1017 81 10000 3.6 220 07:56 17.04.2020
4597 Clouds 7 1017 81 10000 2.1 220 07:38 17.04.2020
4598 Clouds 7 1017 81 10000 2.1 220 07:18 17.04.2020
4599 Clouds 7 1017 75 10000 1 190 06:40 17.04.2020
4600 Clouds 7 1017 75 10000 2.6 220 05:58 17.04.2020
4601 Clouds 7 1017 65 10000 1.5 220 03:23 17.04.2020
4602 Clouds 7 1017 70 10000 2.1 190 02:50 17.04.2020
4603 Clouds 8 1017 68 10000 1.5 200 01:41 17.04.2020
4604 Clouds 8 1017 70 10000 1.5 160 01:19 17.04.2020
4605 Clouds 9 1017 75 10000 2.1 170 00:21 17.04.2020
4606 Clouds 9 1017 70 10000 2.6 180 23:55 16.04.2020
4607 Clouds 10 1017 66 10000 1 0 23:37 16.04.2020
4608 Clouds 10 1017 66 10000 1 0 23:19 16.04.2020
4609 Clouds 11 1017 57 10000 1.5 150 22:40 16.04.2020
4610 Clouds 11 1017 57 10000 2.1 150 22:22 16.04.2020
4611 Clouds 12 1017 57 10000 2.6 150 21:59 16.04.2020
4612 Clouds 12 1017 57 10000 2.6 150 21:40 16.04.2020
4613 Clouds 13 1017 54 10000 1.5 150 21:19 16.04.2020
4614 Clouds 15 1016 50 10000 1.5 200 20:43 16.04.2020
4615 Clouds 18 1016 31 10000 1 220 20:23 16.04.2020
4616 Clouds 19 1016 64 10000 1 200 19:59 16.04.2020
4617 Clouds 20 1016 29 10000 1.5 250 19:39 16.04.2020
4618 Clouds 20 1016 29 10000 1.5 250 19:20 16.04.2020
4619 Clouds 20 1017 30 10000 1.5 240 18:57 16.04.2020
4620 Clouds 20 1017 64 10000 2.1 260 18:38 16.04.2020
4621 Clouds 20 1017 40 10000 2.1 260 18:20 16.04.2020
4622 Clouds 21 1017 40 10000 3.6 270 17:45 16.04.2020
4623 Clouds 21 1017 24 10000 4.6 290 17:26 16.04.2020
4624 Clouds 21 1017 24 10000 3.1 270 17:00 16.04.2020
4625 Clouds 21 1017 24 10000 3.1 270 17:00 16.04.2020
4626 Clouds 21 1017 24 10000 3.1 270 16:59 16.04.2020
4627 Clouds 21 1017 24 10000 3.1 270 16:41 16.04.2020
4628 Clouds 21 1018 40 10000 4.1 290 16:19 16.04.2020
4629 Clouds 21 1018 22 10000 3.6 330 15:44 16.04.2020
4630 Clouds 21 1018 24 10000 3.1 320 15:19 16.04.2020
4631 Clouds 20 1018 24 10000 4.1 340 14:58 16.04.2020
4632 Clouds 20 1018 28 10000 4.1 320 14:39 16.04.2020
4633 Clouds 20 1018 28 10000 4.1 320 14:19 16.04.2020
4634 Clouds 19 1019 25 10000 4.6 320 13:57 16.04.2020
4635 Clouds 19 1019 25 10000 4.6 320 13:37 16.04.2020
4636 Clouds 19 1019 24 10000 4.6 280 13:37 16.04.2020
4637 Clouds 19 1019 24 10000 4.6 280 13:19 16.04.2020
4638 Clouds 19 1019 33 10000 4.6 250 12:56 16.04.2020
4639 Clouds 18 1019 33 10000 4.6 250 12:38 16.04.2020
4640 Clouds 17 1019 31 10000 4.6 240 12:19 16.04.2020
4641 Clouds 16 1019 36 10000 4.1 250 11:55 16.04.2020
4642 Clouds 16 1019 38 10000 3.6 250 11:37 16.04.2020
4643 Clouds 16 1019 38 10000 3.6 250 11:18 16.04.2020
4644 Clouds 15 1019 38 10000 4.1 250 10:40 16.04.2020
4645 Clouds 14 1019 41 10000 4.1 230 10:19 16.04.2020
4646 Clouds 12 1019 50 10000 1.5 220 09:59 16.04.2020
4647 Clouds 11 1019 50 10000 1.5 220 09:38 16.04.2020
4648 Clouds 7 1020 57 10000 2.6 230 09:20 16.04.2020
4649 Clouds 6 1020 65 10000 3.6 210 08:45 16.04.2020
4650 Clouds 5 1020 75 10000 2.1 200 08:25 16.04.2020
4651 Clouds 3 1019 74 10000 1.5 190 07:58 16.04.2020
4652 Clouds 2 1019 80 10000 4.1 210 07:39 16.04.2020
4653 Clouds 1 1019 80 10000 4.1 210 07:20 16.04.2020
4654 Clouds 1 1019 74 10000 1.5 200 06:40 16.04.2020
4655 Clouds 1 1019 74 10000 1.5 200 06:22 16.04.2020
4656 Clouds 2 1019 74 10000 2.6 210 04:52 16.04.2020
4657 Clouds 3 1020 64 10000 0.5 0 03:25 16.04.2020
4658 Clouds 3 1020 74 10000 1 170 02:58 16.04.2020
4659 Clouds 3 1020 74 10000 1 170 02:34 16.04.2020
4660 Clouds 5 1021 52 10000 1.5 20 01:28 16.04.2020
4661 Clouds 5 1021 52 10000 0.5 0 00:53 16.04.2020
4662 Clouds 6 1021 48 10000 1.5 150 00:21 16.04.2020
4663 Clouds 7 1021 42 10000 1.5 80 23:55 15.04.2020
4664 Clouds 7 1021 42 10000 1.5 80 23:36 15.04.2020
4665 Clouds 7 1021 45 10000 2.1 110 23:18 15.04.2020
4666 Clouds 8 1022 39 10000 2.6 80 22:39 15.04.2020
4667 Clouds 9 1022 39 10000 2.6 80 22:20 15.04.2020
4668 Clouds 9 1022 37 10000 2.1 90 21:56 15.04.2020
4669 Clouds 10 1022 37 10000 2.1 90 21:38 15.04.2020
4670 Clear 10 1021 37 10000 2.1 50 21:20 15.04.2020
4671 Clear 12 1021 34 10000 3.1 30 20:55 15.04.2020
4672 Clear 12 1021 34 10000 3.1 30 20:55 15.04.2020
4673 Clear 12 1021 34 10000 3.1 30 20:37 15.04.2020
4674 Clear 13 1021 30 10000 3.1 40 20:19 15.04.2020
4675 Clear 15 1021 30 10000 4.1 20 19:41 15.04.2020
4676 Clear 16 1021 26 10000 4.6 20 19:20 15.04.2020
4677 Clear 16 1021 26 10000 4.6 20 19:20 15.04.2020
4678 Clear 16 1021 23 10000 4.6 20 18:54 15.04.2020
4679 Clear 16 1021 25 10000 4.6 20 18:36 15.04.2020
4680 Clear 16 1021 25 10000 4.6 20 18:18 15.04.2020
4681 Clear 16 1022 23 10000 4.6 30 17:40 15.04.2020
4682 Clear 16 1022 23 10000 4.6 30 17:40 15.04.2020
4683 Clear 16 1022 21 10000 3.6 30 17:20 15.04.2020
4684 Clear 16 1022 21 10000 3.1 340 16:57 15.04.2020
4685 Clear 16 1022 21 10000 3.1 340 16:38 15.04.2020
4686 Clear 16 1022 21 10000 3.1 340 16:38 15.04.2020
4687 Clear 16 1022 23 10000 3.6 10 16:19 15.04.2020
4688 Clear 16 1023 19 10000 1.5 0 15:58 15.04.2020
4689 Clouds 16 1023 24 10000 2.1 0 15:39 15.04.2020
4690 Clouds 15 1023 24 10000 2.1 0 15:19 15.04.2020
4691 Clouds 15 1023 26 10000 3.6 30 14:58 15.04.2020
4692 Clear 15 1023 26 10000 3.6 30 14:39 15.04.2020
4693 Clear 15 1024 30 10000 2.1 360 14:21 15.04.2020
4694 Clear 14 1024 25 10000 2.6 90 13:58 15.04.2020
4695 Clear 13 1024 25 10000 2.6 90 13:39 15.04.2020
4696 Clear 12 1024 29 10000 3.1 100 13:20 15.04.2020
4697 Clear 12 1024 32 10000 2.6 50 12:56 15.04.2020
4698 Clear 11 1024 37 10000 3.1 40 12:38 15.04.2020
4699 Clear 11 1024 37 10000 3.1 40 12:20 15.04.2020
4700 Clear 10 1024 42 10000 3.6 50 11:44 15.04.2020
4701 Clear 9 1024 39 10000 3.6 80 11:25 15.04.2020
4702 Clear 8 1024 45 10000 4.1 70 10:58 15.04.2020
4703 Clear 8 1024 45 10000 4.1 70 10:37 15.04.2020
4704 Clear 7 1024 48 10000 3.6 80 10:19 15.04.2020
4705 Clear 5 1024 52 10000 3.1 80 09:55 15.04.2020
4706 Clear 3 1024 59 10000 2.1 40 09:37 15.04.2020
4707 Clear 3 1024 59 10000 2.1 40 09:18 15.04.2020
4708 Clear 1 1024 59 10000 1.5 80 08:41 15.04.2020
4709 Clear 1 1024 59 10000 1.5 80 08:41 15.04.2020
4710 Clear 0 1024 69 10000 1.5 90 08:21 15.04.2020
4711 Clear -1 1023 61 10000 1.5 130 07:57 15.04.2020
4712 Clear -3 1023 73 10000 2.1 130 07:38 15.04.2020
4713 Clear -3 1024 68 10000 2.6 100 06:49 15.04.2020
4714 Clear -3 1023 68 10000 1.5 10 06:24 15.04.2020
4715 Clear -3 1023 73 10000 1 0 05:23 15.04.2020
4716 Clear -3 1023 68 10000 1.5 150 04:46 15.04.2020
4717 Clear -3 1023 68 10000 1 0 04:18 15.04.2020
4718 Clear -2 1023 63 10000 2.1 130 03:22 15.04.2020
4719 Clear -2 1024 75 10000 2.6 140 02:45 15.04.2020
4720 Clear -2 1025 63 10000 1.5 130 01:51 15.04.2020
4721 Clear -2 1025 79 10000 1 120 01:25 15.04.2020
4722 Clear -1 1024 74 10000 2.6 140 00:47 15.04.2020
4723 Clear -1 1025 74 10000 1 130 00:24 15.04.2020
4724 Clear -1 1024 68 10000 0.5 0 23:56 14.04.2020
4725 Clear -1 1024 68 10000 0.5 0 23:38 14.04.2020
4726 Clear 0 1024 68 10000 0.71 144 23:20 14.04.2020
4727 Clear 0 1024 70 10000 1 160 22:56 14.04.2020
4728 Clear 0 1024 70 10000 1 160 22:38 14.04.2020
4729 Clear 1 1024 70 10000 1.5 60 22:20 14.04.2020
4730 Clear 2 1024 51 10000 2.6 30 21:56 14.04.2020
4731 Clear 2 1024 51 10000 2.6 30 21:38 14.04.2020
4732 Clouds 3 1024 51 10000 2.6 30 21:19 14.04.2020
4733 Clouds 4 1023 47 10000 3.1 10 20:55 14.04.2020
4734 Clouds 5 1023 44 10000 3.6 10 20:36 14.04.2020
4735 Clouds 5 1023 44 10000 3.6 10 20:36 14.04.2020
4736 Clouds 5 1023 44 10000 3.6 10 20:18 14.04.2020
4737 Clouds 6 1023 41 10000 3.6 20 19:41 14.04.2020
4738 Clouds 6 1023 38 10000 4.1 360 19:22 14.04.2020
4739 Clouds 7 1023 38 10000 3.6 30 18:58 14.04.2020
4740 Clouds 7 1022 35 10000 2.6 350 18:39 14.04.2020
4741 Clouds 7 1022 35 10000 2.6 350 18:21 14.04.2020
4742 Clouds 7 1022 39 10000 2.1 310 17:58 14.04.2020
4743 Clouds 7 1022 35 10000 2.6 310 17:38 14.04.2020
4744 Clouds 7 1022 35 10000 2.6 310 17:19 14.04.2020
4745 Clouds 8 1022 38 10000 3.6 320 16:56 14.04.2020
4746 Clouds 7 1022 38 10000 3.6 320 16:38 14.04.2020
4747 Clouds 7 1022 39 10000 3.6 0 16:19 14.04.2020
4748 Clouds 7 1023 38 10000 4.1 330 15:56 14.04.2020
4749 Clouds 7 1023 35 10000 2.1 0 15:37 14.04.2020
4750 Clouds 7 1023 35 10000 2.1 0 15:18 14.04.2020
4751 Clouds 7 1023 33 10000 4.1 330 14:55 14.04.2020
4752 Clouds 7 1023 33 10000 4.1 330 14:37 14.04.2020
4753 Clouds 7 1022 32 10000 2.1 360 14:19 14.04.2020
4754 Clouds 7 1022 38 10000 3.6 290 13:43 14.04.2020
4755 Clouds 6 1022 41 10000 2.1 0 13:24 14.04.2020
4756 Clouds 6 1022 41 10000 1.5 0 12:56 14.04.2020
4757 Clouds 6 1022 44 10000 4.1 330 12:37 14.04.2020
4758 Clouds 5 1022 44 10000 4.1 330 12:18 14.04.2020
4759 Clouds 5 1022 47 10000 4.1 340 11:40 14.04.2020
4760 Clouds 5 1022 48 10000 4.6 20 11:22 14.04.2020
4761 Clouds 5 1022 47 10000 3.6 330 10:55 14.04.2020
4762 Clouds 5 1021 51 10000 4.1 340 10:37 14.04.2020
4763 Clouds 4 1021 51 10000 4.1 340 10:18 14.04.2020
4764 Clouds 4 1021 51 10000 4.6 350 09:41 14.04.2020
4765 Clouds 2 1021 51 10000 4.6 360 09:22 14.04.2020
4766 Clouds 1 1023 70 0 2.57 338 08:55 14.04.2020
4767 Clouds 1 1023 70 0 2.57 338 08:36 14.04.2020
4768 Clouds 1 1021 59 10000 4.6 10 08:18 14.04.2020
4769 Clouds 1 1023 70 0 2.57 338 07:49 14.04.2020
4770 Clouds 1 1020 55 10000 3.6 340 07:25 14.04.2020
4771 Clouds 1 1023 70 0 2.57 338 06:45 14.04.2020
4772 Clouds 1 1023 70 0 2.57 338 06:45 14.04.2020
4773 Clouds 2 1020 55 10000 2.6 360 05:43 14.04.2020
4774 Clouds 2 1020 55 10000 2.6 360 05:43 14.04.2020
4775 Clouds 3 1019 80 10000 1.5 190 03:28 14.04.2020
4776 Snow 4 1019 64 10000 2.1 30 02:34 14.04.2020
4777 Snow 4 1019 69 10000 3.6 20 01:27 14.04.2020
4778 Snow 5 1019 60 10000 6.2 20 00:50 14.04.2020
4779 Clouds 5 1017 67 10000 6.7 350 00:24 14.04.2020
4780 Clouds 6 1017 67 10000 6.7 350 23:59 13.04.2020
4781 Clouds 6 1017 60 10000 7.7 340 23:37 13.04.2020
4782 Clouds 6 1017 60 10000 7.7 340 23:19 13.04.2020
4783 Clouds 7 1017 75 10000 7.7 350 22:54 13.04.2020
4784 Clouds 7 1017 75 10000 7.7 350 22:36 13.04.2020
4785 Clouds 8 1016 75 10000 6.7 330 22:18 13.04.2020
4786 Clouds 9 1016 76 10000 6.2 350 21:41 13.04.2020
4787 Rain 9 1015 81 10000 5.1 360 21:21 13.04.2020
4788 Rain 10 1014 76 10000 6.2 350 20:58 13.04.2020
4789 Rain 10 1014 76 10000 6.2 350 20:58 13.04.2020
4790 Rain 10 1014 76 10000 6.2 350 20:40 13.04.2020
4791 Rain 11 1014 71 10000 6.2 340 20:19 13.04.2020
4792 Rain 12 1013 66 10000 7.7 350 19:58 13.04.2020
4793 Rain 13 1013 66 10000 9.3 340 19:37 13.04.2020
4794 Rain 13 1013 66 10000 9.3 340 19:19 13.04.2020
4795 Rain 14 1013 48 10000 8.2 340 18:57 13.04.2020
4796 Rain 16 1012 45 10000 8.2 340 18:37 13.04.2020
4797 Rain 16 1012 45 10000 8.2 340 18:18 13.04.2020
4798 Rain 17 1012 36 10000 8.2 340 17:56 13.04.2020
4799 Rain 18 1012 36 10000 8.2 340 17:37 13.04.2020
4800 Rain 19 1012 45 10000 6.7 300 17:19 13.04.2020
4801 Rain 19 1012 45 10000 6.7 300 17:19 13.04.2020
4802 Rain 19 1012 45 10000 6.7 300 17:19 13.04.2020
4803 Rain 19 1012 45 10000 6.7 300 17:19 13.04.2020
4804 Rain 19 1012 28 10000 6.2 290 16:58 13.04.2020
4805 Rain 19 1012 28 10000 6.2 290 16:38 13.04.2020
4806 Rain 19 1012 37 10000 6.7 320 16:19 13.04.2020
4807 Rain 19 1012 39 10000 6.2 330 15:55 13.04.2020
4808 Rain 19 1012 39 10000 6.2 330 15:37 13.04.2020
4809 Rain 19 1012 32 10000 7.7 280 15:18 13.04.2020
4810 Rain 19 1012 32 10000 5.1 260 14:41 13.04.2020
4811 Rain 19 1013 37 10000 4.1 250 14:22 13.04.2020
4812 Rain 19 1013 37 10000 5.1 260 13:56 13.04.2020
4813 Rain 19 1014 39 10000 6.2 300 13:38 13.04.2020
4814 Rain 19 1014 39 10000 6.2 300 13:20 13.04.2020
4815 Rain 19 1014 39 10000 4.6 270 12:59 13.04.2020
4816 Rain 19 1014 39 10000 4.6 270 12:40 13.04.2020
4817 Rain 18 1014 39 10000 4.1 250 12:20 13.04.2020
4818 Rain 17 1014 45 10000 4.1 290 11:58 13.04.2020
4819 Rain 17 1014 45 10000 4.1 290 11:40 13.04.2020
4820 Rain 16 1014 42 10000 4.6 280 11:18 13.04.2020
4821 Rain 16 1014 45 10000 5.1 270 10:55 13.04.2020
4822 Rain 16 1014 45 10000 5.1 270 10:37 13.04.2020
4823 Rain 16 1014 42 10000 4.1 250 10:18 13.04.2020
4824 Rain 15 1014 48 10000 3.6 220 09:44 13.04.2020
4825 Clouds 13 1014 47 10000 3.1 240 09:26 13.04.2020
4826 Clouds 12 1014 58 10000 1 0 08:49 13.04.2020
4827 Clouds 11 1014 70 10000 1 110 08:30 13.04.2020
4828 Clouds 9 1013 70 10000 0.5 0 07:59 13.04.2020
4829 Clouds 9 1013 66 10000 2.6 220 07:39 13.04.2020
4830 Clouds 9 1013 66 10000 2.6 220 07:20 13.04.2020
4831 Clouds 9 1013 76 10000 3.1 210 06:47 13.04.2020
4832 Clouds 9 1014 76 10000 3.6 220 05:59 13.04.2020
4833 Clouds 9 1014 71 10000 4.6 220 05:30 13.04.2020
4834 Clouds 9 1014 71 10000 3.1 200 04:53 13.04.2020
4835 Clouds 10 1013 66 10000 2.1 160 04:23 13.04.2020
4836 Clouds 10 1014 62 10000 1.5 130 03:47 13.04.2020
4837 Rain 10 1014 66 10000 3.6 210 02:59 13.04.2020
4838 Clouds 10 1014 66 10000 3.1 250 02:25 13.04.2020
4839 Clouds 10 1014 62 10000 1.5 150 01:42 13.04.2020
4840 Clouds 10 1014 66 10000 1.5 0 01:23 13.04.2020
4841 Clouds 10 1014 54 10000 1 0 00:42 13.04.2020
4842 Rain 11 1014 50 10000 4.1 320 00:20 13.04.2020
4843 Rain 11 1014 47 10000 5.7 340 23:48 12.04.2020
4844 Rain 11 1014 41 10000 3.1 0 23:23 12.04.2020
4845 Rain 12 1014 36 10000 2.6 40 22:58 12.04.2020
4846 Rain 12 1014 66 10000 2.1 220 22:37 12.04.2020
4847 Rain 12 1014 66 10000 2.1 220 22:19 12.04.2020
4848 Rain 14 1014 47 10000 1 0 21:41 12.04.2020
4849 Rain 15 1014 38 10000 1 0 21:22 12.04.2020
4850 Rain 15 1014 38 10000 0.5 0 20:59 12.04.2020
4851 Rain 16 1014 38 10000 0.5 0 20:40 12.04.2020
4852 Rain 18 1014 39 10000 0.5 0 20:22 12.04.2020
4853 Rain 19 1014 29 10000 0.5 0 19:56 12.04.2020
4854 Rain 19 1014 29 10000 0.5 0 19:56 12.04.2020
4855 Rain 20 1014 32 10000 0.5 0 19:38 12.04.2020
4856 Rain 20 1014 32 10000 0.5 0 19:18 12.04.2020
4857 Rain 21 1014 68 10000 1.5 330 18:41 12.04.2020
4858 Clouds 21 1015 28 10000 3.1 220 18:23 12.04.2020
4859 Clouds 22 1015 28 10000 3.1 220 17:58 12.04.2020
4860 Clouds 22 1015 28 10000 3.1 220 17:40 12.04.2020
4861 Clouds 22 1015 28 10000 2.1 310 17:21 12.04.2020
4862 Clouds 22 1015 30 10000 3.1 310 16:58 12.04.2020
4863 Clouds 22 1016 24 10000 2.1 0 16:39 12.04.2020
4864 Clouds 22 1016 24 10000 2.1 0 16:20 12.04.2020
4865 Clouds 22 1016 28 10000 3.6 240 15:48 12.04.2020
4866 Clear 22 1016 28 10000 3.1 0 15:29 12.04.2020
4867 Clear 22 1017 32 10000 1.5 0 14:54 12.04.2020
4868 Clear 22 1017 32 10000 1.5 0 14:36 12.04.2020
4869 Clear 22 1017 28 10000 3.6 320 14:18 12.04.2020
4870 Clear 22 1017 28 10000 3.6 320 14:18 12.04.2020
4871 Clear 21 1018 30 10000 2.6 0 13:42 12.04.2020
4872 Clear 21 1018 31 10000 2.1 280 13:23 12.04.2020
4873 Clear 21 1018 31 10000 3.1 280 12:55 12.04.2020
4874 Clear 20 1019 40 10000 2.1 220 12:37 12.04.2020
4875 Clear 20 1019 40 10000 2.1 220 12:18 12.04.2020
4876 Clear 20 1019 39 10000 2.1 200 11:55 12.04.2020
4877 Clear 19 1019 39 10000 2.1 200 11:36 12.04.2020
4878 Clear 18 1019 45 10000 2.1 210 11:18 12.04.2020
4879 Clear 17 1019 51 10000 1.5 190 10:54 12.04.2020
4880 Clear 16 1019 51 10000 1.5 190 10:36 12.04.2020
4881 Clear 15 1020 54 10000 1.5 260 10:18 12.04.2020
4882 Clear 12 1020 58 10000 2.1 250 09:40 12.04.2020
4883 Clear 10 1020 66 10000 0.5 0 09:40 12.04.2020
4884 Clear 9 1020 70 10000 1 0 09:21 12.04.2020
4885 Clear 10 1020 62 10000 1 0 08:55 12.04.2020
4886 Clear 9 1020 62 10000 1 0 08:37 12.04.2020
4887 Clear 7 1020 81 10000 2.6 220 08:19 12.04.2020
4888 Clear 6 1020 81 10000 2.1 190 07:42 12.04.2020
4889 Clear 6 1020 81 10000 3.1 200 07:18 12.04.2020
4890 Clear 6 1020 75 10000 2.1 190 06:35 12.04.2020
4891 Clear 5 1020 80 10000 1.5 200 05:55 12.04.2020
4892 Clear 6 1020 80 10000 1.5 200 05:36 12.04.2020
4893 Clear 6 1021 80 10000 2.1 200 03:44 12.04.2020
4894 Clear 6 1021 80 10000 2.1 200 03:44 12.04.2020
4895 Clear 6 1021 86 10000 2.1 180 03:24 12.04.2020
4896 Clear 6 1021 86 10000 0.5 220 02:34 12.04.2020
4897 Clear 6 1022 86 10000 0.5 0 01:51 12.04.2020
4898 Clear 7 1022 70 10000 0.5 0 00:59 12.04.2020
4899 Clear 7 1022 70 10000 0.5 0 00:41 12.04.2020
4900 Clear 8 1022 81 10000 0.5 160 00:20 12.04.2020
4901 Clear 8 1022 81 10000 1 150 23:46 11.04.2020
4902 Clear 9 1022 75 10000 2.1 150 23:26 11.04.2020
4903 Clear 10 1022 70 10000 1.5 150 22:55 11.04.2020
4904 Clear 10 1022 70 10000 1.5 150 22:36 11.04.2020
4905 Clear 11 1022 66 10000 1.5 140 22:18 11.04.2020
4906 Clear 11 1022 58 10000 1 140 21:54 11.04.2020
4907 Clear 12 1022 54 10000 1 90 21:36 11.04.2020
4908 Clear 12 1022 54 10000 1 90 21:18 11.04.2020
4909 Clear 12 1022 54 10000 1 90 21:18 11.04.2020
4910 Clear 14 1022 47 10000 1.5 50 20:54 11.04.2020
4911 Clear 15 1022 47 10000 1.5 50 20:36 11.04.2020
4912 Clear 16 1022 41 10000 3.1 10 20:18 11.04.2020
4913 Clear 17 1022 39 10000 2.6 350 19:54 11.04.2020
4914 Clear 18 1022 39 10000 3.1 360 19:36 11.04.2020
4915 Clear 19 1022 39 10000 3.1 360 19:18 11.04.2020
4916 Clear 19 1022 37 10000 3.1 10 18:54 11.04.2020
4917 Clear 19 1022 37 10000 3.1 10 18:54 11.04.2020
4918 Clear 20 1022 34 10000 2.6 360 18:36 11.04.2020
4919 Clear 20 1022 34 10000 2.6 360 18:18 11.04.2020
4920 Clear 20 1022 34 10000 2.6 360 18:18 11.04.2020
4921 Clear 20 1022 34 10000 2.6 330 17:55 11.04.2020
4922 Clear 20 1022 34 10000 2.6 330 17:36 11.04.2020
4923 Clear 20 1022 37 10000 2.6 330 17:18 11.04.2020
4924 Clear 20 1022 37 10000 2.6 30 16:42 11.04.2020
4925 Clear 20 1022 37 10000 2.6 30 16:21 11.04.2020
4926 Clear 20 1023 37 10000 2.1 10 15:41 11.04.2020
4927 Clouds 20 1023 37 10000 2.1 0 15:21 11.04.2020
4928 Clouds 20 1023 36 10000 3.6 360 14:57 11.04.2020
4929 Clear 20 1023 36 10000 3.6 360 14:39 11.04.2020
4930 Clear 20 1023 36 10000 3.6 320 14:20 11.04.2020
4931 Clear 19 1024 39 10000 2.6 0 13:42 11.04.2020
4932 Clear 19 1024 39 10000 2.1 0 13:24 11.04.2020
4933 Clear 19 1024 39 10000 3.1 10 12:59 11.04.2020
4934 Clouds 17 1024 42 10000 2.6 20 12:37 11.04.2020
4935 Clouds 17 1024 42 10000 2.6 20 12:18 11.04.2020
4936 Clouds 17 1024 42 10000 3.1 20 11:43 11.04.2020
4937 Clouds 17 1024 48 10000 1.5 360 11:21 11.04.2020
4938 Clouds 16 1024 54 10000 1.5 20 10:57 11.04.2020
4939 Clouds 15 1024 54 10000 1.5 20 10:39 11.04.2020
4940 Clouds 13 1024 58 10000 1.5 20 10:21 11.04.2020
4941 Clouds 13 1024 62 10000 1 0 09:57 11.04.2020
4942 Clouds 12 1024 62 10000 1 0 09:38 11.04.2020
4943 Clouds 10 1024 76 10000 2.6 360 09:20 11.04.2020
4944 Clouds 8 1024 76 10000 2.1 230 08:43 11.04.2020
4945 Clouds 7 1024 87 10000 1.5 190 08:25 11.04.2020
4946 Clouds 5 1024 86 10000 2.1 200 07:49 11.04.2020
4947 Clouds 4 1023 86 10000 1 0 07:28 11.04.2020
4948 Clouds 4 1023 86 10000 1 0 06:47 11.04.2020
4949 Clouds 5 1023 86 10000 1.5 170 06:18 11.04.2020
4950 Clouds 5 1023 86 10000 0.5 0 04:35 11.04.2020
4951 Clear 6 1023 75 10000 1 190 03:40 11.04.2020
4952 Clear 7 1023 75 10000 1 190 01:55 11.04.2020
4953 Clear 8 1023 75 10000 1 190 01:23 11.04.2020
4954 Clear 8 1023 81 10000 1.5 160 00:44 11.04.2020
4955 Clear 9 1023 81 10000 1 180 00:19 11.04.2020
4956 Clear 9 1023 81 10000 0.43 40 23:57 10.04.2020
4957 Clear 10 1023 65 10000 1.5 180 23:38 10.04.2020
4958 Clear 10 1023 65 10000 1.5 180 23:19 10.04.2020
4959 Clear 10 1023 70 10000 0.5 0 22:44 10.04.2020
4960 Clear 12 1023 66 10000 1 150 22:22 10.04.2020
4961 Clear 12 1023 58 10000 0.5 130 21:58 10.04.2020
4962 Clear 13 1023 58 10000 0.5 130 21:40 10.04.2020
4963 Clear 14 1022 50 10000 1.25 38 21:20 10.04.2020
4964 Clear 15 1022 44 10000 1 360 20:55 10.04.2020
4965 Clear 17 1022 41 10000 2.6 10 20:37 10.04.2020
4966 Clear 17 1022 41 10000 2.6 10 20:18 10.04.2020
4967 Clear 18 1022 39 10000 3.1 360 19:54 10.04.2020
4968 Clear 19 1022 34 10000 3.6 360 19:36 10.04.2020
4969 Clear 19 1022 34 10000 3.6 360 19:18 10.04.2020
4970 Clear 20 1021 32 10000 3.6 350 18:54 10.04.2020
4971 Clear 20 1021 32 10000 3.6 350 18:36 10.04.2020
4972 Clear 21 1022 30 10000 3.6 350 18:18 10.04.2020
4973 Clear 21 1022 30 10000 3.1 360 17:55 10.04.2020
4974 Clear 21 1022 30 10000 4.1 360 17:37 10.04.2020
4975 Clear 21 1022 30 10000 4.1 360 17:18 10.04.2020
4976 Clear 21 1022 34 10000 5.1 330 16:41 10.04.2020
4977 Clear 21 1022 30 10000 2.6 10 16:22 10.04.2020
4978 Clear 21 1022 30 10000 1.5 0 15:58 10.04.2020
4979 Clear 21 1022 30 10000 1.5 0 15:38 10.04.2020
4980 Clouds 21 1023 30 10000 3.1 340 15:20 10.04.2020
4981 Clouds 21 1023 30 10000 3.6 30 14:58 10.04.2020
4982 Clouds 21 1023 30 10000 3.6 30 14:39 10.04.2020
4983 Clouds 21 1023 30 10000 3.6 30 14:39 10.04.2020
4984 Clear 21 1023 29 10000 3.6 340 14:20 10.04.2020
4985 Clear 20 1023 32 10000 3.1 350 13:45 10.04.2020
4986 Clear 20 1024 32 10000 2.6 350 13:23 10.04.2020
4987 Clear 20 1024 34 10000 2.6 350 12:56 10.04.2020
4988 Clear 19 1024 34 10000 1 0 12:37 10.04.2020
4989 Clear 19 1024 34 10000 1 0 12:19 10.04.2020
4990 Clear 18 1024 39 10000 1 0 11:43 10.04.2020
4991 Clear 17 1024 42 10000 1 0 11:24 10.04.2020
4992 Clear 16 1024 51 10000 0.5 0 10:58 10.04.2020
4993 Clear 16 1024 51 10000 0.5 0 10:39 10.04.2020
4994 Clear 14 1024 47 10000 0.5 0 10:19 10.04.2020
4995 Clear 12 1024 54 10000 1 240 09:43 10.04.2020
4996 Clear 12 1024 54 10000 1 240 09:43 10.04.2020
4997 Clear 10 1024 66 10000 1.5 230 09:22 10.04.2020
4998 Clear 8 1024 75 10000 2.1 230 08:50 10.04.2020
4999 Clear 5 1024 86 10000 1.5 220 08:27 10.04.2020
5000 Clear 5 1024 86 10000 2.1 190 07:58 10.04.2020
5001 Clear 4 1024 59 10000 1 200 07:40 10.04.2020
5002 Clear 4 1024 59 10000 1 200 07:21 10.04.2020
5003 Clear 4 1023 86 10000 0.5 0 06:39 10.04.2020
5004 Clear 4 1023 86 10000 0.5 0 06:21 10.04.2020
5005 Clear 5 1023 80 10000 1.5 160 05:33 10.04.2020
5006 Clear 5 1023 62 10000 2.1 170 04:57 10.04.2020
5007 Clear 5 1023 80 10000 2.1 190 03:37 10.04.2020
5008 Clear 6 1024 80 10000 2.1 160 02:59 10.04.2020
5009 Clear 6 1024 80 10000 1 170 02:38 10.04.2020
5010 Clear 6 1024 80 10000 1 170 02:19 10.04.2020
5011 Clear 7 1024 80 10000 2.6 180 01:29 10.04.2020
5012 Clear 8 1024 57 10000 2.1 170 00:49 10.04.2020
5013 Clear 9 1024 70 10000 2.1 170 00:22 10.04.2020
5014 Clear 9 1024 70 10000 2.1 170 23:44 09.04.2020
5015 Clear 9 1024 70 10000 1.5 160 23:26 09.04.2020
5016 Clear 10 1024 65 10000 2.1 170 22:59 09.04.2020
5017 Clear 11 1024 65 10000 2.1 170 22:41 09.04.2020
5018 Clear 11 1024 70 10000 1.5 150 22:22 09.04.2020
5019 Clear 12 1024 65 10000 2.1 170 21:45 09.04.2020
5020 Clear 14 1023 47 10000 1 200 21:26 09.04.2020
5021 Clear 14 1023 43 10000 1.16 10 20:59 09.04.2020
5022 Clear 15 1023 43 10000 1.16 10 20:40 09.04.2020
5023 Clear 17 1023 38 10000 1.5 350 20:20 09.04.2020
5024 Clear 18 1023 33 10000 2.6 340 19:56 09.04.2020
5025 Clear 18 1023 31 10000 2.6 340 19:36 09.04.2020
5026 Clear 19 1023 31 10000 2.6 340 19:18 09.04.2020
5027 Clear 20 1022 48 10000 2.1 340 18:41 09.04.2020
5028 Clear 20 1022 33 10000 2.1 330 18:18 09.04.2020
5029 Clear 20 1023 33 10000 3.1 340 17:40 09.04.2020
5030 Clear 21 1023 33 10000 3.1 340 17:22 09.04.2020
5031 Clear 21 1023 29 10000 3.6 290 16:56 09.04.2020
5032 Clear 21 1023 29 10000 3.6 290 16:56 09.04.2020
5033 Clear 21 1023 29 10000 3.6 290 16:37 09.04.2020
5034 Clear 21 1023 33 10000 2.1 300 16:18 09.04.2020
5035 Clear 20 1023 29 10000 3.6 10 15:54 09.04.2020
5036 Clear 21 1023 29 10000 3.6 10 15:36 09.04.2020
5037 Clear 21 1023 30 10000 2.1 290 15:36 09.04.2020
5038 Clear 21 1023 30 10000 2.1 290 15:18 09.04.2020
5039 Clear 20 1024 32 10000 3.1 360 14:39 09.04.2020
5040 Clear 20 1024 32 10000 3.1 360 14:20 09.04.2020
5041 Clear 21 1024 32 10000 2.6 0 13:43 09.04.2020
5042 Clear 20 1024 31 10000 1.5 0 13:25 09.04.2020
5043 Clear 20 1024 32 10000 1.5 0 12:59 09.04.2020
5044 Clear 20 1024 32 10000 1.5 0 12:41 09.04.2020
5045 Clear 18 1024 31 10000 1 0 12:21 09.04.2020
5046 Clear 18 1024 45 10000 2.1 220 11:57 09.04.2020
5047 Clear 17 1024 45 10000 2.1 220 11:38 09.04.2020
5048 Clear 16 1024 50 10000 2.6 220 11:20 09.04.2020
5049 Clear 16 1024 54 10000 3.6 220 10:56 09.04.2020
5050 Clear 14 1024 62 10000 3.1 210 10:37 09.04.2020
5051 Clear 14 1024 62 10000 3.1 210 10:18 09.04.2020
5052 Clear 12 1024 66 10000 2.1 220 09:55 09.04.2020
5053 Clear 10 1024 75 10000 3.1 210 09:37 09.04.2020
5054 Clear 9 1024 75 10000 3.1 210 09:19 09.04.2020
5055 Clear 8 1024 75 10000 3.1 210 08:42 09.04.2020
5056 Clear 6 1023 81 10000 2.1 210 08:23 09.04.2020
5057 Clear 5 1023 86 10000 3.1 210 07:51 09.04.2020
5058 Clear 5 1023 66 10000 2.1 190 07:23 09.04.2020
5059 Clear 5 1023 66 10000 2.1 200 06:51 09.04.2020
5060 Clear 5 1022 80 10000 2.1 200 05:56 09.04.2020
5061 Clear 5 1022 80 10000 1.5 210 05:37 09.04.2020
5062 Clouds 6 1023 75 10000 1.5 180 03:20 09.04.2020
5063 Clear 6 1023 80 10000 2.1 180 02:21 09.04.2020
5064 Clear 7 1023 80 10000 1.5 240 01:40 09.04.2020
5065 Clear 7 1023 65 10000 3.1 210 01:20 09.04.2020
5066 Clear 8 1023 61 10000 3.1 210 00:40 09.04.2020
5067 Clouds 8 1023 75 10000 1.5 180 00:19 09.04.2020
5068 Clouds 8 1023 75 10000 1.5 180 00:19 09.04.2020
5069 Clouds 8 1023 70 10000 2.1 170 23:56 08.04.2020
5070 Clouds 9 1023 70 10000 2.1 170 23:37 08.04.2020
5071 Clouds 9 1023 70 10000 1.5 200 23:19 08.04.2020
5072 Clouds 10 1023 70 10000 2.1 170 22:42 08.04.2020
5073 Clouds 10 1023 70 10000 2.1 170 22:24 08.04.2020
5074 Clouds 11 1023 66 10000 2.1 160 21:56 08.04.2020
5075 Clear 12 1023 53 10000 1 170 21:37 08.04.2020
5076 Clear 13 1023 53 10000 1 170 21:19 08.04.2020
5077 Clear 14 1023 41 10000 0.5 0 20:56 08.04.2020
5078 Clear 17 1023 33 10000 1.5 290 20:38 08.04.2020
5079 Clear 17 1023 33 10000 1.5 290 20:19 08.04.2020
5080 Clear 19 1023 32 10000 3.1 280 19:42 08.04.2020
5081 Clear 20 1023 28 10000 3.1 280 19:22 08.04.2020
5082 Clear 20 1023 28 10000 3.1 280 18:58 08.04.2020
5083 Clear 20 1023 26 10000 2.6 250 18:58 08.04.2020
5084 Clear 20 1023 26 10000 2.6 250 18:40 08.04.2020
5085 Clear 20 1023 26 10000 2.6 250 18:40 08.04.2020
5086 Clear 21 1023 26 10000 1 0 18:21 08.04.2020
5087 Clear 21 1022 30 10000 1.5 280 17:44 08.04.2020
5088 Clear 21 1023 40 10000 1.5 220 17:22 08.04.2020
5089 Clear 21 1023 40 10000 1.5 220 16:59 08.04.2020
5090 Clear 21 1023 40 10000 2.1 260 16:41 08.04.2020
5091 Clear 21 1023 40 10000 2.1 260 16:22 08.04.2020
5092 Clear 21 1024 32 10000 2.6 0 15:55 08.04.2020
5093 Clear 20 1024 32 10000 2.6 0 15:36 08.04.2020
5094 Clear 20 1024 34 10000 3.6 230 15:18 08.04.2020
5095 Clear 21 1024 34 10000 3.6 230 14:41 08.04.2020
5096 Clear 19 1025 32 10000 3.6 270 14:23 08.04.2020
5097 Clear 20 1025 34 10000 3.6 250 13:45 08.04.2020
5098 Clear 20 1025 34 10000 4.1 270 13:22 08.04.2020
5099 -273 0 0 0 0 0 13:00 08.04.2020
5100 Clear 19 1025 36 10000 4.6 240 12:41 08.04.2020
5101 Clear 17 1026 39 10000 4.6 260 12:18 08.04.2020
5102 Clear 17 1026 41 10000 3.1 260 11:55 08.04.2020
5103 Clear 16 1026 41 10000 3.1 260 11:37 08.04.2020
5104 Clear 16 1026 41 10000 1 0 11:19 08.04.2020
5105 Clear 16 1026 44 10000 0.5 0 10:55 08.04.2020
5106 Clear 14 1026 50 10000 0.5 0 10:37 08.04.2020
5107 Clear 14 1026 50 10000 0.5 0 10:18 08.04.2020
5108 Clear 11 1026 62 10000 0.5 0 09:42 08.04.2020
5109 Clear 8 1026 70 10000 1 0 09:20 08.04.2020
5110 Clear 8 1026 75 10000 1 0 08:59 08.04.2020
5111 Clear 7 1026 75 10000 1 0 08:41 08.04.2020
5112 Clear 5 1026 86 10000 1 180 08:21 08.04.2020
5113 Clear 3 1026 86 10000 1.5 200 07:43 08.04.2020
5114 Clear 3 1026 86 10000 1.5 200 07:23 08.04.2020
5115 Clear 3 1026 80 10000 2.1 170 06:55 08.04.2020
5116 Clear 4 1026 80 10000 1.5 220 05:56 08.04.2020
5117 Clear 6 1026 75 10000 0.5 0 03:34 08.04.2020
5118 Clear 7 1026 80 10000 1 50 02:49 08.04.2020
5119 Clear 7 1027 70 10000 1.32 96 02:19 08.04.2020
5120 Clear 7 1027 70 10000 1 0 01:43 08.04.2020
5121 Clear 8 1027 70 10000 1 0 01:22 08.04.2020
5122 Clear 8 1027 70 10000 1.32 96 00:41 08.04.2020
5123 Clear 9 1027 61 10000 0.5 150 00:21 08.04.2020
5124 Clear 10 1027 46 10000 2.6 90 23:39 07.04.2020
5125 Clear 10 1027 46 10000 2.6 90 23:20 07.04.2020
5126 Clear 10 1027 46 10000 2.6 100 22:57 07.04.2020
5127 Clear 10 1027 46 10000 2.6 100 22:57 07.04.2020
5128 Clear 11 1027 46 10000 2.1 70 22:39 07.04.2020
5129 Clear 12 1027 46 10000 2.1 70 22:19 07.04.2020
5130 Clear 12 1027 63 10000 2.6 70 21:56 07.04.2020
5131 Clear 12 1027 63 10000 2.6 70 21:56 07.04.2020
5132 Clear 13 1027 58 10000 2.6 70 21:38 07.04.2020
5133 Clear 14 1027 60 10000 2.6 70 21:19 07.04.2020
5134 Clear 15 1027 60 10000 3.1 60 20:56 07.04.2020
5135 Clear 16 1027 60 10000 3.1 60 20:37 07.04.2020
5136 Clear 16 1027 60 10000 3.1 60 20:19 07.04.2020
5137 Clear 17 1027 60 10000 4.1 50 19:56 07.04.2020
5138 Clear 18 1027 31 10000 5.1 50 19:36 07.04.2020
5139 Clear 19 1027 31 10000 5.1 50 19:18 07.04.2020
5140 Clear 19 1027 29 10000 5.1 30 18:54 07.04.2020
5141 Clear 19 1027 29 10000 6.2 40 18:36 07.04.2020
5142 Clear 20 1027 29 10000 5.7 40 18:18 07.04.2020
5143 Clear 20 1027 32 10000 5.7 40 17:44 07.04.2020
5144 Clear 20 1027 32 10000 5.7 40 17:20 07.04.2020
5145 Clear 21 1028 28 10000 3.6 60 16:46 07.04.2020
5146 Clear 21 1028 39 10000 3.6 50 16:27 07.04.2020
5147 Clear 21 1028 39 10000 3.6 50 15:56 07.04.2020
5148 Clear 21 1028 25 10000 4.6 10 15:38 07.04.2020
5149 Clear 21 1029 28 10000 4.6 20 15:19 07.04.2020
5150 Clear 20 1029 28 10000 4.6 20 14:41 07.04.2020
5151 Clear 20 1029 29 10000 4.6 40 14:22 07.04.2020
5152 Clear 20 1029 37 10000 5.7 30 13:57 07.04.2020
5153 Clear 20 1029 37 10000 5.1 70 13:37 07.04.2020
5154 Clear 20 1029 37 10000 5.1 70 13:18 07.04.2020
5155 Clear 19 1030 37 10000 5.7 30 12:55 07.04.2020
5156 Clear 17 1030 31 10000 4.6 30 12:36 07.04.2020
5157 Clear 18 1030 31 10000 4.6 30 12:18 07.04.2020
5158 Clear 17 1030 34 10000 4.1 40 11:42 07.04.2020
5159 Clear 16 1030 38 10000 1.5 340 11:24 07.04.2020
5160 Clear 16 1030 47 10000 0.5 0 10:58 07.04.2020
5161 Clear 15 1030 47 10000 0.5 0 10:37 07.04.2020
5162 Clear 13 1030 50 10000 1 0 10:19 07.04.2020
5163 Clear 11 1030 62 10000 2.1 220 09:45 07.04.2020
5164 Clear 9 1030 66 10000 1.5 220 09:18 07.04.2020
5165 Clear 6 1030 70 10000 2.1 210 08:55 07.04.2020
5166 Clear 5 1030 70 10000 2.1 210 08:36 07.04.2020
5167 Clear 4 1029 80 10000 2.1 220 08:18 07.04.2020
5168 Clear 3 1029 86 10000 2.1 210 07:40 07.04.2020
5169 Clear 3 1029 86 10000 3.1 220 07:21 07.04.2020
5170 Clear 3 1028 74 10000 3.1 210 06:51 07.04.2020
5171 Clear 4 1028 73 10000 1.5 190 06:23 07.04.2020
5172 Clear 4 1028 73 10000 2.1 170 05:43 07.04.2020
5173 Clear 4 1028 80 10000 1.5 200 05:22 07.04.2020
5174 Clear 4 1027 69 10000 1.5 190 03:32 07.04.2020
5175 Clear 5 1027 80 10000 2.1 190 02:59 07.04.2020
5176 Clear 5 1027 72 10000 1.5 180 01:58 07.04.2020
5177 Clear 6 1027 72 10000 2.6 160 01:32 07.04.2020
5178 Clear 7 1026 75 10000 1 210 00:44 07.04.2020
5179 Clear 7 1026 65 10000 2.6 220 00:25 07.04.2020
5180 Clear 8 1026 61 10000 1.5 170 23:39 06.04.2020
5181 Clear 8 1026 61 10000 1.5 170 23:20 06.04.2020
5182 Clear 9 1025 61 10000 0.5 290 22:41 06.04.2020
5183 Clear 9 1025 61 10000 0.5 0 22:23 06.04.2020
5184 Clear 10 1025 57 10000 1 150 21:59 06.04.2020
5185 Clear 11 1025 58 10000 0.68 12 21:40 06.04.2020
5186 Clear 12 1025 61 10000 0.95 14 21:19 06.04.2020
5187 Clear 13 1025 61 10000 1 50 20:56 06.04.2020
5188 Clear 14 1025 61 10000 1 50 20:38 06.04.2020
5189 Clear 16 1024 31 10000 2.6 340 20:19 06.04.2020
5190 Clear 16 1024 61 10000 3.6 340 19:56 06.04.2020
5191 Clear 18 1024 27 10000 3.1 340 19:38 06.04.2020
5192 Clear 18 1024 27 10000 3.1 340 19:19 06.04.2020
5193 Clear 18 1024 27 10000 3.1 340 19:19 06.04.2020
5194 Clear 19 1023 25 10000 2.6 340 18:42 06.04.2020
5195 Clear 20 1023 39 10000 3.1 350 18:23 06.04.2020
5196 Clear 20 1023 25 10000 3.6 340 17:57 06.04.2020
5197 Clear 20 1023 25 10000 2.6 340 17:38 06.04.2020
5198 Clear 20 1023 25 10000 2.6 340 17:18 06.04.2020
5199 Clear 20 1023 25 10000 2.6 0 16:47 06.04.2020
5200 Clear 20 1023 25 10000 2.6 0 16:47 06.04.2020
5201 Clear 20 1023 29 10000 3.1 340 16:29 06.04.2020
5202 Clear 19 1024 29 10000 1.5 0 14:47 06.04.2020
5203 Clear 19 1024 29 10000 1.5 0 14:46 06.04.2020
5204 Clear 20 1024 29 10000 1.5 0 14:46 06.04.2020
5205 Clear 20 1024 29 10000 1.5 0 14:46 06.04.2020
5206 Clear 19 1024 29 10000 1.5 0 14:46 06.04.2020
5207 Clear 19 1024 31 10000 3.1 290 13:44 06.04.2020
5208 Clear 19 1024 34 10000 2.1 230 13:22 06.04.2020
5209 Clear 19 1024 34 10000 2.1 230 13:22 06.04.2020
5210 Clear 18 1024 33 10000 2.6 0 12:46 06.04.2020
5211 Clear 18 1024 33 10000 2.6 0 12:46 06.04.2020
5212 Clear 18 1024 33 10000 2.6 0 12:46 06.04.2020
5213 Clear 18 1024 33 10000 2.6 0 12:46 06.04.2020
5214 Clear 18 1024 33 10000 2.6 0 12:46 06.04.2020
5215 Clear 17 1024 41 10000 3.1 260 12:19 06.04.2020
5216 Clear 16 1024 38 10000 4.1 230 11:40 06.04.2020
5217 Clear 14 1024 38 10000 4.6 250 11:02 06.04.2020
5218 Clear 14 1024 38 10000 4.6 250 11:02 06.04.2020
5219 Clear 15 1024 38 10000 4.6 250 11:02 06.04.2020
5220 Clear 15 1024 38 10000 4.6 250 11:02 06.04.2020
5221 Clear 15 1024 38 10000 4.6 250 11:02 06.04.2020
5222 Clear 14 1023 43 10000 4.1 220 10:37 06.04.2020
5223 Clear 13 1023 46 10000 4.6 220 10:19 06.04.2020
5224 Clear 13 1023 46 10000 4.6 220 10:19 06.04.2020
5225 Clear 13 1023 46 10000 4.6 220 10:19 06.04.2020
5226 Clear 13 1023 46 10000 4.6 220 10:19 06.04.2020
5227 Clear 11 1023 61 10000 3.6 210 09:39 06.04.2020
5228 Clear 11 1023 61 10000 3.6 210 09:39 06.04.2020
5229 Clear 6 1023 70 10000 2.6 200 09:19 06.04.2020
5230 Clear 4 1022 86 10000 2.6 220 08:43 06.04.2020
5231 Clear 5 1022 86 10000 2.6 220 08:43 06.04.2020
5232 Clear 5 1022 86 10000 2.6 220 08:43 06.04.2020
5233 Clear 5 1022 86 10000 2.6 220 08:43 06.04.2020
5234 Clear 5 1022 86 10000 2.6 220 08:43 06.04.2020
5235 Clear 3 1022 63 10000 1.5 180 08:23 06.04.2020
5236 Clear 1 1021 63 10000 3.1 210 07:23 06.04.2020
5237 Clear 1 1021 63 10000 3.1 210 07:23 06.04.2020
5238 Clear 1 1021 63 10000 3.1 210 07:23 06.04.2020
5239 Clear 1 1021 63 10000 3.1 210 07:23 06.04.2020
5240 Clear 1 1021 74 10000 1 0 06:27 06.04.2020
5241 Clear 1 1020 92 10000 1 0 05:51 06.04.2020
5242 Clear 2 1020 86 10000 1.5 140 03:57 06.04.2020
5243 Clear 3 1020 71 10000 1 150 02:52 06.04.2020
5244 Clear 5 1020 80 10000 1.5 150 01:56 06.04.2020
5245 Clear 4 1020 80 10000 1.5 150 01:56 06.04.2020
5246 Clear 5 1020 80 10000 1 0 00:55 06.04.2020
5247 Clear 6 1020 71 10000 1 0 00:28 06.04.2020
5248 Clear 7 1020 69 10000 1.5 70 00:28 06.04.2020
5249 Clear 7 1020 49 10000 4.1 80 23:55 05.04.2020
5250 Clear 7 1020 69 10000 0.5 0 23:37 05.04.2020
5251 Clear 7 1020 56 10000 0.5 0 23:19 05.04.2020
5252 Clear 8 1020 69 10000 2.1 80 22:54 05.04.2020
5253 Clear 8 1020 69 10000 2.1 80 22:36 05.04.2020
5254 Clear 9 1020 69 10000 2.1 90 22:18 05.04.2020
5255 Clear 9 1020 69 10000 3.6 80 21:41 05.04.2020
5256 Clear 11 1020 60 10000 3.1 70 21:23 05.04.2020
5257 Clear 12 1020 64 10000 3.6 70 20:24 05.04.2020
5258 Clear 12 1020 64 10000 3.6 70 20:24 05.04.2020
5259 Clear 14 1020 64 10000 4.6 70 19:43 05.04.2020
5260 Clear 15 1020 64 10000 4.1 70 19:24 05.04.2020
5261 Clear 16 1020 64 10000 5.1 50 18:49 05.04.2020
5262 Clear 16 1020 43 10000 5.1 50 18:18 05.04.2020
5263 Clear 17 1021 31 10000 5.7 50 17:49 05.04.2020
5264 Clear 17 1021 31 10000 5.7 50 17:49 05.04.2020
5265 Clear 17 1021 31 10000 5.7 50 17:49 05.04.2020
5266 Clear 17 1021 31 10000 5.7 50 17:49 05.04.2020
5267 Clear 17 1021 31 10000 6.7 40 17:22 05.04.2020
5268 Clear 17 1021 43 10000 5.1 50 16:47 05.04.2020
5269 Clear 17 1021 43 10000 5.1 50 16:47 05.04.2020
5270 Clear 17 1021 43 10000 5.1 50 16:47 05.04.2020
5271 Clear 17 1021 31 10000 5.7 50 16:19 05.04.2020
5272 Clear 16 1022 43 10000 5.1 40 15:46 05.04.2020
5273 Clear 16 1022 39 10000 4.6 80 15:27 05.04.2020
5274 Clear 16 1022 39 10000 4.6 80 15:27 05.04.2020
5275 Clear 15 1022 33 10000 5.1 70 14:48 05.04.2020
5276 Clear 15 1022 33 10000 5.1 70 14:48 05.04.2020
5277 Clear 15 1022 33 10000 5.1 70 14:48 05.04.2020
5278 Clear 15 1022 33 10000 5.1 70 14:48 05.04.2020
5279 Clear 15 1023 40 10000 5.1 70 13:59 05.04.2020
5280 Clear 15 1023 40 10000 5.1 70 13:40 05.04.2020
5281 Clear 15 1023 40 10000 5.1 70 13:40 05.04.2020
5282 Clear 15 1023 40 10000 5.1 70 13:40 05.04.2020
5283 Clear 15 1023 40 10000 5.1 70 13:40 05.04.2020
5284 Clear 15 1023 40 10000 5.1 70 13:40 05.04.2020
5285 Clear 11 1024 40 10000 3.6 70 12:21 05.04.2020
5286 Clear 12 1024 46 10000 4.1 80 11:40 05.04.2020
5287 Clear 11 1024 46 10000 3.6 80 11:20 05.04.2020
5288 Clear 10 1024 52 10000 3.6 80 10:47 05.04.2020
5289 Clear 10 1024 46 10000 3.6 90 10:23 05.04.2020
5290 Clear 10 1024 52 10000 3.6 80 10:23 05.04.2020
5291 Clear 8 1024 46 10000 5.1 70 09:55 05.04.2020
5292 Clear 7 1024 46 10000 5.1 70 09:27 05.04.2020
5293 Clear 3 1024 74 10000 3.1 80 08:34 05.04.2020
5294 Clear 3 1024 74 10000 3.1 80 08:34 05.04.2020
5295 Clear 4 1024 74 10000 3.1 80 08:34 05.04.2020
5296 Clear 1 1023 92 10000 2.1 100 07:21 05.04.2020
5297 Clear 2 1023 74 10000 1 0 04:32 05.04.2020
5298 Clear 3 1024 74 10000 2.1 60 03:29 05.04.2020
5299 Clear 3 1024 74 10000 2.1 60 03:29 05.04.2020
5300 Clear 3 1023 73 10000 1.5 80 02:46 05.04.2020
5301 Clear 3 1024 74 10000 0.5 0 01:45 05.04.2020
5302 Clear 4 1024 69 10000 1.5 80 01:23 05.04.2020
5303 Clear 5 1024 65 10000 2.1 80 00:42 05.04.2020
5304 Clear 5 1024 56 10000 2.6 90 00:21 05.04.2020
5305 Clear 5 1024 56 10000 2.6 80 23:42 04.04.2020
5306 Clear 6 1024 56 10000 2.6 80 23:23 04.04.2020
5307 Clear 6 1024 56 10000 2.6 80 22:57 04.04.2020
5308 Clear 7 1024 56 10000 3.1 70 22:39 04.04.2020
5309 Clear 7 1024 56 10000 1.5 40 22:21 04.04.2020
5310 Clear 7 1024 49 10000 2.6 60 21:58 04.04.2020
5311 Clear 7 1024 49 10000 2.6 60 21:39 04.04.2020
5312 Clouds 8 1023 45 10000 2.6 60 21:19 04.04.2020
5313 Clear 8 1023 45 10000 2.6 60 20:58 04.04.2020
5314 Clouds 9 1023 45 10000 3.1 60 20:39 04.04.2020
5315 Clouds 10 1022 46 10000 3.6 60 20:20 04.04.2020
5316 Clear 11 1022 43 10000 4.1 50 19:57 04.04.2020
5317 Clouds 11 1022 43 10000 4.1 50 19:37 04.04.2020
5318 Clear 12 1022 40 10000 4.6 50 19:19 04.04.2020
5319 Clouds 12 1022 40 10000 4.6 50 19:19 04.04.2020
5320 Clouds 13 1022 37 10000 4.6 70 18:55 04.04.2020
5321 Clear 13 1022 37 10000 4.6 70 18:37 04.04.2020
5322 Clouds 14 1022 35 10000 4.6 40 18:18 04.04.2020
5323 Clouds 14 1022 37 10000 4.6 50 17:41 04.04.2020
5324 Clouds 14 1022 37 10000 4.6 50 17:41 04.04.2020
5325 Clouds 14 1022 37 10000 4.6 30 17:20 04.04.2020
5326 Clouds 14 1022 35 10000 5.1 30 16:59 04.04.2020
5327 Clouds 14 1022 35 10000 5.1 30 16:41 04.04.2020
5328 Clouds 14 1022 37 10000 4.6 40 16:22 04.04.2020
5329 Clouds 14 1022 37 10000 3.6 20 15:55 04.04.2020
5330 Clouds 14 1022 37 10000 3.6 20 15:36 04.04.2020
5331 Clear 14 1022 40 10000 4.6 50 15:18 04.04.2020
5332 Clear 14 1022 35 10000 4.1 30 14:42 04.04.2020
5333 Clear 14 1022 37 10000 3.6 0 14:22 04.04.2020
5334 Clear 13 1022 37 10000 3.6 0 13:56 04.04.2020
5335 Clear 13 1022 40 10000 3.1 20 13:37 04.04.2020
5336 Clear 13 1023 39 10000 1 0 13:19 04.04.2020
5337 Clear 13 1023 43 10000 3.1 50 12:44 04.04.2020
5338 Clear 11 1023 39 10000 2.1 0 12:24 04.04.2020
5339 Clear 11 1023 49 10000 2.1 0 11:59 04.04.2020
5340 Clear 11 1023 49 10000 2.6 0 11:38 04.04.2020
5341 Clear 11 1023 53 10000 2.6 100 11:19 04.04.2020
5342 Clear 11 1023 53 10000 2.6 100 10:56 04.04.2020
5343 Clear 9 1023 57 10000 3.1 80 10:38 04.04.2020
5344 Clear 9 1022 61 10000 2.6 40 10:19 04.04.2020
5345 Clear 8 1022 61 10000 2.6 40 09:55 04.04.2020
5346 Clear 7 1022 65 10000 2.1 20 09:36 04.04.2020
5347 Clouds 5 1022 75 10000 0.57 195 09:18 04.04.2020
5348 Clouds 3 1022 86 10000 0.5 0 08:42 04.04.2020
5349 Clouds 1 1021 71 10000 1.5 180 08:21 04.04.2020
5350 Clouds 1 1021 92 10000 2.1 160 07:47 04.04.2020
5351 Clouds 1 1021 100 10000 1.5 150 07:27 04.04.2020
5352 Clouds 1 1021 86 10000 2.1 200 06:57 04.04.2020
5353 Clouds 2 1020 86 10000 0.5 0 06:20 04.04.2020
5354 Clouds 2 1020 77 10000 0.96 228 05:43 04.04.2020
5355 Clouds 3 1020 77 10000 1 0 05:24 04.04.2020
5356 Clouds 3 1020 77 10000 1 220 04:33 04.04.2020
5357 Clouds 3 1020 77 10000 1.5 160 03:55 04.04.2020
5358 Clouds 3 1020 77 10000 1.5 160 03:27 04.04.2020
5359 Clouds 4 1020 75 10000 1 220 02:40 04.04.2020
5360 Clouds 3 1020 75 10000 1.5 190 02:22 04.04.2020
5361 Clouds 3 1020 75 10000 1.5 220 01:27 04.04.2020
5362 Clouds 3 1020 75 10000 1.5 210 00:55 04.04.2020
5363 Clouds 3 1020 75 10000 1.5 180 00:30 04.04.2020
5364 Clouds 3 1020 72 10000 1 230 23:56 03.04.2020
5365 Clouds 4 1019 86 10000 1.5 190 23:37 03.04.2020
5366 Clouds 4 1019 74 10000 1 190 23:18 03.04.2020
5367 Clouds 5 1019 69 10000 0.5 160 22:40 03.04.2020
5368 Clouds 5 1019 64 10000 0.43 181 22:19 03.04.2020
5369 Clouds 6 1018 60 10000 1 340 21:56 03.04.2020
5370 Clouds 6 1018 60 10000 1 340 21:56 03.04.2020
5371 Clouds 6 1018 60 10000 1 340 21:37 03.04.2020
5372 Clouds 7 1018 52 10000 1.5 330 21:19 03.04.2020
5373 Clouds 8 1017 49 10000 2.1 340 20:55 03.04.2020
5374 Clouds 8 1017 49 10000 2.1 340 20:36 03.04.2020
5375 Clouds 9 1017 49 10000 2.6 340 20:18 03.04.2020
5376 Clouds 9 1016 45 10000 4.6 350 19:54 03.04.2020
5377 Clouds 10 1016 45 10000 4.6 350 19:36 03.04.2020
5378 Clouds 11 1016 39 10000 4.1 340 19:18 03.04.2020
5379 Clouds 11 1016 34 10000 4.6 310 18:56 03.04.2020
5380 Clouds 11 1016 34 10000 4.6 310 18:38 03.04.2020
5381 Clouds 12 1015 34 10000 4.1 300 18:20 03.04.2020
5382 Clouds 12 1015 34 10000 4.6 300 17:41 03.04.2020
5383 Clouds 12 1015 32 10000 6.2 300 17:19 03.04.2020
5384 Clouds 12 1015 32 10000 6.2 300 16:55 03.04.2020
5385 Clouds 12 1015 34 10000 6.2 290 16:36 03.04.2020
5386 Clouds 12 1015 37 10000 5.1 290 16:18 03.04.2020
5387 Clouds 12 1015 34 10000 5.1 290 15:55 03.04.2020
5388 Clouds 12 1015 37 10000 5.1 270 15:36 03.04.2020
5389 Clouds 12 1015 34 10000 4.1 270 15:18 03.04.2020
5390 Clouds 12 1016 40 10000 6.7 260 14:40 03.04.2020
5391 Clouds 12 1016 40 10000 6.7 260 14:22 03.04.2020
5392 Clouds 11 1016 40 10000 6.7 260 13:54 03.04.2020
5393 Clouds 11 1015 45 10000 5.7 250 13:36 03.04.2020
5394 Clouds 11 1016 45 10000 5.1 280 13:18 03.04.2020
5395 Clouds 10 1016 45 10000 4.1 270 12:42 03.04.2020
5396 Clouds 10 1016 49 10000 4.1 250 12:20 03.04.2020
5397 Clouds 10 1015 49 10000 4.1 280 11:56 03.04.2020
5398 Clouds 10 1015 49 10000 4.1 280 11:37 03.04.2020
5399 Clouds 9 1015 52 10000 3.1 250 11:18 03.04.2020
5400 Clouds 8 1015 56 10000 2.1 280 10:57 03.04.2020
5401 Clouds 8 1015 56 10000 2.1 280 10:38 03.04.2020
5402 Clouds 7 1015 52 10000 3.1 260 10:20 03.04.2020
5403 Clouds 6 1015 52 10000 3.1 260 09:57 03.04.2020
5404 Clouds 6 1015 56 10000 3.6 240 09:39 03.04.2020
5405 Clouds 4 1015 60 10000 3.1 250 09:21 03.04.2020
5406 Clouds 3 1015 60 10000 3.1 250 08:55 03.04.2020
5407 Clouds 2 1014 74 10000 3.1 230 08:37 03.04.2020
5408 Clouds 1 1014 74 10000 2.6 230 08:18 03.04.2020
5409 Clouds 1 1014 74 10000 2.6 250 07:46 03.04.2020
5410 Clouds 1 1013 74 10000 3.1 240 07:27 03.04.2020
5411 Clouds 0 1013 74 10000 4.1 220 06:40 03.04.2020
5412 Clouds 0 1013 74 10000 3.1 220 06:21 03.04.2020
5413 Clouds 1 1012 69 10000 3.1 230 05:34 03.04.2020
5414 Clouds 1 1012 74 10000 4.1 230 03:40 03.04.2020
5415 Clouds 1 1012 86 10000 4.1 220 02:55 03.04.2020
5416 Clouds 0 1011 75 10000 4.6 230 02:18 03.04.2020
5417 Clouds 1 1011 79 10000 2.6 220 01:20 03.04.2020
5418 Clouds 2 1011 75 10000 1.5 0 00:34 03.04.2020
5419 Clear 2 1010 80 10000 1 0 23:58 02.04.2020
5420 Clear 2 1010 80 10000 1 0 23:39 02.04.2020
5421 Clear 2 1010 80 10000 1 0 23:39 02.04.2020
5422 Clear 2 1010 80 10000 1 0 23:39 02.04.2020
5423 Clear 3 1010 68 10000 1.5 200 23:21 02.04.2020
5424 Clear 3 1010 69 10000 2.1 180 22:57 02.04.2020
5425 Clear 4 1010 69 10000 2.1 180 22:37 02.04.2020
5426 Clear 4 1010 74 10000 2.1 150 22:18 02.04.2020
5427 Clear 5 1010 74 10000 2.1 170 21:39 02.04.2020
5428 Clear 6 1010 56 10000 1.5 150 21:19 02.04.2020
5429 Clear 6 1010 56 10000 1.5 150 20:58 02.04.2020
5430 Clear 6 1010 42 10000 1 0 20:58 02.04.2020
5431 Clear 7 1010 42 10000 1 0 20:40 02.04.2020
5432 Clear 9 1009 34 10000 2.1 290 20:21 02.04.2020
5433 Clear 10 1009 31 10000 2.6 310 19:44 02.04.2020
5434 Clear 12 1009 29 10000 3.6 310 19:21 02.04.2020
5435 Clear 12 1009 27 10000 3.6 290 18:58 02.04.2020
5436 Clear 12 1009 27 10000 3.6 290 18:39 02.04.2020
5437 Clear 12 1009 27 10000 3.6 290 18:39 02.04.2020
5438 Clear 12 1009 27 10000 3.6 290 18:20 02.04.2020
5439 Clear 13 1009 27 10000 2.6 300 17:56 02.04.2020
5440 Clear 13 1009 27 10000 2.6 300 17:38 02.04.2020
5441 Clear 13 1010 27 10000 3.6 280 17:20 02.04.2020
5442 Clear 13 1010 27 10000 3.6 280 16:55 02.04.2020
5443 Clear 13 1010 25 10000 3.6 280 16:37 02.04.2020
5444 Clear 13 1010 27 10000 3.6 270 16:19 02.04.2020
5445 Clear 13 1010 25 10000 2.6 0 15:54 02.04.2020
5446 Clear 12 1010 25 10000 2.6 0 15:36 02.04.2020
5447 Clear 12 1011 27 10000 3.1 280 15:18 02.04.2020
5448 Clear 12 1011 25 10000 3.1 330 14:40 02.04.2020
5449 Clear 12 1011 25 10000 3.1 330 14:40 02.04.2020
5450 Clear 12 1011 29 10000 3.1 210 14:20 02.04.2020
5451 Clear 11 1012 29 10000 3.6 210 13:58 02.04.2020
5452 Clear 11 1012 29 10000 3.6 210 13:39 02.04.2020
5453 Clear 11 1012 29 10000 2.6 0 13:21 02.04.2020
5454 Clear 10 1012 34 10000 1.5 0 12:56 02.04.2020
5455 Clear 10 1012 34 10000 1.5 0 12:38 02.04.2020
5456 Clear 10 1012 39 10000 1.5 0 12:19 02.04.2020
5457 Clear 9 1012 39 10000 1.5 0 12:19 02.04.2020
5458 Clear 9 1012 39 10000 1.5 0 11:57 02.04.2020
5459 Clear 9 1013 36 10000 1 0 11:38 02.04.2020
5460 Clear 8 1013 48 10000 1.5 230 11:19 02.04.2020
5461 Clear 8 1013 48 10000 1.5 230 10:55 02.04.2020
5462 Clear 6 1013 60 10000 1 0 10:37 02.04.2020
5463 Clear 6 1013 60 10000 1 0 10:37 02.04.2020
5464 Clear 4 1013 60 10000 1 0 10:19 02.04.2020
5465 Clear 3 1014 60 10000 1 0 09:55 02.04.2020
5466 Clear 2 1013 74 10000 0.76 225 09:37 02.04.2020
5467 Clear 0 1013 72 10000 0.5 0 09:18 02.04.2020
5468 Clear -1 1013 80 10000 1 190 08:45 02.04.2020
5469 Clear -2 1013 80 10000 1 190 08:26 02.04.2020
5470 Clear -4 1013 92 10000 0.5 0 07:45 02.04.2020
5471 Clear -4 1013 92 10000 2.1 210 07:20 02.04.2020
5472 Clear -4 1013 92 10000 2.1 210 06:58 02.04.2020
5473 Clear -4 1013 85 10000 1.5 190 06:22 02.04.2020
5474 Clear -4 1013 85 10000 2.1 210 05:45 02.04.2020
5475 Clear -3 1013 86 10000 2.1 190 04:35 02.04.2020
5476 Clear -2 1014 85 10000 0.5 130 01:52 02.04.2020
5477 Clear -2 1015 79 10000 0.5 150 00:51 02.04.2020
5478 Clear -2 1015 79 10000 0.5 150 00:29 02.04.2020
5479 Clear -1 1015 79 10000 0.5 120 23:57 01.04.2020
5480 Clear -1 1016 74 10000 0.5 40 23:37 01.04.2020
5481 Clear -1 1015 79 10000 1 0 23:18 01.04.2020
5482 Clear 0 1015 79 10000 1.15 135 22:41 01.04.2020
5483 Clear 0 1015 74 10000 1 140 22:22 01.04.2020
5484 Clear 1 1015 68 10000 1 130 21:58 01.04.2020
5485 Clear 1 1015 68 10000 1 130 21:39 01.04.2020
5486 Clouds 2 1015 51 10000 1 50 21:19 01.04.2020
5487 Clouds 2 1015 51 10000 1 50 20:56 01.04.2020
5488 Clouds 4 1015 44 10000 2.1 10 20:38 01.04.2020
5489 Clouds 5 1015 44 10000 3.1 30 20:19 01.04.2020
5490 Clouds 6 1015 41 10000 3.6 20 19:57 01.04.2020
5491 Clouds 7 1015 41 10000 3.6 20 19:37 01.04.2020
5492 Clouds 7 1015 41 10000 3.6 20 19:37 01.04.2020
5493 Clouds 8 1015 39 10000 3.6 10 19:19 01.04.2020
5494 Clouds 8 1015 36 10000 3.6 10 18:42 01.04.2020
5495 Clear 8 1015 36 10000 3.6 10 18:22 01.04.2020
5496 Clear 9 1015 36 10000 3.6 360 17:57 01.04.2020
5497 Clear 9 1015 36 10000 3.6 360 17:37 01.04.2020
5498 Clear 9 1016 36 10000 3.6 20 17:19 01.04.2020
5499 Clear 9 1016 36 10000 3.6 20 16:57 01.04.2020
5500 Clear 9 1016 36 10000 4.6 10 16:39 01.04.2020
5501 Clear 9 1016 36 10000 4.6 10 16:20 01.04.2020
5502 Clear 9 1017 39 10000 4.6 30 15:56 01.04.2020
5503 Clear 8 1017 39 10000 4.6 30 15:37 01.04.2020
5504 Clear 8 1017 39 10000 4.1 20 15:18 01.04.2020
5505 Clear 8 1017 42 10000 3.6 10 14:40 01.04.2020
5506 Clear 8 1018 41 10000 3.1 60 14:22 01.04.2020
5507 Clear 8 1018 41 10000 3.1 60 13:59 01.04.2020
5508 Clear 7 1018 41 10000 3.6 30 13:40 01.04.2020
5509 Clear 6 1019 41 10000 3.1 50 13:20 01.04.2020
5510 Clear 6 1019 41 10000 3.1 50 13:20 01.04.2020
5511 Clear 7 1019 41 10000 3.1 50 12:59 01.04.2020
5512 Clear 6 1019 44 10000 3.6 70 12:41 01.04.2020
5513 Clear 5 1019 44 10000 3.6 100 12:22 01.04.2020
5514 Clear 5 1020 44 10000 4.6 60 11:59 01.04.2020
5515 Clear 5 1020 44 10000 4.6 60 11:39 01.04.2020
5516 Clear 4 1020 47 10000 2.6 80 11:20 01.04.2020
5517 Clear 3 1020 51 10000 3.1 90 10:41 01.04.2020
5518 Clear 3 1020 51 10000 3.1 90 10:22 01.04.2020
5519 Clear 2 1020 59 10000 1.5 80 09:59 01.04.2020
5520 Clear 0 1020 50 10000 1 0 09:40 01.04.2020
5521 Clear 0 1020 50 10000 1 0 09:40 01.04.2020
5522 Clear -2 1020 80 10000 1.25 110 09:21 01.04.2020
5523 Clouds -2 1021 92 7000 2.1 60 08:59 01.04.2020
5524 Clear -3 1020 79 3900 1.25 110 08:40 01.04.2020
5525 Clear -4 1020 85 10000 1 110 08:18 01.04.2020
5526 Clear -5 1020 85 10000 0.5 150 07:42 01.04.2020
5527 Clear -5 1020 92 9000 1.25 110 07:19 01.04.2020
5528 Clear -5 1020 92 10000 0.5 100 06:47 01.04.2020
5529 Clear -5 1020 92 10000 1 140 06:21 01.04.2020
5530 Clear -5 1021 85 10000 1 0 05:53 01.04.2020
5531 Clear -4 1021 92 10000 0.5 0 04:30 01.04.2020
5532 Clear -4 1022 85 10000 0.5 0 03:27 01.04.2020
5533 Clear -3 1022 73 10000 2.02 107 02:46 01.04.2020
5534 Clear -3 1022 73 10000 2.28 105 01:54 01.04.2020
5535 Clear -3 1023 73 10000 0.5 0 01:29 01.04.2020
5536 Clear -2 1023 73 10000 1.5 70 00:58 01.04.2020
5537 Clear -2 1024 74 10000 2.1 90 00:40 01.04.2020
5538 Clear -2 1024 74 10000 2.1 90 00:18 01.04.2020
5539 Clear -2 1024 63 10000 2.1 60 23:41 31.03.2020
5540 Clear -1 1024 68 10000 2.6 50 23:23 31.03.2020
5541 Clear -1 1024 68 10000 2.6 50 23:23 31.03.2020
5542 Clear -1 1024 81 10000 2.1 60 22:57 31.03.2020
5543 Clear -1 1024 81 10000 2.1 60 22:36 31.03.2020
5544 Clear 0 1024 68 10000 2.1 70 22:18 31.03.2020
5545 Clear 0 1024 81 10000 2.6 50 21:55 31.03.2020
5546 Clear 0 1024 81 10000 2.6 50 21:37 31.03.2020
5547 Clouds 1 1024 67 10000 3.6 30 21:19 31.03.2020
5548 Clouds 1 1025 64 10000 2.6 20 20:55 31.03.2020
5549 Clouds 2 1024 55 10000 4.6 10 20:36 31.03.2020
5550 Clouds 3 1024 55 10000 4.6 10 20:18 31.03.2020
5551 Clouds 3 1023 44 10000 1.5 320 19:41 31.03.2020
5552 Clouds 4 1023 44 10000 2.1 260 19:22 31.03.2020
5553 Clouds 4 1023 40 10000 0.5 0 18:58 31.03.2020
5554 Clouds 4 1023 40 10000 2.6 30 18:39 31.03.2020
5555 Clouds 4 1023 40 10000 2.6 30 18:18 31.03.2020
5556 Clouds 5 1023 38 10000 4.6 20 17:55 31.03.2020
5557 Clouds 5 1023 38 10000 4.6 20 17:37 31.03.2020
5558 Clouds 6 1023 35 10000 3.1 350 17:18 31.03.2020
5559 Clouds 5 1023 32 10000 1.5 20 16:40 31.03.2020
5560 Clouds 5 1023 41 10000 3.1 360 16:19 31.03.2020
5561 Clouds 5 1023 41 10000 3.1 360 15:57 31.03.2020
5562 Clouds 5 1023 38 10000 1.5 330 15:39 31.03.2020
5563 Rain 5 1024 44 10000 3.6 10 15:21 31.03.2020
5564 Rain 5 1024 40 10000 3.6 360 14:57 31.03.2020
5565 Rain 5 1024 40 10000 3.6 360 14:39 31.03.2020
5566 Clouds 5 1024 41 10000 3.6 330 14:20 31.03.2020
5567 Clouds 5 1024 37 10000 2.6 0 13:43 31.03.2020
5568 Clouds 5 1024 34 10000 2.1 0 13:20 31.03.2020
5569 Clouds 5 1024 44 10000 2.6 30 12:59 31.03.2020
5570 Clouds 5 1024 44 10000 2.6 30 12:40 31.03.2020
5571 Clouds 5 1024 47 10000 2.6 30 12:19 31.03.2020
5572 Clouds 4 1024 47 10000 2.6 330 11:41 31.03.2020
5573 Clouds 4 1024 55 10000 1 0 11:20 31.03.2020
5574 Clouds 4 1024 55 10000 1 0 11:20 31.03.2020
5575 Clouds 3 1024 64 10000 0.5 0 10:59 31.03.2020
5576 Clouds 2 1024 64 10000 0.5 0 10:41 31.03.2020
5577 Clouds 1 1024 47 10000 1 0 10:22 31.03.2020
5578 Clouds 0 1024 74 10000 1 0 09:59 31.03.2020
5579 Clouds 0 1024 74 10000 1 0 09:41 31.03.2020
5580 Clear -2 1024 80 10000 0.37 217 09:22 31.03.2020
5581 Clear -2 1024 80 10000 0.37 217 08:57 31.03.2020
5582 Clear -4 1024 85 10000 0.5 0 08:38 31.03.2020
5583 Clear -4 1023 92 10000 2.1 220 08:19 31.03.2020
5584 Clear -5 1023 85 10000 2.1 220 07:56 31.03.2020
5585 Clear -5 1023 85 10000 2.1 220 07:38 31.03.2020
5586 Clear -5 1023 92 10000 3.1 220 07:19 31.03.2020
5587 Clear -5 1023 92 10000 1 200 06:47 31.03.2020
5588 Clear -6 1023 92 10000 1 180 06:22 31.03.2020
5589 Clear -6 1023 92 10000 1 170 05:39 31.03.2020
5590 Clear -5 1023 92 10000 1.5 190 03:43 31.03.2020
5591 Clear -4 1023 92 10000 1 210 02:19 31.03.2020
5592 Clear -4 1023 85 10000 1 220 01:45 31.03.2020
5593 Clear -3 1023 85 10000 1.5 190 00:51 31.03.2020
5594 Clear -3 1023 86 10000 1.5 180 00:25 31.03.2020
5595 Clouds -2 1023 86 10000 1 200 23:59 30.03.2020
5596 Clouds -2 1023 86 10000 1 200 23:38 30.03.2020
5597 Clouds -2 1023 86 10000 1 190 23:18 30.03.2020
5598 Clouds -2 1023 86 10000 2.1 180 22:56 30.03.2020
5599 Clouds -1 1023 86 10000 2.1 180 22:37 30.03.2020
5600 Clouds -1 1023 86 10000 2.1 210 22:18 30.03.2020
5601 Clouds -1 1023 80 10000 2.6 210 21:55 30.03.2020
5602 Clouds -1 1023 80 10000 2.6 210 21:36 30.03.2020
5603 Clouds 0 1023 80 10000 3.1 200 21:18 30.03.2020
5604 Clouds 1 1022 86 10000 3.1 180 20:42 30.03.2020
5605 Clouds 2 1022 74 10000 2.6 170 20:24 30.03.2020
5606 Clouds 2 1022 74 10000 2.6 170 20:24 30.03.2020
5607 Clouds 2 1022 74 10000 2.6 170 19:59 30.03.2020
5608 Clouds 3 1022 64 10000 3.6 170 19:40 30.03.2020
5609 Clouds 3 1022 37 10000 2.1 0 19:22 30.03.2020
5610 Clouds 4 1022 37 10000 2.1 0 18:57 30.03.2020
5611 Clouds 4 1022 37 10000 2.6 30 18:38 30.03.2020
5612 Clouds 4 1021 44 10000 2.6 10 18:20 30.03.2020
5613 Clouds 4 1022 47 10000 3.6 40 17:57 30.03.2020
5614 Clouds 4 1022 47 10000 3.6 40 17:38 30.03.2020
5615 Clouds 4 1022 51 10000 3.6 30 17:19 30.03.2020
5616 Clouds 4 1022 51 10000 3.6 30 16:55 30.03.2020
5617 Clouds 4 1022 51 10000 3.6 30 16:37 30.03.2020
5618 Clouds 4 1022 51 10000 3.1 70 16:19 30.03.2020
5619 Clouds 4 1022 51 10000 3.1 70 15:54 30.03.2020
5620 Clouds 4 1022 59 10000 3.1 20 15:36 30.03.2020
5621 Clouds 4 1022 64 10000 4.1 30 15:18 30.03.2020
5622 Clouds 3 1022 64 10000 3.6 40 14:54 30.03.2020
5623 Clouds 3 1022 64 10000 3.6 40 14:36 30.03.2020
5624 Clouds 3 1022 64 10000 2.6 60 14:18 30.03.2020
5625 Clouds 3 1023 53 10000 3.1 50 13:43 30.03.2020
5626 Clouds 2 1023 53 10000 4.1 30 13:21 30.03.2020
5627 Rain 2 1023 53 10000 4.1 40 12:58 30.03.2020
5628 Rain 2 1023 53 10000 4.1 40 12:40 30.03.2020
5629 Rain 1 1023 74 10000 4.6 40 12:19 30.03.2020
5630 Clouds 1 1023 68 10000 6.2 40 11:56 30.03.2020
5631 Clouds 0 1023 68 10000 6.2 40 11:38 30.03.2020
5632 Clouds 0 1023 74 10000 6.7 40 11:20 30.03.2020
5633 Clouds 0 1023 74 10000 6.7 30 10:40 30.03.2020
5634 Clouds -1 1023 74 10000 6.2 30 10:22 30.03.2020
5635 Clouds 0 1023 74 10000 7.2 20 09:56 30.03.2020
5636 Clouds -1 1023 74 10000 7.2 20 09:38 30.03.2020
5637 Snow -1 1023 79 10000 5.7 30 09:19 30.03.2020
5638 Snow -1 1023 79 3400 7.2 30 08:42 30.03.2020
5639 Snow -1 1022 86 4900 6.7 20 08:22 30.03.2020
5640 Snow -1 1022 80 9000 6.2 30 07:49 30.03.2020
5641 Snow -1 1022 80 9000 6.2 30 07:31 30.03.2020
5642 Snow -1 1022 86 10000 5.7 30 06:57 30.03.2020
5643 Snow -1 1022 86 6000 5.1 20 06:33 30.03.2020
5644 Snow 0 1022 92 3900 4.1 20 05:54 30.03.2020
5645 Snow 0 1022 92 10000 4.6 40 05:22 30.03.2020
5646 Snow 0 1022 92 5000 5.7 40 04:23 30.03.2020
5647 Snow 1 1022 81 4000 6.2 30 03:44 30.03.2020
5648 Snow 1 1022 75 4000 5.7 20 02:42 30.03.2020
5649 Rain 1 1021 75 8000 5.1 20 01:44 30.03.2020
5650 Snow 2 1021 80 10000 5.1 20 00:55 30.03.2020
5651 Clouds 3 1021 80 10000 5.1 10 00:24 30.03.2020
5652 Clouds 3 1020 69 10000 7.2 20 23:43 29.03.2020
5653 Clouds 3 1020 65 10000 3.6 10 23:24 29.03.2020
5654 Clouds 3 1020 65 10000 3.6 10 22:59 29.03.2020
5655 Clouds 4 1020 65 10000 4.6 10 22:39 29.03.2020
5656 Clouds 4 1020 65 10000 3.6 10 22:20 29.03.2020
5657 -273 0 0 0 0 0 21:58 29.03.2020
5658 Clouds 4 1019 65 10000 6.2 10 21:37 29.03.2020
5659 Rain 4 1019 86 10000 6.7 360 21:18 29.03.2020
5660 Rain 4 1019 93 10000 4.6 360 20:55 29.03.2020
5661 Rain 4 1019 93 10000 4.6 360 20:37 29.03.2020
5662 Rain 5 1018 93 8000 4.1 340 20:18 29.03.2020
5663 Rain 5 1018 93 6000 4.1 350 19:55 29.03.2020
5664 Rain 5 1018 93 6000 4.1 350 19:37 29.03.2020
5665 Rain 5 1018 93 7000 4.6 10 19:18 29.03.2020
5666 Rain 5 1018 86 7000 6.2 360 18:55 29.03.2020
5667 Rain 6 1018 86 7000 6.2 360 18:37 29.03.2020
5668 Rain 6 1017 80 10000 5.7 20 18:18 29.03.2020
5669 Rain 6 1017 80 10000 4.6 360 17:54 29.03.2020
5670 Rain 6 1017 80 10000 4.6 360 17:36 29.03.2020
5671 Rain 6 1017 75 10000 3.6 360 17:18 29.03.2020
5672 Rain 7 1017 75 10000 3.6 360 16:55 29.03.2020
5673 Rain 7 1017 75 10000 3.6 360 16:36 29.03.2020
5674 Rain 7 1017 75 10000 3.6 360 16:36 29.03.2020
5675 Rain 7 1017 75 10000 3.6 360 16:36 29.03.2020
5676 Rain 7 1017 75 10000 3.6 360 16:36 29.03.2020
5677 Rain 7 1017 70 10000 3.6 30 16:18 29.03.2020
5678 Rain 8 1017 70 10000 3.6 10 15:40 29.03.2020
5679 Clouds 8 1017 49 10000 4.6 330 15:22 29.03.2020
5680 Rain 8 1017 70 10000 5.7 20 14:57 29.03.2020
5681 Rain 8 1017 57 10000 4.6 10 14:39 29.03.2020
5682 Rain 8 1017 58 10000 4.1 20 14:19 29.03.2020
5683 Rain 8 1017 58 10000 2.1 10 13:56 29.03.2020
5684 Rain 8 1017 58 10000 2.1 10 13:38 29.03.2020
5685 Rain 8 1017 58 10000 1 0 13:19 29.03.2020
5686 Rain 8 1017 58 10000 1 0 12:55 29.03.2020
5687 Rain 8 1017 58 10000 1 0 12:37 29.03.2020
5688 Rain 8 1017 58 10000 1 0 12:18 29.03.2020
5689 Rain 7 1017 58 10000 1 0 11:40 29.03.2020
5690 Rain 7 1017 58 10000 2.1 40 11:21 29.03.2020
5691 Rain 7 1017 58 10000 2.1 350 10:59 29.03.2020
5692 Rain 6 1017 58 10000 2.1 350 10:38 29.03.2020
5693 Rain 6 1017 58 10000 1.5 10 10:18 29.03.2020
5694 Rain 6 1017 58 10000 1.5 10 10:18 29.03.2020
5695 Rain 5 1017 69 10000 2.6 10 09:40 29.03.2020
5696 Rain 5 1017 76 10000 1.5 340 09:20 29.03.2020
5697 Rain 5 1017 76 10000 1.5 340 08:54 29.03.2020
5698 Rain 4 1016 76 10000 1.5 340 08:54 29.03.2020
5699 Rain 4 1016 76 10000 2.1 360 08:30 29.03.2020
5700 Rain 4 1016 76 10000 2.1 360 07:59 29.03.2020
5701 Rain 4 1016 76 10000 0.5 0 07:41 29.03.2020
5702 Rain 3 1016 76 10000 0.5 0 07:20 29.03.2020
5703 Clouds 3 1016 74 10000 0.5 0 05:46 29.03.2020
5704 Clouds 4 1016 74 10000 0.5 200 04:27 29.03.2020
5705 Clouds 5 1016 74 10000 1 0 03:31 29.03.2020
5706 Clouds 5 1016 70 10000 1.38 349 01:51 29.03.2020
5707 Clouds 5 1016 73 10000 1.42 329 01:23 29.03.2020
5708 Clouds 5 1016 70 10000 1.38 349 01:23 29.03.2020
5709 Clouds 5 1016 73 10000 1.5 330 00:58 29.03.2020
5710 Clouds 5 1016 73 10000 0.5 0 00:33 29.03.2020
5711 Clouds 5 1016 74 10000 1.42 329 23:57 28.03.2020
5712 Clouds 5 1016 74 10000 1.42 329 23:39 28.03.2020
5713 Clouds 6 1016 70 10000 1 210 23:19 28.03.2020
5714 Clouds 6 1016 73 10000 1 0 22:41 28.03.2020
5715 Clouds 7 1016 73 10000 1.5 210 22:22 28.03.2020
5716 Clouds 7 1016 73 10000 1.5 210 22:22 28.03.2020
5717 Clouds 6 1016 80 10000 1.5 200 21:56 28.03.2020
5718 Clouds 7 1016 80 10000 1.5 200 21:38 28.03.2020
5719 Clouds 7 1015 73 10000 2.6 260 21:19 28.03.2020
5720 Clouds 7 1016 70 10000 1.5 200 20:54 28.03.2020
5721 Clouds 7 1016 70 10000 1.5 200 20:36 28.03.2020
5722 Clouds 7 1016 70 10000 1.5 190 20:18 28.03.2020
5723 Clouds 8 1016 70 10000 1.5 190 19:54 28.03.2020
5724 Clouds 9 1015 70 10000 1 250 19:36 28.03.2020
5725 Clouds 10 1015 70 10000 1.5 310 19:18 28.03.2020
5726 Clouds 12 1015 46 10000 2.6 330 18:39 28.03.2020
5727 Clouds 13 1015 70 10000 3.1 10 18:20 28.03.2020
5728 Clouds 14 1015 70 10000 3.1 350 17:40 28.03.2020
5729 Clouds 15 1014 53 10000 4.1 330 17:22 28.03.2020
5730 Clouds 15 1015 53 10000 2.1 10 16:59 28.03.2020
5731 Clouds 15 1015 53 10000 2.1 10 16:38 28.03.2020
5732 Clouds 15 1015 53 10000 4.1 340 16:18 28.03.2020
5733 Clouds 15 1015 53 10000 4.1 340 16:18 28.03.2020
5734 Clouds 15 1015 33 10000 3.6 10 15:40 28.03.2020
5735 Clouds 15 1015 53 10000 4.1 30 15:19 28.03.2020
5736 Clouds 15 1015 53 10000 4.1 30 15:19 28.03.2020
5737 Clouds 15 1015 35 10000 3.1 10 14:58 28.03.2020
5738 Clouds 15 1015 35 10000 3.1 10 14:40 28.03.2020
5739 Clouds 15 1015 50 10000 3.1 340 14:21 28.03.2020
5740 Clouds 15 1015 50 10000 2.6 20 13:43 28.03.2020
5741 Clouds 14 1016 49 10000 2.6 40 13:23 28.03.2020
5742 Clouds 14 1016 49 10000 2.1 0 12:41 28.03.2020
5743 Clouds 14 1016 49 10000 1.5 360 12:23 28.03.2020
5744 Clouds 13 1016 49 10000 1.5 360 11:59 28.03.2020
5745 Clouds 13 1016 49 10000 2.6 10 11:41 28.03.2020
5746 Clouds 11 1016 50 10000 2.1 10 11:20 28.03.2020
5747 Clouds 10 1016 53 10000 2.1 330 10:40 28.03.2020
5748 Clouds 10 1016 61 10000 1 0 10:22 28.03.2020
5749 Clouds 10 1016 61 10000 1 0 09:56 28.03.2020
5750 Clouds 9 1016 65 10000 2.6 230 09:37 28.03.2020
5751 Clouds 8 1016 75 10000 1.5 230 09:19 28.03.2020
5752 Clouds 5 1016 80 10000 2.6 220 08:42 28.03.2020
5753 Clouds 4 1016 80 10000 2.6 220 08:22 28.03.2020
5754 Clear 1 1016 78 10000 2.1 210 07:49 28.03.2020
5755 Clear 1 1016 78 10000 2.1 210 07:31 28.03.2020
5756 Clear 0 1015 100 10000 1.5 200 06:42 28.03.2020
5757 Clear 0 1015 78 10000 1.5 190 06:18 28.03.2020
5758 Clear 0 1015 79 10000 1.5 250 05:24 28.03.2020
5759 Clear 0 1015 92 10000 2.6 220 04:48 28.03.2020
5760 Clear 1 1015 92 10000 2.1 210 04:28 28.03.2020
5761 Clear 2 1014 92 10000 1.5 200 02:46 28.03.2020
5762 Clear 3 1014 77 10000 1.5 170 01:46 28.03.2020
5763 Clear 2 1014 78 10000 1 190 01:20 28.03.2020
5764 Clear 3 1014 77 10000 0.5 0 00:47 28.03.2020
5765 Clear 4 1014 77 10000 0.5 0 00:21 28.03.2020
5766 Clear 4 1014 86 10000 1 0 23:43 27.03.2020
5767 Clear 5 1014 77 10000 0.69 263 23:25 27.03.2020
5768 Clear 5 1014 74 10000 1 30 22:57 27.03.2020
5769 Clear 6 1014 74 10000 1 30 22:39 27.03.2020
5770 Clear 7 1014 65 10000 1 0 22:20 27.03.2020
5771 Clear 7 1014 65 10000 1 0 21:58 27.03.2020
5772 Clear 7 1014 74 10000 2.1 20 21:40 27.03.2020
5773 Clear 7 1014 74 10000 2.6 10 21:22 27.03.2020
5774 Clear 7 1014 74 10000 2.6 10 21:22 27.03.2020
5775 Clear 8 1014 61 10000 3.6 30 20:56 27.03.2020
5776 Clear 8 1014 61 10000 3.6 30 20:38 27.03.2020
5777 Clouds 10 1014 57 10000 4.1 20 20:19 27.03.2020
5778 Clouds 10 1013 57 10000 4.1 30 19:54 27.03.2020
5779 Clouds 10 1013 57 10000 4.1 30 19:36 27.03.2020
5780 Clouds 11 1013 53 10000 3.6 20 19:18 27.03.2020
5781 Clouds 12 1013 46 10000 3.6 50 18:42 27.03.2020
5782 Clouds 13 1013 44 10000 3.6 60 18:22 27.03.2020
5783 Clouds 14 1013 41 10000 4.1 70 17:41 27.03.2020
5784 Clouds 15 1012 41 10000 4.6 60 17:21 27.03.2020
5785 Clouds 15 1012 41 10000 4.6 60 16:59 27.03.2020
5786 Clouds 15 1012 38 10000 4.6 70 16:41 27.03.2020
5787 Clouds 15 1012 38 10000 6.2 40 16:23 27.03.2020
5788 Clouds 16 1012 38 10000 5.7 80 15:43 27.03.2020
5789 Clouds 16 1012 46 0 4.47 85 15:25 27.03.2020
5790 Clouds 16 1013 47 0 4.47 68 14:56 27.03.2020
5791 Clouds 16 1012 44 0 1.34 227 14:36 27.03.2020
5792 Clouds 12 1013 43 0 2.56 73 14:18 27.03.2020
5793 Clouds 12 1013 43 0 2.56 73 13:42 27.03.2020
5794 Clouds 11 1013 43 0 2.45 72 13:21 27.03.2020
5795 Clouds 14 1012 47 0 1.34 154 12:58 27.03.2020
5796 Clouds 11 1013 43 0 2.45 72 12:39 27.03.2020
5797 Clouds 14 1013 52 0 1.79 104 12:19 27.03.2020
5798 Clouds 13 1013 52 0 2.24 110 11:42 27.03.2020
5799 Clouds 8 1015 48 0 0.5 90 11:24 27.03.2020
5800 Clouds 12 1012 54 0 0.89 160 10:56 27.03.2020
5801 Clouds 11 1008 63 0 1.34 110 10:38 27.03.2020
5802 Clouds 11 1013 56 0 0.45 54 10:20 27.03.2020
5803 Clouds 10 1013 59 0 0.45 235 09:58 27.03.2020
5804 Clouds 8 1013 64 0 0.5 90 09:38 27.03.2020
5805 Clouds 7 1013 70 0 0.5 90 09:20 27.03.2020
5806 Clouds 6 1013 71 0 0.5 90 08:57 27.03.2020
5807 Clouds 5 1013 79 0 0.5 90 08:38 27.03.2020
5808 Clouds 8 1015 48 0 0.5 90 08:20 27.03.2020
5809 Clear -1 1013 88 0 0.82 207 07:52 27.03.2020
5810 Clear -1 1013 87 0 0.82 207 07:26 27.03.2020
5811 Clear -2 1013 85 0 0.82 207 06:55 27.03.2020
5812 Clear -2 1013 85 0 0.82 207 06:37 27.03.2020
5813 Clear -1 1013 82 0 0.82 207 05:37 27.03.2020
5814 Clear -2 1016 84 0 1.15 110 02:49 27.03.2020
5815 Clouds -1 1016 81 0 2.35 99 01:36 27.03.2020
5816 Clouds 3 1012 71 0 1.79 104 00:55 27.03.2020
5817 Clouds 1 1012 74 0 1.79 104 00:32 27.03.2020
5818 Clouds -1 1015 81 0 1.79 104 23:44 26.03.2020
5819 Clouds 3 1014 67 0 4.02 92 23:24 26.03.2020
5820 Clouds 3 1014 67 0 4.02 92 22:59 26.03.2020
5821 Clouds 3 1014 67 0 4.02 92 22:59 26.03.2020
5822 Clouds 3 1014 67 0 4.02 92 22:39 26.03.2020
5823 -273 0 0 0 0 0 22:20 26.03.2020
5824 Clouds 3 1014 71 0 3.08 86 22:20 26.03.2020
5825 Clouds 3 1014 70 0 3.08 86 21:59 26.03.2020
5826 Clouds 3 1014 66 0 2.68 96 21:39 26.03.2020
5827 Clouds 4 1015 69 0 0.45 167 21:21 26.03.2020
5828 Clouds 4 1015 68 0 0.89 5 20:58 26.03.2020
5829 Clouds 4 1015 67 0 0.89 49 20:38 26.03.2020
5830 Clouds 4 1015 67 0 0.89 49 20:38 26.03.2020
5831 Clouds 4 1015 67 0 0.89 51 20:20 26.03.2020
5832 Clouds 4 1015 67 0 0.89 57 19:57 26.03.2020
5833 Clouds 4 1015 67 0 0.89 37 19:39 26.03.2020
5834 Clouds 5 1015 66 0 0.89 57 19:20 26.03.2020
5835 Clouds 5 1015 66 0 0.89 57 19:20 26.03.2020
5836 Clouds 4 1015 65 0 0.89 42 18:58 26.03.2020
5837 Clouds 4 1015 65 0 0.89 42 18:58 26.03.2020
5838 Clouds 5 1015 64 0 1.34 49 18:39 26.03.2020
5839 Clouds 5 1015 63 0 1.34 36 18:21 26.03.2020
5840 Clouds 6 1015 60 0 1.79 10 17:44 26.03.2020
5841 Clouds 7 1064 29 0 1.79 271 17:19 26.03.2020
5842 Clouds 8 1015 58 0 0.89 28 16:55 26.03.2020
5843 Clouds 7 1016 57 0 1.34 30 16:37 26.03.2020
5844 Clouds 7 1015 57 0 0.89 48 16:18 26.03.2020
5845 Clouds 7 1015 58 0 0.89 39 15:41 26.03.2020
5846 Clouds 7 1016 56 0 0.89 67 15:22 26.03.2020
5847 Clouds 7 1016 55 0 1.34 28 14:59 26.03.2020
5848 Clouds 7 1016 55 0 1.79 107 14:41 26.03.2020
5849 Clouds 7 1016 55 0 1.34 44 14:23 26.03.2020
5850 Clouds 7 1016 54 0 1.79 61 13:54 26.03.2020
5851 Clouds 6 1016 56 0 0.89 42 13:36 26.03.2020
5852 Clouds 6 1016 56 0 1.34 193 13:18 26.03.2020
5853 Clouds 5 1016 61 0 0.89 90 12:38 26.03.2020
5854 Clouds 5 1016 60 0 0.89 41 12:38 26.03.2020
5855 Clouds 5 1016 63 0 0.89 94 12:20 26.03.2020
5856 Clouds 4 1016 67 0 0.89 32 11:46 26.03.2020
5857 Clouds 3 1016 71 0 0.89 39 11:23 26.03.2020
5858 Clouds 3 1016 72 0 0.89 28 10:57 26.03.2020
5859 Clouds 2 1016 75 0 0.45 278 10:39 26.03.2020
5860 Clouds 2 1017 75 0 0.89 33 10:19 26.03.2020
5861 Clouds 1 1017 77 0 0.89 19 09:45 26.03.2020
5862 Clouds 0 1016 78 0 0.89 18 09:21 26.03.2020
5863 Clouds 0 1016 79 0 0.45 286 08:57 26.03.2020
5864 Clouds -1 1016 80 0 0.45 217 08:38 26.03.2020
5865 Clouds -1 1016 79 0 3.13 129 08:19 26.03.2020
5866 Clear -1 1016 80 0 0.45 223 07:45 26.03.2020
5867 Clear -2 1015 79 0 0.45 57 07:24 26.03.2020
5868 Clear -2 1015 79 0 0.45 43 06:57 26.03.2020
5869 Clear -2 1015 78 0 0.45 347 06:32 26.03.2020
5870 Clear -3 1015 77 0 0.45 259 05:29 26.03.2020
5871 Clear -1 1015 75 0 0.45 10 03:45 26.03.2020
5872 Clear -2 1015 75 0 0.89 109 02:57 26.03.2020
5873 Clear -2 1015 75 0 0.89 63 01:51 26.03.2020
5874 Clear -1 1016 76 0 0.89 57 01:18 26.03.2020
5875 Clear -2 1017 74 0 0.45 63 00:30 26.03.2020
5876 Clear -1 1017 74 0 0.45 20 23:42 25.03.2020
5877 Clear -1 1017 74 0 0.45 47 23:24 25.03.2020
5878 Clear -1 1018 73 0 0.89 105 22:42 25.03.2020
5879 Clear -1 1018 72 0 1.34 36 22:22 25.03.2020
5880 Clear -1 1018 71 0 1.34 112 21:59 25.03.2020
5881 Clear -1 1019 70 0 0.89 23 21:41 25.03.2020
5882 Clear -1 1019 70 0 1.34 61 21:23 25.03.2020
5883 Clear 0 1019 68 0 1.34 54 20:57 25.03.2020
5884 Clear 0 1019 66 0 1.34 98 20:38 25.03.2020
5885 Clear 0 1019 66 0 1.34 98 20:38 25.03.2020
5886 Clear 0 1019 64 0 1.79 31 20:19 25.03.2020
5887 Clear 1 1019 60 0 0.89 53 19:55 25.03.2020
5888 Clear 1 1019 58 0 1.79 22 19:36 25.03.2020
5889 Clear 1 1019 57 0 1.79 66 19:18 25.03.2020
5890 Clear 3 1019 53 0 1.79 26 18:42 25.03.2020
5891 Clear 3 1017 51 0 6.15 73 18:24 25.03.2020
5892 Clear 4 1017 51 0 6.15 73 17:58 25.03.2020
5893 Clear 4 1017 51 0 6.15 73 17:58 25.03.2020
5894 Clear 4 1017 51 0 6.15 73 17:40 25.03.2020
5895 Clouds 4 1017 51 0 7.66 77 17:21 25.03.2020
5896 Clear 4 1018 50 0 7.78 78 16:56 25.03.2020
5897 Clouds 4 1018 50 0 7.66 77 16:38 25.03.2020
5898 Clear 4 1018 50 0 7.78 78 16:20 25.03.2020
5899 Clear 5 1019 48 0 1.79 254 15:42 25.03.2020
5900 Clear 5 1019 46 0 2.24 355 15:21 25.03.2020
5901 Clouds 5 1019 47 0 2.68 10 14:57 25.03.2020
5902 Clear 5 1019 45 0 2.24 30 14:57 25.03.2020
5903 Clouds 5 1020 47 0 1.79 186 14:39 25.03.2020
5904 Clouds 5 1020 47 0 1.79 186 14:39 25.03.2020
5905 Clouds 5 1020 47 0 1.79 186 14:39 25.03.2020
5906 Clear 5 1020 47 0 2.24 317 14:19 25.03.2020
5907 Clear 5 1020 48 0 2.24 15 13:44 25.03.2020
5908 Clear 5 1020 48 0 3.13 60 13:24 25.03.2020
5909 Clouds 4 1021 47 0 2.68 9 12:39 25.03.2020
5910 Clouds 4 1021 47 0 2.24 82 12:21 25.03.2020
5911 Clouds 4 1021 48 0 2.68 28 11:59 25.03.2020
5912 Clouds 4 1021 49 0 2.24 52 11:40 25.03.2020
5913 Clear 3 1022 50 0 1.79 14 11:21 25.03.2020
5914 Clear 3 1022 50 0 1.79 14 10:58 25.03.2020
5915 Clear 2 1022 50 0 1.79 148 10:40 25.03.2020
5916 Clear 2 1022 52 0 1.79 62 10:18 25.03.2020
5917 Clear 2 1022 50 0 1.34 186 09:56 25.03.2020
5918 Clear 2 1022 53 0 1.34 180 09:38 25.03.2020
5919 Clear 2 1023 54 0 0.89 5 09:20 25.03.2020
5920 Clear 0 1023 59 0 0.89 267 08:42 25.03.2020
5921 Clear 0 1023 62 0 0.45 319 08:24 25.03.2020
5922 Clear -2 1023 67 0 0.89 33 07:57 25.03.2020
5923 Clear -3 1023 69 0 0.45 313 07:38 25.03.2020
5924 Clear -3 1023 70 0 4.98 78 07:18 25.03.2020
5925 Clear -4 1024 70 0 4.98 78 06:42 25.03.2020
5926 Clear -2 1024 70 0 4.98 78 06:24 25.03.2020
5927 Clear -3 1024 69 0 4.98 78 05:47 25.03.2020
5928 Clear -3 1024 67 0 4.13 77 04:46 25.03.2020
5929 Clear -3 1024 67 0 4.13 77 03:58 25.03.2020
5930 Clear -3 1024 68 0 4.13 77 03:34 25.03.2020
5931 Clear -2 1025 67 0 0.45 49 01:41 25.03.2020
5932 Clear -2 1026 64 0 4.78 81 00:51 25.03.2020
5933 Clear -2 1026 63 0 4.78 81 00:32 25.03.2020
5934 Clear -1 1026 62 0 0.45 67 23:59 24.03.2020
5935 Clear -1 1026 64 0 0.45 55 23:40 24.03.2020
5936 Clear -1 1026 65 0 5 81 23:21 24.03.2020
5937 Clear -1 1026 66 0 5 81 22:55 24.03.2020
5938 Clear -1 1027 66 0 0.45 50 22:36 24.03.2020
5939 Clear -1 1027 67 0 5 81 22:18 24.03.2020
5940 Clear -1 1027 66 0 5 81 21:43 24.03.2020
5941 Clear 0 1027 64 0 5 81 21:19 24.03.2020
5942 Clear 0 1027 63 0 5 81 20:59 24.03.2020
5943 Clear 0 1027 62 0 5 81 20:41 24.03.2020
5944 Clear 0 1027 61 0 4.09 79 20:23 24.03.2020
5945 Clear 1 1027 58 0 4.2 77 19:54 24.03.2020
5946 Clear 1 1027 56 0 4.2 77 19:36 24.03.2020
5947 Clear 1 1027 54 0 4.2 77 19:18 24.03.2020
5948 Clear 2 1027 52 0 4.2 77 18:54 24.03.2020
5949 Clear 2 1027 51 0 0.89 121 18:36 24.03.2020
5950 Clear 3 1027 50 0 0.45 75 18:18 24.03.2020
5951 Clear 3 1027 48 0 0.89 334 17:41 24.03.2020
5952 Clear 4 1027 48 0 0.89 283 17:22 24.03.2020
5953 Clear 4 1027 48 0 1.34 21 17:22 24.03.2020
5954 Clear 4 1027 44 10000 7.7 50 16:57 24.03.2020
5955 Clear 4 1027 44 10000 7.7 50 16:39 24.03.2020
5956 Clear 5 1027 44 10000 7.2 50 16:20 24.03.2020
5957 Clear 5 1027 44 10000 7.2 70 15:55 24.03.2020
5958 Clear 5 1027 44 10000 7.2 70 15:37 24.03.2020
5959 Clear 5 1027 40 10000 7.2 60 15:19 24.03.2020
5960 Clear 5 1028 44 10000 7.7 60 14:42 24.03.2020
5961 Clear 4 1028 46 0 1.34 33 14:18 24.03.2020
5962 Clear 4 1028 48 0 2.24 93 13:42 24.03.2020
5963 Clear 4 1029 48 0 2.24 49 13:24 24.03.2020
5964 Clear 3 1029 48 0 1.79 60 12:55 24.03.2020
5965 Clear 3 1029 49 0 1.79 40 12:37 24.03.2020
5966 Clear 3 1029 48 0 1.79 20 12:18 24.03.2020
5967 Clear 2 1029 51 0 2.24 40 11:39 24.03.2020
5968 Clear 2 1029 43 10000 7.2 50 11:20 24.03.2020
5969 Clear 2 1029 41 10000 5.7 70 10:43 24.03.2020
5970 Clear 1 1029 41 10000 6.2 70 10:20 24.03.2020
5971 Clear 1 1029 41 10000 6.2 70 09:59 24.03.2020
5972 Clear 0 1029 41 10000 5.7 80 09:41 24.03.2020
5973 Clear 0 1029 41 10000 5.7 80 09:22 24.03.2020
5974 Clear -1 1029 54 10000 6.2 70 08:39 24.03.2020
5975 Clear -2 1029 68 10000 4.6 70 08:21 24.03.2020
5976 Clear -2 1029 68 10000 4.6 70 08:21 24.03.2020
5977 Clear -3 1029 73 10000 3.6 80 07:50 24.03.2020
5978 Clear -4 1029 73 10000 3.1 70 07:25 24.03.2020
5979 Clear -4 1029 73 10000 3.1 70 07:25 24.03.2020
5980 Clear -5 1029 73 10000 3.1 70 06:59 24.03.2020
5981 Clear -5 1029 73 10000 3.6 80 06:33 24.03.2020
5982 Clear -5 1029 73 10000 3.1 80 05:30 24.03.2020
5983 Clear -4 1029 73 10000 2.6 90 04:41 24.03.2020
5984 Clear -4 1029 58 10000 3.1 70 03:19 24.03.2020
5985 Clear -3 1030 58 10000 3.1 70 01:59 24.03.2020
5986 Clear -3 1030 53 10000 4.1 80 00:52 24.03.2020
5987 Clear -3 1030 53 10000 4.1 80 00:26 24.03.2020
5988 Clear -2 1030 50 10000 4.6 80 23:55 23.03.2020
5989 Clear -2 1030 50 10000 4.6 80 23:36 23.03.2020
5990 Clear -2 1030 50 10000 4.1 70 23:18 23.03.2020
5991 Clear -2 1030 46 10000 3.6 80 22:42 23.03.2020
5992 Clear -2 1030 46 10000 3.1 80 22:22 23.03.2020
5993 Clear -2 1030 46 10000 3.1 80 22:22 23.03.2020
5994 Clear -2 1030 42 10000 4.1 70 21:54 23.03.2020
5995 Clear -2 1030 42 10000 4.1 70 21:36 23.03.2020
5996 Clear -1 1030 46 10000 3.1 80 21:18 23.03.2020
5997 Clear -1 1030 42 10000 3.6 80 20:42 23.03.2020
5998 Clear -1 1030 42 10000 4.6 70 20:24 23.03.2020
5999 Clear 0 1030 39 10000 4.1 70 19:55 23.03.2020
6000 Clear 0 1030 41 10000 5.7 70 19:37 23.03.2020
6001 Clear 0 1030 41 10000 5.7 70 19:19 23.03.2020
6002 Clear 1 1030 37 10000 5.1 60 18:43 23.03.2020
6003 Clear 1 1029 37 10000 5.7 50 18:24 23.03.2020
6004 Clear 2 1029 31 10000 5.1 60 17:59 23.03.2020
6005 Clear 2 1029 31 10000 5.1 60 17:41 23.03.2020
6006 Clear 3 1029 34 10000 6.2 60 17:19 23.03.2020
6007 Clear 3 1029 32 10000 6.2 70 16:44 23.03.2020
6008 Clear 3 1029 32 10000 6.2 70 16:25 23.03.2020
6009 Clear 3 1029 32 10000 6.2 70 16:25 23.03.2020
6010 Clear 4 1029 32 10000 6.2 70 15:58 23.03.2020
6011 Clear 4 1029 29 10000 5.7 80 15:39 23.03.2020
6012 Clear 4 1030 34 10000 6.2 80 15:18 23.03.2020
6013 Clear 4 1030 32 10000 6.7 80 14:37 23.03.2020
6014 Clear 3 1030 31 10000 7.7 80 14:19 23.03.2020
6015 Clear 3 1030 31 10000 8.7 60 13:57 23.03.2020
6016 Clear 3 1030 31 10000 8.7 60 13:38 23.03.2020
6017 Clear 3 1030 31 10000 8.2 70 13:20 23.03.2020
6018 Clear 3 1030 37 10000 8.7 70 12:43 23.03.2020
6019 Clear 3 1030 37 10000 8.7 70 12:43 23.03.2020
6020 Clear 3 1030 34 10000 7.7 70 12:23 23.03.2020
6021 Clear 2 1031 34 10000 8.7 70 11:56 23.03.2020
6022 Clear 2 1031 31 10000 8.2 80 11:37 23.03.2020
6023 Clear 2 1031 31 10000 8.2 80 11:19 23.03.2020
6024 Clear 1 1031 30 10000 7.7 80 10:56 23.03.2020
6025 Clear 1 1031 30 10000 7.7 80 10:36 23.03.2020
6026 Clear 1 1031 30 10000 6.7 70 10:18 23.03.2020
6027 Clear 0 1031 42 10000 8.2 70 09:42 23.03.2020
6028 Clear -1 1031 49 10000 8.2 70 09:20 23.03.2020
6029 Clear -2 1031 58 10000 7.2 70 08:40 23.03.2020
6030 Clear -3 1030 62 10000 7.2 70 08:20 23.03.2020
6031 Clear -3 1030 62 10000 7.2 70 07:58 23.03.2020
6032 Clear -4 1030 62 10000 6.7 70 07:37 23.03.2020
6033 Clear -4 1030 67 10000 4.6 70 07:18 23.03.2020
6034 Clear -5 1030 73 10000 4.1 60 06:48 23.03.2020
6035 Clear -5 1030 67 10000 4.6 80 05:50 23.03.2020
6036 Clear -4 1030 73 10000 5.7 80 04:57 23.03.2020
6037 Clear -4 1030 68 10000 7.2 70 03:24 23.03.2020
6038 Clear -3 1030 63 10000 6.2 70 01:50 23.03.2020
6039 Clear -3 1030 63 10000 6.2 70 00:58 23.03.2020
6040 Clear -2 1030 63 10000 6.7 70 00:36 23.03.2020
6041 Clear -2 1030 58 10000 6.2 70 23:47 22.03.2020
6042 Clear -2 1030 58 10000 6.2 70 23:47 22.03.2020
6043 Clear -2 1030 63 10000 5.7 80 23:25 22.03.2020
6044 Clear -2 1030 54 10000 5.1 70 22:45 22.03.2020
6045 Clear -2 1032 63 10000 5.7 80 22:24 22.03.2020
6046 Clear -1 1032 63 10000 5.7 80 21:56 22.03.2020
6047 Clear -1 1029 54 10000 5.7 70 21:37 22.03.2020
6048 Clear -1 1029 50 10000 5.1 70 21:19 22.03.2020
6049 Clear -1 1029 54 10000 6.2 70 20:46 22.03.2020
6050 Clear 0 1029 54 10000 5.7 60 20:25 22.03.2020
6051 Clear 0 1029 54 10000 5.7 60 19:58 22.03.2020
6052 Clear 0 1029 57 10000 7.2 60 19:40 22.03.2020
6053 Clear 0 1028 57 10000 5.1 60 19:20 22.03.2020
6054 Clear 0 1028 57 10000 5.1 60 19:20 22.03.2020
6055 Clear 1 1028 57 10000 5.1 60 18:59 22.03.2020
6056 Clear 1 1028 50 10000 6.2 60 18:41 22.03.2020
6057 Clear 1 1028 50 10000 6.2 60 18:41 22.03.2020
6058 Clear 2 1027 47 10000 7.2 60 18:22 22.03.2020
6059 Clear 2 1027 47 10000 7.2 60 17:59 22.03.2020
6060 Clear 3 1027 47 10000 7.2 60 17:39 22.03.2020
6061 Clear 3 1027 47 10000 6.2 60 17:21 22.03.2020
6062 Clear 4 1027 47 10000 6.2 60 16:58 22.03.2020
6063 Clear 4 1026 47 10000 7.2 60 16:40 22.03.2020
6064 Clouds 4 1026 47 10000 7.2 60 16:21 22.03.2020
6065 Clouds 4 1026 47 10000 7.2 60 15:58 22.03.2020
6066 Clouds 5 1026 51 10000 6.2 50 15:39 22.03.2020
6067 Clear 5 1026 55 10000 6.7 50 14:47 22.03.2020
6068 Clouds 5 1028 48 10000 7.7 70 14:19 22.03.2020
6069 Clouds 4 1026 69 10000 7.2 70 13:58 22.03.2020
6070 Clouds 4 1026 69 10000 7.2 70 13:40 22.03.2020
6071 Clouds 4 1026 64 10000 7.2 70 13:19 22.03.2020
6072 Clouds 4 1026 69 10000 6.2 70 12:44 22.03.2020
6073 Clouds 4 1026 69 10000 6.2 70 12:44 22.03.2020
6074 Clouds 3 1026 74 10000 6.2 70 12:22 22.03.2020
6075 Clouds 3 1026 74 10000 6.2 70 12:22 22.03.2020
6076 Clouds 3 1026 69 10000 6.2 80 11:58 22.03.2020
6077 Rain 2 1026 69 10000 6.2 80 11:39 22.03.2020
6078 Rain 2 1025 70 10000 6.7 80 11:21 22.03.2020
6079 Rain 2 1025 86 10000 7.2 70 10:54 22.03.2020
6080 Rain 1 1025 86 10000 7.2 70 10:36 22.03.2020
6081 Snow 1 1025 80 10000 7.7 70 10:18 22.03.2020
6082 Snow 0 1025 86 10000 6.2 60 09:41 22.03.2020
6083 Clouds 0 1025 92 10000 8.2 70 09:19 22.03.2020
6084 Clouds -1 1024 92 10000 6.7 70 08:43 22.03.2020
6085 Clouds -1 1024 92 10000 7.2 70 08:24 22.03.2020
6086 Clouds -1 1024 86 10000 6.7 60 07:51 22.03.2020
6087 Clouds -1 1023 86 10000 6.2 60 07:26 22.03.2020
6088 Clouds -1 1023 92 10000 6.7 70 06:35 22.03.2020
6089 Clouds -1 1022 92 10000 6.2 70 05:35 22.03.2020
6090 Snow 0 1022 89 10000 6.2 70 03:46 22.03.2020
6091 Snow 0 1022 94 3100 6.2 60 01:28 22.03.2020
6092 Clouds 0 1022 96 2500 7.2 60 00:48 22.03.2020
6093 Clouds 0 1022 96 2600 7.7 60 00:29 22.03.2020
6094 Clouds 1 1022 96 2700 6.2 60 23:43 21.03.2020
6095 Snow 1 1022 96 2200 6.7 50 23:19 21.03.2020
6096 Snow 1 1021 96 2700 5.7 60 22:58 21.03.2020
6097 Snow 1 1021 96 2700 5.7 60 22:37 21.03.2020
6098 Rain 1 1021 96 2400 7.7 60 22:18 21.03.2020
6099 Rain 1 1021 96 2400 7.7 60 21:56 21.03.2020
6100 Rain 1 1021 96 5000 5.7 60 21:37 21.03.2020
6101 Rain 1 1021 96 10000 6.7 60 21:18 21.03.2020
6102 Rain 2 1020 93 10000 6.7 50 20:42 21.03.2020
6103 Rain 2 1020 93 10000 4.6 50 20:20 21.03.2020
6104 Rain 2 1020 93 7000 6.2 60 19:54 21.03.2020
6105 Rain 2 1020 93 7000 6.2 60 19:36 21.03.2020
6106 Rain 2 1020 100 7000 4.6 60 19:18 21.03.2020
6107 Rain 2 1020 100 6000 5.7 50 18:40 21.03.2020
6108 Rain 2 1019 93 6000 5.7 60 18:20 21.03.2020
6109 Rain 2 1019 93 8000 5.7 60 17:57 21.03.2020
6110 Rain 3 1019 93 8000 5.7 60 17:39 21.03.2020
6111 Rain 3 1019 93 9000 5.7 50 17:21 21.03.2020
6112 Rain 3 1019 93 7000 6.2 50 16:42 21.03.2020
6113 Rain 3 1019 93 8000 5.1 50 16:23 21.03.2020
6114 Rain 3 1019 93 8000 5.1 50 15:58 21.03.2020
6115 Rain 3 1019 93 8000 5.7 50 15:40 21.03.2020
6116 Rain 3 1019 93 10000 6.2 50 15:21 21.03.2020
6117 Rain 3 1019 93 10000 6.2 50 14:56 21.03.2020
6118 Rain 3 1019 93 9000 5.7 60 14:37 21.03.2020
6119 Rain 3 1019 93 9000 4.6 50 14:19 21.03.2020
6120 Rain 3 1019 93 9000 4.6 50 13:57 21.03.2020
6121 Rain 4 1019 93 10000 4.6 70 13:38 21.03.2020
6122 Rain 4 1019 93 6000 3.6 50 13:20 21.03.2020
6123 Rain 4 1019 93 4400 4.1 50 12:55 21.03.2020
6124 Rain 4 1019 93 4400 4.1 50 12:36 21.03.2020
6125 Rain 4 1019 93 4300 3.6 40 12:18 21.03.2020
6126 Rain 3 1020 93 10000 4.1 50 11:55 21.03.2020
6127 Rain 3 1020 93 10000 4.1 50 11:37 21.03.2020
6128 Rain 3 1019 93 10000 4.6 20 11:18 21.03.2020
6129 Rain 3 1019 93 10000 5.1 20 10:55 21.03.2020
6130 Rain 4 1019 93 10000 5.1 20 10:37 21.03.2020
6131 Rain 4 1019 93 10000 5.1 20 10:18 21.03.2020
6132 Rain 4 1019 100 8000 4.6 20 09:40 21.03.2020
6133 Rain 4 1019 100 5000 4.6 30 09:21 21.03.2020
6134 Rain 4 1019 100 5000 4.6 30 08:56 21.03.2020
6135 Rain 4 1019 100 2800 5.1 20 08:38 21.03.2020
6136 Rain 4 1018 100 2400 5.1 30 08:20 21.03.2020
6137 Rain 4 1018 100 2600 5.7 10 07:39 21.03.2020
6138 Rain 5 1018 100 2800 6.2 10 07:20 21.03.2020
6139 Rain 5 1018 100 3500 5.7 10 06:45 21.03.2020
6140 Rain 5 1018 100 1000 4.6 10 06:26 21.03.2020
6141 Rain 6 1018 93 1200 4.6 350 05:41 21.03.2020
6142 Rain 7 1018 93 10000 2.6 20 04:37 21.03.2020
6143 Rain 8 1018 100 10000 1.5 220 02:39 21.03.2020
6144 Rain 8 1019 93 10000 2.1 220 01:57 21.03.2020
6145 Rain 9 1019 93 10000 3.1 150 01:29 21.03.2020
6146 Rain 9 1019 87 10000 4.1 190 00:47 21.03.2020
6147 Rain 9 1019 93 10000 3.1 210 00:24 21.03.2020
6148 Rain 9 1019 93 10000 3.1 240 23:48 20.03.2020
6149 Rain 9 1019 93 10000 6.7 220 23:24 20.03.2020
6150 Rain 10 1019 81 10000 6.2 220 22:56 20.03.2020
6151 Rain 10 1019 81 10000 6.2 220 22:37 20.03.2020
6152 Rain 10 1019 76 10000 7.2 220 22:19 20.03.2020
6153 Rain 10 1019 76 10000 7.2 220 21:54 20.03.2020
6154 Rain 11 1018 66 10000 3.6 310 21:36 20.03.2020
6155 Rain 11 1018 66 10000 4.6 340 21:18 20.03.2020
6156 Rain 11 1018 66 10000 4.6 340 20:55 20.03.2020
6157 Rain 11 1018 66 10000 4.1 330 20:37 20.03.2020
6158 Rain 12 1017 76 10000 1.52 108 20:18 20.03.2020
6159 Rain 12 1017 71 10000 2.1 60 19:44 20.03.2020
6160 Rain 13 1017 58 10000 1.5 70 19:18 20.03.2020
6161 Rain 14 1017 54 10000 3.1 30 18:55 20.03.2020
6162 Rain 15 1017 54 10000 3.1 30 18:37 20.03.2020
6163 Rain 16 1017 51 10000 4.1 30 18:19 20.03.2020
6164 Rain 17 1017 45 10000 4.1 30 17:39 20.03.2020
6165 Rain 17 1017 45 10000 4.1 20 17:21 20.03.2020
6166 Rain 18 1017 39 10000 3.1 340 16:58 20.03.2020
6167 Rain 18 1017 39 10000 3.1 340 16:58 20.03.2020
6168 Rain 18 1017 39 10000 3.1 340 16:40 20.03.2020
6169 Rain 18 1017 39 10000 3.6 360 16:18 20.03.2020
6170 Rain 18 1018 39 10000 3.1 360 15:42 20.03.2020
6171 Rain 18 1018 42 10000 2.1 10 15:22 20.03.2020
6172 Rain 19 1018 42 10000 2.1 10 15:22 20.03.2020
6173 Rain 18 1018 42 10000 2.1 10 14:56 20.03.2020
6174 Rain 18 1018 42 10000 1.5 0 14:37 20.03.2020
6175 Clouds 18 1018 42 10000 1.5 0 14:19 20.03.2020
6176 Clouds 18 1019 42 10000 1.5 0 13:45 20.03.2020
6177 Clouds 18 1019 48 10000 1.5 0 13:19 20.03.2020
6178 Clouds 17 1020 55 10000 1.5 0 12:54 20.03.2020
6179 Clouds 17 1020 55 10000 1.5 0 12:36 20.03.2020
6180 Clouds 17 1020 51 10000 1 0 12:18 20.03.2020
6181 Clouds 16 1020 58 10000 1 0 11:39 20.03.2020
6182 Clouds 14 1020 58 10000 1 0 11:20 20.03.2020
6183 Clouds 14 1021 66 10000 1 0 10:43 20.03.2020
6184 Clouds 13 1021 76 10000 0.5 0 10:21 20.03.2020
6185 Clouds 13 1021 76 10000 0.5 0 10:21 20.03.2020
6186 Clouds 12 1021 76 10000 1 0 10:00 20.03.2020
6187 Clouds 11 1021 76 10000 1 0 09:41 20.03.2020
6188 Clouds 10 1021 81 10000 1.5 310 09:19 20.03.2020
6189 Clouds 8 1021 93 10000 2.1 230 08:43 20.03.2020
6190 Clouds 6 1021 87 10000 2.1 240 08:22 20.03.2020
6191 Clouds 5 1021 87 10000 2.1 240 07:57 20.03.2020
6192 Clear 4 1020 100 10000 1.5 180 07:38 20.03.2020
6193 Clear 3 1020 93 10000 2.1 170 07:19 20.03.2020
6194 Clear 3 1021 100 7000 1 180 06:42 20.03.2020
6195 Clear 3 1021 93 10000 1 0 04:57 20.03.2020
6196 Clear 3 1021 93 10000 1 190 04:27 20.03.2020
6197 Clear 4 1021 100 10000 1.5 150 02:43 20.03.2020
6198 Clear 5 1021 86 10000 1 120 01:50 20.03.2020
6199 Clear 6 1022 81 10000 1.27 117 00:38 20.03.2020
6200 Clear 7 1022 81 10000 2.1 130 23:58 19.03.2020
6201 Clear 7 1022 81 10000 2.1 130 23:40 19.03.2020
6202 Clear 8 1022 76 10000 2.1 120 23:19 19.03.2020
6203 Clear 8 1022 76 10000 2.1 120 23:19 19.03.2020
6204 Clear 8 1022 81 10000 1.5 130 22:40 19.03.2020
6205 Clear 8 1022 87 10000 1 120 22:22 19.03.2020
6206 Clear 9 1022 81 10000 1.5 110 21:58 19.03.2020
6207 Clear 9 1022 81 10000 1.5 110 21:38 19.03.2020
6208 Clear 9 1022 81 10000 1.5 90 21:19 19.03.2020
6209 Clear 10 1023 76 10000 1 60 20:43 19.03.2020
6210 Clear 10 1023 76 10000 1 60 20:43 19.03.2020
6211 Clear 11 1022 66 10000 1.5 70 20:25 19.03.2020
6212 Clear 11 1022 58 10000 2.1 60 19:59 19.03.2020
6213 Clear 12 1022 58 10000 2.1 60 19:39 19.03.2020
6214 Clear 13 1022 58 10000 2.1 40 19:20 19.03.2020
6215 Clear 14 1022 54 10000 3.6 30 18:58 19.03.2020
6216 Clear 14 1022 54 10000 3.6 30 18:40 19.03.2020
6217 Clear 16 1022 51 10000 4.1 30 18:22 19.03.2020
6218 Clear 15 1022 51 10000 4.1 30 18:22 19.03.2020
6219 Clear 16 1022 48 10000 4.6 10 17:54 19.03.2020
6220 Clear 17 1022 48 10000 4.6 10 17:36 19.03.2020
6221 Clear 17 1022 48 10000 4.6 20 17:18 19.03.2020
6222 Clear 18 1022 45 10000 5.1 20 16:41 19.03.2020
6223 Clear 18 1022 42 10000 3.6 30 16:21 19.03.2020
6224 Clear 18 1022 42 10000 4.6 20 15:42 19.03.2020
6225 Clear 18 1023 42 10000 4.1 30 15:23 19.03.2020
6226 Clear 18 1023 42 10000 4.1 20 14:43 19.03.2020
6227 Clear 18 1023 45 10000 3.1 20 14:23 19.03.2020
6228 Clear 18 1023 45 10000 1.5 0 13:59 19.03.2020
6229 Clear 18 1023 45 10000 1.5 0 13:38 19.03.2020
6230 Clear 17 1024 45 10000 1.5 0 13:18 19.03.2020
6231 Clear 17 1024 48 10000 1.5 0 12:42 19.03.2020
6232 Clear 17 1024 44 10000 1.5 0 12:24 19.03.2020
6233 Clear 16 1025 48 10000 2.6 60 11:58 19.03.2020
6234 Clear 16 1025 48 10000 2.6 60 11:40 19.03.2020
6235 Clear 15 1025 47 10000 3.1 110 11:22 19.03.2020
6236 Clear 14 1025 54 10000 2.1 130 10:43 19.03.2020
6237 Clear 13 1025 58 10000 0.5 0 10:22 19.03.2020
6238 Clear 12 1025 71 10000 1 0 09:58 19.03.2020
6239 Clear 11 1025 71 10000 0.17 102 09:40 19.03.2020
6240 Clear 9 1025 81 10000 0.5 0 09:20 19.03.2020
6241 Clear 8 1025 81 10000 1 170 08:46 19.03.2020
6242 Clear 6 1025 93 10000 0.5 190 08:22 19.03.2020
6243 Clear 4 1025 93 10000 1 170 07:48 19.03.2020
6244 Clear 3 1025 93 10000 1.5 150 07:30 19.03.2020
6245 Clear 2 1025 100 2600 1.5 210 06:51 19.03.2020
6246 Clear 2 1024 93 10000 2.1 220 05:53 19.03.2020
6247 Clear 3 1024 93 10000 1.5 220 05:23 19.03.2020
6248 Clear 3 1024 100 10000 2.1 170 04:41 19.03.2020
6249 Clear 3 1025 93 10000 1.5 170 03:39 19.03.2020
6250 Clear 4 1025 93 10000 1 168 01:45 19.03.2020
6251 Clear 5 1025 93 10000 0.5 190 00:39 19.03.2020
6252 Clear 5 1025 93 10000 0.95 161 00:19 19.03.2020
6253 Clear 6 1026 87 10000 1 140 23:42 18.03.2020
6254 Clear 6 1026 93 10000 1 160 23:22 18.03.2020
6255 Clear 7 1026 87 10000 0.5 30 22:43 18.03.2020
6256 Clear 7 1026 81 10000 1 140 22:23 18.03.2020
6257 Clear 8 1026 81 10000 1 140 21:55 18.03.2020
6258 Clear 7 1026 86 10000 0.5 130 21:37 18.03.2020
6259 Clear 8 1026 87 10000 1 120 21:19 18.03.2020
6260 Clear 9 1026 71 10000 1 120 20:55 18.03.2020
6261 Clear 10 1026 71 10000 1 120 20:37 18.03.2020
6262 Clear 10 1026 71 10000 2.6 90 20:19 18.03.2020
6263 Clear 11 1026 71 10000 2.1 70 19:41 18.03.2020
6264 Clear 12 1026 62 10000 2.6 50 19:21 18.03.2020
6265 Clear 12 1026 62 10000 2.6 50 19:21 18.03.2020
6266 Clear 13 1026 58 10000 3.1 30 18:58 18.03.2020
6267 Clear 13 1026 58 10000 3.1 30 18:58 18.03.2020
6268 Clear 14 1026 58 10000 3.1 30 18:39 18.03.2020
6269 Clear 14 1026 54 10000 4.1 30 18:19 18.03.2020
6270 Clear 14 1026 54 10000 4.1 30 18:19 18.03.2020
6271 Clear 15 1025 51 10000 5.1 20 17:56 18.03.2020
6272 Clear 16 1026 48 10000 4.6 20 17:38 18.03.2020
6273 Clear 16 1026 48 10000 4.6 20 17:19 18.03.2020
6274 Clear 17 1026 48 10000 3.6 20 16:43 18.03.2020
6275 Clear 17 1026 45 10000 3.6 30 16:21 18.03.2020
6276 Clouds 17 1026 48 10000 3.1 50 15:59 18.03.2020
6277 Clouds 17 1026 48 10000 3.1 50 15:39 18.03.2020
6278 Clouds 17 1027 48 10000 2.6 360 15:20 18.03.2020
6279 Clouds 17 1027 48 10000 2.1 350 14:44 18.03.2020
6280 Clouds 17 1027 48 10000 2.6 360 14:21 18.03.2020
6281 Clouds 17 1028 44 10000 2.1 0 13:42 18.03.2020
6282 Clouds 16 1028 47 10000 2.1 320 13:20 18.03.2020
6283 Clouds 16 1028 51 10000 2.1 0 12:59 18.03.2020
6284 Clouds 16 1028 51 10000 2.1 0 12:41 18.03.2020
6285 Clouds 16 1029 51 10000 2.6 40 12:19 18.03.2020
6286 Clouds 15 1029 54 10000 1.5 350 11:39 18.03.2020
6287 Clouds 14 1029 58 10000 1.5 120 11:20 18.03.2020
6288 Clouds 13 1029 58 10000 1.5 120 10:58 18.03.2020
6289 Clouds 13 1029 58 10000 1.5 120 10:39 18.03.2020
6290 Clouds 13 1029 62 10000 1.5 0 10:20 18.03.2020
6291 Clouds 11 1029 66 10000 0.5 0 09:44 18.03.2020
6292 Clouds 9 1030 76 10000 1 0 09:26 18.03.2020
6293 Clouds 8 1030 76 10000 1 0 08:58 18.03.2020
6294 Clouds 7 1030 87 10000 1 180 08:39 18.03.2020
6295 Clouds 5 1029 100 10000 1.5 200 08:21 18.03.2020
6296 Clouds 4 1029 100 10000 0.5 0 07:49 18.03.2020
6297 Clouds 3 1029 93 10000 1 0 07:30 18.03.2020
6298 Clouds 3 1029 93 9000 1 180 06:50 18.03.2020
6299 Clouds 4 1029 93 9000 1 200 06:24 18.03.2020
6300 Clouds 4 1029 93 10000 1.5 180 05:35 18.03.2020
6301 Clouds 5 1029 93 10000 2.6 160 04:29 18.03.2020
6302 Clouds 5 1029 86 10000 2.1 150 02:51 18.03.2020
6303 Clouds 5 1030 93 10000 1.5 180 02:23 18.03.2020
6304 Rain 6 1030 100 10000 1 150 01:31 18.03.2020
6305 Clouds 6 1030 86 10000 1.5 170 00:42 18.03.2020
6306 Rain 7 1030 93 10000 1 150 00:20 18.03.2020
6307 Rain 7 1030 87 10000 0.39 226 23:40 17.03.2020
6308 Rain 8 1030 81 10000 1 200 23:19 17.03.2020
6309 Rain 8 1030 81 10000 2.1 160 22:42 17.03.2020
6310 Rain 9 1030 81 10000 2.1 160 22:24 17.03.2020
6311 Rain 9 1030 81 10000 1 140 21:42 17.03.2020
6312 Rain 9 1030 76 10000 1.5 190 21:22 17.03.2020
6313 Rain 9 1030 76 10000 1.5 190 20:56 17.03.2020
6314 Rain 10 1030 81 10000 2.6 160 20:37 17.03.2020
6315 Rain 10 1030 81 10000 2.1 140 20:19 17.03.2020
6316 Rain 10 1030 76 10000 2.6 110 19:41 17.03.2020
6317 Rain 11 1030 76 10000 2.1 120 19:18 17.03.2020
6318 Rain 11 1030 71 10000 1.5 110 18:57 17.03.2020
6319 Rain 12 1030 71 10000 1.5 110 18:39 17.03.2020
6320 Rain 12 1029 71 10000 1.5 100 18:21 17.03.2020
6321 -273 0 0 0 0 0 18:21 17.03.2020
6322 Rain 12 1029 66 10000 1.5 120 17:56 17.03.2020
6323 Rain 13 1029 66 10000 1.5 120 17:37 17.03.2020
6324 Rain 13 1029 66 10000 1.5 30 17:18 17.03.2020
6325 Rain 13 1029 62 10000 0.5 0 16:41 17.03.2020
6326 Rain 13 1030 66 10000 1 60 16:19 17.03.2020
6327 Rain 13 1030 62 10000 1 0 15:45 17.03.2020
6328 Rain 13 1030 62 10000 1 0 15:22 17.03.2020
6329 Rain 13 1030 71 10000 1 0 14:44 17.03.2020
6330 Clouds 12 1030 71 10000 1.5 20 14:26 17.03.2020
6331 Clouds 12 1030 71 10000 2.6 350 13:58 17.03.2020
6332 Clouds 12 1030 71 10000 2.6 350 13:40 17.03.2020
6333 Clouds 12 1030 50 10000 2.6 280 13:21 17.03.2020
6334 Clouds 12 1030 50 10000 2.6 230 12:44 17.03.2020
6335 Clouds 12 1030 50 10000 3.1 280 12:24 17.03.2020
6336 Clouds 12 1030 50 10000 3.6 280 11:56 17.03.2020
6337 Clouds 12 1030 50 10000 3.6 280 11:38 17.03.2020
6338 Clouds 12 1030 54 10000 3.6 290 11:20 17.03.2020
6339 Clouds 12 1030 50 10000 3.6 250 10:54 17.03.2020
6340 Clouds 11 1030 50 10000 3.6 250 10:36 17.03.2020
6341 Clouds 11 1030 58 10000 4.1 250 10:18 17.03.2020
6342 Clouds 10 1030 58 10000 4.1 240 09:44 17.03.2020
6343 Clouds 9 1030 66 10000 3.6 230 09:20 17.03.2020
6344 Clouds 8 1029 70 10000 4.6 230 08:57 17.03.2020
6345 Clouds 8 1029 70 10000 4.6 230 08:39 17.03.2020
6346 Clouds 7 1029 70 10000 4.6 230 08:18 17.03.2020
6347 Clouds 6 1028 75 10000 4.6 230 07:47 17.03.2020
6348 Clouds 6 1028 81 10000 3.6 220 07:20 17.03.2020
6349 Clouds 6 1028 80 10000 4.6 230 06:45 17.03.2020
6350 Clouds 6 1027 75 10000 4.6 220 06:24 17.03.2020
6351 Clouds 5 1027 86 10000 4.1 210 05:18 17.03.2020
6352 Clouds 4 1026 81 10000 1 0 03:27 17.03.2020
6353 Clouds 4 1026 82 10000 1.5 170 01:50 17.03.2020
6354 Clouds 4 1025 86 10000 1.5 160 01:30 17.03.2020
6355 Clouds 4 1025 86 10000 2.1 200 00:52 17.03.2020
6356 Clouds 4 1025 81 10000 2.1 190 23:53 16.03.2020
6357 Clouds 4 1025 86 10000 1 170 23:34 16.03.2020
6358 Clouds 5 1024 86 10000 2.1 160 22:58 16.03.2020
6359 Clouds 5 1024 86 10000 2.1 160 22:37 16.03.2020
6360 Clouds 6 1024 80 10000 1 180 22:19 16.03.2020
6361 Clouds 6 1024 93 10000 1.5 160 21:44 16.03.2020
6362 Clouds 6 1024 86 10000 1 0 21:25 16.03.2020
6363 Clouds 7 1024 75 10000 0.5 0 20:58 16.03.2020
6364 Clouds 7 1024 75 10000 0.5 0 20:39 16.03.2020
6365 Clouds 8 1023 81 10000 0.5 0 20:20 16.03.2020
6366 Clouds 10 1023 61 10000 1.5 150 19:46 16.03.2020
6367 Clouds 10 1023 61 10000 1.5 150 19:24 16.03.2020
6368 Clouds 12 1022 57 10000 1.5 120 18:59 16.03.2020
6369 Clouds 13 1022 47 10000 2.1 110 18:39 16.03.2020
6370 Clouds 14 1022 44 10000 3.1 50 18:19 16.03.2020
6371 Clouds 15 1022 38 10000 2.6 20 17:46 16.03.2020
6372 Clear 16 1022 36 10000 3.1 40 17:25 16.03.2020
6373 Clear 16 1022 36 10000 3.6 20 16:57 16.03.2020
6374 Clear 17 1022 36 10000 3.6 20 16:39 16.03.2020
6375 Clear 17 1022 36 10000 3.6 10 16:20 16.03.2020
6376 Clear 17 1021 38 10000 3.1 20 15:43 16.03.2020
6377 Clear 17 1021 38 10000 3.6 20 15:23 16.03.2020
6378 Clear 17 1021 46 10000 3.1 50 14:48 16.03.2020
6379 Clear 17 1021 36 10000 1.5 0 14:23 16.03.2020
6380 Clear 16 1021 36 10000 2.6 320 13:51 16.03.2020
6381 Clear 16 1021 38 10000 2.6 0 13:29 16.03.2020
6382 Clear 15 1021 41 10000 3.1 340 12:58 16.03.2020
6383 Clear 15 1021 41 10000 3.1 340 12:39 16.03.2020
6384 Clear 15 1021 38 10000 1.5 10 12:20 16.03.2020
6385 Clear 15 1021 38 10000 1.5 10 12:20 16.03.2020
6386 Clear 15 1021 38 10000 0.5 0 11:44 16.03.2020
6387 Clear 12 1021 49 10000 0.5 0 11:26 16.03.2020
6388 Clear 11 1021 49 10000 0.5 0 10:45 16.03.2020
6389 Clear 10 1021 43 10000 1.5 210 10:25 16.03.2020
6390 Clear 10 1020 46 10000 1.5 230 09:59 16.03.2020
6391 Clear 10 1020 46 10000 1.5 230 09:40 16.03.2020
6392 Clear 7 1020 65 10000 1.5 220 09:20 16.03.2020
6393 Clear 5 1019 75 10000 2.6 210 08:43 16.03.2020
6394 Clouds 2 1019 73 10000 2.6 240 08:23 16.03.2020
6395 Clouds 0 1019 86 10000 4.1 230 07:44 16.03.2020
6396 Clouds 0 1018 80 10000 2.6 230 07:21 16.03.2020
6397 Clouds -1 1018 74 10000 1.5 180 06:46 16.03.2020
6398 Clouds 0 1018 71 10000 2.6 210 06:23 16.03.2020
6399 Clouds 0 1017 71 10000 2.6 210 04:53 16.03.2020
6400 Clouds 1 1016 80 10000 1.5 200 01:49 16.03.2020
6401 Clouds 2 1016 86 10000 2.1 220 00:49 16.03.2020
6402 Clouds 2 1016 86 10000 2.1 220 00:30 16.03.2020
6403 Clouds 2 1016 86 10000 1 160 23:42 15.03.2020
6404 Clear 3 1016 80 10000 2.6 100 23:20 15.03.2020
6405 Clear 3 1016 70 10000 1 130 22:42 15.03.2020
6406 Clear 4 1016 86 10000 2.54 187 22:22 15.03.2020
6407 Clear 4 1016 86 10000 2.54 187 21:55 15.03.2020
6408 Clear 5 1016 70 10000 1 0 21:37 15.03.2020
6409 Clear 5 1016 75 10000 0.5 0 21:18 15.03.2020
6410 Clear 6 1016 75 10000 2.54 187 20:42 15.03.2020
6411 Clear 6 1016 74 10000 1.5 110 20:20 15.03.2020
6412 Clear 7 1016 74 10000 1.5 110 19:56 15.03.2020
6413 Clear 8 1016 74 10000 1.5 120 19:38 15.03.2020
6414 Clear 8 1016 74 10000 3.1 110 19:19 15.03.2020
6415 Clear 9 1016 74 10000 3.1 110 18:55 15.03.2020
6416 Clear 10 1016 53 10000 2.1 80 18:36 15.03.2020
6417 Clear 11 1016 74 10000 2.6 40 18:18 15.03.2020
6418 Clear 12 1016 37 10000 1 0 17:40 15.03.2020
6419 Clear 13 1016 33 10000 1 0 17:21 15.03.2020
6420 Clear 13 1016 35 10000 1 0 16:58 15.03.2020
6421 Clear 13 1016 35 10000 1 0 16:38 15.03.2020
6422 Clear 13 1016 35 10000 1 0 16:19 15.03.2020
6423 Clear 13 1016 37 10000 1.5 0 15:45 15.03.2020
6424 Clear 13 1016 37 10000 1.5 0 15:27 15.03.2020
6425 Clear 13 1017 37 10000 1.5 0 14:57 15.03.2020
6426 Clear 13 1017 37 10000 1.5 0 14:38 15.03.2020
6427 Clear 12 1017 40 10000 2.1 0 14:18 15.03.2020
6428 Clear 12 1017 40 10000 2.1 0 14:18 15.03.2020
6429 Clear 12 1017 43 10000 2.6 80 13:54 15.03.2020
6430 Clear 12 1017 43 10000 2.6 80 13:36 15.03.2020
6431 Clouds 11 1017 40 10000 3.1 90 13:18 15.03.2020
6432 Clouds 11 1017 40 10000 3.1 90 13:18 15.03.2020
6433 Clouds 10 1018 43 10000 4.6 80 12:39 15.03.2020
6434 Clouds 10 1018 46 10000 4.1 70 12:21 15.03.2020
6435 Clouds 9 1019 45 10000 4.1 70 11:43 15.03.2020
6436 Clouds 8 1019 49 10000 4.1 80 11:24 15.03.2020
6437 Clouds 7 1019 56 10000 4.6 80 10:58 15.03.2020
6438 Clouds 7 1019 56 10000 4.6 80 10:39 15.03.2020
6439 Clouds 7 1020 60 10000 3.6 90 10:21 15.03.2020
6440 Clouds 6 1021 64 10000 6.7 100 09:57 15.03.2020
6441 Clouds 4 1020 56 10000 3.6 90 09:36 15.03.2020
6442 Clouds 4 1020 56 10000 3.1 90 09:18 15.03.2020
6443 Clouds 2 1021 56 10000 2.1 100 08:41 15.03.2020
6444 Clear 1 1021 86 10000 1.5 30 08:19 15.03.2020
6445 Clear 0 1021 92 10000 1 20 07:48 15.03.2020
6446 Clear -1 1021 100 4800 1.73 110 07:22 15.03.2020
6447 Clear -1 1021 92 9000 1.73 110 06:44 15.03.2020
6448 Clear -1 1023 87 10000 3.1 80 05:48 15.03.2020
6449 Clear -1 1021 92 10000 1.5 100 04:57 15.03.2020
6450 Clear -1 1021 92 10000 1.5 100 04:38 15.03.2020
6451 Clear -1 1022 100 10000 1.5 110 04:20 15.03.2020
6452 Clear 0 1022 92 10000 1.5 150 03:19 15.03.2020
6453 Clouds 0 1022 86 10000 1.5 170 02:23 15.03.2020
6454 Clouds 1 1022 100 10000 2.1 170 00:59 15.03.2020
6455 Clouds 1 1022 100 10000 2.1 170 00:40 15.03.2020
6456 Clouds 1 1022 88 10000 1.5 140 00:19 15.03.2020
6457 Clouds 2 1022 88 10000 1 0 23:40 14.03.2020
6458 Clouds 2 1022 82 10000 0.5 0 23:20 14.03.2020
6459 Clouds 2 1022 82 10000 1 0 22:56 14.03.2020
6460 Clouds 2 1022 82 10000 1 0 22:38 14.03.2020
6461 Clouds 2 1022 86 10000 1 0 22:20 14.03.2020
6462 Clouds 3 1022 86 10000 1 0 21:55 14.03.2020
6463 Clouds 3 1022 82 10000 1.48 143 21:36 14.03.2020
6464 Clouds 3 1022 82 10000 1.48 143 21:36 14.03.2020
6465 Clouds 4 1022 74 10000 1.5 160 21:18 14.03.2020
6466 Clouds 4 1022 74 10000 1.5 160 20:58 14.03.2020
6467 Clouds 4 1022 80 10000 0.5 0 20:39 14.03.2020
6468 Rain 5 1022 60 10000 1.5 70 20:18 14.03.2020
6469 Rain 6 1022 56 10000 1.5 10 19:42 14.03.2020
6470 Clouds 6 1021 56 10000 2.6 360 19:24 14.03.2020
6471 Clouds 7 1021 56 10000 3.6 10 18:41 14.03.2020
6472 Rain 7 1021 56 10000 3.6 20 18:22 14.03.2020
6473 Rain 8 1020 52 10000 3.6 30 17:55 14.03.2020
6474 Clouds 8 1021 52 10000 3.1 50 17:37 14.03.2020
6475 Clouds 8 1020 45 10000 3.6 30 17:19 14.03.2020
6476 Clouds 9 1020 45 10000 3.6 20 16:40 14.03.2020
6477 Clouds 9 1020 45 10000 3.6 30 16:22 14.03.2020
6478 Clouds 9 1020 45 10000 4.1 20 15:54 14.03.2020
6479 Rain 9 1020 49 10000 4.1 30 15:26 14.03.2020
6480 Rain 9 1020 49 10000 4.6 20 14:55 14.03.2020
6481 Rain 9 1020 49 10000 4.6 20 14:36 14.03.2020
6482 Clouds 9 1020 49 10000 4.1 20 14:18 14.03.2020
6483 Clouds 9 1020 49 10000 4.1 10 13:42 14.03.2020
6484 Clouds 9 1020 52 10000 5.1 30 13:23 14.03.2020
6485 Clouds 9 1020 52 10000 4.1 30 12:47 14.03.2020
6486 Clouds 9 1020 49 10000 3.1 30 12:27 14.03.2020
6487 Clouds 8 1020 52 10000 2.6 70 11:59 14.03.2020
6488 Clouds 8 1020 52 10000 2.6 70 11:39 14.03.2020
6489 Clouds 8 1020 56 10000 3.6 30 11:20 14.03.2020
6490 Clouds 7 1020 60 10000 4.1 60 10:46 14.03.2020
6491 Clouds 7 1020 64 10000 4.1 40 10:27 14.03.2020
6492 Clouds 5 1020 64 10000 0.5 0 09:58 14.03.2020
6493 Clouds 4 1020 64 10000 0.5 0 09:39 14.03.2020
6494 Clouds 3 1020 64 10000 2.42 91 09:20 14.03.2020
6495 Clouds 2 1020 86 10000 2.42 91 08:45 14.03.2020
6496 Clouds 2 1020 86 10000 2.42 91 08:45 14.03.2020
6497 Clouds 0 1020 86 10000 1.27 76 08:23 14.03.2020
6498 Clouds -1 1020 100 10000 0.5 190 07:39 14.03.2020
6499 Clouds -1 1020 92 10000 1 160 07:21 14.03.2020
6500 Clouds -1 1020 92 10000 1 190 06:41 14.03.2020
6501 Clouds -1 1020 92 10000 1.5 160 05:58 14.03.2020
6502 Clouds -1 1020 92 10000 1.5 170 04:53 14.03.2020
6503 Clouds 0 1020 92 10000 0.5 0 03:34 14.03.2020
6504 Clouds 0 1021 86 10000 1 0 02:43 14.03.2020
6505 Clouds 0 1021 86 10000 1.5 150 01:42 14.03.2020
6506 Clouds 1 1021 87 10000 3.6 150 00:23 14.03.2020
6507 Clouds 2 1021 86 10000 1.5 160 23:42 13.03.2020
6508 Clear 2 1021 80 10000 1 0 23:23 13.03.2020
6509 Clear 3 1021 86 10000 1 250 22:44 13.03.2020
6510 Clear 3 1021 84 10000 1 0 22:22 13.03.2020
6511 Clear 3 1021 86 10000 1 0 21:41 13.03.2020
6512 Clear 4 1021 80 10000 1 0 21:19 13.03.2020
6513 Clear 5 1021 74 10000 2.1 260 20:42 13.03.2020
6514 Clouds 5 1020 65 10000 2.6 250 20:23 13.03.2020
6515 Clouds 5 1020 65 10000 2.6 250 19:58 13.03.2020
6516 Clouds 6 1020 60 10000 2.1 300 19:39 13.03.2020
6517 Clouds 6 1020 65 10000 3.1 210 19:19 13.03.2020
6518 Clouds 7 1020 56 10000 4.1 230 18:44 13.03.2020
6519 Clouds 8 1020 49 10000 5.7 240 18:23 13.03.2020
6520 Clouds 9 1019 52 10000 5.1 240 17:43 13.03.2020
6521 Clouds 10 1019 52 10000 5.1 240 17:22 13.03.2020
6522 Clouds 10 1020 49 10000 6.7 250 16:59 13.03.2020
6523 Clouds 10 1020 49 10000 6.7 250 16:39 13.03.2020
6524 Clouds 10 1019 49 10000 7.2 220 16:21 13.03.2020
6525 Clouds 10 1020 52 10000 6.7 220 15:46 13.03.2020
6526 Clouds 10 1019 46 10000 7.2 230 15:24 13.03.2020
6527 Clouds 10 1019 46 10000 7.2 230 14:59 13.03.2020
6528 Clouds 10 1019 39 10000 7.7 240 14:40 13.03.2020
6529 Clouds 10 1020 60 10000 6.7 230 14:22 13.03.2020
6530 Clouds 10 1020 60 10000 6.7 230 13:55 13.03.2020
6531 Clouds 10 1020 45 10000 7.2 250 13:37 13.03.2020
6532 Clouds 9 1020 52 10000 6.7 240 13:18 13.03.2020
6533 Clouds 9 1020 61 10000 9.3 240 12:39 13.03.2020
6534 Clouds 8 1020 60 10000 6.2 260 12:21 13.03.2020
6535 Clouds 8 1020 75 10000 5.7 240 11:57 13.03.2020
6536 Clouds 7 1020 75 10000 5.7 240 11:37 13.03.2020
6537 Clouds 7 1020 81 10000 4.6 240 11:19 13.03.2020
6538 Clouds 6 1020 86 10000 4.1 230 10:47 13.03.2020
6539 Clouds 6 1020 86 10000 4.1 230 10:26 13.03.2020
6540 Rain 5 1020 93 10000 4.1 220 09:57 13.03.2020
6541 Rain 5 1020 60 10000 5.7 270 09:38 13.03.2020
6542 Rain 5 1020 86 7000 4.1 290 09:20 13.03.2020
6543 Rain 5 1019 93 6000 6.2 320 08:44 13.03.2020
6544 Drizzle 5 1018 93 10000 6.2 220 08:22 13.03.2020
6545 Clouds 5 1018 86 10000 5.1 210 07:47 13.03.2020
6546 Clouds 5 1018 86 10000 5.1 220 07:28 13.03.2020
6547 Rain 6 1017 86 10000 5.7 210 06:47 13.03.2020
6548 Rain 6 1017 86 10000 3.6 220 06:28 13.03.2020
6549 Rain 6 1017 81 10000 4.1 240 05:53 13.03.2020
6550 Rain 6 1017 75 10000 4.6 260 05:20 13.03.2020
6551 Rain 6 1017 81 10000 4.6 250 04:37 13.03.2020
6552 Rain 6 1017 93 10000 5.1 220 03:31 13.03.2020
6553 Rain 7 1016 87 10000 5.1 280 01:46 13.03.2020
6554 Rain 8 1016 87 8000 6.7 300 01:19 13.03.2020
6555 Rain 8 1015 87 10000 4.6 320 00:53 13.03.2020
6556 Rain 9 1015 81 10000 3.1 300 00:24 13.03.2020
6557 Rain 9 1015 87 10000 2.1 320 23:50 12.03.2020
6558 Rain 10 1015 87 10000 1.5 240 23:27 12.03.2020
6559 Rain 10 1015 87 10000 1 0 22:56 12.03.2020
6560 Rain 10 1015 87 10000 1 0 22:38 12.03.2020
6561 Rain 10 1015 87 10000 2.6 320 22:20 12.03.2020
6562 Rain 10 1015 87 10000 3.1 330 21:44 12.03.2020
6563 Rain 10 1015 76 10000 4.1 320 21:26 12.03.2020
6564 Clouds 11 1014 81 10000 5.1 320 20:57 12.03.2020
6565 Rain 11 1014 62 10000 5.7 240 20:37 12.03.2020
6566 Rain 11 1014 62 10000 5.7 240 20:37 12.03.2020
6567 Rain 12 1014 62 10000 6.2 230 20:18 12.03.2020
6568 Rain 13 1014 62 10000 6.7 230 19:40 12.03.2020
6569 Rain 13 1014 66 10000 5.7 220 19:20 12.03.2020
6570 Clouds 13 1014 66 10000 5.7 220 18:44 12.03.2020
6571 Clouds 14 1013 66 10000 7.7 230 18:24 12.03.2020
6572 Clouds 14 1013 62 10000 6.7 240 17:57 12.03.2020
6573 Clouds 14 1013 62 10000 6.7 240 17:38 12.03.2020
6574 Clouds 15 1013 62 10000 7.7 250 17:19 12.03.2020
6575 Clouds 15 1014 62 10000 8.7 240 16:55 12.03.2020
6576 Clouds 15 1014 62 10000 8.7 240 16:37 12.03.2020
6577 Clouds 15 1013 58 10000 9.3 240 16:18 12.03.2020
6578 Clouds 16 1014 58 10000 10.8 250 15:45 12.03.2020
6579 Clouds 16 1014 58 10000 10.8 250 15:26 12.03.2020
6580 Clouds 16 1014 59 10000 10.8 250 14:41 12.03.2020
6581 Clouds 16 1014 59 10000 10.8 250 14:23 12.03.2020
6582 Clouds 16 1015 58 10000 11.8 250 13:57 12.03.2020
6583 Clouds 15 1015 58 10000 11.8 250 13:36 12.03.2020
6584 Clouds 15 1015 55 10000 11.8 250 13:18 12.03.2020
6585 Clouds 15 1015 58 10000 10.3 250 12:41 12.03.2020
6586 Clouds 15 1015 58 10000 8.7 260 12:22 12.03.2020
6587 Clouds 15 1015 58 10000 10.3 250 11:57 12.03.2020
6588 Clouds 15 1015 58 10000 10.3 250 11:57 12.03.2020
6589 Clouds 15 1016 62 10000 10.3 240 11:38 12.03.2020
6590 Clouds 14 1016 62 10000 10.3 240 11:20 12.03.2020
6591 Clouds 14 1016 58 10000 7.7 240 10:58 12.03.2020
6592 Clouds 14 1016 58 10000 7.7 240 10:40 12.03.2020
6593 Clouds 13 1016 62 10000 7.7 240 10:22 12.03.2020
6594 Clouds 13 1015 66 10000 7.2 240 09:46 12.03.2020
6595 Clouds 12 1015 66 10000 5.7 240 09:27 12.03.2020
6596 Clouds 12 1015 66 10000 5.7 230 08:45 12.03.2020
6597 Clouds 11 1015 66 10000 5.1 230 08:20 12.03.2020
6598 Clouds 11 1015 66 10000 5.1 230 07:59 12.03.2020
6599 Clouds 9 1015 76 10000 4.6 220 07:41 12.03.2020
6600 Clouds 9 1015 75 10000 4.6 230 07:21 12.03.2020
6601 Clouds 9 1015 75 10000 4.6 230 07:21 12.03.2020
6602 Clouds 9 1015 81 10000 4.1 230 05:57 12.03.2020
6603 Clouds 8 1015 87 10000 5.1 220 05:27 12.03.2020
6604 Clear 9 1017 81 10000 3.1 230 02:43 12.03.2020
6605 Clouds 9 1017 81 10000 5.1 240 01:39 12.03.2020
6606 Clouds 9 1017 87 10000 4.6 230 01:20 12.03.2020
6607 Clouds 9 1018 81 10000 4.6 230 00:41 12.03.2020
6608 Clouds 10 1018 76 10000 4.1 230 23:56 11.03.2020
6609 Clouds 10 1018 71 10000 3.6 220 23:27 11.03.2020
6610 Clouds 10 1018 71 10000 4.1 210 22:55 11.03.2020
6611 Clouds 10 1018 71 10000 4.1 210 22:37 11.03.2020
6612 Clouds 11 1019 81 10000 3.6 220 22:18 11.03.2020
6613 Clouds 11 1019 81 10000 4.1 220 21:56 11.03.2020
6614 Clouds 11 1019 81 10000 4.1 220 21:37 11.03.2020
6615 Clouds 11 1019 81 10000 3.6 210 21:19 11.03.2020
6616 Clouds 11 1018 76 10000 3.1 250 20:55 11.03.2020
6617 Clouds 11 1019 81 10000 3.6 210 20:55 11.03.2020
6618 Rain 11 1018 76 10000 3.1 250 20:36 11.03.2020
6619 Rain 11 1019 76 10000 3.1 220 20:18 11.03.2020
6620 Rain 12 1018 76 10000 4.1 240 19:42 11.03.2020
6621 Rain 13 1019 71 10000 3.1 220 19:23 11.03.2020
6622 Rain 13 1018 66 10000 4.6 230 18:56 11.03.2020
6623 Rain 13 1018 66 10000 4.6 230 18:37 11.03.2020
6624 Rain 14 1018 66 10000 5.7 240 18:18 11.03.2020
6625 Clouds 14 1018 62 10000 6.2 240 17:54 11.03.2020
6626 Clouds 14 1018 62 10000 7.2 240 17:36 11.03.2020
6627 Clouds 15 1018 62 10000 7.2 240 17:18 11.03.2020
6628 Clouds 15 1018 62 10000 8.2 240 16:41 11.03.2020
6629 Clouds 15 1018 62 10000 8.7 240 16:19 11.03.2020
6630 Clouds 15 1018 67 10000 9.3 240 15:43 11.03.2020
6631 Clouds 15 1018 67 10000 8.7 240 15:23 11.03.2020
6632 Clouds 15 1018 67 10000 8.7 240 15:23 11.03.2020
6633 Clouds 15 1018 67 10000 9.8 240 14:46 11.03.2020
6634 Clouds 15 1018 67 10000 9.8 240 14:25 11.03.2020
6635 Clouds 14 1018 66 10000 10.3 240 13:59 11.03.2020
6636 Clouds 14 1017 67 10000 8.7 260 13:40 11.03.2020
6637 Clouds 14 1018 66 10000 7.7 250 13:22 11.03.2020
6638 Clouds 14 1019 66 10000 9.3 250 12:56 11.03.2020
6639 Clouds 14 1019 66 10000 9.3 250 12:38 11.03.2020
6640 Clouds 14 1018 67 10000 9.3 240 12:19 11.03.2020
6641 Clouds 13 1018 66 10000 7.2 260 11:41 11.03.2020
6642 Clouds 13 1018 71 10000 11.3 240 11:20 11.03.2020
6643 Clouds 13 1018 71 10000 10.8 250 10:47 11.03.2020
6644 Clouds 12 1018 71 10000 11.3 230 10:21 11.03.2020
6645 Clouds 12 1018 71 10000 11.3 230 09:59 11.03.2020
6646 Clouds 12 1018 76 10000 8.7 230 09:40 11.03.2020
6647 Clouds 11 1018 76 10000 7.7 240 09:21 11.03.2020
6648 Clouds 11 1018 76 10000 8.7 250 08:43 11.03.2020
6649 Clouds 11 1017 81 10000 9.8 240 08:25 11.03.2020
6650 Clouds 10 1017 81 10000 9.3 240 07:47 11.03.2020
6651 Clouds 10 1017 81 10000 10.8 240 07:21 11.03.2020
6652 Rain 10 1017 81 10000 8.7 240 06:50 11.03.2020
6653 Rain 10 1017 81 10000 8.7 240 06:31 11.03.2020
6654 Rain 10 1016 81 10000 10.3 240 05:32 11.03.2020
6655 Rain 10 1015 81 10000 10.8 240 03:26 11.03.2020
6656 Rain 10 1016 81 10000 9.8 240 03:26 11.03.2020
6657 Rain 10 1016 81 10000 9.8 240 03:26 11.03.2020
6658 Rain 10 1016 76 10000 10.8 240 01:54 11.03.2020
6659 Rain 9 1016 76 10000 9.3 240 01:24 11.03.2020
6660 Rain 9 1016 81 10000 9.3 240 00:44 11.03.2020
6661 Rain 9 1016 81 10000 10.8 240 23:50 10.03.2020
6662 Rain 9 1016 81 10000 9.3 240 23:28 10.03.2020
6663 Rain 9 1015 81 10000 9.8 230 22:58 10.03.2020
6664 Rain 8 1015 81 10000 9.8 230 22:38 10.03.2020
6665 Rain 8 1015 87 10000 10.3 230 22:19 10.03.2020
6666 Rain 8 1015 87 10000 10.3 230 22:19 10.03.2020
6667 Rain 8 1015 87 10000 9.8 240 21:56 10.03.2020
6668 Rain 7 1015 87 10000 9.8 240 21:38 10.03.2020
6669 Rain 8 1015 87 10000 9.8 240 21:38 10.03.2020
6670 Rain 7 1015 93 10000 8.7 230 21:19 10.03.2020
6671 Rain 7 1015 93 10000 8.7 230 20:56 10.03.2020
6672 Rain 7 1015 87 10000 8.7 230 20:38 10.03.2020
6673 Rain 7 1014 87 10000 9.3 230 20:18 10.03.2020
6674 Rain 6 1014 93 8000 8.2 230 19:55 10.03.2020
6675 Rain 6 1014 93 8000 8.2 230 19:36 10.03.2020
6676 Rain 6 1014 93 8000 8.2 230 19:18 10.03.2020
6677 Rain 6 1014 87 9000 8.7 220 18:42 10.03.2020
6678 Rain 6 1014 87 8000 8.7 230 18:23 10.03.2020
6679 Rain 6 1014 93 8000 8.7 230 17:56 10.03.2020
6680 Rain 6 1014 93 8000 8.7 230 17:38 10.03.2020
6681 Rain 6 1013 93 8000 8.2 230 17:20 10.03.2020
6682 Rain 6 1013 93 8000 8.2 230 16:38 10.03.2020
6683 Rain 6 1013 93 8000 8.2 230 16:38 10.03.2020
6684 Rain 5 1013 93 8000 8.7 230 16:18 10.03.2020
6685 Rain 5 1013 93 8000 8.7 230 15:55 10.03.2020
6686 Rain 5 1013 93 8000 9.3 230 15:36 10.03.2020
6687 Rain 5 1013 93 8000 8.2 230 15:18 10.03.2020
6688 Rain 5 1013 86 8000 8.2 220 14:40 10.03.2020
6689 Rain 4 1014 93 8000 7.7 220 14:19 10.03.2020
6690 Rain 4 1014 86 10000 8.2 220 13:57 10.03.2020
6691 Rain 4 1014 93 8000 4.6 190 13:37 10.03.2020
6692 Rain 4 1014 93 8000 5.1 180 13:19 10.03.2020
6693 Rain 4 1015 93 8000 5.7 190 12:39 10.03.2020
6694 Rain 4 1015 93 8000 5.1 190 12:19 10.03.2020
6695 Rain 4 1015 86 8000 6.2 190 11:43 10.03.2020
6696 Rain 4 1016 80 10000 9.3 210 11:25 10.03.2020
6697 Rain 4 1015 74 10000 8.7 220 10:59 10.03.2020
6698 Rain 4 1015 74 10000 8.7 220 10:41 10.03.2020
6699 Rain 4 1015 74 10000 8.7 220 10:41 10.03.2020
6700 Rain 4 1016 69 10000 8.7 230 10:22 10.03.2020
6701 Rain 4 1016 69 10000 8.7 230 09:57 10.03.2020
6702 Clouds 4 1016 65 10000 7.7 230 09:39 10.03.2020
6703 Clouds 4 1016 69 10000 4.6 230 09:18 10.03.2020
6704 Clouds 4 1016 69 10000 4.6 220 08:46 10.03.2020
6705 Clouds 4 1016 69 10000 4.6 220 08:28 10.03.2020
6706 Clouds 3 1016 69 10000 6.2 220 07:50 10.03.2020
6707 Clouds 3 1016 69 10000 6.2 220 07:31 10.03.2020
6708 Clouds 3 1017 90 10000 4.6 220 06:45 10.03.2020
6709 Clouds 2 1017 90 10000 5.1 220 06:27 10.03.2020
6710 Clouds 2 1017 74 10000 4.6 230 05:41 10.03.2020
6711 Clouds 2 1017 94 10000 5.1 220 04:40 10.03.2020
6712 Clouds 2 1018 94 10000 4.6 220 03:41 10.03.2020
6713 Clouds 2 1018 94 10000 5.1 230 02:26 10.03.2020
6714 Clouds 2 1019 95 10000 4.1 220 01:25 10.03.2020
6715 Clouds 3 1019 95 10000 2.6 200 00:42 10.03.2020
6716 Clouds 3 1019 86 10000 4.6 230 00:23 10.03.2020
6717 Clouds 3 1019 86 10000 4.6 240 23:41 09.03.2020
6718 Rain 4 1019 86 10000 4.1 230 23:21 09.03.2020
6719 Rain 4 1019 86 10000 4.1 230 22:43 09.03.2020
6720 Rain 4 1018 93 10000 4.1 220 22:22 09.03.2020
6721 Rain 4 1018 93 10000 4.1 220 21:59 09.03.2020
6722 Rain 4 1019 93 10000 3.6 230 21:40 09.03.2020
6723 Rain 4 1018 93 10000 5.1 260 21:21 09.03.2020
6724 Rain 4 1018 93 10000 5.1 260 20:56 09.03.2020
6725 Rain 4 1018 86 10000 6.2 250 20:38 09.03.2020
6726 Rain 5 1018 80 10000 5.7 250 20:20 09.03.2020
6727 Rain 5 1018 86 8000 5.7 230 19:45 09.03.2020
6728 Rain 6 1017 86 10000 3.6 220 19:25 09.03.2020
6729 Rain 6 1017 86 10000 3.6 220 18:58 09.03.2020
6730 Rain 6 1017 86 10000 3.1 220 18:38 09.03.2020
6731 Rain 6 1016 80 10000 3.1 230 18:20 09.03.2020
6732 Rain 6 1016 80 10000 3.1 230 17:58 09.03.2020
6733 Rain 7 1016 81 10000 3.6 240 17:38 09.03.2020
6734 Rain 7 1016 86 10000 3.1 250 17:20 09.03.2020
6735 Rain 7 1015 81 10000 5.1 240 16:58 09.03.2020
6736 Rain 7 1015 81 10000 5.1 240 16:40 09.03.2020
6737 Rain 7 1015 81 10000 5.1 240 16:40 09.03.2020
6738 Clouds 7 1015 81 10000 4.1 270 16:22 09.03.2020
6739 Clouds 7 1015 81 10000 4.1 270 16:22 09.03.2020
6740 Rain 7 1015 86 10000 6.7 250 15:58 09.03.2020
6741 Rain 7 1015 75 10000 4.6 290 15:39 09.03.2020
6742 Rain 7 1015 75 10000 4.6 290 15:20 09.03.2020
6743 Rain 7 1014 75 10000 3.6 280 14:55 09.03.2020
6744 Rain 7 1014 75 10000 3.6 280 14:37 09.03.2020
6745 Rain 7 1015 81 10000 7.2 250 14:18 09.03.2020
6746 Clouds 7 1015 81 10000 5.7 280 13:55 09.03.2020
6747 Rain 7 1015 87 10000 5.1 280 13:37 09.03.2020
6748 Rain 6 1015 87 10000 5.1 280 13:18 09.03.2020
6749 Rain 6 1015 75 10000 5.7 250 12:43 09.03.2020
6750 Rain 6 1014 86 10000 6.2 280 12:22 09.03.2020
6751 Drizzle 6 1014 86 10000 5.7 270 11:55 09.03.2020
6752 -273 0 0 0 0 0 11:37 09.03.2020
6753 Rain 6 1014 86 10000 6.2 250 11:19 09.03.2020
6754 Rain 6 1014 86 10000 8.2 250 10:55 09.03.2020
6755 Drizzle 6 1014 86 10000 6.2 260 10:36 09.03.2020
6756 Rain 6 1013 93 10000 5.7 270 10:18 09.03.2020
6757 Rain 6 1012 93 10000 4.1 230 09:39 09.03.2020
6758 Rain 6 1012 93 10000 4.1 230 09:39 09.03.2020
6759 Rain 6 1012 93 10000 4.1 230 09:21 09.03.2020
6760 Rain 5 1012 86 10000 4.1 220 08:44 09.03.2020
6761 Rain 5 1012 86 10000 4.6 220 08:26 09.03.2020
6762 Rain 4 1012 80 10000 5.1 210 07:42 09.03.2020
6763 Rain 4 1012 93 10000 4.6 220 07:22 09.03.2020
6764 Rain 4 1012 93 10000 4.6 220 07:22 09.03.2020
6765 Rain 4 1011 86 10000 4.6 190 06:46 09.03.2020
6766 Rain 4 1012 93 10000 3.6 220 06:28 09.03.2020
6767 Rain 4 1012 93 10000 5.1 230 05:58 09.03.2020
6768 Rain 4 1012 86 10000 3.1 190 05:40 09.03.2020
6769 Clouds 4 1012 80 10000 6.7 250 04:46 09.03.2020
6770 Clouds 3 1012 70 10000 4.6 270 04:23 09.03.2020
6771 Clouds 3 1012 69 10000 4.1 220 03:46 09.03.2020
6772 Clouds 2 1013 74 10000 2.1 220 02:37 09.03.2020
6773 Clouds 2 1013 60 10000 3.6 180 00:42 09.03.2020
6774 Clouds 2 1013 80 10000 1.5 210 00:24 09.03.2020
6775 Clouds 2 1013 86 10000 2.1 200 23:55 08.03.2020
6776 Clouds 3 1013 80 10000 1.5 1